<?xml version='1.0' encoding='UTF-8'?><gpx version="1.1" creator="JPX - https://github.com/jenetics/jpx" xmlns="http://www.topografix.com/GPX/1/1"><trk><trkseg><trkpt lat="44.9975425" lon="9.7885322"><ele>65.14285714285715</ele><time>2026-03-29T06:36:19.437Z</time></trkpt><trkpt lat="44.9974696" lon="9.7885271"><ele>65.28571428571429</ele><time>2026-03-29T06:36:24.448Z</time></trkpt><trkpt lat="44.9974062" lon="9.7885674"><ele>65.42857142857143</ele><time>2026-03-29T06:36:34.395Z</time></trkpt><trkpt lat="44.9973509" lon="9.7884781"><ele>65.57142857142858</ele><time>2026-03-29T06:39:01.464Z</time></trkpt><trkpt lat="44.9972981" lon="9.7885391"><ele>65.71428571428572</ele><time>2026-03-29T06:39:07.472Z</time></trkpt><trkpt lat="44.9973468" lon="9.7886105"><ele>65.85714285714286</ele><time>2026-03-29T06:39:20.479Z</time></trkpt><trkpt lat="44.9974166" lon="9.7886663"><ele>66.0</ele><time>2026-03-29T06:39:22.463Z</time></trkpt><trkpt lat="44.9973843" lon="9.7885858"><ele>66.0</ele><time>2026-03-29T06:39:42.474Z</time></trkpt><trkpt lat="44.9973339" lon="9.7885261"><ele>66.0</ele><time>2026-03-29T06:39:49.485Z</time></trkpt><trkpt lat="44.9972792" lon="9.788474"><ele>66.0</ele><time>2026-03-29T06:39:54.494Z</time></trkpt><trkpt lat="44.9972411" lon="9.7883967"><ele>66.0</ele><time>2026-03-29T06:40:01.482Z</time></trkpt><trkpt lat="44.9972317" lon="9.7882991"><ele>66.0</ele><time>2026-03-29T06:40:13.501Z</time></trkpt><trkpt lat="44.9972406" lon="9.7881956"><ele>66.0</ele><time>2026-03-29T06:40:17.495Z</time></trkpt><trkpt lat="44.9972119" lon="9.7880982"><ele>66.0</ele><time>2026-03-29T06:40:20.479Z</time></trkpt><trkpt lat="44.9971744" lon="9.7879764"><ele>66.14285714285714</ele><time>2026-03-29T06:40:23.484Z</time></trkpt><trkpt lat="44.9971885" lon="9.7878836"><ele>66.28571428571429</ele><time>2026-03-29T06:40:25.482Z</time></trkpt><trkpt lat="44.9972344" lon="9.7878056"><ele>66.42857142857143</ele><time>2026-03-29T06:40:27.483Z</time></trkpt><trkpt lat="44.9972667" lon="9.7877128"><ele>66.57142857142857</ele><time>2026-03-29T06:40:29.49Z</time></trkpt><trkpt lat="44.9972947" lon="9.7876146"><ele>66.71428571428571</ele><time>2026-03-29T06:40:31.482Z</time></trkpt><trkpt lat="44.9973297" lon="9.7875239"><ele>66.85714285714286</ele><time>2026-03-29T06:41:04.491Z</time></trkpt><trkpt lat="44.9972997" lon="9.7876272"><ele>67.0</ele><time>2026-03-29T06:41:08.487Z</time></trkpt><trkpt lat="44.99724" lon="9.787704"><ele>67.0</ele><time>2026-03-29T06:41:11.493Z</time></trkpt><trkpt lat="44.9972027" lon="9.787781"><ele>67.0</ele><time>2026-03-29T06:41:13.476Z</time></trkpt><trkpt lat="44.9971628" lon="9.7878551"><ele>67.0</ele><time>2026-03-29T06:41:15.493Z</time></trkpt><trkpt lat="44.9971116" lon="9.7879312"><ele>67.0</ele><time>2026-03-29T06:41:17.481Z</time></trkpt><trkpt lat="44.997017" lon="9.7879121"><ele>67.0</ele><time>2026-03-29T06:41:20.485Z</time></trkpt><trkpt lat="44.9969598" lon="9.7878251"><ele>67.0</ele><time>2026-03-29T06:41:22.495Z</time></trkpt><trkpt lat="44.9969029" lon="9.7877606"><ele>67.0</ele><time>2026-03-29T06:41:24.479Z</time></trkpt><trkpt lat="44.9968536" lon="9.7876932"><ele>67.0</ele><time>2026-03-29T06:41:26.488Z</time></trkpt><trkpt lat="44.9967959" lon="9.7876225"><ele>67.0</ele><time>2026-03-29T06:41:28.487Z</time></trkpt><trkpt lat="44.9967346" lon="9.7875383"><ele>67.0</ele><time>2026-03-29T06:41:30.485Z</time></trkpt><trkpt lat="44.996681" lon="9.7874567"><ele>67.0</ele><time>2026-03-29T06:41:32.497Z</time></trkpt><trkpt lat="44.9966184" lon="9.7873945"><ele>67.0</ele><time>2026-03-29T06:41:34.492Z</time></trkpt><trkpt lat="44.9965544" lon="9.7873224"><ele>66.8</ele><time>2026-03-29T06:41:36.497Z</time></trkpt><trkpt lat="44.9964773" lon="9.7872389"><ele>66.6</ele><time>2026-03-29T06:41:38.489Z</time></trkpt><trkpt lat="44.9963978" lon="9.7871447"><ele>66.39999999999999</ele><time>2026-03-29T06:41:40.484Z</time></trkpt><trkpt lat="44.9963479" lon="9.7870528"><ele>66.2</ele><time>2026-03-29T06:41:42.501Z</time></trkpt><trkpt lat="44.9962814" lon="9.7869966"><ele>66.0</ele><time>2026-03-29T06:41:44.489Z</time></trkpt><trkpt lat="44.9962083" lon="9.7869116"><ele>66.2</ele><time>2026-03-29T06:41:46.459Z</time></trkpt><trkpt lat="44.9961338" lon="9.7868349"><ele>66.39999999999999</ele><time>2026-03-29T06:41:48.489Z</time></trkpt><trkpt lat="44.9960432" lon="9.7867841"><ele>66.6</ele><time>2026-03-29T06:41:50.493Z</time></trkpt><trkpt lat="44.995973" lon="9.7867219"><ele>66.8</ele><time>2026-03-29T06:41:52.487Z</time></trkpt><trkpt lat="44.9958987" lon="9.7866686"><ele>67.0</ele><time>2026-03-29T06:41:54.488Z</time></trkpt><trkpt lat="44.995816" lon="9.7866057"><ele>67.0</ele><time>2026-03-29T06:41:56.487Z</time></trkpt><trkpt lat="44.9957485" lon="9.7865521"><ele>67.0</ele><time>2026-03-29T06:41:58.484Z</time></trkpt><trkpt lat="44.9956741" lon="9.7864958"><ele>67.0</ele><time>2026-03-29T06:42:00.482Z</time></trkpt><trkpt lat="44.9955913" lon="9.7864371"><ele>67.0</ele><time>2026-03-29T06:42:02.514Z</time></trkpt><trkpt lat="44.9955142" lon="9.786387"><ele>67.0</ele><time>2026-03-29T06:42:04.503Z</time></trkpt><trkpt lat="44.9954353" lon="9.7863352"><ele>67.0</ele><time>2026-03-29T06:42:06.504Z</time></trkpt><trkpt lat="44.9953566" lon="9.7862902"><ele>67.0</ele><time>2026-03-29T06:42:08.507Z</time></trkpt><trkpt lat="44.9952773" lon="9.7862482"><ele>67.0</ele><time>2026-03-29T06:42:10.499Z</time></trkpt><trkpt lat="44.9951951" lon="9.7861898"><ele>67.0</ele><time>2026-03-29T06:42:12.454Z</time></trkpt><trkpt lat="44.9951136" lon="9.7861537"><ele>67.0</ele><time>2026-03-29T06:42:14.495Z</time></trkpt><trkpt lat="44.9950305" lon="9.7861031"><ele>67.0</ele><time>2026-03-29T06:42:16.502Z</time></trkpt><trkpt lat="44.9949486" lon="9.7860528"><ele>67.0</ele><time>2026-03-29T06:42:18.489Z</time></trkpt><trkpt lat="44.9948754" lon="9.7859984"><ele>67.0</ele><time>2026-03-29T06:42:20.492Z</time></trkpt><trkpt lat="44.9947914" lon="9.7859422"><ele>67.0</ele><time>2026-03-29T06:42:22.492Z</time></trkpt><trkpt lat="44.994709" lon="9.7858909"><ele>67.0</ele><time>2026-03-29T06:42:24.437Z</time></trkpt><trkpt lat="44.9946251" lon="9.7858455"><ele>67.0</ele><time>2026-03-29T06:42:26.49Z</time></trkpt><trkpt lat="44.9945426" lon="9.785785"><ele>67.0</ele><time>2026-03-29T06:42:28.475Z</time></trkpt><trkpt lat="44.9944604" lon="9.7857241"><ele>67.0</ele><time>2026-03-29T06:42:30.468Z</time></trkpt><trkpt lat="44.9943811" lon="9.7856665"><ele>67.0</ele><time>2026-03-29T06:42:32.48Z</time></trkpt><trkpt lat="44.9942995" lon="9.7856145"><ele>67.0</ele><time>2026-03-29T06:42:34.468Z</time></trkpt><trkpt lat="44.9942264" lon="9.785559"><ele>67.0</ele><time>2026-03-29T06:42:36.495Z</time></trkpt><trkpt lat="44.9941431" lon="9.7855104"><ele>67.0</ele><time>2026-03-29T06:42:38.48Z</time></trkpt><trkpt lat="44.9940662" lon="9.7854768"><ele>67.0</ele><time>2026-03-29T06:42:40.491Z</time></trkpt><trkpt lat="44.9939804" lon="9.7854419"><ele>66.83333333333333</ele><time>2026-03-29T06:42:42.49Z</time></trkpt><trkpt lat="44.9938961" lon="9.785391"><ele>66.66666666666666</ele><time>2026-03-29T06:42:44.49Z</time></trkpt><trkpt lat="44.9938156" lon="9.7853462"><ele>66.5</ele><time>2026-03-29T06:42:46.435Z</time></trkpt><trkpt lat="44.9937391" lon="9.7852959"><ele>66.33333333333333</ele><time>2026-03-29T06:42:48.433Z</time></trkpt><trkpt lat="44.9936684" lon="9.785251"><ele>66.16666666666667</ele><time>2026-03-29T06:42:50.455Z</time></trkpt><trkpt lat="44.9935904" lon="9.7852098"><ele>66.0</ele><time>2026-03-29T06:42:52.481Z</time></trkpt><trkpt lat="44.993507" lon="9.7851642"><ele>66.0</ele><time>2026-03-29T06:42:54.487Z</time></trkpt><trkpt lat="44.9934171" lon="9.7851305"><ele>66.0</ele><time>2026-03-29T06:42:56.485Z</time></trkpt><trkpt lat="44.9933431" lon="9.785111"><ele>66.0</ele><time>2026-03-29T06:42:58.483Z</time></trkpt><trkpt lat="44.9932661" lon="9.7850829"><ele>66.0</ele><time>2026-03-29T06:43:00.488Z</time></trkpt><trkpt lat="44.9931893" lon="9.7850504"><ele>66.0</ele><time>2026-03-29T06:43:02.482Z</time></trkpt><trkpt lat="44.9931122" lon="9.7850178"><ele>66.0</ele><time>2026-03-29T06:43:04.468Z</time></trkpt><trkpt lat="44.9930332" lon="9.7849785"><ele>66.0</ele><time>2026-03-29T06:43:06.488Z</time></trkpt><trkpt lat="44.992951" lon="9.7849542"><ele>66.0</ele><time>2026-03-29T06:43:08.481Z</time></trkpt><trkpt lat="44.9928716" lon="9.784925"><ele>66.0</ele><time>2026-03-29T06:43:10.487Z</time></trkpt><trkpt lat="44.9927915" lon="9.7848929"><ele>66.0</ele><time>2026-03-29T06:43:12.483Z</time></trkpt><trkpt lat="44.9927073" lon="9.7848647"><ele>66.0</ele><time>2026-03-29T06:43:14.499Z</time></trkpt><trkpt lat="44.9926264" lon="9.7848374"><ele>66.0</ele><time>2026-03-29T06:43:16.49Z</time></trkpt><trkpt lat="44.9925533" lon="9.7848018"><ele>66.0</ele><time>2026-03-29T06:43:18.477Z</time></trkpt><trkpt lat="44.9924858" lon="9.7848055"><ele>66.0</ele><time>2026-03-29T06:43:20.464Z</time></trkpt><trkpt lat="44.9924366" lon="9.7848807"><ele>66.0</ele><time>2026-03-29T06:43:22.483Z</time></trkpt><trkpt lat="44.9924164" lon="9.7849744"><ele>66.0</ele><time>2026-03-29T06:43:24.478Z</time></trkpt><trkpt lat="44.9924241" lon="9.7850702"><ele>66.0</ele><time>2026-03-29T06:43:26.483Z</time></trkpt><trkpt lat="44.9924412" lon="9.7851736"><ele>66.0</ele><time>2026-03-29T06:43:28.474Z</time></trkpt><trkpt lat="44.9924589" lon="9.7852824"><ele>66.0</ele><time>2026-03-29T06:43:30.485Z</time></trkpt><trkpt lat="44.9924707" lon="9.7853897"><ele>66.14285714285714</ele><time>2026-03-29T06:43:32.487Z</time></trkpt><trkpt lat="44.992489" lon="9.7854949"><ele>66.28571428571429</ele><time>2026-03-29T06:43:34.48Z</time></trkpt><trkpt lat="44.9925059" lon="9.7855838"><ele>66.42857142857143</ele><time>2026-03-29T06:43:36.479Z</time></trkpt><trkpt lat="44.9925235" lon="9.7856883"><ele>66.57142857142857</ele><time>2026-03-29T06:43:38.484Z</time></trkpt><trkpt lat="44.9925" lon="9.7857813"><ele>66.71428571428571</ele><time>2026-03-29T06:43:40.489Z</time></trkpt><trkpt lat="44.9924318" lon="9.7857903"><ele>66.85714285714286</ele><time>2026-03-29T06:43:42.485Z</time></trkpt><trkpt lat="44.9923617" lon="9.7857678"><ele>67.0</ele><time>2026-03-29T06:43:44.495Z</time></trkpt><trkpt lat="44.9922812" lon="9.7857425"><ele>67.0</ele><time>2026-03-29T06:43:46.48Z</time></trkpt><trkpt lat="44.9921935" lon="9.7857234"><ele>67.0</ele><time>2026-03-29T06:43:48.491Z</time></trkpt><trkpt lat="44.9921181" lon="9.7856958"><ele>67.0</ele><time>2026-03-29T06:43:50.487Z</time></trkpt><trkpt lat="44.9920368" lon="9.785676"><ele>67.0</ele><time>2026-03-29T06:43:52.477Z</time></trkpt><trkpt lat="44.991951" lon="9.7856559"><ele>67.0</ele><time>2026-03-29T06:43:54.486Z</time></trkpt><trkpt lat="44.9918668" lon="9.7856442"><ele>67.0</ele><time>2026-03-29T06:43:56.491Z</time></trkpt><trkpt lat="44.9918012" lon="9.78562"><ele>67.0</ele><time>2026-03-29T06:43:58.493Z</time></trkpt><trkpt lat="44.9917184" lon="9.7855966"><ele>67.0</ele><time>2026-03-29T06:44:00.496Z</time></trkpt><trkpt lat="44.9916303" lon="9.7855787"><ele>67.0</ele><time>2026-03-29T06:44:02.478Z</time></trkpt><trkpt lat="44.9915492" lon="9.7855717"><ele>67.0</ele><time>2026-03-29T06:44:04.484Z</time></trkpt><trkpt lat="44.9914824" lon="9.7856242"><ele>67.0</ele><time>2026-03-29T06:44:06.482Z</time></trkpt><trkpt lat="44.9914535" lon="9.785741"><ele>67.0</ele><time>2026-03-29T06:44:08.483Z</time></trkpt><trkpt lat="44.9914428" lon="9.7858464"><ele>66.66666666666666</ele><time>2026-03-29T06:44:10.484Z</time></trkpt><trkpt lat="44.9914269" lon="9.7859676"><ele>66.33333333333333</ele><time>2026-03-29T06:44:12.482Z</time></trkpt><trkpt lat="44.9914127" lon="9.7860741"><ele>66.0</ele><time>2026-03-29T06:44:14.475Z</time></trkpt><trkpt lat="44.9913954" lon="9.7861836"><ele>65.66666666666667</ele><time>2026-03-29T06:44:16.483Z</time></trkpt><trkpt lat="44.9913807" lon="9.7862992"><ele>65.33333333333334</ele><time>2026-03-29T06:44:18.489Z</time></trkpt><trkpt lat="44.9913684" lon="9.7864152"><ele>65.0</ele><time>2026-03-29T06:44:20.48Z</time></trkpt><trkpt lat="44.9913649" lon="9.7865324"><ele>65.0</ele><time>2026-03-29T06:44:22.474Z</time></trkpt><trkpt lat="44.9913486" lon="9.786641"><ele>65.0</ele><time>2026-03-29T06:44:24.48Z</time></trkpt><trkpt lat="44.9913288" lon="9.7867552"><ele>65.0</ele><time>2026-03-29T06:44:26.492Z</time></trkpt><trkpt lat="44.9913117" lon="9.7868717"><ele>65.0</ele><time>2026-03-29T06:44:28.5Z</time></trkpt><trkpt lat="44.9912914" lon="9.7869891"><ele>65.0</ele><time>2026-03-29T06:44:30.489Z</time></trkpt><trkpt lat="44.9912678" lon="9.7871038"><ele>65.0</ele><time>2026-03-29T06:44:32.49Z</time></trkpt><trkpt lat="44.9912612" lon="9.7872215"><ele>65.0</ele><time>2026-03-29T06:44:34.482Z</time></trkpt><trkpt lat="44.9912436" lon="9.7873429"><ele>65.0</ele><time>2026-03-29T06:44:36.487Z</time></trkpt><trkpt lat="44.9912173" lon="9.7874598"><ele>65.0</ele><time>2026-03-29T06:44:38.488Z</time></trkpt><trkpt lat="44.9912096" lon="9.78757"><ele>65.0</ele><time>2026-03-29T06:44:40.498Z</time></trkpt><trkpt lat="44.9911879" lon="9.7876785"><ele>65.0</ele><time>2026-03-29T06:44:42.487Z</time></trkpt><trkpt lat="44.9911746" lon="9.7877788"><ele>65.0</ele><time>2026-03-29T06:44:44.491Z</time></trkpt><trkpt lat="44.9911604" lon="9.7878855"><ele>65.0</ele><time>2026-03-29T06:44:46.483Z</time></trkpt><trkpt lat="44.9911441" lon="9.7879947"><ele>65.0</ele><time>2026-03-29T06:44:48.484Z</time></trkpt><trkpt lat="44.991124" lon="9.7881108"><ele>65.0</ele><time>2026-03-29T06:44:50.477Z</time></trkpt><trkpt lat="44.9911019" lon="9.7882227"><ele>65.0</ele><time>2026-03-29T06:44:52.476Z</time></trkpt><trkpt lat="44.9910615" lon="9.7883163"><ele>65.0</ele><time>2026-03-29T06:44:54.485Z</time></trkpt><trkpt lat="44.9909978" lon="9.7883122"><ele>65.0</ele><time>2026-03-29T06:44:56.477Z</time></trkpt><trkpt lat="44.9909238" lon="9.7883096"><ele>65.0</ele><time>2026-03-29T06:44:58.471Z</time></trkpt><trkpt lat="44.9908474" lon="9.788291"><ele>65.0</ele><time>2026-03-29T06:45:00.48Z</time></trkpt><trkpt lat="44.9907685" lon="9.7882691"><ele>65.0</ele><time>2026-03-29T06:45:02.483Z</time></trkpt><trkpt lat="44.9906859" lon="9.7882557"><ele>65.0</ele><time>2026-03-29T06:45:04.479Z</time></trkpt><trkpt lat="44.9905981" lon="9.7882394"><ele>65.0</ele><time>2026-03-29T06:45:06.475Z</time></trkpt><trkpt lat="44.990516" lon="9.7882235"><ele>65.0</ele><time>2026-03-29T06:45:08.484Z</time></trkpt><trkpt lat="44.9904319" lon="9.788195"><ele>65.0</ele><time>2026-03-29T06:45:10.476Z</time></trkpt><trkpt lat="44.9903495" lon="9.7881796"><ele>65.0</ele><time>2026-03-29T06:45:12.487Z</time></trkpt><trkpt lat="44.990272" lon="9.7881627"><ele>65.0</ele><time>2026-03-29T06:45:14.487Z</time></trkpt><trkpt lat="44.9901971" lon="9.7881414"><ele>65.0</ele><time>2026-03-29T06:45:16.485Z</time></trkpt><trkpt lat="44.9901197" lon="9.7881159"><ele>65.0</ele><time>2026-03-29T06:45:18.489Z</time></trkpt><trkpt lat="44.9900376" lon="9.7880991"><ele>65.0</ele><time>2026-03-29T06:45:20.479Z</time></trkpt><trkpt lat="44.9899624" lon="9.7880808"><ele>64.66666666666667</ele><time>2026-03-29T06:45:22.476Z</time></trkpt><trkpt lat="44.9898799" lon="9.7880626"><ele>64.33333333333334</ele><time>2026-03-29T06:45:24.473Z</time></trkpt><trkpt lat="44.9898015" lon="9.7880459"><ele>64.0</ele><time>2026-03-29T06:45:26.478Z</time></trkpt><trkpt lat="44.9897249" lon="9.7880328"><ele>63.66666666666667</ele><time>2026-03-29T06:45:28.477Z</time></trkpt><trkpt lat="44.9896372" lon="9.788016"><ele>63.333333333333336</ele><time>2026-03-29T06:45:30.467Z</time></trkpt><trkpt lat="44.9895616" lon="9.7880005"><ele>63.0</ele><time>2026-03-29T06:45:32.484Z</time></trkpt><trkpt lat="44.9894846" lon="9.7879795"><ele>63.0</ele><time>2026-03-29T06:45:34.497Z</time></trkpt><trkpt lat="44.9894098" lon="9.7879574"><ele>63.0</ele><time>2026-03-29T06:45:36.477Z</time></trkpt><trkpt lat="44.9893308" lon="9.7879386"><ele>63.0</ele><time>2026-03-29T06:45:38.479Z</time></trkpt><trkpt lat="44.9892546" lon="9.7879095"><ele>63.0</ele><time>2026-03-29T06:45:40.483Z</time></trkpt><trkpt lat="44.9891683" lon="9.7878843"><ele>63.0</ele><time>2026-03-29T06:45:42.486Z</time></trkpt><trkpt lat="44.9890933" lon="9.7878621"><ele>63.0</ele><time>2026-03-29T06:45:44.495Z</time></trkpt><trkpt lat="44.9890158" lon="9.7878342"><ele>63.0</ele><time>2026-03-29T06:45:46.488Z</time></trkpt><trkpt lat="44.9889394" lon="9.7877903"><ele>63.0</ele><time>2026-03-29T06:45:48.47Z</time></trkpt><trkpt lat="44.9888725" lon="9.7877354"><ele>63.0</ele><time>2026-03-29T06:45:50.489Z</time></trkpt><trkpt lat="44.9887954" lon="9.7877063"><ele>63.0</ele><time>2026-03-29T06:45:52.473Z</time></trkpt><trkpt lat="44.9887214" lon="9.787683"><ele>63.0</ele><time>2026-03-29T06:45:54.495Z</time></trkpt><trkpt lat="44.9886471" lon="9.787666"><ele>63.0</ele><time>2026-03-29T06:45:56.502Z</time></trkpt><trkpt lat="44.9885726" lon="9.7876403"><ele>63.166666666666664</ele><time>2026-03-29T06:45:58.493Z</time></trkpt><trkpt lat="44.9884931" lon="9.7876145"><ele>63.33333333333333</ele><time>2026-03-29T06:46:00.487Z</time></trkpt><trkpt lat="44.9884196" lon="9.7875803"><ele>63.5</ele><time>2026-03-29T06:46:02.486Z</time></trkpt><trkpt lat="44.9883436" lon="9.7875559"><ele>63.666666666666664</ele><time>2026-03-29T06:46:04.492Z</time></trkpt><trkpt lat="44.9882659" lon="9.7875291"><ele>63.83333333333333</ele><time>2026-03-29T06:46:06.47Z</time></trkpt><trkpt lat="44.988195" lon="9.7875062"><ele>64.0</ele><time>2026-03-29T06:46:08.497Z</time></trkpt><trkpt lat="44.988125" lon="9.7874816"><ele>63.666666666666664</ele><time>2026-03-29T06:46:10.487Z</time></trkpt><trkpt lat="44.9880539" lon="9.7874622"><ele>63.33333333333333</ele><time>2026-03-29T06:46:12.497Z</time></trkpt><trkpt lat="44.9879778" lon="9.7874305"><ele>63.0</ele><time>2026-03-29T06:46:14.456Z</time></trkpt><trkpt lat="44.9879055" lon="9.7873966"><ele>62.66666666666667</ele><time>2026-03-29T06:46:16.48Z</time></trkpt><trkpt lat="44.9878317" lon="9.7873696"><ele>62.333333333333336</ele><time>2026-03-29T06:46:18.502Z</time></trkpt><trkpt lat="44.9877537" lon="9.7873483"><ele>62.0</ele><time>2026-03-29T06:46:20.49Z</time></trkpt><trkpt lat="44.9876753" lon="9.7873185"><ele>62.00000000000001</ele><time>2026-03-29T06:46:22.476Z</time></trkpt><trkpt lat="44.9875975" lon="9.7872956"><ele>62.0</ele><time>2026-03-29T06:46:24.488Z</time></trkpt><trkpt lat="44.987521" lon="9.7872684"><ele>62.0</ele><time>2026-03-29T06:46:26.486Z</time></trkpt><trkpt lat="44.9874406" lon="9.7872433"><ele>62.0</ele><time>2026-03-29T06:46:28.491Z</time></trkpt><trkpt lat="44.9873669" lon="9.7872162"><ele>62.00000000000001</ele><time>2026-03-29T06:46:30.495Z</time></trkpt><trkpt lat="44.9873002" lon="9.7871931"><ele>62.0</ele><time>2026-03-29T06:46:32.487Z</time></trkpt><trkpt lat="44.9872278" lon="9.787163"><ele>62.00000000000001</ele><time>2026-03-29T06:46:34.476Z</time></trkpt><trkpt lat="44.9871539" lon="9.78713"><ele>62.0</ele><time>2026-03-29T06:46:36.491Z</time></trkpt><trkpt lat="44.9870766" lon="9.7871102"><ele>62.0</ele><time>2026-03-29T06:46:38.484Z</time></trkpt><trkpt lat="44.9869969" lon="9.7870839"><ele>62.0</ele><time>2026-03-29T06:46:40.491Z</time></trkpt><trkpt lat="44.9869205" lon="9.7870639"><ele>62.00000000000001</ele><time>2026-03-29T06:46:42.49Z</time></trkpt><trkpt lat="44.9868451" lon="9.7870358"><ele>62.0</ele><time>2026-03-29T06:46:44.483Z</time></trkpt><trkpt lat="44.9867734" lon="9.7870009"><ele>62.00000000000001</ele><time>2026-03-29T06:46:46.492Z</time></trkpt><trkpt lat="44.9866991" lon="9.7869784"><ele>62.0</ele><time>2026-03-29T06:46:48.487Z</time></trkpt><trkpt lat="44.986624" lon="9.786955"><ele>62.0</ele><time>2026-03-29T06:46:50.488Z</time></trkpt><trkpt lat="44.986553" lon="9.786924"><ele>62.0</ele><time>2026-03-29T06:46:52.477Z</time></trkpt><trkpt lat="44.9864797" lon="9.7869043"><ele>62.00000000000001</ele><time>2026-03-29T06:46:54.489Z</time></trkpt><trkpt lat="44.9864058" lon="9.7868763"><ele>62.0</ele><time>2026-03-29T06:46:56.483Z</time></trkpt><trkpt lat="44.9863329" lon="9.7868683"><ele>62.16666666666667</ele><time>2026-03-29T06:46:58.487Z</time></trkpt><trkpt lat="44.9862584" lon="9.7869062"><ele>62.333333333333336</ele><time>2026-03-29T06:47:00.496Z</time></trkpt><trkpt lat="44.9862061" lon="9.7869714"><ele>62.5</ele><time>2026-03-29T06:47:02.487Z</time></trkpt><trkpt lat="44.9861523" lon="9.7870659"><ele>62.66666666666667</ele><time>2026-03-29T06:47:05.478Z</time></trkpt><trkpt lat="44.9861295" lon="9.7871661"><ele>62.833333333333336</ele><time>2026-03-29T06:47:07.487Z</time></trkpt><trkpt lat="44.9861062" lon="9.7872883"><ele>63.0</ele><time>2026-03-29T06:47:09.484Z</time></trkpt><trkpt lat="44.9860853" lon="9.7874056"><ele>63.0</ele><time>2026-03-29T06:47:11.479Z</time></trkpt><trkpt lat="44.9860602" lon="9.7875365"><ele>63.0</ele><time>2026-03-29T06:47:13.499Z</time></trkpt><trkpt lat="44.9860401" lon="9.7876519"><ele>63.0</ele><time>2026-03-29T06:47:15.488Z</time></trkpt><trkpt lat="44.9860212" lon="9.7877744"><ele>63.0</ele><time>2026-03-29T06:47:17.488Z</time></trkpt><trkpt lat="44.9860017" lon="9.7878937"><ele>63.0</ele><time>2026-03-29T06:47:19.475Z</time></trkpt><trkpt lat="44.9859838" lon="9.7880172"><ele>63.0</ele><time>2026-03-29T06:47:21.476Z</time></trkpt><trkpt lat="44.9859592" lon="9.7881378"><ele>63.166666666666664</ele><time>2026-03-29T06:47:23.496Z</time></trkpt><trkpt lat="44.9859392" lon="9.7882598"><ele>63.33333333333333</ele><time>2026-03-29T06:47:25.483Z</time></trkpt><trkpt lat="44.9859196" lon="9.788377"><ele>63.5</ele><time>2026-03-29T06:47:27.449Z</time></trkpt><trkpt lat="44.9858988" lon="9.788501"><ele>63.666666666666664</ele><time>2026-03-29T06:47:29.495Z</time></trkpt><trkpt lat="44.9858807" lon="9.7886231"><ele>63.83333333333333</ele><time>2026-03-29T06:47:31.472Z</time></trkpt><trkpt lat="44.9858572" lon="9.7887371"><ele>64.0</ele><time>2026-03-29T06:47:33.476Z</time></trkpt><trkpt lat="44.9858175" lon="9.7888527"><ele>63.99999999999999</ele><time>2026-03-29T06:47:35.475Z</time></trkpt><trkpt lat="44.9857775" lon="9.7889735"><ele>64.0</ele><time>2026-03-29T06:47:37.482Z</time></trkpt><trkpt lat="44.985722" lon="9.7890703"><ele>64.0</ele><time>2026-03-29T06:47:39.484Z</time></trkpt><trkpt lat="44.9856387" lon="9.7891028"><ele>64.0</ele><time>2026-03-29T06:47:41.48Z</time></trkpt><trkpt lat="44.98555" lon="9.7890946"><ele>63.99999999999999</ele><time>2026-03-29T06:47:43.475Z</time></trkpt><trkpt lat="44.985465" lon="9.7890696"><ele>64.0</ele><time>2026-03-29T06:47:45.487Z</time></trkpt><trkpt lat="44.9853798" lon="9.7890373"><ele>63.99999999999999</ele><time>2026-03-29T06:47:47.484Z</time></trkpt><trkpt lat="44.9852901" lon="9.7890111"><ele>64.0</ele><time>2026-03-29T06:47:49.483Z</time></trkpt><trkpt lat="44.9852077" lon="9.7889822"><ele>64.0</ele><time>2026-03-29T06:47:51.481Z</time></trkpt><trkpt lat="44.9851213" lon="9.7889578"><ele>64.0</ele><time>2026-03-29T06:47:53.499Z</time></trkpt><trkpt lat="44.9850341" lon="9.7889295"><ele>63.99999999999999</ele><time>2026-03-29T06:47:55.498Z</time></trkpt><trkpt lat="44.984954" lon="9.7888944"><ele>64.0</ele><time>2026-03-29T06:47:57.489Z</time></trkpt><trkpt lat="44.9848748" lon="9.7888666"><ele>63.666666666666664</ele><time>2026-03-29T06:47:59.482Z</time></trkpt><trkpt lat="44.9847871" lon="9.7888386"><ele>63.33333333333333</ele><time>2026-03-29T06:48:01.492Z</time></trkpt><trkpt lat="44.984703" lon="9.7888037"><ele>63.0</ele><time>2026-03-29T06:48:03.499Z</time></trkpt><trkpt lat="44.9846159" lon="9.7887736"><ele>62.66666666666667</ele><time>2026-03-29T06:48:05.493Z</time></trkpt><trkpt lat="44.9845325" lon="9.7887428"><ele>62.333333333333336</ele><time>2026-03-29T06:48:07.491Z</time></trkpt><trkpt lat="44.9844428" lon="9.7887172"><ele>62.0</ele><time>2026-03-29T06:48:09.48Z</time></trkpt><trkpt lat="44.9843602" lon="9.788686"><ele>62.00000000000001</ele><time>2026-03-29T06:48:11.483Z</time></trkpt><trkpt lat="44.9842738" lon="9.7886558"><ele>62.0</ele><time>2026-03-29T06:48:13.48Z</time></trkpt><trkpt lat="44.9841857" lon="9.7886287"><ele>62.0</ele><time>2026-03-29T06:48:15.491Z</time></trkpt><trkpt lat="44.9841023" lon="9.7886"><ele>62.0</ele><time>2026-03-29T06:48:17.476Z</time></trkpt><trkpt lat="44.9840145" lon="9.7885676"><ele>62.00000000000001</ele><time>2026-03-29T06:48:19.479Z</time></trkpt><trkpt lat="44.9839328" lon="9.7885347"><ele>62.0</ele><time>2026-03-29T06:48:21.484Z</time></trkpt><trkpt lat="44.9838451" lon="9.7885046"><ele>62.333333333333336</ele><time>2026-03-29T06:48:23.488Z</time></trkpt><trkpt lat="44.9837556" lon="9.7884792"><ele>62.66666666666667</ele><time>2026-03-29T06:48:25.486Z</time></trkpt><trkpt lat="44.983673" lon="9.7884466"><ele>63.0</ele><time>2026-03-29T06:48:27.484Z</time></trkpt><trkpt lat="44.9835908" lon="9.7884157"><ele>63.33333333333333</ele><time>2026-03-29T06:48:29.485Z</time></trkpt><trkpt lat="44.9835068" lon="9.7883833"><ele>63.666666666666664</ele><time>2026-03-29T06:48:31.5Z</time></trkpt><trkpt lat="44.9834264" lon="9.7883536"><ele>64.0</ele><time>2026-03-29T06:48:33.48Z</time></trkpt><trkpt lat="44.9833402" lon="9.788324"><ele>64.16666666666666</ele><time>2026-03-29T06:48:35.488Z</time></trkpt><trkpt lat="44.9832516" lon="9.7883018"><ele>64.33333333333333</ele><time>2026-03-29T06:48:37.497Z</time></trkpt><trkpt lat="44.9831639" lon="9.7883008"><ele>64.5</ele><time>2026-03-29T06:48:39.441Z</time></trkpt><trkpt lat="44.9830894" lon="9.7883908"><ele>64.66666666666667</ele><time>2026-03-29T06:48:41.488Z</time></trkpt><trkpt lat="44.9830245" lon="9.7884796"><ele>64.83333333333334</ele><time>2026-03-29T06:48:43.473Z</time></trkpt><trkpt lat="44.9829677" lon="9.7885556"><ele>65.0</ele><time>2026-03-29T06:48:45.477Z</time></trkpt><trkpt lat="44.9828918" lon="9.7886157"><ele>65.16666666666667</ele><time>2026-03-29T06:48:47.488Z</time></trkpt><trkpt lat="44.9828111" lon="9.7886452"><ele>65.33333333333334</ele><time>2026-03-29T06:48:49.483Z</time></trkpt><trkpt lat="44.9827241" lon="9.7886211"><ele>65.5</ele><time>2026-03-29T06:48:51.487Z</time></trkpt><trkpt lat="44.9826408" lon="9.7885827"><ele>65.66666666666667</ele><time>2026-03-29T06:48:53.5Z</time></trkpt><trkpt lat="44.9825633" lon="9.7885245"><ele>65.83333333333333</ele><time>2026-03-29T06:48:55.478Z</time></trkpt><trkpt lat="44.9824856" lon="9.7884651"><ele>66.0</ele><time>2026-03-29T06:48:57.492Z</time></trkpt><trkpt lat="44.982405" lon="9.7884062"><ele>66.0</ele><time>2026-03-29T06:48:59.469Z</time></trkpt><trkpt lat="44.9823338" lon="9.7883494"><ele>66.0</ele><time>2026-03-29T06:49:01.481Z</time></trkpt><trkpt lat="44.9822543" lon="9.7882966"><ele>66.0</ele><time>2026-03-29T06:49:03.486Z</time></trkpt><trkpt lat="44.9821826" lon="9.7882396"><ele>66.0</ele><time>2026-03-29T06:49:05.484Z</time></trkpt><trkpt lat="44.9821073" lon="9.7881783"><ele>66.0</ele><time>2026-03-29T06:49:07.488Z</time></trkpt><trkpt lat="44.9820279" lon="9.7881181"><ele>66.0</ele><time>2026-03-29T06:49:09.483Z</time></trkpt><trkpt lat="44.9819525" lon="9.7880559"><ele>66.0</ele><time>2026-03-29T06:49:11.5Z</time></trkpt><trkpt lat="44.9818737" lon="9.7879973"><ele>66.0</ele><time>2026-03-29T06:49:13.486Z</time></trkpt><trkpt lat="44.9818002" lon="9.787945"><ele>66.0</ele><time>2026-03-29T06:49:15.486Z</time></trkpt><trkpt lat="44.9817249" lon="9.7878856"><ele>66.0</ele><time>2026-03-29T06:49:17.487Z</time></trkpt><trkpt lat="44.9816492" lon="9.7878196"><ele>66.0</ele><time>2026-03-29T06:49:19.468Z</time></trkpt><trkpt lat="44.9815717" lon="9.7877601"><ele>66.0</ele><time>2026-03-29T06:49:21.484Z</time></trkpt><trkpt lat="44.981491" lon="9.7877064"><ele>66.0</ele><time>2026-03-29T06:49:23.484Z</time></trkpt><trkpt lat="44.9814142" lon="9.7876507"><ele>66.0</ele><time>2026-03-29T06:49:25.477Z</time></trkpt><trkpt lat="44.9813419" lon="9.7875872"><ele>66.0</ele><time>2026-03-29T06:49:27.48Z</time></trkpt><trkpt lat="44.981269" lon="9.7875283"><ele>66.0</ele><time>2026-03-29T06:49:29.486Z</time></trkpt><trkpt lat="44.9811531" lon="9.7874407"><ele>66.0</ele><time>2026-03-29T06:49:32.483Z</time></trkpt><trkpt lat="44.9810759" lon="9.7873781"><ele>66.0</ele><time>2026-03-29T06:49:34.476Z</time></trkpt><trkpt lat="44.9809978" lon="9.7873238"><ele>66.0</ele><time>2026-03-29T06:49:36.479Z</time></trkpt><trkpt lat="44.9809211" lon="9.7872571"><ele>66.0</ele><time>2026-03-29T06:49:38.465Z</time></trkpt><trkpt lat="44.9808452" lon="9.7872013"><ele>66.0</ele><time>2026-03-29T06:49:40.487Z</time></trkpt><trkpt lat="44.9807684" lon="9.7871452"><ele>66.0</ele><time>2026-03-29T06:49:42.485Z</time></trkpt><trkpt lat="44.9806933" lon="9.7870949"><ele>66.0</ele><time>2026-03-29T06:49:44.485Z</time></trkpt><trkpt lat="44.9806185" lon="9.7870355"><ele>66.0</ele><time>2026-03-29T06:49:46.492Z</time></trkpt><trkpt lat="44.9805405" lon="9.7869721"><ele>66.0</ele><time>2026-03-29T06:49:48.49Z</time></trkpt><trkpt lat="44.98046" lon="9.7869126"><ele>66.0</ele><time>2026-03-29T06:49:50.494Z</time></trkpt><trkpt lat="44.9803891" lon="9.7868569"><ele>66.0</ele><time>2026-03-29T06:49:52.489Z</time></trkpt><trkpt lat="44.980321" lon="9.7867997"><ele>66.0</ele><time>2026-03-29T06:49:54.5Z</time></trkpt><trkpt lat="44.9802453" lon="9.7867431"><ele>66.0</ele><time>2026-03-29T06:49:56.489Z</time></trkpt><trkpt lat="44.9801719" lon="9.7866896"><ele>65.83333333333333</ele><time>2026-03-29T06:49:58.485Z</time></trkpt><trkpt lat="44.9801044" lon="9.7866437"><ele>65.66666666666667</ele><time>2026-03-29T06:50:00.493Z</time></trkpt><trkpt lat="44.980024" lon="9.7866215"><ele>65.5</ele><time>2026-03-29T06:50:02.489Z</time></trkpt><trkpt lat="44.9799503" lon="9.7866852"><ele>65.33333333333334</ele><time>2026-03-29T06:50:04.468Z</time></trkpt><trkpt lat="44.979898" lon="9.7867537"><ele>65.16666666666667</ele><time>2026-03-29T06:50:06.473Z</time></trkpt><trkpt lat="44.9798529" lon="9.78685"><ele>65.0</ele><time>2026-03-29T06:50:08.49Z</time></trkpt><trkpt lat="44.9798135" lon="9.786942"><ele>65.5</ele><time>2026-03-29T06:50:10.497Z</time></trkpt><trkpt lat="44.9797744" lon="9.787039"><ele>66.0</ele><time>2026-03-29T06:50:12.455Z</time></trkpt><trkpt lat="44.9797355" lon="9.7871479"><ele>66.5</ele><time>2026-03-29T06:50:14.495Z</time></trkpt><trkpt lat="44.9796733" lon="9.7872326"><ele>67.0</ele><time>2026-03-29T06:50:16.478Z</time></trkpt><trkpt lat="44.9796023" lon="9.7873001"><ele>67.5</ele><time>2026-03-29T06:50:18.481Z</time></trkpt><trkpt lat="44.9795197" lon="9.7873246"><ele>68.0</ele><time>2026-03-29T06:50:20.485Z</time></trkpt><trkpt lat="44.9794446" lon="9.7873022"><ele>68.0</ele><time>2026-03-29T06:50:22.507Z</time></trkpt><trkpt lat="44.9793708" lon="9.7872673"><ele>68.0</ele><time>2026-03-29T06:50:24.508Z</time></trkpt><trkpt lat="44.9792962" lon="9.7872174"><ele>68.0</ele><time>2026-03-29T06:50:26.489Z</time></trkpt><trkpt lat="44.9792203" lon="9.7871813"><ele>68.0</ele><time>2026-03-29T06:50:28.488Z</time></trkpt><trkpt lat="44.9791376" lon="9.7871478"><ele>68.0</ele><time>2026-03-29T06:50:30.479Z</time></trkpt><trkpt lat="44.9790655" lon="9.787109"><ele>68.0</ele><time>2026-03-29T06:50:32.479Z</time></trkpt><trkpt lat="44.9789895" lon="9.7870683"><ele>68.16666666666667</ele><time>2026-03-29T06:50:34.485Z</time></trkpt><trkpt lat="44.9789115" lon="9.7870347"><ele>68.33333333333334</ele><time>2026-03-29T06:50:36.482Z</time></trkpt><trkpt lat="44.9788348" lon="9.7869986"><ele>68.5</ele><time>2026-03-29T06:50:38.479Z</time></trkpt><trkpt lat="44.9787593" lon="9.7869603"><ele>68.66666666666667</ele><time>2026-03-29T06:50:40.487Z</time></trkpt><trkpt lat="44.9786833" lon="9.7869196"><ele>68.83333333333333</ele><time>2026-03-29T06:50:42.478Z</time></trkpt><trkpt lat="44.9786084" lon="9.7868754"><ele>69.0</ele><time>2026-03-29T06:50:44.479Z</time></trkpt><trkpt lat="44.9785341" lon="9.7868305"><ele>69.33333333333333</ele><time>2026-03-29T06:50:46.476Z</time></trkpt><trkpt lat="44.9784542" lon="9.7867892"><ele>69.66666666666667</ele><time>2026-03-29T06:50:48.485Z</time></trkpt><trkpt lat="44.9783781" lon="9.7867559"><ele>70.0</ele><time>2026-03-29T06:50:50.459Z</time></trkpt><trkpt lat="44.9783003" lon="9.7867135"><ele>70.33333333333334</ele><time>2026-03-29T06:50:52.479Z</time></trkpt><trkpt lat="44.9782281" lon="9.7866712"><ele>70.66666666666667</ele><time>2026-03-29T06:50:54.48Z</time></trkpt><trkpt lat="44.9781496" lon="9.7866319"><ele>71.0</ele><time>2026-03-29T06:50:56.495Z</time></trkpt><trkpt lat="44.9780673" lon="9.7865939"><ele>71.0</ele><time>2026-03-29T06:50:58.48Z</time></trkpt><trkpt lat="44.977989" lon="9.7865506"><ele>71.0</ele><time>2026-03-29T06:51:00.48Z</time></trkpt><trkpt lat="44.9779148" lon="9.786511"><ele>71.0</ele><time>2026-03-29T06:51:02.453Z</time></trkpt><trkpt lat="44.9778407" lon="9.7864653"><ele>71.0</ele><time>2026-03-29T06:51:04.487Z</time></trkpt><trkpt lat="44.9777655" lon="9.786417"><ele>71.0</ele><time>2026-03-29T06:51:06.469Z</time></trkpt><trkpt lat="44.977686" lon="9.7863729"><ele>71.0</ele><time>2026-03-29T06:51:08.489Z</time></trkpt><trkpt lat="44.9776106" lon="9.7863371"><ele>71.0</ele><time>2026-03-29T06:51:10.473Z</time></trkpt><trkpt lat="44.9775341" lon="9.7862984"><ele>71.0</ele><time>2026-03-29T06:51:12.459Z</time></trkpt><trkpt lat="44.9774542" lon="9.7862617"><ele>71.0</ele><time>2026-03-29T06:51:14.482Z</time></trkpt><trkpt lat="44.9773842" lon="9.7862228"><ele>71.0</ele><time>2026-03-29T06:51:16.491Z</time></trkpt><trkpt lat="44.9773032" lon="9.7861866"><ele>71.0</ele><time>2026-03-29T06:51:18.486Z</time></trkpt><trkpt lat="44.9772382" lon="9.7861325"><ele>71.0</ele><time>2026-03-29T06:51:20.496Z</time></trkpt><trkpt lat="44.9771573" lon="9.7860932"><ele>70.83333333333334</ele><time>2026-03-29T06:51:22.473Z</time></trkpt><trkpt lat="44.9770752" lon="9.7860588"><ele>70.66666666666667</ele><time>2026-03-29T06:51:24.481Z</time></trkpt><trkpt lat="44.9769939" lon="9.7860298"><ele>70.5</ele><time>2026-03-29T06:51:26.459Z</time></trkpt><trkpt lat="44.9769214" lon="9.7859996"><ele>70.33333333333333</ele><time>2026-03-29T06:51:28.504Z</time></trkpt><trkpt lat="44.9768434" lon="9.785958"><ele>70.16666666666666</ele><time>2026-03-29T06:51:30.492Z</time></trkpt><trkpt lat="44.9767708" lon="9.7859058"><ele>70.0</ele><time>2026-03-29T06:51:32.483Z</time></trkpt><trkpt lat="44.9766981" lon="9.7858424"><ele>70.0</ele><time>2026-03-29T06:51:34.48Z</time></trkpt><trkpt lat="44.9766263" lon="9.7857889"><ele>70.0</ele><time>2026-03-29T06:51:36.488Z</time></trkpt><trkpt lat="44.9765588" lon="9.7857484"><ele>70.0</ele><time>2026-03-29T06:51:38.474Z</time></trkpt><trkpt lat="44.9764896" lon="9.7857163"><ele>70.0</ele><time>2026-03-29T06:51:40.487Z</time></trkpt><trkpt lat="44.9764176" lon="9.7856759"><ele>70.0</ele><time>2026-03-29T06:51:42.498Z</time></trkpt><trkpt lat="44.9763427" lon="9.7856461"><ele>70.0</ele><time>2026-03-29T06:51:44.481Z</time></trkpt><trkpt lat="44.9762716" lon="9.7856017"><ele>70.0</ele><time>2026-03-29T06:51:46.492Z</time></trkpt><trkpt lat="44.9762044" lon="9.7855644"><ele>70.0</ele><time>2026-03-29T06:51:48.478Z</time></trkpt><trkpt lat="44.976126" lon="9.7855232"><ele>70.0</ele><time>2026-03-29T06:51:50.473Z</time></trkpt><trkpt lat="44.9760512" lon="9.7854787"><ele>70.0</ele><time>2026-03-29T06:51:52.481Z</time></trkpt><trkpt lat="44.9759736" lon="9.7854438"><ele>70.0</ele><time>2026-03-29T06:51:54.487Z</time></trkpt><trkpt lat="44.9758966" lon="9.7854057"><ele>70.0</ele><time>2026-03-29T06:51:56.495Z</time></trkpt><trkpt lat="44.9758193" lon="9.7853706"><ele>69.83333333333333</ele><time>2026-03-29T06:51:58.486Z</time></trkpt><trkpt lat="44.9757422" lon="9.785339"><ele>69.66666666666666</ele><time>2026-03-29T06:52:00.474Z</time></trkpt><trkpt lat="44.9756741" lon="9.7852996"><ele>69.5</ele><time>2026-03-29T06:52:02.486Z</time></trkpt><trkpt lat="44.9756019" lon="9.7852626"><ele>69.33333333333333</ele><time>2026-03-29T06:52:04.48Z</time></trkpt><trkpt lat="44.9755239" lon="9.7852266"><ele>69.16666666666667</ele><time>2026-03-29T06:52:06.489Z</time></trkpt><trkpt lat="44.9754449" lon="9.7851883"><ele>69.0</ele><time>2026-03-29T06:52:07.029Z</time></trkpt><trkpt lat="44.9753673" lon="9.7851525"><ele>69.0</ele><time>2026-03-29T06:52:09.026Z</time></trkpt><trkpt lat="44.9752874" lon="9.7851209"><ele>69.0</ele><time>2026-03-29T06:52:11.028Z</time></trkpt><trkpt lat="44.9752137" lon="9.7850839"><ele>69.0</ele><time>2026-03-29T06:52:13.025Z</time></trkpt><trkpt lat="44.9751355" lon="9.78505"><ele>69.0</ele><time>2026-03-29T06:52:15.034Z</time></trkpt><trkpt lat="44.9750618" lon="9.7850173"><ele>69.0</ele><time>2026-03-29T06:52:17.027Z</time></trkpt><trkpt lat="44.9749833" lon="9.7849867"><ele>69.0</ele><time>2026-03-29T06:52:19.016Z</time></trkpt><trkpt lat="44.9749163" lon="9.7849428"><ele>69.0</ele><time>2026-03-29T06:52:21.025Z</time></trkpt><trkpt lat="44.9748415" lon="9.784912"><ele>69.0</ele><time>2026-03-29T06:52:23.059Z</time></trkpt><trkpt lat="44.9747733" lon="9.7848754"><ele>69.0</ele><time>2026-03-29T06:52:25.033Z</time></trkpt><trkpt lat="44.9746938" lon="9.784844"><ele>69.0</ele><time>2026-03-29T06:52:27.069Z</time></trkpt><trkpt lat="44.9746204" lon="9.7848122"><ele>69.0</ele><time>2026-03-29T06:52:29.063Z</time></trkpt><trkpt lat="44.9745454" lon="9.7847766"><ele>69.0</ele><time>2026-03-29T06:52:31.071Z</time></trkpt><trkpt lat="44.9744725" lon="9.7847457"><ele>69.0</ele><time>2026-03-29T06:52:33.075Z</time></trkpt><trkpt lat="44.974398" lon="9.7847141"><ele>69.0</ele><time>2026-03-29T06:52:35.063Z</time></trkpt><trkpt lat="44.9743198" lon="9.7846838"><ele>69.0</ele><time>2026-03-29T06:52:37.058Z</time></trkpt><trkpt lat="44.9742453" lon="9.7846492"><ele>69.0</ele><time>2026-03-29T06:52:39.072Z</time></trkpt><trkpt lat="44.974176" lon="9.784614"><ele>69.0</ele><time>2026-03-29T06:52:41.083Z</time></trkpt><trkpt lat="44.9741021" lon="9.7845805"><ele>69.0</ele><time>2026-03-29T06:52:43.092Z</time></trkpt><trkpt lat="44.9740283" lon="9.7845488"><ele>69.16666666666667</ele><time>2026-03-29T06:52:45.084Z</time></trkpt><trkpt lat="44.9739518" lon="9.7845179"><ele>69.33333333333333</ele><time>2026-03-29T06:52:47.059Z</time></trkpt><trkpt lat="44.973879" lon="9.7844878"><ele>69.5</ele><time>2026-03-29T06:52:49.077Z</time></trkpt><trkpt lat="44.973806" lon="9.7844566"><ele>69.66666666666666</ele><time>2026-03-29T06:52:51.022Z</time></trkpt><trkpt lat="44.9737319" lon="9.7844246"><ele>69.83333333333333</ele><time>2026-03-29T06:52:53.03Z</time></trkpt><trkpt lat="44.9736642" lon="9.7843867"><ele>70.0</ele><time>2026-03-29T06:52:55.034Z</time></trkpt><trkpt lat="44.9735826" lon="9.7843521"><ele>70.0</ele><time>2026-03-29T06:52:57.047Z</time></trkpt><trkpt lat="44.973508" lon="9.7843273"><ele>70.0</ele><time>2026-03-29T06:52:59.072Z</time></trkpt><trkpt lat="44.9734313" lon="9.7842984"><ele>70.0</ele><time>2026-03-29T06:53:01.039Z</time></trkpt><trkpt lat="44.9733555" lon="9.784271"><ele>70.0</ele><time>2026-03-29T06:53:03.034Z</time></trkpt><trkpt lat="44.9732785" lon="9.7842328"><ele>70.0</ele><time>2026-03-29T06:53:05.063Z</time></trkpt><trkpt lat="44.9732029" lon="9.7842095"><ele>70.0</ele><time>2026-03-29T06:53:07.062Z</time></trkpt><trkpt lat="44.973128" lon="9.7841788"><ele>70.0</ele><time>2026-03-29T06:53:09.078Z</time></trkpt><trkpt lat="44.9730485" lon="9.7841534"><ele>70.0</ele><time>2026-03-29T06:53:11.077Z</time></trkpt><trkpt lat="44.9729736" lon="9.7841266"><ele>70.0</ele><time>2026-03-29T06:53:13.054Z</time></trkpt><trkpt lat="44.9728997" lon="9.7840951"><ele>70.0</ele><time>2026-03-29T06:53:15.058Z</time></trkpt><trkpt lat="44.9728244" lon="9.7840679"><ele>70.0</ele><time>2026-03-29T06:53:17.078Z</time></trkpt><trkpt lat="44.972747" lon="9.7840432"><ele>70.0</ele><time>2026-03-29T06:53:19.079Z</time></trkpt><trkpt lat="44.9726714" lon="9.7840152"><ele>70.0</ele><time>2026-03-29T06:53:21.031Z</time></trkpt><trkpt lat="44.9725962" lon="9.783995"><ele>70.0</ele><time>2026-03-29T06:53:23.067Z</time></trkpt><trkpt lat="44.9725164" lon="9.7839703"><ele>70.0</ele><time>2026-03-29T06:53:25.077Z</time></trkpt><trkpt lat="44.9724363" lon="9.7839527"><ele>70.0</ele><time>2026-03-29T06:53:27.061Z</time></trkpt><trkpt lat="44.9723608" lon="9.783916"><ele>70.0</ele><time>2026-03-29T06:53:29.072Z</time></trkpt><trkpt lat="44.972287" lon="9.7838958"><ele>70.0</ele><time>2026-03-29T06:53:31.064Z</time></trkpt><trkpt lat="44.9722121" lon="9.783878"><ele>70.16666666666666</ele><time>2026-03-29T06:53:33.071Z</time></trkpt><trkpt lat="44.972137" lon="9.7838517"><ele>70.33333333333333</ele><time>2026-03-29T06:53:35.09Z</time></trkpt><trkpt lat="44.9720619" lon="9.7838283"><ele>70.5</ele><time>2026-03-29T06:53:37.063Z</time></trkpt><trkpt lat="44.9719858" lon="9.7838041"><ele>70.66666666666667</ele><time>2026-03-29T06:53:39.083Z</time></trkpt><trkpt lat="44.9719111" lon="9.7837791"><ele>70.83333333333334</ele><time>2026-03-29T06:53:41.073Z</time></trkpt><trkpt lat="44.9718268" lon="9.7837584"><ele>71.0</ele><time>2026-03-29T06:53:43.074Z</time></trkpt><trkpt lat="44.9717562" lon="9.7837309"><ele>71.16666666666667</ele><time>2026-03-29T06:53:45.068Z</time></trkpt><trkpt lat="44.9716828" lon="9.7837085"><ele>71.33333333333334</ele><time>2026-03-29T06:53:47.054Z</time></trkpt><trkpt lat="44.9716005" lon="9.7836824"><ele>71.5</ele><time>2026-03-29T06:53:49.062Z</time></trkpt><trkpt lat="44.9715231" lon="9.78365"><ele>71.66666666666667</ele><time>2026-03-29T06:53:51.077Z</time></trkpt><trkpt lat="44.9714411" lon="9.7836119"><ele>71.83333333333333</ele><time>2026-03-29T06:53:53.077Z</time></trkpt><trkpt lat="44.9713693" lon="9.7835653"><ele>72.0</ele><time>2026-03-29T06:53:55.076Z</time></trkpt><trkpt lat="44.971301" lon="9.7835186"><ele>71.83333333333333</ele><time>2026-03-29T06:53:57.063Z</time></trkpt><trkpt lat="44.9712325" lon="9.7834739"><ele>71.66666666666667</ele><time>2026-03-29T06:53:59.067Z</time></trkpt><trkpt lat="44.9711629" lon="9.783427"><ele>71.5</ele><time>2026-03-29T06:54:01.074Z</time></trkpt><trkpt lat="44.9710895" lon="9.7833826"><ele>71.33333333333334</ele><time>2026-03-29T06:54:03.067Z</time></trkpt><trkpt lat="44.9710173" lon="9.7833327"><ele>71.16666666666667</ele><time>2026-03-29T06:54:05.067Z</time></trkpt><trkpt lat="44.970948" lon="9.7832849"><ele>71.0</ele><time>2026-03-29T06:54:07.081Z</time></trkpt><trkpt lat="44.9708788" lon="9.7832391"><ele>71.5</ele><time>2026-03-29T06:54:09.057Z</time></trkpt><trkpt lat="44.9707967" lon="9.783206"><ele>72.0</ele><time>2026-03-29T06:54:11.072Z</time></trkpt><trkpt lat="44.9707195" lon="9.7831797"><ele>72.5</ele><time>2026-03-29T06:54:13.073Z</time></trkpt><trkpt lat="44.9706402" lon="9.7831536"><ele>73.0</ele><time>2026-03-29T06:54:15.077Z</time></trkpt><trkpt lat="44.9705593" lon="9.783123"><ele>73.5</ele><time>2026-03-29T06:54:17.077Z</time></trkpt><trkpt lat="44.9704797" lon="9.7830958"><ele>74.0</ele><time>2026-03-29T06:54:19.087Z</time></trkpt><trkpt lat="44.9703952" lon="9.783066"><ele>74.0</ele><time>2026-03-29T06:54:21.085Z</time></trkpt><trkpt lat="44.9703184" lon="9.7830515"><ele>74.0</ele><time>2026-03-29T06:54:23.072Z</time></trkpt><trkpt lat="44.9702422" lon="9.7830488"><ele>74.0</ele><time>2026-03-29T06:54:25.086Z</time></trkpt><trkpt lat="44.9701646" lon="9.7830359"><ele>74.0</ele><time>2026-03-29T06:54:27.057Z</time></trkpt><trkpt lat="44.970087" lon="9.7829996"><ele>74.0</ele><time>2026-03-29T06:54:29.087Z</time></trkpt><trkpt lat="44.9700065" lon="9.7829553"><ele>74.0</ele><time>2026-03-29T06:54:31.067Z</time></trkpt><trkpt lat="44.9699258" lon="9.7829323"><ele>74.5</ele><time>2026-03-29T06:54:33.08Z</time></trkpt><trkpt lat="44.9698527" lon="9.7829084"><ele>75.0</ele><time>2026-03-29T06:54:35.071Z</time></trkpt><trkpt lat="44.9697692" lon="9.7828957"><ele>75.5</ele><time>2026-03-29T06:54:37.076Z</time></trkpt><trkpt lat="44.9696889" lon="9.7828827"><ele>76.0</ele><time>2026-03-29T06:54:39.096Z</time></trkpt><trkpt lat="44.9696066" lon="9.7828582"><ele>76.5</ele><time>2026-03-29T06:54:41.08Z</time></trkpt><trkpt lat="44.9695299" lon="9.7828301"><ele>77.0</ele><time>2026-03-29T06:54:43.089Z</time></trkpt><trkpt lat="44.9694603" lon="9.7828087"><ele>77.0</ele><time>2026-03-29T06:54:45.074Z</time></trkpt><trkpt lat="44.9693752" lon="9.7827876"><ele>77.0</ele><time>2026-03-29T06:54:47.075Z</time></trkpt><trkpt lat="44.969307" lon="9.7827649"><ele>77.0</ele><time>2026-03-29T06:54:49.058Z</time></trkpt><trkpt lat="44.9692289" lon="9.7827348"><ele>77.0</ele><time>2026-03-29T06:54:51.066Z</time></trkpt><trkpt lat="44.9691527" lon="9.7826966"><ele>77.0</ele><time>2026-03-29T06:54:53.048Z</time></trkpt><trkpt lat="44.9690804" lon="9.7826713"><ele>77.0</ele><time>2026-03-29T06:54:55.058Z</time></trkpt><trkpt lat="44.9690121" lon="9.7826377"><ele>77.16666666666667</ele><time>2026-03-29T06:54:57.08Z</time></trkpt><trkpt lat="44.9689371" lon="9.7826064"><ele>77.33333333333334</ele><time>2026-03-29T06:54:59.068Z</time></trkpt><trkpt lat="44.9688686" lon="9.7825687"><ele>77.5</ele><time>2026-03-29T06:55:01.071Z</time></trkpt><trkpt lat="44.9687992" lon="9.7825351"><ele>77.66666666666667</ele><time>2026-03-29T06:55:03.078Z</time></trkpt><trkpt lat="44.9687252" lon="9.7825047"><ele>77.83333333333333</ele><time>2026-03-29T06:55:05.07Z</time></trkpt><trkpt lat="44.9686529" lon="9.7824764"><ele>78.0</ele><time>2026-03-29T06:55:07.063Z</time></trkpt><trkpt lat="44.9685766" lon="9.7824401"><ele>78.0</ele><time>2026-03-29T06:55:09.077Z</time></trkpt><trkpt lat="44.9685121" lon="9.7823952"><ele>78.0</ele><time>2026-03-29T06:55:11.055Z</time></trkpt><trkpt lat="44.9684461" lon="9.7823559"><ele>78.0</ele><time>2026-03-29T06:55:13.065Z</time></trkpt><trkpt lat="44.9683705" lon="9.782325"><ele>78.0</ele><time>2026-03-29T06:55:15.077Z</time></trkpt><trkpt lat="44.9682999" lon="9.7822931"><ele>78.0</ele><time>2026-03-29T06:55:17.077Z</time></trkpt><trkpt lat="44.9682171" lon="9.7822604"><ele>78.0</ele><time>2026-03-29T06:55:19.07Z</time></trkpt><trkpt lat="44.968152" lon="9.7822114"><ele>77.83333333333333</ele><time>2026-03-29T06:55:21.084Z</time></trkpt><trkpt lat="44.9680808" lon="9.7821797"><ele>77.66666666666667</ele><time>2026-03-29T06:55:23.077Z</time></trkpt><trkpt lat="44.9680036" lon="9.7821513"><ele>77.5</ele><time>2026-03-29T06:55:25.086Z</time></trkpt><trkpt lat="44.9679309" lon="9.7821192"><ele>77.33333333333334</ele><time>2026-03-29T06:55:27.073Z</time></trkpt><trkpt lat="44.9678551" lon="9.7820918"><ele>77.16666666666667</ele><time>2026-03-29T06:55:29.075Z</time></trkpt><trkpt lat="44.9677824" lon="9.7820608"><ele>77.0</ele><time>2026-03-29T06:55:31.085Z</time></trkpt><trkpt lat="44.9677052" lon="9.7820357"><ele>77.0</ele><time>2026-03-29T06:55:33.081Z</time></trkpt><trkpt lat="44.9676333" lon="9.7820069"><ele>77.0</ele><time>2026-03-29T06:55:35.075Z</time></trkpt><trkpt lat="44.9675645" lon="9.7819744"><ele>77.0</ele><time>2026-03-29T06:55:37.07Z</time></trkpt><trkpt lat="44.9675023" lon="9.7819422"><ele>77.0</ele><time>2026-03-29T06:55:39.075Z</time></trkpt><trkpt lat="44.9674316" lon="9.7819004"><ele>77.0</ele><time>2026-03-29T06:55:41.087Z</time></trkpt><trkpt lat="44.9673643" lon="9.7818703"><ele>77.0</ele><time>2026-03-29T06:55:43.072Z</time></trkpt><trkpt lat="44.9672882" lon="9.7818349"><ele>77.0</ele><time>2026-03-29T06:55:45.093Z</time></trkpt><trkpt lat="44.9672196" lon="9.7818022"><ele>77.0</ele><time>2026-03-29T06:55:47.084Z</time></trkpt><trkpt lat="44.96715" lon="9.7817631"><ele>77.0</ele><time>2026-03-29T06:55:49.074Z</time></trkpt><trkpt lat="44.9670854" lon="9.7817289"><ele>77.0</ele><time>2026-03-29T06:55:51.074Z</time></trkpt><trkpt lat="44.9670238" lon="9.7816959"><ele>77.0</ele><time>2026-03-29T06:55:53.039Z</time></trkpt><trkpt lat="44.9669361" lon="9.7816593"><ele>77.0</ele><time>2026-03-29T06:55:56.07Z</time></trkpt><trkpt lat="44.9668631" lon="9.7816315"><ele>77.0</ele><time>2026-03-29T06:55:59.074Z</time></trkpt><trkpt lat="44.9667982" lon="9.7815908"><ele>77.0</ele><time>2026-03-29T06:56:03.061Z</time></trkpt><trkpt lat="44.9667414" lon="9.7815427"><ele>77.0</ele><time>2026-03-29T06:56:09.045Z</time></trkpt><trkpt lat="44.9666888" lon="9.7816023"><ele>77.0</ele><time>2026-03-29T06:56:13.069Z</time></trkpt><trkpt lat="44.9666371" lon="9.7816742"><ele>77.0</ele><time>2026-03-29T06:56:18.059Z</time></trkpt><trkpt lat="44.9665753" lon="9.7817106"><ele>77.0</ele><time>2026-03-29T06:56:23.072Z</time></trkpt><trkpt lat="44.9665341" lon="9.7817999"><ele>77.0</ele><time>2026-03-29T06:56:28.078Z</time></trkpt><trkpt lat="44.9665087" lon="9.7819045"><ele>77.0</ele><time>2026-03-29T06:56:32.078Z</time></trkpt><trkpt lat="44.9664749" lon="9.7820034"><ele>77.0</ele><time>2026-03-29T06:56:36.058Z</time></trkpt><trkpt lat="44.9664389" lon="9.7820826"><ele>77.0</ele><time>2026-03-29T06:56:42.072Z</time></trkpt><trkpt lat="44.9663987" lon="9.7821694"><ele>77.0</ele><time>2026-03-29T06:56:48.037Z</time></trkpt><trkpt lat="44.9663943" lon="9.7822676"><ele>77.0</ele><time>2026-03-29T06:56:55.079Z</time></trkpt><trkpt lat="44.9663542" lon="9.7823473"><ele>77.0</ele><time>2026-03-29T06:57:00.078Z</time></trkpt><trkpt lat="44.9663173" lon="9.7824243"><ele>77.0</ele><time>2026-03-29T06:57:05.084Z</time></trkpt><trkpt lat="44.9663817" lon="9.7824426"><ele>77.0</ele><time>2026-03-29T06:57:12.072Z</time></trkpt><trkpt lat="44.9664187" lon="9.7823521"><ele>77.0</ele><time>2026-03-29T06:57:20.077Z</time></trkpt><trkpt lat="44.9664611" lon="9.7822833"><ele>77.0</ele><time>2026-03-29T06:57:29.08Z</time></trkpt><trkpt lat="44.9665092" lon="9.7822197"><ele>77.0</ele><time>2026-03-29T06:58:20.07Z</time></trkpt><trkpt lat="44.9665524" lon="9.782149"><ele>77.0</ele><time>2026-03-29T06:58:27.086Z</time></trkpt><trkpt lat="44.9665836" lon="9.782066"><ele>77.0</ele><time>2026-03-29T06:58:37.073Z</time></trkpt><trkpt lat="44.9665375" lon="9.7820046"><ele>77.0</ele><time>2026-03-29T07:00:30.059Z</time></trkpt><trkpt lat="44.9664715" lon="9.7820366"><ele>77.0</ele><time>2026-03-29T07:00:41.062Z</time></trkpt><trkpt lat="44.9664218" lon="9.7820986"><ele>77.0</ele><time>2026-03-29T07:00:45.092Z</time></trkpt><trkpt lat="44.9663515" lon="9.7821313"><ele>77.0</ele><time>2026-03-29T07:00:49.091Z</time></trkpt><trkpt lat="44.9662738" lon="9.7821526"><ele>77.0</ele><time>2026-03-29T07:00:52.072Z</time></trkpt><trkpt lat="44.966198" lon="9.7821318"><ele>77.0</ele><time>2026-03-29T07:00:55.077Z</time></trkpt><trkpt lat="44.966125" lon="9.78212"><ele>77.0</ele><time>2026-03-29T07:00:58.09Z</time></trkpt><trkpt lat="44.9660367" lon="9.7820995"><ele>77.0</ele><time>2026-03-29T07:01:01.078Z</time></trkpt><trkpt lat="44.9659471" lon="9.7820723"><ele>77.0</ele><time>2026-03-29T07:01:04.09Z</time></trkpt><trkpt lat="44.9658819" lon="9.7820561"><ele>77.14285714285714</ele><time>2026-03-29T07:01:06.07Z</time></trkpt><trkpt lat="44.9658193" lon="9.7820363"><ele>77.28571428571428</ele><time>2026-03-29T07:01:08.075Z</time></trkpt><trkpt lat="44.9657497" lon="9.7820218"><ele>77.42857142857143</ele><time>2026-03-29T07:01:10.073Z</time></trkpt><trkpt lat="44.9656717" lon="9.7820045"><ele>77.57142857142857</ele><time>2026-03-29T07:01:12.073Z</time></trkpt><trkpt lat="44.965591" lon="9.7819927"><ele>77.71428571428571</ele><time>2026-03-29T07:01:14.079Z</time></trkpt><trkpt lat="44.9655146" lon="9.7819803"><ele>77.85714285714286</ele><time>2026-03-29T07:01:16.077Z</time></trkpt><trkpt lat="44.9654393" lon="9.7819652"><ele>78.0</ele><time>2026-03-29T07:01:18.077Z</time></trkpt><trkpt lat="44.9653576" lon="9.7819532"><ele>78.0</ele><time>2026-03-29T07:01:20.082Z</time></trkpt><trkpt lat="44.9652779" lon="9.7819441"><ele>78.0</ele><time>2026-03-29T07:01:22.092Z</time></trkpt><trkpt lat="44.9651971" lon="9.7819336"><ele>78.0</ele><time>2026-03-29T07:01:24.067Z</time></trkpt><trkpt lat="44.9651155" lon="9.7819224"><ele>78.0</ele><time>2026-03-29T07:01:26.08Z</time></trkpt><trkpt lat="44.9650314" lon="9.7819144"><ele>78.0</ele><time>2026-03-29T07:01:28.08Z</time></trkpt><trkpt lat="44.9649539" lon="9.7818923"><ele>78.0</ele><time>2026-03-29T07:01:30.078Z</time></trkpt><trkpt lat="44.9648727" lon="9.7818744"><ele>78.0</ele><time>2026-03-29T07:01:32.085Z</time></trkpt><trkpt lat="44.9647908" lon="9.7818607"><ele>78.0</ele><time>2026-03-29T07:01:34.088Z</time></trkpt><trkpt lat="44.9647094" lon="9.7818407"><ele>78.0</ele><time>2026-03-29T07:01:36.052Z</time></trkpt><trkpt lat="44.964627" lon="9.7818234"><ele>78.0</ele><time>2026-03-29T07:01:38.089Z</time></trkpt><trkpt lat="44.9645438" lon="9.7818076"><ele>78.0</ele><time>2026-03-29T07:01:40.063Z</time></trkpt><trkpt lat="44.9644605" lon="9.7817888"><ele>78.0</ele><time>2026-03-29T07:01:42.086Z</time></trkpt><trkpt lat="44.9643744" lon="9.7817665"><ele>78.0</ele><time>2026-03-29T07:01:44.065Z</time></trkpt><trkpt lat="44.9642836" lon="9.781755"><ele>78.0</ele><time>2026-03-29T07:01:46.084Z</time></trkpt><trkpt lat="44.9642012" lon="9.7817423"><ele>78.0</ele><time>2026-03-29T07:01:48.08Z</time></trkpt><trkpt lat="44.9641166" lon="9.7817191"><ele>78.0</ele><time>2026-03-29T07:01:50.072Z</time></trkpt><trkpt lat="44.9640302" lon="9.7817031"><ele>78.0</ele><time>2026-03-29T07:01:52.086Z</time></trkpt><trkpt lat="44.9639483" lon="9.7816818"><ele>78.0</ele><time>2026-03-29T07:01:54.074Z</time></trkpt><trkpt lat="44.9638711" lon="9.7816711"><ele>77.66666666666667</ele><time>2026-03-29T07:01:56.077Z</time></trkpt><trkpt lat="44.9637924" lon="9.7816566"><ele>77.33333333333333</ele><time>2026-03-29T07:01:58.033Z</time></trkpt><trkpt lat="44.9637126" lon="9.781642"><ele>77.0</ele><time>2026-03-29T07:02:00.075Z</time></trkpt><trkpt lat="44.9636321" lon="9.7816287"><ele>76.66666666666666</ele><time>2026-03-29T07:02:02.076Z</time></trkpt><trkpt lat="44.9635547" lon="9.7816193"><ele>76.33333333333333</ele><time>2026-03-29T07:02:04.069Z</time></trkpt><trkpt lat="44.9634702" lon="9.7816115"><ele>76.0</ele><time>2026-03-29T07:02:06.084Z</time></trkpt><trkpt lat="44.9633937" lon="9.781602"><ele>76.33333333333333</ele><time>2026-03-29T07:02:08.076Z</time></trkpt><trkpt lat="44.9633106" lon="9.7815815"><ele>76.66666666666666</ele><time>2026-03-29T07:02:10.071Z</time></trkpt><trkpt lat="44.9632291" lon="9.7815579"><ele>77.0</ele><time>2026-03-29T07:02:12.065Z</time></trkpt><trkpt lat="44.9631455" lon="9.7815342"><ele>77.33333333333333</ele><time>2026-03-29T07:02:14.071Z</time></trkpt><trkpt lat="44.963052" lon="9.7815223"><ele>77.66666666666667</ele><time>2026-03-29T07:02:16.085Z</time></trkpt><trkpt lat="44.9629607" lon="9.7815131"><ele>78.0</ele><time>2026-03-29T07:02:18.074Z</time></trkpt><trkpt lat="44.9628711" lon="9.7814964"><ele>78.0</ele><time>2026-03-29T07:02:20.076Z</time></trkpt><trkpt lat="44.9627921" lon="9.7814736"><ele>78.0</ele><time>2026-03-29T07:02:22.079Z</time></trkpt><trkpt lat="44.9627038" lon="9.7814575"><ele>78.0</ele><time>2026-03-29T07:02:24.077Z</time></trkpt><trkpt lat="44.9626119" lon="9.781444"><ele>78.0</ele><time>2026-03-29T07:02:26.075Z</time></trkpt><trkpt lat="44.9625183" lon="9.7814298"><ele>78.0</ele><time>2026-03-29T07:02:28.071Z</time></trkpt><trkpt lat="44.9624294" lon="9.7814176"><ele>78.0</ele><time>2026-03-29T07:02:30.075Z</time></trkpt><trkpt lat="44.9623399" lon="9.7813995"><ele>77.6</ele><time>2026-03-29T07:02:32.068Z</time></trkpt><trkpt lat="44.9622532" lon="9.7813745"><ele>77.19999999999999</ele><time>2026-03-29T07:02:34.077Z</time></trkpt><trkpt lat="44.9621646" lon="9.781358"><ele>76.8</ele><time>2026-03-29T07:02:36.088Z</time></trkpt><trkpt lat="44.9620723" lon="9.7813427"><ele>76.39999999999999</ele><time>2026-03-29T07:02:38.082Z</time></trkpt><trkpt lat="44.9619816" lon="9.781327"><ele>76.0</ele><time>2026-03-29T07:02:40.066Z</time></trkpt><trkpt lat="44.96189" lon="9.7813181"><ele>76.0</ele><time>2026-03-29T07:02:42.071Z</time></trkpt><trkpt lat="44.9618053" lon="9.781299"><ele>76.0</ele><time>2026-03-29T07:02:44.073Z</time></trkpt><trkpt lat="44.9617155" lon="9.7812794"><ele>76.0</ele><time>2026-03-29T07:02:46.072Z</time></trkpt><trkpt lat="44.9616278" lon="9.7812597"><ele>76.0</ele><time>2026-03-29T07:02:48.077Z</time></trkpt><trkpt lat="44.9615279" lon="9.7812422"><ele>76.0</ele><time>2026-03-29T07:02:50.087Z</time></trkpt><trkpt lat="44.9614359" lon="9.7812282"><ele>76.0</ele><time>2026-03-29T07:02:52.077Z</time></trkpt><trkpt lat="44.9613442" lon="9.7812094"><ele>76.0</ele><time>2026-03-29T07:02:54.062Z</time></trkpt><trkpt lat="44.9612479" lon="9.7811945"><ele>76.0</ele><time>2026-03-29T07:02:56.079Z</time></trkpt><trkpt lat="44.9611599" lon="9.7811734"><ele>76.0</ele><time>2026-03-29T07:02:58.059Z</time></trkpt><trkpt lat="44.9610696" lon="9.7811561"><ele>76.0</ele><time>2026-03-29T07:03:00.077Z</time></trkpt><trkpt lat="44.9609746" lon="9.781148"><ele>76.0</ele><time>2026-03-29T07:03:02.077Z</time></trkpt><trkpt lat="44.9608856" lon="9.7811336"><ele>76.0</ele><time>2026-03-29T07:03:04.085Z</time></trkpt><trkpt lat="44.9608001" lon="9.7811085"><ele>76.0</ele><time>2026-03-29T07:03:06.088Z</time></trkpt><trkpt lat="44.9607071" lon="9.781083"><ele>76.0</ele><time>2026-03-29T07:03:08.099Z</time></trkpt><trkpt lat="44.9606192" lon="9.7810699"><ele>76.0</ele><time>2026-03-29T07:03:10.089Z</time></trkpt><trkpt lat="44.9605246" lon="9.781054"><ele>76.39999999999999</ele><time>2026-03-29T07:03:12.081Z</time></trkpt><trkpt lat="44.960434" lon="9.7810283"><ele>76.8</ele><time>2026-03-29T07:03:14.082Z</time></trkpt><trkpt lat="44.9603436" lon="9.7810103"><ele>77.19999999999999</ele><time>2026-03-29T07:03:16.09Z</time></trkpt><trkpt lat="44.9602572" lon="9.780984"><ele>77.6</ele><time>2026-03-29T07:03:18.076Z</time></trkpt><trkpt lat="44.9601628" lon="9.7809644"><ele>78.0</ele><time>2026-03-29T07:03:20.075Z</time></trkpt><trkpt lat="44.9600764" lon="9.7809396"><ele>78.33333333333333</ele><time>2026-03-29T07:03:22.077Z</time></trkpt><trkpt lat="44.9599904" lon="9.7809084"><ele>78.66666666666667</ele><time>2026-03-29T07:03:24.072Z</time></trkpt><trkpt lat="44.9598986" lon="9.7808908"><ele>79.0</ele><time>2026-03-29T07:03:26.074Z</time></trkpt><trkpt lat="44.9598127" lon="9.7808675"><ele>79.33333333333334</ele><time>2026-03-29T07:03:28.062Z</time></trkpt><trkpt lat="44.9597323" lon="9.7808494"><ele>79.66666666666667</ele><time>2026-03-29T07:03:30.083Z</time></trkpt><trkpt lat="44.9596394" lon="9.7808235"><ele>80.0</ele><time>2026-03-29T07:03:32.087Z</time></trkpt><trkpt lat="44.9595464" lon="9.7808117"><ele>80.0</ele><time>2026-03-29T07:03:34.055Z</time></trkpt><trkpt lat="44.9594589" lon="9.7807853"><ele>80.0</ele><time>2026-03-29T07:03:36.084Z</time></trkpt><trkpt lat="44.9593693" lon="9.7807678"><ele>80.0</ele><time>2026-03-29T07:03:38.068Z</time></trkpt><trkpt lat="44.9592777" lon="9.7807491"><ele>80.0</ele><time>2026-03-29T07:03:40.073Z</time></trkpt><trkpt lat="44.959187" lon="9.7807195"><ele>80.0</ele><time>2026-03-29T07:03:42.082Z</time></trkpt><trkpt lat="44.9590924" lon="9.7806971"><ele>79.6</ele><time>2026-03-29T07:03:44.083Z</time></trkpt><trkpt lat="44.9589998" lon="9.7806813"><ele>79.2</ele><time>2026-03-29T07:03:46.073Z</time></trkpt><trkpt lat="44.9589114" lon="9.7806555"><ele>78.8</ele><time>2026-03-29T07:03:48.082Z</time></trkpt><trkpt lat="44.9588192" lon="9.7806313"><ele>78.4</ele><time>2026-03-29T07:03:50.075Z</time></trkpt><trkpt lat="44.9587278" lon="9.7806054"><ele>78.0</ele><time>2026-03-29T07:03:52.098Z</time></trkpt><trkpt lat="44.9586392" lon="9.7805864"><ele>78.0</ele><time>2026-03-29T07:03:54.074Z</time></trkpt><trkpt lat="44.9585494" lon="9.7805626"><ele>78.0</ele><time>2026-03-29T07:03:56.062Z</time></trkpt><trkpt lat="44.9584669" lon="9.7805341"><ele>78.0</ele><time>2026-03-29T07:03:58.058Z</time></trkpt><trkpt lat="44.9583794" lon="9.7805105"><ele>78.0</ele><time>2026-03-29T07:04:00.075Z</time></trkpt><trkpt lat="44.9582949" lon="9.7804788"><ele>78.0</ele><time>2026-03-29T07:04:02.081Z</time></trkpt><trkpt lat="44.9582048" lon="9.7804603"><ele>78.0</ele><time>2026-03-29T07:04:04.074Z</time></trkpt><trkpt lat="44.9581145" lon="9.7804356"><ele>78.2</ele><time>2026-03-29T07:04:06.077Z</time></trkpt><trkpt lat="44.9580249" lon="9.7804163"><ele>78.4</ele><time>2026-03-29T07:04:08.071Z</time></trkpt><trkpt lat="44.957934" lon="9.7803907"><ele>78.60000000000001</ele><time>2026-03-29T07:04:10.087Z</time></trkpt><trkpt lat="44.9578437" lon="9.7803631"><ele>78.8</ele><time>2026-03-29T07:04:12.062Z</time></trkpt><trkpt lat="44.9577481" lon="9.7803408"><ele>79.0</ele><time>2026-03-29T07:04:14.092Z</time></trkpt><trkpt lat="44.957661" lon="9.7803132"><ele>79.0</ele><time>2026-03-29T07:04:16.076Z</time></trkpt><trkpt lat="44.9575645" lon="9.780289"><ele>79.0</ele><time>2026-03-29T07:04:18.081Z</time></trkpt><trkpt lat="44.9574742" lon="9.7802696"><ele>79.0</ele><time>2026-03-29T07:04:20.085Z</time></trkpt><trkpt lat="44.9573803" lon="9.7802479"><ele>79.0</ele><time>2026-03-29T07:04:22.082Z</time></trkpt><trkpt lat="44.957288" lon="9.7802204"><ele>79.0</ele><time>2026-03-29T07:04:24.071Z</time></trkpt><trkpt lat="44.9571964" lon="9.7801961"><ele>79.16666666666666</ele><time>2026-03-29T07:04:26.074Z</time></trkpt><trkpt lat="44.9571052" lon="9.7801798"><ele>79.33333333333333</ele><time>2026-03-29T07:04:28.095Z</time></trkpt><trkpt lat="44.9570089" lon="9.7801638"><ele>79.5</ele><time>2026-03-29T07:04:30.033Z</time></trkpt><trkpt lat="44.9569171" lon="9.7801518"><ele>79.66666666666667</ele><time>2026-03-29T07:04:32.079Z</time></trkpt><trkpt lat="44.9568362" lon="9.7801309"><ele>79.83333333333334</ele><time>2026-03-29T07:04:34.069Z</time></trkpt><trkpt lat="44.9567537" lon="9.7801224"><ele>80.0</ele><time>2026-03-29T07:04:36.068Z</time></trkpt><trkpt lat="44.9566689" lon="9.7801023"><ele>80.16666666666667</ele><time>2026-03-29T07:04:38.061Z</time></trkpt><trkpt lat="44.956585" lon="9.7800759"><ele>80.33333333333334</ele><time>2026-03-29T07:04:40.071Z</time></trkpt><trkpt lat="44.9564996" lon="9.7800601"><ele>80.5</ele><time>2026-03-29T07:04:42.071Z</time></trkpt><trkpt lat="44.9564151" lon="9.7800353"><ele>80.66666666666667</ele><time>2026-03-29T07:04:44.026Z</time></trkpt><trkpt lat="44.9563321" lon="9.7800148"><ele>80.83333333333333</ele><time>2026-03-29T07:04:46.065Z</time></trkpt><trkpt lat="44.9562515" lon="9.77998"><ele>81.0</ele><time>2026-03-29T07:04:48.075Z</time></trkpt><trkpt lat="44.9561656" lon="9.7799565"><ele>81.0</ele><time>2026-03-29T07:04:50.075Z</time></trkpt><trkpt lat="44.9560804" lon="9.7799371"><ele>81.0</ele><time>2026-03-29T07:04:52.083Z</time></trkpt><trkpt lat="44.9559922" lon="9.7799356"><ele>81.0</ele><time>2026-03-29T07:04:54.083Z</time></trkpt><trkpt lat="44.9559153" lon="9.7799819"><ele>81.0</ele><time>2026-03-29T07:04:56.066Z</time></trkpt><trkpt lat="44.9558461" lon="9.7800579"><ele>81.0</ele><time>2026-03-29T07:04:58.089Z</time></trkpt><trkpt lat="44.9557897" lon="9.7801604"><ele>81.0</ele><time>2026-03-29T07:05:00.073Z</time></trkpt><trkpt lat="44.9557425" lon="9.780265"><ele>81.16666666666667</ele><time>2026-03-29T07:05:02.06Z</time></trkpt><trkpt lat="44.9557101" lon="9.7803766"><ele>81.33333333333333</ele><time>2026-03-29T07:05:04.07Z</time></trkpt><trkpt lat="44.9556779" lon="9.7804922"><ele>81.5</ele><time>2026-03-29T07:05:06.081Z</time></trkpt><trkpt lat="44.9556516" lon="9.7806107"><ele>81.66666666666666</ele><time>2026-03-29T07:05:08.074Z</time></trkpt><trkpt lat="44.9556311" lon="9.7807317"><ele>81.83333333333333</ele><time>2026-03-29T07:05:10.091Z</time></trkpt><trkpt lat="44.9556085" lon="9.7808531"><ele>82.0</ele><time>2026-03-29T07:05:12.078Z</time></trkpt><trkpt lat="44.9555894" lon="9.7809686"><ele>81.83333333333333</ele><time>2026-03-29T07:05:14.072Z</time></trkpt><trkpt lat="44.9555659" lon="9.7810847"><ele>81.66666666666666</ele><time>2026-03-29T07:05:16.078Z</time></trkpt><trkpt lat="44.9555451" lon="9.7812026"><ele>81.5</ele><time>2026-03-29T07:05:18.079Z</time></trkpt><trkpt lat="44.955533" lon="9.7813187"><ele>81.33333333333333</ele><time>2026-03-29T07:05:20.073Z</time></trkpt><trkpt lat="44.9555153" lon="9.7814406"><ele>81.16666666666667</ele><time>2026-03-29T07:05:22.073Z</time></trkpt><trkpt lat="44.9554959" lon="9.7815618"><ele>81.0</ele><time>2026-03-29T07:05:24.082Z</time></trkpt><trkpt lat="44.9554741" lon="9.7816734"><ele>81.0</ele><time>2026-03-29T07:05:26.079Z</time></trkpt><trkpt lat="44.9554534" lon="9.7817926"><ele>81.0</ele><time>2026-03-29T07:05:28.074Z</time></trkpt><trkpt lat="44.9554332" lon="9.7819104"><ele>81.0</ele><time>2026-03-29T07:05:30.09Z</time></trkpt><trkpt lat="44.9554084" lon="9.7820252"><ele>81.0</ele><time>2026-03-29T07:05:32.079Z</time></trkpt><trkpt lat="44.9553911" lon="9.7821512"><ele>81.0</ele><time>2026-03-29T07:05:34.082Z</time></trkpt><trkpt lat="44.9553677" lon="9.7822734"><ele>81.0</ele><time>2026-03-29T07:05:36.082Z</time></trkpt><trkpt lat="44.9553478" lon="9.7823946"><ele>81.0</ele><time>2026-03-29T07:05:38.078Z</time></trkpt><trkpt lat="44.9553288" lon="9.7825114"><ele>81.0</ele><time>2026-03-29T07:05:40.074Z</time></trkpt><trkpt lat="44.9553076" lon="9.7826295"><ele>81.0</ele><time>2026-03-29T07:05:42.074Z</time></trkpt><trkpt lat="44.9552776" lon="9.7827457"><ele>81.0</ele><time>2026-03-29T07:05:44.057Z</time></trkpt><trkpt lat="44.9552526" lon="9.7828735"><ele>81.0</ele><time>2026-03-29T07:05:46.058Z</time></trkpt><trkpt lat="44.9552275" lon="9.7829996"><ele>81.0</ele><time>2026-03-29T07:05:48.083Z</time></trkpt><trkpt lat="44.9552034" lon="9.7831219"><ele>81.0</ele><time>2026-03-29T07:05:50.065Z</time></trkpt><trkpt lat="44.9551813" lon="9.783245"><ele>81.0</ele><time>2026-03-29T07:05:52.078Z</time></trkpt><trkpt lat="44.9551574" lon="9.7833721"><ele>81.0</ele><time>2026-03-29T07:05:54.084Z</time></trkpt><trkpt lat="44.9551294" lon="9.7834993"><ele>81.0</ele><time>2026-03-29T07:05:56.072Z</time></trkpt><trkpt lat="44.9551062" lon="9.7836251"><ele>81.0</ele><time>2026-03-29T07:05:58.085Z</time></trkpt><trkpt lat="44.955083" lon="9.7837497"><ele>81.0</ele><time>2026-03-29T07:06:00.089Z</time></trkpt><trkpt lat="44.9550619" lon="9.7838706"><ele>81.0</ele><time>2026-03-29T07:06:02.07Z</time></trkpt><trkpt lat="44.9550371" lon="9.7839926"><ele>81.0</ele><time>2026-03-29T07:06:04.078Z</time></trkpt><trkpt lat="44.9550035" lon="9.7840876"><ele>81.0</ele><time>2026-03-29T07:06:06.073Z</time></trkpt><trkpt lat="44.9549272" lon="9.7841029"><ele>81.0</ele><time>2026-03-29T07:06:08.076Z</time></trkpt><trkpt lat="44.9548594" lon="9.7840682"><ele>81.0</ele><time>2026-03-29T07:06:10.078Z</time></trkpt><trkpt lat="44.9547867" lon="9.7840382"><ele>81.0</ele><time>2026-03-29T07:06:12.074Z</time></trkpt><trkpt lat="44.9547147" lon="9.7840245"><ele>81.0</ele><time>2026-03-29T07:06:14.063Z</time></trkpt><trkpt lat="44.9546429" lon="9.7840051"><ele>81.0</ele><time>2026-03-29T07:06:16.063Z</time></trkpt><trkpt lat="44.9545648" lon="9.7839956"><ele>81.0</ele><time>2026-03-29T07:06:18.078Z</time></trkpt><trkpt lat="44.954484" lon="9.7839768"><ele>81.0</ele><time>2026-03-29T07:06:20.063Z</time></trkpt><trkpt lat="44.9544096" lon="9.7839608"><ele>81.0</ele><time>2026-03-29T07:06:22.071Z</time></trkpt><trkpt lat="44.9543276" lon="9.7839491"><ele>81.0</ele><time>2026-03-29T07:06:24.076Z</time></trkpt><trkpt lat="44.9542516" lon="9.783932"><ele>81.0</ele><time>2026-03-29T07:06:26.073Z</time></trkpt><trkpt lat="44.9541759" lon="9.7839117"><ele>81.0</ele><time>2026-03-29T07:06:28.069Z</time></trkpt><trkpt lat="44.9540965" lon="9.7838968"><ele>81.0</ele><time>2026-03-29T07:06:30.083Z</time></trkpt><trkpt lat="44.9540253" lon="9.7838809"><ele>81.0</ele><time>2026-03-29T07:06:32.078Z</time></trkpt><trkpt lat="44.95395" lon="9.7838642"><ele>81.0</ele><time>2026-03-29T07:06:34.068Z</time></trkpt><trkpt lat="44.9538748" lon="9.7838418"><ele>81.0</ele><time>2026-03-29T07:06:36.078Z</time></trkpt><trkpt lat="44.9538018" lon="9.78382"><ele>81.0</ele><time>2026-03-29T07:06:38.094Z</time></trkpt><trkpt lat="44.9537273" lon="9.7838093"><ele>81.0</ele><time>2026-03-29T07:06:40.049Z</time></trkpt><trkpt lat="44.9536526" lon="9.7837932"><ele>81.0</ele><time>2026-03-29T07:06:42.061Z</time></trkpt><trkpt lat="44.9535796" lon="9.7837889"><ele>81.0</ele><time>2026-03-29T07:06:44.062Z</time></trkpt><trkpt lat="44.9535078" lon="9.7837747"><ele>81.0</ele><time>2026-03-29T07:06:46.056Z</time></trkpt><trkpt lat="44.9534297" lon="9.7837539"><ele>81.0</ele><time>2026-03-29T07:06:48.079Z</time></trkpt><trkpt lat="44.9533512" lon="9.7837278"><ele>81.0</ele><time>2026-03-29T07:06:50.073Z</time></trkpt><trkpt lat="44.9532732" lon="9.7837088"><ele>81.0</ele><time>2026-03-29T07:06:52.087Z</time></trkpt><trkpt lat="44.9531983" lon="9.7836992"><ele>81.0</ele><time>2026-03-29T07:06:54.081Z</time></trkpt><trkpt lat="44.9531093" lon="9.7836885"><ele>81.0</ele><time>2026-03-29T07:06:56.09Z</time></trkpt><trkpt lat="44.9530328" lon="9.7836612"><ele>81.0</ele><time>2026-03-29T07:06:58.069Z</time></trkpt><trkpt lat="44.9529494" lon="9.7836404"><ele>81.0</ele><time>2026-03-29T07:07:00.077Z</time></trkpt><trkpt lat="44.9528669" lon="9.7836233"><ele>81.0</ele><time>2026-03-29T07:07:02.079Z</time></trkpt><trkpt lat="44.9527815" lon="9.7836071"><ele>81.0</ele><time>2026-03-29T07:07:04.036Z</time></trkpt><trkpt lat="44.9526995" lon="9.783589"><ele>81.0</ele><time>2026-03-29T07:07:06.082Z</time></trkpt><trkpt lat="44.9526248" lon="9.783572"><ele>81.0</ele><time>2026-03-29T07:07:08.074Z</time></trkpt><trkpt lat="44.9525518" lon="9.783548"><ele>81.0</ele><time>2026-03-29T07:07:10.076Z</time></trkpt><trkpt lat="44.9524643" lon="9.783528"><ele>81.0</ele><time>2026-03-29T07:07:12.087Z</time></trkpt><trkpt lat="44.9523864" lon="9.7835051"><ele>81.0</ele><time>2026-03-29T07:07:14.074Z</time></trkpt><trkpt lat="44.9523002" lon="9.7834895"><ele>81.0</ele><time>2026-03-29T07:07:16.071Z</time></trkpt><trkpt lat="44.9522152" lon="9.7834656"><ele>81.0</ele><time>2026-03-29T07:07:18.078Z</time></trkpt><trkpt lat="44.9521363" lon="9.7834479"><ele>81.0</ele><time>2026-03-29T07:07:20.077Z</time></trkpt><trkpt lat="44.9520518" lon="9.7834329"><ele>81.0</ele><time>2026-03-29T07:07:22.062Z</time></trkpt><trkpt lat="44.9519727" lon="9.7834192"><ele>81.0</ele><time>2026-03-29T07:07:24.112Z</time></trkpt><trkpt lat="44.9518938" lon="9.7834056"><ele>81.0</ele><time>2026-03-29T07:07:26.076Z</time></trkpt><trkpt lat="44.9518105" lon="9.783384"><ele>81.0</ele><time>2026-03-29T07:07:28.081Z</time></trkpt><trkpt lat="44.9517286" lon="9.7833814"><ele>81.0</ele><time>2026-03-29T07:07:30.05Z</time></trkpt><trkpt lat="44.9516416" lon="9.7833615"><ele>81.0</ele><time>2026-03-29T07:07:32.075Z</time></trkpt><trkpt lat="44.9515611" lon="9.7833532"><ele>81.0</ele><time>2026-03-29T07:07:34.067Z</time></trkpt><trkpt lat="44.9514776" lon="9.7833389"><ele>81.5</ele><time>2026-03-29T07:07:36.08Z</time></trkpt><trkpt lat="44.9513846" lon="9.7833375"><ele>82.0</ele><time>2026-03-29T07:07:38.065Z</time></trkpt><trkpt lat="44.9512988" lon="9.7833287"><ele>82.5</ele><time>2026-03-29T07:07:40.07Z</time></trkpt><trkpt lat="44.9512098" lon="9.7833193"><ele>83.0</ele><time>2026-03-29T07:07:42.064Z</time></trkpt><trkpt lat="44.9511237" lon="9.7833085"><ele>83.5</ele><time>2026-03-29T07:07:44.072Z</time></trkpt><trkpt lat="44.9510384" lon="9.7833048"><ele>84.0</ele><time>2026-03-29T07:07:46.08Z</time></trkpt><trkpt lat="44.950951" lon="9.7832971"><ele>83.83333333333333</ele><time>2026-03-29T07:07:48.075Z</time></trkpt><trkpt lat="44.9508693" lon="9.7832812"><ele>83.66666666666667</ele><time>2026-03-29T07:07:50.076Z</time></trkpt><trkpt lat="44.9507797" lon="9.7832778"><ele>83.5</ele><time>2026-03-29T07:07:52.07Z</time></trkpt><trkpt lat="44.9506969" lon="9.783269"><ele>83.33333333333334</ele><time>2026-03-29T07:07:54.059Z</time></trkpt><trkpt lat="44.9506044" lon="9.783257"><ele>83.16666666666667</ele><time>2026-03-29T07:07:56.069Z</time></trkpt><trkpt lat="44.950518" lon="9.783242"><ele>83.0</ele><time>2026-03-29T07:07:58.074Z</time></trkpt><trkpt lat="44.9504362" lon="9.783214"><ele>83.0</ele><time>2026-03-29T07:08:00.067Z</time></trkpt><trkpt lat="44.9503516" lon="9.7831936"><ele>83.0</ele><time>2026-03-29T07:08:02.079Z</time></trkpt><trkpt lat="44.9502713" lon="9.783159"><ele>83.0</ele><time>2026-03-29T07:08:04.076Z</time></trkpt><trkpt lat="44.9501907" lon="9.7831307"><ele>83.0</ele><time>2026-03-29T07:08:06.092Z</time></trkpt><trkpt lat="44.9501079" lon="9.7830919"><ele>83.0</ele><time>2026-03-29T07:08:08.085Z</time></trkpt><trkpt lat="44.9500233" lon="9.7830597"><ele>83.0</ele><time>2026-03-29T07:08:10.079Z</time></trkpt><trkpt lat="44.9499382" lon="9.7830432"><ele>83.0</ele><time>2026-03-29T07:08:12.083Z</time></trkpt><trkpt lat="44.9498521" lon="9.7830095"><ele>83.0</ele><time>2026-03-29T07:08:14.075Z</time></trkpt><trkpt lat="44.9497756" lon="9.7829685"><ele>83.0</ele><time>2026-03-29T07:08:16.068Z</time></trkpt><trkpt lat="44.9496856" lon="9.7829359"><ele>83.0</ele><time>2026-03-29T07:08:18.078Z</time></trkpt><trkpt lat="44.9495981" lon="9.782902"><ele>83.0</ele><time>2026-03-29T07:08:20.068Z</time></trkpt><trkpt lat="44.949516" lon="9.7828701"><ele>83.0</ele><time>2026-03-29T07:08:22.081Z</time></trkpt><trkpt lat="44.9494322" lon="9.7828359"><ele>83.0</ele><time>2026-03-29T07:08:24.08Z</time></trkpt><trkpt lat="44.9493459" lon="9.7828075"><ele>83.0</ele><time>2026-03-29T07:08:26.061Z</time></trkpt><trkpt lat="44.9492625" lon="9.7827691"><ele>83.0</ele><time>2026-03-29T07:08:28.066Z</time></trkpt><trkpt lat="44.9491801" lon="9.782746"><ele>83.0</ele><time>2026-03-29T07:08:30.076Z</time></trkpt><trkpt lat="44.9491006" lon="9.7827142"><ele>83.0</ele><time>2026-03-29T07:08:32.104Z</time></trkpt><trkpt lat="44.94902" lon="9.7826792"><ele>83.0</ele><time>2026-03-29T07:08:34.075Z</time></trkpt><trkpt lat="44.9489343" lon="9.7826524"><ele>83.0</ele><time>2026-03-29T07:08:36.074Z</time></trkpt><trkpt lat="44.9488549" lon="9.7826183"><ele>83.0</ele><time>2026-03-29T07:08:38.058Z</time></trkpt><trkpt lat="44.9487712" lon="9.7825881"><ele>83.0</ele><time>2026-03-29T07:08:40.074Z</time></trkpt><trkpt lat="44.9486877" lon="9.7825579"><ele>83.0</ele><time>2026-03-29T07:08:42.068Z</time></trkpt><trkpt lat="44.9486091" lon="9.7825271"><ele>83.0</ele><time>2026-03-29T07:08:44.071Z</time></trkpt><trkpt lat="44.9485247" lon="9.7824883"><ele>83.0</ele><time>2026-03-29T07:08:46.086Z</time></trkpt><trkpt lat="44.9484405" lon="9.7824631"><ele>83.16666666666667</ele><time>2026-03-29T07:08:48.062Z</time></trkpt><trkpt lat="44.9483535" lon="9.7824368"><ele>83.33333333333334</ele><time>2026-03-29T07:08:50.07Z</time></trkpt><trkpt lat="44.9482699" lon="9.7823993"><ele>83.5</ele><time>2026-03-29T07:08:52.073Z</time></trkpt><trkpt lat="44.9481892" lon="9.7823724"><ele>83.66666666666667</ele><time>2026-03-29T07:08:54.072Z</time></trkpt><trkpt lat="44.9481066" lon="9.7823375"><ele>83.83333333333333</ele><time>2026-03-29T07:08:56.083Z</time></trkpt><trkpt lat="44.9480195" lon="9.7823039"><ele>84.0</ele><time>2026-03-29T07:08:58.069Z</time></trkpt><trkpt lat="44.9479435" lon="9.7822643"><ele>84.0</ele><time>2026-03-29T07:09:00.071Z</time></trkpt><trkpt lat="44.9478596" lon="9.7822402"><ele>84.0</ele><time>2026-03-29T07:09:02.083Z</time></trkpt><trkpt lat="44.9477917" lon="9.7822077"><ele>84.0</ele><time>2026-03-29T07:09:04.074Z</time></trkpt><trkpt lat="44.9477266" lon="9.7822127"><ele>84.0</ele><time>2026-03-29T07:09:06.074Z</time></trkpt><trkpt lat="44.9477012" lon="9.7823012"><ele>84.0</ele><time>2026-03-29T07:09:08.08Z</time></trkpt><trkpt lat="44.9476877" lon="9.7824098"><ele>84.0</ele><time>2026-03-29T07:09:10.071Z</time></trkpt><trkpt lat="44.9476656" lon="9.782537"><ele>84.0</ele><time>2026-03-29T07:09:12.076Z</time></trkpt><trkpt lat="44.9476587" lon="9.7826594"><ele>84.0</ele><time>2026-03-29T07:09:14.083Z</time></trkpt><trkpt lat="44.9476496" lon="9.7828002"><ele>84.0</ele><time>2026-03-29T07:09:16.079Z</time></trkpt><trkpt lat="44.9476276" lon="9.7829237"><ele>84.0</ele><time>2026-03-29T07:09:18.066Z</time></trkpt><trkpt lat="44.9476022" lon="9.7830621"><ele>84.0</ele><time>2026-03-29T07:09:20.071Z</time></trkpt><trkpt lat="44.9475805" lon="9.7832204"><ele>84.0</ele><time>2026-03-29T07:09:22.041Z</time></trkpt><trkpt lat="44.9475656" lon="9.7833625"><ele>84.0</ele><time>2026-03-29T07:09:24.023Z</time></trkpt><trkpt lat="44.9475473" lon="9.7834937"><ele>84.0</ele><time>2026-03-29T07:09:26.071Z</time></trkpt><trkpt lat="44.9475325" lon="9.7836232"><ele>84.0</ele><time>2026-03-29T07:09:28.036Z</time></trkpt><trkpt lat="44.9475118" lon="9.7837657"><ele>84.0</ele><time>2026-03-29T07:09:30.027Z</time></trkpt><trkpt lat="44.9474956" lon="9.7839025"><ele>84.0</ele><time>2026-03-29T07:09:32.066Z</time></trkpt><trkpt lat="44.9474797" lon="9.7840377"><ele>84.0</ele><time>2026-03-29T07:09:34.07Z</time></trkpt><trkpt lat="44.9474657" lon="9.7841782"><ele>84.0</ele><time>2026-03-29T07:09:36.044Z</time></trkpt><trkpt lat="44.9474528" lon="9.7843167"><ele>84.0</ele><time>2026-03-29T07:09:38.071Z</time></trkpt><trkpt lat="44.9474368" lon="9.7844502"><ele>84.0</ele><time>2026-03-29T07:09:40.079Z</time></trkpt><trkpt lat="44.9474164" lon="9.7845848"><ele>84.0</ele><time>2026-03-29T07:09:42.079Z</time></trkpt><trkpt lat="44.9473993" lon="9.7847177"><ele>84.0</ele><time>2026-03-29T07:09:44.067Z</time></trkpt><trkpt lat="44.9473853" lon="9.7848562"><ele>84.0</ele><time>2026-03-29T07:09:46.078Z</time></trkpt><trkpt lat="44.9473659" lon="9.7849961"><ele>84.0</ele><time>2026-03-29T07:09:48.079Z</time></trkpt><trkpt lat="44.947354" lon="9.7851338"><ele>84.0</ele><time>2026-03-29T07:09:50.087Z</time></trkpt><trkpt lat="44.9473363" lon="9.785272"><ele>84.0</ele><time>2026-03-29T07:09:52.071Z</time></trkpt><trkpt lat="44.9473204" lon="9.7854069"><ele>84.0</ele><time>2026-03-29T07:09:54.069Z</time></trkpt><trkpt lat="44.9473051" lon="9.7855447"><ele>84.0</ele><time>2026-03-29T07:09:56.072Z</time></trkpt><trkpt lat="44.9472904" lon="9.7856835"><ele>84.0</ele><time>2026-03-29T07:09:58.081Z</time></trkpt><trkpt lat="44.9472711" lon="9.7858223"><ele>84.0</ele><time>2026-03-29T07:10:00.083Z</time></trkpt><trkpt lat="44.9472536" lon="9.7859672"><ele>83.80000000000001</ele><time>2026-03-29T07:10:02.075Z</time></trkpt><trkpt lat="44.9472331" lon="9.786107"><ele>83.60000000000001</ele><time>2026-03-29T07:10:04.089Z</time></trkpt><trkpt lat="44.9472164" lon="9.786258"><ele>83.4</ele><time>2026-03-29T07:10:06.089Z</time></trkpt><trkpt lat="44.9472023" lon="9.7863994"><ele>83.2</ele><time>2026-03-29T07:10:08.076Z</time></trkpt><trkpt lat="44.9471881" lon="9.7865516"><ele>83.0</ele><time>2026-03-29T07:10:10.078Z</time></trkpt><trkpt lat="44.9471689" lon="9.786693"><ele>83.0</ele><time>2026-03-29T07:10:12.076Z</time></trkpt><trkpt lat="44.9471511" lon="9.7868332"><ele>83.0</ele><time>2026-03-29T07:10:14.075Z</time></trkpt><trkpt lat="44.9471333" lon="9.7869796"><ele>83.0</ele><time>2026-03-29T07:10:16.045Z</time></trkpt><trkpt lat="44.9471134" lon="9.7871168"><ele>83.0</ele><time>2026-03-29T07:10:18.073Z</time></trkpt><trkpt lat="44.9471006" lon="9.7872709"><ele>83.0</ele><time>2026-03-29T07:10:20.062Z</time></trkpt><trkpt lat="44.9470854" lon="9.7874156"><ele>83.0</ele><time>2026-03-29T07:10:22.075Z</time></trkpt><trkpt lat="44.9470669" lon="9.787575"><ele>83.0</ele><time>2026-03-29T07:10:24.037Z</time></trkpt><trkpt lat="44.9470555" lon="9.7877173"><ele>83.0</ele><time>2026-03-29T07:10:26.04Z</time></trkpt><trkpt lat="44.9470372" lon="9.7878625"><ele>83.0</ele><time>2026-03-29T07:10:28.074Z</time></trkpt><trkpt lat="44.9470125" lon="9.7880107"><ele>83.0</ele><time>2026-03-29T07:10:30.08Z</time></trkpt><trkpt lat="44.9470003" lon="9.7881598"><ele>83.0</ele><time>2026-03-29T07:10:32.089Z</time></trkpt><trkpt lat="44.9469815" lon="9.7883102"><ele>83.0</ele><time>2026-03-29T07:10:34.077Z</time></trkpt><trkpt lat="44.9469586" lon="9.7884654"><ele>83.0</ele><time>2026-03-29T07:10:36.084Z</time></trkpt><trkpt lat="44.9469459" lon="9.7886095"><ele>83.0</ele><time>2026-03-29T07:10:38.077Z</time></trkpt><trkpt lat="44.9469152" lon="9.7887521"><ele>83.0</ele><time>2026-03-29T07:10:40.086Z</time></trkpt><trkpt lat="44.9468946" lon="9.7888947"><ele>83.2</ele><time>2026-03-29T07:10:42.081Z</time></trkpt><trkpt lat="44.9468675" lon="9.7890298"><ele>83.4</ele><time>2026-03-29T07:10:44.074Z</time></trkpt><trkpt lat="44.9468356" lon="9.7891647"><ele>83.60000000000001</ele><time>2026-03-29T07:10:46.086Z</time></trkpt><trkpt lat="44.9468011" lon="9.7893044"><ele>83.80000000000001</ele><time>2026-03-29T07:10:48.093Z</time></trkpt><trkpt lat="44.946764" lon="9.7894284"><ele>84.0</ele><time>2026-03-29T07:10:50.072Z</time></trkpt><trkpt lat="44.9467291" lon="9.7895654"><ele>84.0</ele><time>2026-03-29T07:10:52.095Z</time></trkpt><trkpt lat="44.9466964" lon="9.7896985"><ele>84.0</ele><time>2026-03-29T07:10:54.089Z</time></trkpt><trkpt lat="44.9466666" lon="9.7898254"><ele>84.0</ele><time>2026-03-29T07:10:56.074Z</time></trkpt><trkpt lat="44.9466437" lon="9.7899555"><ele>84.0</ele><time>2026-03-29T07:10:58.08Z</time></trkpt><trkpt lat="44.9466099" lon="9.7900871"><ele>84.0</ele><time>2026-03-29T07:11:00.073Z</time></trkpt><trkpt lat="44.9465826" lon="9.7902284"><ele>84.0</ele><time>2026-03-29T07:11:02.078Z</time></trkpt><trkpt lat="44.9465539" lon="9.7903646"><ele>84.0</ele><time>2026-03-29T07:11:04.069Z</time></trkpt><trkpt lat="44.9465263" lon="9.7904999"><ele>84.0</ele><time>2026-03-29T07:11:06.094Z</time></trkpt><trkpt lat="44.9464984" lon="9.7906358"><ele>84.0</ele><time>2026-03-29T07:11:08.1Z</time></trkpt><trkpt lat="44.9464687" lon="9.7907636"><ele>84.0</ele><time>2026-03-29T07:11:10.04Z</time></trkpt><trkpt lat="44.9464383" lon="9.7908968"><ele>84.0</ele><time>2026-03-29T07:11:12.083Z</time></trkpt><trkpt lat="44.946412" lon="9.7910396"><ele>84.0</ele><time>2026-03-29T07:11:14.089Z</time></trkpt><trkpt lat="44.9463851" lon="9.7911737"><ele>84.0</ele><time>2026-03-29T07:11:16.079Z</time></trkpt><trkpt lat="44.9463525" lon="9.7913123"><ele>84.0</ele><time>2026-03-29T07:11:18.08Z</time></trkpt><trkpt lat="44.9463266" lon="9.7914478"><ele>84.0</ele><time>2026-03-29T07:11:20.082Z</time></trkpt><trkpt lat="44.9462979" lon="9.7915809"><ele>84.0</ele><time>2026-03-29T07:11:22.081Z</time></trkpt><trkpt lat="44.9462698" lon="9.7917187"><ele>84.0</ele><time>2026-03-29T07:11:24.088Z</time></trkpt><trkpt lat="44.9462389" lon="9.7918512"><ele>84.0</ele><time>2026-03-29T07:11:26.073Z</time></trkpt><trkpt lat="44.9462113" lon="9.7919805"><ele>84.0</ele><time>2026-03-29T07:11:28.088Z</time></trkpt><trkpt lat="44.9461639" lon="9.7920903"><ele>84.0</ele><time>2026-03-29T07:11:30.077Z</time></trkpt><trkpt lat="44.9460829" lon="9.7921664"><ele>83.80000000000001</ele><time>2026-03-29T07:11:32.092Z</time></trkpt><trkpt lat="44.9459938" lon="9.7921677"><ele>83.60000000000001</ele><time>2026-03-29T07:11:34.085Z</time></trkpt><trkpt lat="44.9458997" lon="9.7921417"><ele>83.4</ele><time>2026-03-29T07:11:36.07Z</time></trkpt><trkpt lat="44.9457982" lon="9.7921244"><ele>83.2</ele><time>2026-03-29T07:11:38.076Z</time></trkpt><trkpt lat="44.9457024" lon="9.7920949"><ele>83.0</ele><time>2026-03-29T07:11:40.056Z</time></trkpt><trkpt lat="44.945611" lon="9.7920688"><ele>83.0</ele><time>2026-03-29T07:11:42.082Z</time></trkpt><trkpt lat="44.9455155" lon="9.7920487"><ele>83.0</ele><time>2026-03-29T07:11:44.081Z</time></trkpt><trkpt lat="44.9454235" lon="9.7920293"><ele>83.0</ele><time>2026-03-29T07:11:46.069Z</time></trkpt><trkpt lat="44.9453296" lon="9.7920049"><ele>83.0</ele><time>2026-03-29T07:11:48.088Z</time></trkpt><trkpt lat="44.9452332" lon="9.7919818"><ele>83.0</ele><time>2026-03-29T07:11:50.037Z</time></trkpt><trkpt lat="44.9451344" lon="9.7919503"><ele>83.2</ele><time>2026-03-29T07:11:52.095Z</time></trkpt><trkpt lat="44.9450439" lon="9.7919167"><ele>83.4</ele><time>2026-03-29T07:11:54.088Z</time></trkpt><trkpt lat="44.9449558" lon="9.7918845"><ele>83.60000000000001</ele><time>2026-03-29T07:11:56.076Z</time></trkpt><trkpt lat="44.9448664" lon="9.7918562"><ele>83.80000000000001</ele><time>2026-03-29T07:11:58.079Z</time></trkpt><trkpt lat="44.9447732" lon="9.7918327"><ele>84.0</ele><time>2026-03-29T07:12:00.095Z</time></trkpt><trkpt lat="44.944678" lon="9.7918094"><ele>84.0</ele><time>2026-03-29T07:12:02.096Z</time></trkpt><trkpt lat="44.9446089" lon="9.7918687"><ele>84.0</ele><time>2026-03-29T07:12:04.039Z</time></trkpt><trkpt lat="44.9445911" lon="9.7920074"><ele>84.0</ele><time>2026-03-29T07:12:06.078Z</time></trkpt><trkpt lat="44.9445658" lon="9.7921385"><ele>84.0</ele><time>2026-03-29T07:12:08.082Z</time></trkpt><trkpt lat="44.9445441" lon="9.792267"><ele>84.0</ele><time>2026-03-29T07:12:10.061Z</time></trkpt><trkpt lat="44.9445266" lon="9.7924056"><ele>84.0</ele><time>2026-03-29T07:12:12.079Z</time></trkpt><trkpt lat="44.944511" lon="9.7925522"><ele>84.0</ele><time>2026-03-29T07:12:14.077Z</time></trkpt><trkpt lat="44.9444957" lon="9.7926986"><ele>84.0</ele><time>2026-03-29T07:12:16.074Z</time></trkpt><trkpt lat="44.9444757" lon="9.7928492"><ele>84.0</ele><time>2026-03-29T07:12:18.074Z</time></trkpt><trkpt lat="44.944463" lon="9.792988"><ele>84.0</ele><time>2026-03-29T07:12:20.085Z</time></trkpt><trkpt lat="44.9444608" lon="9.7931264"><ele>83.6</ele><time>2026-03-29T07:12:22.091Z</time></trkpt><trkpt lat="44.9444577" lon="9.7932648"><ele>83.2</ele><time>2026-03-29T07:12:24.082Z</time></trkpt><trkpt lat="44.9444628" lon="9.79341"><ele>82.8</ele><time>2026-03-29T07:12:26.069Z</time></trkpt><trkpt lat="44.9444556" lon="9.7935537"><ele>82.39999999999999</ele><time>2026-03-29T07:12:28.073Z</time></trkpt><trkpt lat="44.9444356" lon="9.7936898"><ele>82.0</ele><time>2026-03-29T07:12:30.082Z</time></trkpt><trkpt lat="44.9444128" lon="9.7938208"><ele>82.0</ele><time>2026-03-29T07:12:32.069Z</time></trkpt><trkpt lat="44.9443942" lon="9.7939512"><ele>82.0</ele><time>2026-03-29T07:12:34.083Z</time></trkpt><trkpt lat="44.9443606" lon="9.7940815"><ele>82.0</ele><time>2026-03-29T07:12:36.073Z</time></trkpt><trkpt lat="44.9443299" lon="9.7942064"><ele>82.0</ele><time>2026-03-29T07:12:38.069Z</time></trkpt><trkpt lat="44.9442945" lon="9.79434"><ele>82.0</ele><time>2026-03-29T07:12:40.075Z</time></trkpt><trkpt lat="44.9442463" lon="9.7944703"><ele>82.19999999999999</ele><time>2026-03-29T07:12:42.08Z</time></trkpt><trkpt lat="44.9442056" lon="9.7945909"><ele>82.4</ele><time>2026-03-29T07:12:44.073Z</time></trkpt><trkpt lat="44.9441636" lon="9.7947174"><ele>82.6</ele><time>2026-03-29T07:12:46.053Z</time></trkpt><trkpt lat="44.9441163" lon="9.7948346"><ele>82.80000000000001</ele><time>2026-03-29T07:12:48.064Z</time></trkpt><trkpt lat="44.9440656" lon="9.7949717"><ele>83.0</ele><time>2026-03-29T07:12:50.061Z</time></trkpt><trkpt lat="44.9440181" lon="9.7951027"><ele>83.2</ele><time>2026-03-29T07:12:52.059Z</time></trkpt><trkpt lat="44.9439736" lon="9.7952309"><ele>83.4</ele><time>2026-03-29T07:12:54.087Z</time></trkpt><trkpt lat="44.9439202" lon="9.7953526"><ele>83.60000000000001</ele><time>2026-03-29T07:12:56.083Z</time></trkpt><trkpt lat="44.943868" lon="9.7954826"><ele>83.80000000000001</ele><time>2026-03-29T07:12:58.103Z</time></trkpt><trkpt lat="44.9438166" lon="9.795617"><ele>84.0</ele><time>2026-03-29T07:13:00.078Z</time></trkpt><trkpt lat="44.9437661" lon="9.7957527"><ele>84.0</ele><time>2026-03-29T07:13:02.082Z</time></trkpt><trkpt lat="44.943715" lon="9.7958815"><ele>84.0</ele><time>2026-03-29T07:13:04.093Z</time></trkpt><trkpt lat="44.9436594" lon="9.7960015"><ele>84.0</ele><time>2026-03-29T07:13:06.088Z</time></trkpt><trkpt lat="44.9436103" lon="9.7961242"><ele>84.0</ele><time>2026-03-29T07:13:08.067Z</time></trkpt><trkpt lat="44.9435686" lon="9.7962566"><ele>84.0</ele><time>2026-03-29T07:13:10.082Z</time></trkpt><trkpt lat="44.9435271" lon="9.7963864"><ele>83.80000000000001</ele><time>2026-03-29T07:13:12.078Z</time></trkpt><trkpt lat="44.9434775" lon="9.7965143"><ele>83.60000000000001</ele><time>2026-03-29T07:13:14.081Z</time></trkpt><trkpt lat="44.9434276" lon="9.7966416"><ele>83.4</ele><time>2026-03-29T07:13:16.089Z</time></trkpt><trkpt lat="44.9433722" lon="9.7967694"><ele>83.2</ele><time>2026-03-29T07:13:18.084Z</time></trkpt><trkpt lat="44.9433178" lon="9.7968961"><ele>83.0</ele><time>2026-03-29T07:13:20.099Z</time></trkpt><trkpt lat="44.9432616" lon="9.7970202"><ele>82.80000000000001</ele><time>2026-03-29T07:13:22.085Z</time></trkpt><trkpt lat="44.9431871" lon="9.7971334"><ele>82.6</ele><time>2026-03-29T07:13:24.106Z</time></trkpt><trkpt lat="44.9431084" lon="9.7972159"><ele>82.4</ele><time>2026-03-29T07:13:26.071Z</time></trkpt><trkpt lat="44.9430152" lon="9.7972715"><ele>82.19999999999999</ele><time>2026-03-29T07:13:28.075Z</time></trkpt><trkpt lat="44.9429179" lon="9.7973129"><ele>82.0</ele><time>2026-03-29T07:13:30.082Z</time></trkpt><trkpt lat="44.9428223" lon="9.7973433"><ele>82.0</ele><time>2026-03-29T07:13:32.071Z</time></trkpt><trkpt lat="44.942722" lon="9.7973454"><ele>82.0</ele><time>2026-03-29T07:13:34.069Z</time></trkpt><trkpt lat="44.9426294" lon="9.7973128"><ele>82.0</ele><time>2026-03-29T07:13:36.071Z</time></trkpt><trkpt lat="44.9425312" lon="9.7972967"><ele>82.0</ele><time>2026-03-29T07:13:38.081Z</time></trkpt><trkpt lat="44.9424341" lon="9.7972651"><ele>82.0</ele><time>2026-03-29T07:13:40.029Z</time></trkpt><trkpt lat="44.9423386" lon="9.7972475"><ele>82.25</ele><time>2026-03-29T07:13:42.076Z</time></trkpt><trkpt lat="44.9422374" lon="9.7972668"><ele>82.5</ele><time>2026-03-29T07:13:44.038Z</time></trkpt><trkpt lat="44.9421383" lon="9.7973321"><ele>82.75</ele><time>2026-03-29T07:13:46.084Z</time></trkpt><trkpt lat="44.9420373" lon="9.7974251"><ele>83.0</ele><time>2026-03-29T07:13:48.073Z</time></trkpt><trkpt lat="44.9419388" lon="9.7975234"><ele>83.0</ele><time>2026-03-29T07:13:50.08Z</time></trkpt><trkpt lat="44.9418384" lon="9.7976142"><ele>83.0</ele><time>2026-03-29T07:13:52.063Z</time></trkpt><trkpt lat="44.9417447" lon="9.7977163"><ele>83.0</ele><time>2026-03-29T07:13:54.087Z</time></trkpt><trkpt lat="44.9416526" lon="9.7977936"><ele>83.0</ele><time>2026-03-29T07:13:56.068Z</time></trkpt><trkpt lat="44.9415617" lon="9.797882"><ele>83.0</ele><time>2026-03-29T07:13:58.083Z</time></trkpt><trkpt lat="44.9414685" lon="9.7979544"><ele>83.0</ele><time>2026-03-29T07:14:00.079Z</time></trkpt><trkpt lat="44.941372" lon="9.7980269"><ele>83.0</ele><time>2026-03-29T07:14:02.081Z</time></trkpt><trkpt lat="44.9412764" lon="9.7981049"><ele>83.0</ele><time>2026-03-29T07:14:04.077Z</time></trkpt><trkpt lat="44.9411903" lon="9.7981845"><ele>83.0</ele><time>2026-03-29T07:14:06.076Z</time></trkpt><trkpt lat="44.9411022" lon="9.7982539"><ele>83.0</ele><time>2026-03-29T07:14:08.069Z</time></trkpt><trkpt lat="44.9410045" lon="9.7983357"><ele>83.0</ele><time>2026-03-29T07:14:10.079Z</time></trkpt><trkpt lat="44.9409137" lon="9.7984126"><ele>83.0</ele><time>2026-03-29T07:14:12.082Z</time></trkpt><trkpt lat="44.9408297" lon="9.7985029"><ele>83.0</ele><time>2026-03-29T07:14:14.099Z</time></trkpt><trkpt lat="44.9407412" lon="9.7985939"><ele>83.0</ele><time>2026-03-29T07:14:16.092Z</time></trkpt><trkpt lat="44.9406598" lon="9.7986936"><ele>83.60000000000001</ele><time>2026-03-29T07:14:18.073Z</time></trkpt><trkpt lat="44.94058" lon="9.7988046"><ele>84.2</ele><time>2026-03-29T07:14:20.095Z</time></trkpt><trkpt lat="44.9405138" lon="9.7989263"><ele>84.8</ele><time>2026-03-29T07:14:22.043Z</time></trkpt><trkpt lat="44.9404571" lon="9.7990467"><ele>85.4</ele><time>2026-03-29T07:14:24.091Z</time></trkpt><trkpt lat="44.9403945" lon="9.7991656"><ele>86.0</ele><time>2026-03-29T07:14:26.075Z</time></trkpt><trkpt lat="44.9403401" lon="9.799298"><ele>85.8</ele><time>2026-03-29T07:14:28.081Z</time></trkpt><trkpt lat="44.9402929" lon="9.7994267"><ele>85.6</ele><time>2026-03-29T07:14:30.079Z</time></trkpt><trkpt lat="44.9402504" lon="9.7995505"><ele>85.4</ele><time>2026-03-29T07:14:32.089Z</time></trkpt><trkpt lat="44.9401946" lon="9.7996691"><ele>85.2</ele><time>2026-03-29T07:14:34.083Z</time></trkpt><trkpt lat="44.9401012" lon="9.799741"><ele>85.0</ele><time>2026-03-29T07:14:36.091Z</time></trkpt><trkpt lat="44.9400007" lon="9.7997673"><ele>85.0</ele><time>2026-03-29T07:14:38.071Z</time></trkpt><trkpt lat="44.9399178" lon="9.7997152"><ele>85.0</ele><time>2026-03-29T07:14:40.056Z</time></trkpt><trkpt lat="44.9398435" lon="9.7996556"><ele>85.0</ele><time>2026-03-29T07:14:42.087Z</time></trkpt><trkpt lat="44.9397703" lon="9.7995976"><ele>85.0</ele><time>2026-03-29T07:14:44.083Z</time></trkpt><trkpt lat="44.9396959" lon="9.7995545"><ele>85.0</ele><time>2026-03-29T07:14:46.072Z</time></trkpt><trkpt lat="44.9396229" lon="9.79951"><ele>85.0</ele><time>2026-03-29T07:14:48.082Z</time></trkpt><trkpt lat="44.9395466" lon="9.7994526"><ele>85.0</ele><time>2026-03-29T07:14:50.073Z</time></trkpt><trkpt lat="44.9394616" lon="9.7993957"><ele>85.0</ele><time>2026-03-29T07:14:52.076Z</time></trkpt><trkpt lat="44.939375" lon="9.7993433"><ele>85.0</ele><time>2026-03-29T07:14:54.083Z</time></trkpt><trkpt lat="44.9392978" lon="9.7992833"><ele>85.0</ele><time>2026-03-29T07:14:56.07Z</time></trkpt><trkpt lat="44.9392211" lon="9.7992237"><ele>85.0</ele><time>2026-03-29T07:14:58.082Z</time></trkpt><trkpt lat="44.9391433" lon="9.7991592"><ele>84.8</ele><time>2026-03-29T07:15:00.081Z</time></trkpt><trkpt lat="44.9390731" lon="9.7990828"><ele>84.6</ele><time>2026-03-29T07:15:02.088Z</time></trkpt><trkpt lat="44.9390057" lon="9.7990001"><ele>84.4</ele><time>2026-03-29T07:15:04.084Z</time></trkpt><trkpt lat="44.9389321" lon="9.7989196"><ele>84.2</ele><time>2026-03-29T07:15:06.079Z</time></trkpt><trkpt lat="44.9388545" lon="9.7988474"><ele>84.0</ele><time>2026-03-29T07:15:08.081Z</time></trkpt><trkpt lat="44.9387758" lon="9.7987641"><ele>84.0</ele><time>2026-03-29T07:15:10.069Z</time></trkpt><trkpt lat="44.9386978" lon="9.7986911"><ele>84.0</ele><time>2026-03-29T07:15:12.065Z</time></trkpt><trkpt lat="44.9386244" lon="9.7986148"><ele>84.0</ele><time>2026-03-29T07:15:14.089Z</time></trkpt><trkpt lat="44.9385364" lon="9.7985621"><ele>84.0</ele><time>2026-03-29T07:15:16.078Z</time></trkpt><trkpt lat="44.9384482" lon="9.7985503"><ele>84.0</ele><time>2026-03-29T07:15:18.09Z</time></trkpt><trkpt lat="44.9383685" lon="9.7986067"><ele>84.0</ele><time>2026-03-29T07:15:20.081Z</time></trkpt><trkpt lat="44.938324" lon="9.7987059"><ele>84.0</ele><time>2026-03-29T07:15:22.071Z</time></trkpt><trkpt lat="44.9382846" lon="9.798813"><ele>84.0</ele><time>2026-03-29T07:15:24.078Z</time></trkpt><trkpt lat="44.9382592" lon="9.7989299"><ele>84.0</ele><time>2026-03-29T07:15:26.081Z</time></trkpt><trkpt lat="44.9382401" lon="9.7990394"><ele>84.0</ele><time>2026-03-29T07:15:28.088Z</time></trkpt><trkpt lat="44.938204" lon="9.7991667"><ele>84.0</ele><time>2026-03-29T07:15:30.079Z</time></trkpt><trkpt lat="44.938161" lon="9.7992842"><ele>84.2</ele><time>2026-03-29T07:15:32.081Z</time></trkpt><trkpt lat="44.9381014" lon="9.7993817"><ele>84.4</ele><time>2026-03-29T07:15:34.069Z</time></trkpt><trkpt lat="44.9380306" lon="9.7994683"><ele>84.6</ele><time>2026-03-29T07:15:36.085Z</time></trkpt><trkpt lat="44.9379704" lon="9.7995644"><ele>84.8</ele><time>2026-03-29T07:15:38.064Z</time></trkpt><trkpt lat="44.9379212" lon="9.7996855"><ele>85.0</ele><time>2026-03-29T07:15:40.085Z</time></trkpt><trkpt lat="44.9378733" lon="9.7998193"><ele>85.0</ele><time>2026-03-29T07:15:42.073Z</time></trkpt><trkpt lat="44.9378273" lon="9.7999383"><ele>85.0</ele><time>2026-03-29T07:15:44.074Z</time></trkpt><trkpt lat="44.9377875" lon="9.8000617"><ele>85.0</ele><time>2026-03-29T07:15:46.086Z</time></trkpt><trkpt lat="44.9377502" lon="9.8001784"><ele>85.0</ele><time>2026-03-29T07:15:48.078Z</time></trkpt><trkpt lat="44.9377123" lon="9.8003043"><ele>85.0</ele><time>2026-03-29T07:15:50.07Z</time></trkpt><trkpt lat="44.9376688" lon="9.8004277"><ele>85.4</ele><time>2026-03-29T07:15:52.081Z</time></trkpt><trkpt lat="44.9376211" lon="9.8005513"><ele>85.8</ele><time>2026-03-29T07:15:54.084Z</time></trkpt><trkpt lat="44.9375736" lon="9.8006686"><ele>86.19999999999999</ele><time>2026-03-29T07:15:56.086Z</time></trkpt><trkpt lat="44.9375204" lon="9.8007818"><ele>86.6</ele><time>2026-03-29T07:15:58.086Z</time></trkpt><trkpt lat="44.9374539" lon="9.8008699"><ele>87.0</ele><time>2026-03-29T07:16:00.074Z</time></trkpt><trkpt lat="44.937363" lon="9.8009284"><ele>87.0</ele><time>2026-03-29T07:16:02.094Z</time></trkpt><trkpt lat="44.9372648" lon="9.8009542"><ele>87.0</ele><time>2026-03-29T07:16:04.07Z</time></trkpt><trkpt lat="44.9371785" lon="9.8009569"><ele>87.0</ele><time>2026-03-29T07:16:06.077Z</time></trkpt><trkpt lat="44.9370828" lon="9.8009391"><ele>87.0</ele><time>2026-03-29T07:16:08.075Z</time></trkpt><trkpt lat="44.9369904" lon="9.8009301"><ele>87.0</ele><time>2026-03-29T07:16:10.065Z</time></trkpt><trkpt lat="44.9368951" lon="9.8009248"><ele>87.0</ele><time>2026-03-29T07:16:12.096Z</time></trkpt><trkpt lat="44.9368024" lon="9.8009215"><ele>87.0</ele><time>2026-03-29T07:16:14.075Z</time></trkpt><trkpt lat="44.9367134" lon="9.8009152"><ele>87.0</ele><time>2026-03-29T07:16:16.081Z</time></trkpt><trkpt lat="44.9366243" lon="9.8009061"><ele>87.0</ele><time>2026-03-29T07:16:18.08Z</time></trkpt><trkpt lat="44.9365424" lon="9.8008706"><ele>87.0</ele><time>2026-03-29T07:16:20.076Z</time></trkpt><trkpt lat="44.9364539" lon="9.8008274"><ele>86.8</ele><time>2026-03-29T07:16:22.072Z</time></trkpt><trkpt lat="44.9363692" lon="9.8007685"><ele>86.6</ele><time>2026-03-29T07:16:24.066Z</time></trkpt><trkpt lat="44.9362914" lon="9.8007052"><ele>86.39999999999999</ele><time>2026-03-29T07:16:26.069Z</time></trkpt><trkpt lat="44.9362096" lon="9.8006324"><ele>86.19999999999999</ele><time>2026-03-29T07:16:28.071Z</time></trkpt><trkpt lat="44.9361253" lon="9.8005674"><ele>86.0</ele><time>2026-03-29T07:16:30.082Z</time></trkpt><trkpt lat="44.9360501" lon="9.8004987"><ele>86.0</ele><time>2026-03-29T07:16:32.081Z</time></trkpt><trkpt lat="44.9359671" lon="9.8004312"><ele>86.0</ele><time>2026-03-29T07:16:34.081Z</time></trkpt><trkpt lat="44.9358828" lon="9.8003659"><ele>86.0</ele><time>2026-03-29T07:16:36.087Z</time></trkpt><trkpt lat="44.935799" lon="9.8003053"><ele>86.0</ele><time>2026-03-29T07:16:38.087Z</time></trkpt><trkpt lat="44.9357108" lon="9.800241"><ele>86.0</ele><time>2026-03-29T07:16:40.071Z</time></trkpt><trkpt lat="44.935627" lon="9.8001768"><ele>86.6</ele><time>2026-03-29T07:16:42.072Z</time></trkpt><trkpt lat="44.9355443" lon="9.8001215"><ele>87.19999999999999</ele><time>2026-03-29T07:16:44.079Z</time></trkpt><trkpt lat="44.9354599" lon="9.8000602"><ele>87.80000000000001</ele><time>2026-03-29T07:16:46.089Z</time></trkpt><trkpt lat="44.9353767" lon="9.8000059"><ele>88.4</ele><time>2026-03-29T07:16:48.063Z</time></trkpt><trkpt lat="44.9352922" lon="9.7999458"><ele>89.0</ele><time>2026-03-29T07:16:50.094Z</time></trkpt><trkpt lat="44.935212" lon="9.7998795"><ele>89.0</ele><time>2026-03-29T07:16:52.07Z</time></trkpt><trkpt lat="44.9351262" lon="9.7998168"><ele>89.0</ele><time>2026-03-29T07:16:54.091Z</time></trkpt><trkpt lat="44.9350437" lon="9.7997536"><ele>89.0</ele><time>2026-03-29T07:16:56.084Z</time></trkpt><trkpt lat="44.9349577" lon="9.7996938"><ele>89.0</ele><time>2026-03-29T07:16:58.077Z</time></trkpt><trkpt lat="44.9348717" lon="9.7996287"><ele>89.0</ele><time>2026-03-29T07:17:00.081Z</time></trkpt><trkpt lat="44.9347869" lon="9.7995644"><ele>89.0</ele><time>2026-03-29T07:17:02.043Z</time></trkpt><trkpt lat="44.9347027" lon="9.7995057"><ele>89.0</ele><time>2026-03-29T07:17:04.069Z</time></trkpt><trkpt lat="44.9346094" lon="9.7994483"><ele>89.0</ele><time>2026-03-29T07:17:06.083Z</time></trkpt><trkpt lat="44.9345257" lon="9.7993907"><ele>89.0</ele><time>2026-03-29T07:17:08.072Z</time></trkpt><trkpt lat="44.9344405" lon="9.7993279"><ele>89.0</ele><time>2026-03-29T07:17:10.07Z</time></trkpt><trkpt lat="44.9343519" lon="9.7992669"><ele>89.0</ele><time>2026-03-29T07:17:12.071Z</time></trkpt><trkpt lat="44.9342703" lon="9.7992031"><ele>89.0</ele><time>2026-03-29T07:17:14.085Z</time></trkpt><trkpt lat="44.9341898" lon="9.7991384"><ele>89.0</ele><time>2026-03-29T07:17:16.065Z</time></trkpt><trkpt lat="44.9341083" lon="9.7990781"><ele>89.0</ele><time>2026-03-29T07:17:18.079Z</time></trkpt><trkpt lat="44.9340245" lon="9.7990182"><ele>89.0</ele><time>2026-03-29T07:17:20.075Z</time></trkpt><trkpt lat="44.9339391" lon="9.7989741"><ele>89.33333333333334</ele><time>2026-03-29T07:17:22.073Z</time></trkpt><trkpt lat="44.9338485" lon="9.7989263"><ele>89.66666666666667</ele><time>2026-03-29T07:17:24.077Z</time></trkpt><trkpt lat="44.9337715" lon="9.7988722"><ele>90.0</ele><time>2026-03-29T07:17:26.084Z</time></trkpt><trkpt lat="44.9336907" lon="9.7988212"><ele>90.33333333333333</ele><time>2026-03-29T07:17:28.078Z</time></trkpt><trkpt lat="44.9336143" lon="9.7988054"><ele>90.66666666666666</ele><time>2026-03-29T07:17:30.078Z</time></trkpt><trkpt lat="44.9335466" lon="9.7988538"><ele>91.0</ele><time>2026-03-29T07:17:32.075Z</time></trkpt><trkpt lat="44.9335157" lon="9.7989507"><ele>91.0</ele><time>2026-03-29T07:17:34.079Z</time></trkpt><trkpt lat="44.9334883" lon="9.7990695"><ele>91.0</ele><time>2026-03-29T07:17:36.081Z</time></trkpt><trkpt lat="44.9334484" lon="9.7991943"><ele>91.0</ele><time>2026-03-29T07:17:38.077Z</time></trkpt><trkpt lat="44.9334153" lon="9.7993247"><ele>91.0</ele><time>2026-03-29T07:17:40.076Z</time></trkpt><trkpt lat="44.9333769" lon="9.7994535"><ele>91.0</ele><time>2026-03-29T07:17:42.083Z</time></trkpt><trkpt lat="44.9333369" lon="9.7995969"><ele>91.19999999999999</ele><time>2026-03-29T07:17:44.081Z</time></trkpt><trkpt lat="44.933307" lon="9.799737"><ele>91.39999999999999</ele><time>2026-03-29T07:17:46.082Z</time></trkpt><trkpt lat="44.9332677" lon="9.7998923"><ele>91.6</ele><time>2026-03-29T07:17:48.082Z</time></trkpt><trkpt lat="44.9332331" lon="9.8000279"><ele>91.8</ele><time>2026-03-29T07:17:50.08Z</time></trkpt><trkpt lat="44.9331946" lon="9.8001647"><ele>92.0</ele><time>2026-03-29T07:17:52.081Z</time></trkpt><trkpt lat="44.93315" lon="9.8003067"><ele>92.8</ele><time>2026-03-29T07:17:54.092Z</time></trkpt><trkpt lat="44.9331184" lon="9.80044"><ele>93.6</ele><time>2026-03-29T07:17:56.082Z</time></trkpt><trkpt lat="44.9330768" lon="9.8005718"><ele>94.39999999999999</ele><time>2026-03-29T07:17:58.076Z</time></trkpt><trkpt lat="44.9330382" lon="9.8006953"><ele>95.19999999999999</ele><time>2026-03-29T07:18:00.082Z</time></trkpt><trkpt lat="44.932995" lon="9.800821"><ele>96.0</ele><time>2026-03-29T07:18:02.079Z</time></trkpt><trkpt lat="44.9329571" lon="9.8009423"><ele>96.4</ele><time>2026-03-29T07:18:04.081Z</time></trkpt><trkpt lat="44.9329204" lon="9.8010634"><ele>96.8</ele><time>2026-03-29T07:18:06.076Z</time></trkpt><trkpt lat="44.9328859" lon="9.8011736"><ele>97.2</ele><time>2026-03-29T07:18:08.083Z</time></trkpt><trkpt lat="44.9328575" lon="9.8013031"><ele>97.60000000000001</ele><time>2026-03-29T07:18:10.09Z</time></trkpt><trkpt lat="44.9328283" lon="9.8014309"><ele>98.0</ele><time>2026-03-29T07:18:12.081Z</time></trkpt><trkpt lat="44.9328034" lon="9.8015578"><ele>98.0</ele><time>2026-03-29T07:18:14.09Z</time></trkpt><trkpt lat="44.9328014" lon="9.8017091"><ele>98.0</ele><time>2026-03-29T07:18:16.077Z</time></trkpt><trkpt lat="44.9328196" lon="9.8018518"><ele>98.0</ele><time>2026-03-29T07:18:18.078Z</time></trkpt><trkpt lat="44.9328458" lon="9.802001"><ele>98.0</ele><time>2026-03-29T07:18:20.058Z</time></trkpt><trkpt lat="44.9328739" lon="9.8021517"><ele>98.0</ele><time>2026-03-29T07:18:22.069Z</time></trkpt><trkpt lat="44.9328947" lon="9.8023043"><ele>96.80000000000001</ele><time>2026-03-29T07:18:24.082Z</time></trkpt><trkpt lat="44.932894" lon="9.8024576"><ele>95.6</ele><time>2026-03-29T07:18:26.085Z</time></trkpt><trkpt lat="44.9328656" lon="9.8026029"><ele>94.4</ele><time>2026-03-29T07:18:28.086Z</time></trkpt><trkpt lat="44.9328349" lon="9.8027353"><ele>93.19999999999999</ele><time>2026-03-29T07:18:30.075Z</time></trkpt><trkpt lat="44.9327952" lon="9.8028738"><ele>92.0</ele><time>2026-03-29T07:18:32.074Z</time></trkpt><trkpt lat="44.9327649" lon="9.8030128"><ele>91.39999999999999</ele><time>2026-03-29T07:18:34.072Z</time></trkpt><trkpt lat="44.932735" lon="9.8031496"><ele>90.8</ele><time>2026-03-29T07:18:36.087Z</time></trkpt><trkpt lat="44.9327058" lon="9.8032875"><ele>90.2</ele><time>2026-03-29T07:18:38.084Z</time></trkpt><trkpt lat="44.9326764" lon="9.8034168"><ele>89.6</ele><time>2026-03-29T07:18:40.092Z</time></trkpt><trkpt lat="44.9326448" lon="9.8035541"><ele>89.0</ele><time>2026-03-29T07:18:42.072Z</time></trkpt><trkpt lat="44.9326171" lon="9.8036984"><ele>89.0</ele><time>2026-03-29T07:18:44.075Z</time></trkpt><trkpt lat="44.932587" lon="9.8038336"><ele>89.0</ele><time>2026-03-29T07:18:46.068Z</time></trkpt><trkpt lat="44.9325539" lon="9.803966"><ele>89.0</ele><time>2026-03-29T07:18:48.071Z</time></trkpt><trkpt lat="44.9325196" lon="9.804095"><ele>89.0</ele><time>2026-03-29T07:18:50.091Z</time></trkpt><trkpt lat="44.9324882" lon="9.8042264"><ele>89.0</ele><time>2026-03-29T07:18:52.08Z</time></trkpt><trkpt lat="44.9324569" lon="9.8043676"><ele>88.4</ele><time>2026-03-29T07:18:54.094Z</time></trkpt><trkpt lat="44.932427" lon="9.8045055"><ele>87.80000000000001</ele><time>2026-03-29T07:18:56.076Z</time></trkpt><trkpt lat="44.9323968" lon="9.8046464"><ele>87.19999999999999</ele><time>2026-03-29T07:18:58.085Z</time></trkpt><trkpt lat="44.9323661" lon="9.8047887"><ele>86.6</ele><time>2026-03-29T07:19:00.067Z</time></trkpt><trkpt lat="44.9323299" lon="9.8049296"><ele>86.0</ele><time>2026-03-29T07:19:02.086Z</time></trkpt><trkpt lat="44.9322951" lon="9.8050599"><ele>86.6</ele><time>2026-03-29T07:19:04.072Z</time></trkpt><trkpt lat="44.9322674" lon="9.8051958"><ele>87.19999999999999</ele><time>2026-03-29T07:19:06.082Z</time></trkpt><trkpt lat="44.9322439" lon="9.8053412"><ele>87.80000000000001</ele><time>2026-03-29T07:19:08.087Z</time></trkpt><trkpt lat="44.932206" lon="9.8054831"><ele>88.4</ele><time>2026-03-29T07:19:10.086Z</time></trkpt><trkpt lat="44.9321775" lon="9.8056225"><ele>89.0</ele><time>2026-03-29T07:19:12.076Z</time></trkpt><trkpt lat="44.9321464" lon="9.805765"><ele>89.0</ele><time>2026-03-29T07:19:14.078Z</time></trkpt><trkpt lat="44.9321144" lon="9.8059007"><ele>89.0</ele><time>2026-03-29T07:19:16.077Z</time></trkpt><trkpt lat="44.9320822" lon="9.8060392"><ele>89.0</ele><time>2026-03-29T07:19:18.089Z</time></trkpt><trkpt lat="44.9320482" lon="9.8061723"><ele>89.0</ele><time>2026-03-29T07:19:20.081Z</time></trkpt><trkpt lat="44.9320204" lon="9.8063057"><ele>89.0</ele><time>2026-03-29T07:19:22.08Z</time></trkpt><trkpt lat="44.9319907" lon="9.8064389"><ele>89.2</ele><time>2026-03-29T07:19:24.078Z</time></trkpt><trkpt lat="44.9319582" lon="9.8065802"><ele>89.4</ele><time>2026-03-29T07:19:26.086Z</time></trkpt><trkpt lat="44.9319266" lon="9.806726"><ele>89.6</ele><time>2026-03-29T07:19:28.079Z</time></trkpt><trkpt lat="44.9318918" lon="9.8068627"><ele>89.8</ele><time>2026-03-29T07:19:30.089Z</time></trkpt><trkpt lat="44.9318643" lon="9.8070073"><ele>90.0</ele><time>2026-03-29T07:19:32.093Z</time></trkpt><trkpt lat="44.9318311" lon="9.8071448"><ele>90.0</ele><time>2026-03-29T07:19:34.074Z</time></trkpt><trkpt lat="44.9318014" lon="9.8072858"><ele>90.0</ele><time>2026-03-29T07:19:36.081Z</time></trkpt><trkpt lat="44.9317712" lon="9.8074225"><ele>90.0</ele><time>2026-03-29T07:19:38.077Z</time></trkpt><trkpt lat="44.9317414" lon="9.8075715"><ele>90.0</ele><time>2026-03-29T07:19:40.069Z</time></trkpt><trkpt lat="44.9317135" lon="9.8077081"><ele>90.0</ele><time>2026-03-29T07:19:42.05Z</time></trkpt><trkpt lat="44.9316759" lon="9.807842"><ele>90.2</ele><time>2026-03-29T07:19:44.084Z</time></trkpt><trkpt lat="44.931647" lon="9.8079788"><ele>90.4</ele><time>2026-03-29T07:19:46.072Z</time></trkpt><trkpt lat="44.9316151" lon="9.8081091"><ele>90.6</ele><time>2026-03-29T07:19:48.083Z</time></trkpt><trkpt lat="44.9315868" lon="9.8082368"><ele>90.8</ele><time>2026-03-29T07:19:50.076Z</time></trkpt><trkpt lat="44.9315533" lon="9.8083764"><ele>91.0</ele><time>2026-03-29T07:19:52.083Z</time></trkpt><trkpt lat="44.9315211" lon="9.8085097"><ele>91.0</ele><time>2026-03-29T07:19:54.079Z</time></trkpt><trkpt lat="44.9314883" lon="9.8086457"><ele>91.0</ele><time>2026-03-29T07:19:56.086Z</time></trkpt><trkpt lat="44.93146" lon="9.8087792"><ele>91.0</ele><time>2026-03-29T07:19:58.038Z</time></trkpt><trkpt lat="44.9314271" lon="9.8089105"><ele>91.0</ele><time>2026-03-29T07:20:00.081Z</time></trkpt><trkpt lat="44.9313938" lon="9.8090514"><ele>91.0</ele><time>2026-03-29T07:20:02.074Z</time></trkpt><trkpt lat="44.9313622" lon="9.8091854"><ele>91.4</ele><time>2026-03-29T07:20:04.088Z</time></trkpt><trkpt lat="44.9313337" lon="9.8093261"><ele>91.8</ele><time>2026-03-29T07:20:06.084Z</time></trkpt><trkpt lat="44.9313013" lon="9.8094536"><ele>92.2</ele><time>2026-03-29T07:20:08.078Z</time></trkpt><trkpt lat="44.9312702" lon="9.8095899"><ele>92.60000000000001</ele><time>2026-03-29T07:20:10.077Z</time></trkpt><trkpt lat="44.9312369" lon="9.8097156"><ele>93.0</ele><time>2026-03-29T07:20:12.074Z</time></trkpt><trkpt lat="44.9312084" lon="9.8098499"><ele>93.0</ele><time>2026-03-29T07:20:14.084Z</time></trkpt><trkpt lat="44.9311834" lon="9.8099809"><ele>93.0</ele><time>2026-03-29T07:20:16.094Z</time></trkpt><trkpt lat="44.9311546" lon="9.8101107"><ele>93.0</ele><time>2026-03-29T07:20:18.07Z</time></trkpt><trkpt lat="44.9311272" lon="9.810251"><ele>93.0</ele><time>2026-03-29T07:20:20.06Z</time></trkpt><trkpt lat="44.9310962" lon="9.8103687"><ele>93.0</ele><time>2026-03-29T07:20:22.079Z</time></trkpt><trkpt lat="44.9310692" lon="9.8104855"><ele>92.60000000000001</ele><time>2026-03-29T07:20:24.079Z</time></trkpt><trkpt lat="44.9310463" lon="9.8106152"><ele>92.2</ele><time>2026-03-29T07:20:26.052Z</time></trkpt><trkpt lat="44.9310132" lon="9.8107587"><ele>91.8</ele><time>2026-03-29T07:20:28.072Z</time></trkpt><trkpt lat="44.930981" lon="9.8108926"><ele>91.4</ele><time>2026-03-29T07:20:30.088Z</time></trkpt><trkpt lat="44.9309485" lon="9.8110182"><ele>91.0</ele><time>2026-03-29T07:20:32.058Z</time></trkpt><trkpt lat="44.9309227" lon="9.8111563"><ele>91.0</ele><time>2026-03-29T07:20:34.053Z</time></trkpt><trkpt lat="44.9308937" lon="9.8112804"><ele>91.0</ele><time>2026-03-29T07:20:36.085Z</time></trkpt><trkpt lat="44.9308696" lon="9.8113683"><ele>91.0</ele><time>2026-03-29T07:20:39.072Z</time></trkpt><trkpt lat="44.9308613" lon="9.8114655"><ele>91.0</ele><time>2026-03-29T07:20:47.067Z</time></trkpt><trkpt lat="44.9308414" lon="9.8115829"><ele>91.0</ele><time>2026-03-29T07:20:50.073Z</time></trkpt><trkpt lat="44.9308205" lon="9.8116715"><ele>91.0</ele><time>2026-03-29T07:20:52.076Z</time></trkpt><trkpt lat="44.930795" lon="9.8117831"><ele>90.66666666666666</ele><time>2026-03-29T07:20:54.073Z</time></trkpt><trkpt lat="44.9307693" lon="9.8118797"><ele>90.33333333333333</ele><time>2026-03-29T07:20:56.039Z</time></trkpt><trkpt lat="44.9307459" lon="9.8119866"><ele>90.0</ele><time>2026-03-29T07:20:58.072Z</time></trkpt><trkpt lat="44.9307233" lon="9.8120901"><ele>89.66666666666667</ele><time>2026-03-29T07:21:00.072Z</time></trkpt><trkpt lat="44.9306973" lon="9.8121945"><ele>89.33333333333334</ele><time>2026-03-29T07:21:02.064Z</time></trkpt><trkpt lat="44.9306717" lon="9.812313"><ele>89.0</ele><time>2026-03-29T07:21:04.079Z</time></trkpt><trkpt lat="44.9306532" lon="9.8124305"><ele>89.0</ele><time>2026-03-29T07:21:06.076Z</time></trkpt><trkpt lat="44.9306123" lon="9.8125226"><ele>89.0</ele><time>2026-03-29T07:21:08.068Z</time></trkpt><trkpt lat="44.9305284" lon="9.8125324"><ele>89.0</ele><time>2026-03-29T07:21:10.083Z</time></trkpt><trkpt lat="44.9304607" lon="9.8124912"><ele>89.0</ele><time>2026-03-29T07:21:12.097Z</time></trkpt><trkpt lat="44.9303916" lon="9.8124517"><ele>89.0</ele><time>2026-03-29T07:21:14.071Z</time></trkpt><trkpt lat="44.9303255" lon="9.8124171"><ele>89.0</ele><time>2026-03-29T07:21:16.076Z</time></trkpt><trkpt lat="44.9302507" lon="9.8123875"><ele>89.0</ele><time>2026-03-29T07:21:18.074Z</time></trkpt><trkpt lat="44.9301732" lon="9.8123662"><ele>89.0</ele><time>2026-03-29T07:21:20.084Z</time></trkpt><trkpt lat="44.9301059" lon="9.8123169"><ele>89.0</ele><time>2026-03-29T07:21:22.082Z</time></trkpt><trkpt lat="44.9300295" lon="9.8122783"><ele>89.0</ele><time>2026-03-29T07:21:24.075Z</time></trkpt><trkpt lat="44.9299527" lon="9.8122473"><ele>89.0</ele><time>2026-03-29T07:21:26.079Z</time></trkpt><trkpt lat="44.9298719" lon="9.8122148"><ele>89.0</ele><time>2026-03-29T07:21:28.074Z</time></trkpt><trkpt lat="44.9297968" lon="9.812181"><ele>89.83333333333334</ele><time>2026-03-29T07:21:30.07Z</time></trkpt><trkpt lat="44.9297166" lon="9.8121658"><ele>90.66666666666667</ele><time>2026-03-29T07:21:32.062Z</time></trkpt><trkpt lat="44.9296318" lon="9.8121575"><ele>91.5</ele><time>2026-03-29T07:21:34.093Z</time></trkpt><trkpt lat="44.9295463" lon="9.8121432"><ele>92.33333333333333</ele><time>2026-03-29T07:21:36.079Z</time></trkpt><trkpt lat="44.929459" lon="9.8121268"><ele>93.16666666666666</ele><time>2026-03-29T07:21:38.076Z</time></trkpt><trkpt lat="44.929373" lon="9.8121109"><ele>94.0</ele><time>2026-03-29T07:21:40.072Z</time></trkpt><trkpt lat="44.9292937" lon="9.8120938"><ele>94.16666666666666</ele><time>2026-03-29T07:21:42.072Z</time></trkpt><trkpt lat="44.9292142" lon="9.8120816"><ele>94.33333333333333</ele><time>2026-03-29T07:21:44.071Z</time></trkpt><trkpt lat="44.9291325" lon="9.8120857"><ele>94.5</ele><time>2026-03-29T07:21:46.069Z</time></trkpt><trkpt lat="44.9290488" lon="9.8120864"><ele>94.66666666666667</ele><time>2026-03-29T07:21:48.082Z</time></trkpt><trkpt lat="44.928971" lon="9.8120779"><ele>94.83333333333334</ele><time>2026-03-29T07:21:50.087Z</time></trkpt><trkpt lat="44.9288948" lon="9.8120715"><ele>95.0</ele><time>2026-03-29T07:21:52.08Z</time></trkpt><trkpt lat="44.9288119" lon="9.812072"><ele>95.0</ele><time>2026-03-29T07:21:54.101Z</time></trkpt><trkpt lat="44.928729" lon="9.8120729"><ele>95.0</ele><time>2026-03-29T07:21:56.068Z</time></trkpt><trkpt lat="44.9286413" lon="9.8120651"><ele>95.0</ele><time>2026-03-29T07:21:58.083Z</time></trkpt><trkpt lat="44.9285581" lon="9.812064"><ele>95.0</ele><time>2026-03-29T07:22:00.069Z</time></trkpt><trkpt lat="44.9284757" lon="9.8120571"><ele>95.0</ele><time>2026-03-29T07:22:02.076Z</time></trkpt><trkpt lat="44.9283909" lon="9.8120618"><ele>95.0</ele><time>2026-03-29T07:22:04.077Z</time></trkpt><trkpt lat="44.9283056" lon="9.8120526"><ele>95.0</ele><time>2026-03-29T07:22:06.077Z</time></trkpt><trkpt lat="44.9282219" lon="9.8120553"><ele>95.0</ele><time>2026-03-29T07:22:08.087Z</time></trkpt><trkpt lat="44.9281368" lon="9.8120497"><ele>95.0</ele><time>2026-03-29T07:22:10.081Z</time></trkpt><trkpt lat="44.9280528" lon="9.8120367"><ele>95.0</ele><time>2026-03-29T07:22:12.079Z</time></trkpt><trkpt lat="44.9279649" lon="9.8120284"><ele>95.0</ele><time>2026-03-29T07:22:14.062Z</time></trkpt><trkpt lat="44.9278796" lon="9.8120205"><ele>95.0</ele><time>2026-03-29T07:22:16.077Z</time></trkpt><trkpt lat="44.9277934" lon="9.8120142"><ele>95.0</ele><time>2026-03-29T07:22:18.066Z</time></trkpt><trkpt lat="44.9277148" lon="9.8120088"><ele>95.0</ele><time>2026-03-29T07:22:20.087Z</time></trkpt><trkpt lat="44.927637" lon="9.8120031"><ele>95.0</ele><time>2026-03-29T07:22:22.076Z</time></trkpt><trkpt lat="44.9275541" lon="9.8120247"><ele>95.0</ele><time>2026-03-29T07:22:24.058Z</time></trkpt><trkpt lat="44.9274767" lon="9.8120646"><ele>95.0</ele><time>2026-03-29T07:22:26.087Z</time></trkpt><trkpt lat="44.9274027" lon="9.8121131"><ele>95.0</ele><time>2026-03-29T07:22:28.071Z</time></trkpt><trkpt lat="44.9273202" lon="9.8121669"><ele>94.83333333333334</ele><time>2026-03-29T07:22:30.059Z</time></trkpt><trkpt lat="44.9272407" lon="9.8122058"><ele>94.66666666666667</ele><time>2026-03-29T07:22:32.079Z</time></trkpt><trkpt lat="44.9271636" lon="9.8122314"><ele>94.5</ele><time>2026-03-29T07:22:34.089Z</time></trkpt><trkpt lat="44.9270884" lon="9.8122591"><ele>94.33333333333333</ele><time>2026-03-29T07:22:36.083Z</time></trkpt><trkpt lat="44.9270075" lon="9.8122821"><ele>94.16666666666666</ele><time>2026-03-29T07:22:38.078Z</time></trkpt><trkpt lat="44.9269197" lon="9.8122974"><ele>94.0</ele><time>2026-03-29T07:22:40.076Z</time></trkpt><trkpt lat="44.9268341" lon="9.8123154"><ele>94.0</ele><time>2026-03-29T07:22:42.075Z</time></trkpt><trkpt lat="44.9267519" lon="9.8123242"><ele>94.0</ele><time>2026-03-29T07:22:44.091Z</time></trkpt><trkpt lat="44.9266708" lon="9.8123412"><ele>94.0</ele><time>2026-03-29T07:22:46.074Z</time></trkpt><trkpt lat="44.9265894" lon="9.8123601"><ele>94.0</ele><time>2026-03-29T07:22:48.09Z</time></trkpt><trkpt lat="44.926512" lon="9.8123733"><ele>94.0</ele><time>2026-03-29T07:22:50.078Z</time></trkpt><trkpt lat="44.9264246" lon="9.8123889"><ele>94.0</ele><time>2026-03-29T07:22:52.081Z</time></trkpt><trkpt lat="44.9263426" lon="9.812407"><ele>94.33333333333333</ele><time>2026-03-29T07:22:54.039Z</time></trkpt><trkpt lat="44.9262611" lon="9.8124236"><ele>94.66666666666666</ele><time>2026-03-29T07:22:56.08Z</time></trkpt><trkpt lat="44.9261729" lon="9.8124423"><ele>95.0</ele><time>2026-03-29T07:22:58.062Z</time></trkpt><trkpt lat="44.9260858" lon="9.8124584"><ele>95.33333333333333</ele><time>2026-03-29T07:23:00.057Z</time></trkpt><trkpt lat="44.9260021" lon="9.8124775"><ele>95.66666666666667</ele><time>2026-03-29T07:23:02.083Z</time></trkpt><trkpt lat="44.9259186" lon="9.812499"><ele>96.0</ele><time>2026-03-29T07:23:04.065Z</time></trkpt><trkpt lat="44.925835" lon="9.8125197"><ele>96.0</ele><time>2026-03-29T07:23:06.084Z</time></trkpt><trkpt lat="44.9257494" lon="9.8125391"><ele>96.0</ele><time>2026-03-29T07:23:08.087Z</time></trkpt><trkpt lat="44.9256645" lon="9.8125623"><ele>96.0</ele><time>2026-03-29T07:23:10.096Z</time></trkpt><trkpt lat="44.9255855" lon="9.8125727"><ele>96.0</ele><time>2026-03-29T07:23:12.074Z</time></trkpt><trkpt lat="44.925501" lon="9.8125931"><ele>96.0</ele><time>2026-03-29T07:23:14.081Z</time></trkpt><trkpt lat="44.9254235" lon="9.8126081"><ele>96.0</ele><time>2026-03-29T07:23:16.068Z</time></trkpt><trkpt lat="44.9253452" lon="9.8126288"><ele>96.0</ele><time>2026-03-29T07:23:18.086Z</time></trkpt><trkpt lat="44.9252715" lon="9.8126432"><ele>96.0</ele><time>2026-03-29T07:23:20.078Z</time></trkpt><trkpt lat="44.9251917" lon="9.8126628"><ele>96.0</ele><time>2026-03-29T07:23:22.078Z</time></trkpt><trkpt lat="44.9251106" lon="9.8126777"><ele>96.0</ele><time>2026-03-29T07:23:24.079Z</time></trkpt><trkpt lat="44.9250339" lon="9.8127002"><ele>96.0</ele><time>2026-03-29T07:23:26.076Z</time></trkpt><trkpt lat="44.9249583" lon="9.8127139"><ele>96.0</ele><time>2026-03-29T07:23:28.069Z</time></trkpt><trkpt lat="44.9248782" lon="9.8127338"><ele>95.83333333333333</ele><time>2026-03-29T07:23:30.059Z</time></trkpt><trkpt lat="44.9248122" lon="9.8127699"><ele>95.66666666666667</ele><time>2026-03-29T07:23:32.072Z</time></trkpt><trkpt lat="44.9247696" lon="9.8128614"><ele>95.5</ele><time>2026-03-29T07:23:34.092Z</time></trkpt><trkpt lat="44.9247534" lon="9.8129774"><ele>95.33333333333334</ele><time>2026-03-29T07:23:36.085Z</time></trkpt><trkpt lat="44.9247526" lon="9.8130846"><ele>95.16666666666667</ele><time>2026-03-29T07:23:38.096Z</time></trkpt><trkpt lat="44.9247493" lon="9.8131926"><ele>95.0</ele><time>2026-03-29T07:23:40.061Z</time></trkpt><trkpt lat="44.924746" lon="9.8133136"><ele>95.0</ele><time>2026-03-29T07:23:42.07Z</time></trkpt><trkpt lat="44.9247451" lon="9.8134339"><ele>95.0</ele><time>2026-03-29T07:23:44.083Z</time></trkpt><trkpt lat="44.9247414" lon="9.8135467"><ele>95.0</ele><time>2026-03-29T07:23:46.066Z</time></trkpt><trkpt lat="44.9247334" lon="9.8136652"><ele>95.0</ele><time>2026-03-29T07:23:48.078Z</time></trkpt><trkpt lat="44.9247258" lon="9.8137867"><ele>95.0</ele><time>2026-03-29T07:23:50.069Z</time></trkpt><trkpt lat="44.9247063" lon="9.813911"><ele>95.0</ele><time>2026-03-29T07:23:52.071Z</time></trkpt><trkpt lat="44.9246794" lon="9.8140251"><ele>95.0</ele><time>2026-03-29T07:23:54.077Z</time></trkpt><trkpt lat="44.9246379" lon="9.814135"><ele>95.0</ele><time>2026-03-29T07:23:56.051Z</time></trkpt><trkpt lat="44.9245906" lon="9.814225"><ele>95.0</ele><time>2026-03-29T07:23:58.076Z</time></trkpt><trkpt lat="44.9245396" lon="9.8143132"><ele>95.0</ele><time>2026-03-29T07:24:00.08Z</time></trkpt><trkpt lat="44.9244864" lon="9.8143985"><ele>95.0</ele><time>2026-03-29T07:24:02.08Z</time></trkpt><trkpt lat="44.9244241" lon="9.814475"><ele>95.0</ele><time>2026-03-29T07:24:04.086Z</time></trkpt><trkpt lat="44.9243533" lon="9.8145298"><ele>95.0</ele><time>2026-03-29T07:24:06.085Z</time></trkpt><trkpt lat="44.9242789" lon="9.8145736"><ele>95.0</ele><time>2026-03-29T07:24:08.076Z</time></trkpt><trkpt lat="44.9241928" lon="9.8145998"><ele>95.0</ele><time>2026-03-29T07:24:10.094Z</time></trkpt><trkpt lat="44.9241114" lon="9.8146084"><ele>95.0</ele><time>2026-03-29T07:24:12.074Z</time></trkpt><trkpt lat="44.9240384" lon="9.8146219"><ele>95.0</ele><time>2026-03-29T07:24:14.027Z</time></trkpt><trkpt lat="44.9239609" lon="9.8146361"><ele>95.0</ele><time>2026-03-29T07:24:16.051Z</time></trkpt><trkpt lat="44.9238856" lon="9.8146474"><ele>95.14285714285714</ele><time>2026-03-29T07:24:18.072Z</time></trkpt><trkpt lat="44.9238123" lon="9.8146474"><ele>95.28571428571429</ele><time>2026-03-29T07:24:20.087Z</time></trkpt><trkpt lat="44.9237325" lon="9.8146662"><ele>95.42857142857142</ele><time>2026-03-29T07:24:22.075Z</time></trkpt><trkpt lat="44.9236613" lon="9.8146866"><ele>95.57142857142857</ele><time>2026-03-29T07:24:24.085Z</time></trkpt><trkpt lat="44.9235897" lon="9.8147002"><ele>95.71428571428571</ele><time>2026-03-29T07:24:26.08Z</time></trkpt><trkpt lat="44.9235143" lon="9.8147091"><ele>95.85714285714285</ele><time>2026-03-29T07:24:28.073Z</time></trkpt><trkpt lat="44.9234443" lon="9.8147217"><ele>96.0</ele><time>2026-03-29T07:24:30.077Z</time></trkpt><trkpt lat="44.9233718" lon="9.8147336"><ele>96.33333333333333</ele><time>2026-03-29T07:24:32.082Z</time></trkpt><trkpt lat="44.9232883" lon="9.8147592"><ele>96.66666666666666</ele><time>2026-03-29T07:24:34.086Z</time></trkpt><trkpt lat="44.9232084" lon="9.8147744"><ele>97.0</ele><time>2026-03-29T07:24:36.082Z</time></trkpt><trkpt lat="44.9231295" lon="9.8147816"><ele>97.33333333333333</ele><time>2026-03-29T07:24:38.059Z</time></trkpt><trkpt lat="44.9230518" lon="9.8148156"><ele>97.66666666666666</ele><time>2026-03-29T07:24:40.075Z</time></trkpt><trkpt lat="44.9229616" lon="9.814854"><ele>98.0</ele><time>2026-03-29T07:24:42.074Z</time></trkpt><trkpt lat="44.9228649" lon="9.8148854"><ele>97.99999999999999</ele><time>2026-03-29T07:24:44.071Z</time></trkpt><trkpt lat="44.9227903" lon="9.8149019"><ele>98.0</ele><time>2026-03-29T07:24:46.075Z</time></trkpt><trkpt lat="44.9227056" lon="9.8149238"><ele>98.0</ele><time>2026-03-29T07:24:48.08Z</time></trkpt><trkpt lat="44.9226261" lon="9.8149318"><ele>98.0</ele><time>2026-03-29T07:24:50.075Z</time></trkpt><trkpt lat="44.9225447" lon="9.8149168"><ele>97.99999999999999</ele><time>2026-03-29T07:24:52.09Z</time></trkpt><trkpt lat="44.9224675" lon="9.814902"><ele>98.0</ele><time>2026-03-29T07:24:54.079Z</time></trkpt><trkpt lat="44.9223959" lon="9.8148816"><ele>97.99999999999999</ele><time>2026-03-29T07:24:56.056Z</time></trkpt><trkpt lat="44.9223295" lon="9.8148539"><ele>98.0</ele><time>2026-03-29T07:24:58.077Z</time></trkpt><trkpt lat="44.9222685" lon="9.8148261"><ele>98.0</ele><time>2026-03-29T07:25:00.071Z</time></trkpt><trkpt lat="44.9221898" lon="9.8147834"><ele>98.0</ele><time>2026-03-29T07:25:03.094Z</time></trkpt><trkpt lat="44.9221101" lon="9.8147454"><ele>97.99999999999999</ele><time>2026-03-29T07:25:06.087Z</time></trkpt><trkpt lat="44.9220351" lon="9.8147087"><ele>98.0</ele><time>2026-03-29T07:25:09.082Z</time></trkpt><trkpt lat="44.9219684" lon="9.8146346"><ele>98.0</ele><time>2026-03-29T07:25:13.095Z</time></trkpt><trkpt lat="44.9219234" lon="9.8145679"><ele>98.0</ele><time>2026-03-29T07:25:20.084Z</time></trkpt><trkpt lat="44.9218627" lon="9.814536"><ele>98.0</ele><time>2026-03-29T07:25:26.061Z</time></trkpt><trkpt lat="44.9217909" lon="9.8144798"><ele>98.0</ele><time>2026-03-29T07:25:39.076Z</time></trkpt><trkpt lat="44.9217294" lon="9.8144433"><ele>98.0</ele><time>2026-03-29T07:25:41.082Z</time></trkpt><trkpt lat="44.9216442" lon="9.814386"><ele>98.0</ele><time>2026-03-29T07:25:44.074Z</time></trkpt><trkpt lat="44.921583" lon="9.8143452"><ele>98.0</ele><time>2026-03-29T07:25:46.068Z</time></trkpt><trkpt lat="44.9215059" lon="9.8143198"><ele>98.33333333333333</ele><time>2026-03-29T07:25:48.081Z</time></trkpt><trkpt lat="44.9214368" lon="9.814289"><ele>98.66666666666666</ele><time>2026-03-29T07:25:50.098Z</time></trkpt><trkpt lat="44.9213625" lon="9.814267"><ele>99.0</ele><time>2026-03-29T07:25:52.071Z</time></trkpt><trkpt lat="44.9212953" lon="9.8142246"><ele>99.33333333333334</ele><time>2026-03-29T07:25:54.084Z</time></trkpt><trkpt lat="44.9212133" lon="9.814185"><ele>99.66666666666667</ele><time>2026-03-29T07:25:56.077Z</time></trkpt><trkpt lat="44.9211396" lon="9.8141302"><ele>100.0</ele><time>2026-03-29T07:25:58.078Z</time></trkpt><trkpt lat="44.9210749" lon="9.8140914"><ele>100.00000000000001</ele><time>2026-03-29T07:26:00.078Z</time></trkpt><trkpt lat="44.9210074" lon="9.8140601"><ele>100.0</ele><time>2026-03-29T07:26:02.078Z</time></trkpt><trkpt lat="44.9209408" lon="9.8140553"><ele>100.0</ele><time>2026-03-29T07:26:04.081Z</time></trkpt><trkpt lat="44.9208638" lon="9.8140609"><ele>100.0</ele><time>2026-03-29T07:26:06.088Z</time></trkpt><trkpt lat="44.9207839" lon="9.8140483"><ele>100.0</ele><time>2026-03-29T07:26:08.078Z</time></trkpt><trkpt lat="44.9207123" lon="9.8140498"><ele>100.00000000000001</ele><time>2026-03-29T07:26:10.089Z</time></trkpt><trkpt lat="44.920631" lon="9.8140568"><ele>100.0</ele><time>2026-03-29T07:26:12.09Z</time></trkpt><trkpt lat="44.9205599" lon="9.8140522"><ele>100.00000000000001</ele><time>2026-03-29T07:26:14.092Z</time></trkpt><trkpt lat="44.9204789" lon="9.814061"><ele>100.0</ele><time>2026-03-29T07:26:16.066Z</time></trkpt><trkpt lat="44.9204029" lon="9.8140495"><ele>100.0</ele><time>2026-03-29T07:26:18.078Z</time></trkpt><trkpt lat="44.9203289" lon="9.8140334"><ele>100.0</ele><time>2026-03-29T07:26:20.082Z</time></trkpt><trkpt lat="44.9202521" lon="9.814018"><ele>100.00000000000001</ele><time>2026-03-29T07:26:22.084Z</time></trkpt><trkpt lat="44.9201706" lon="9.8139984"><ele>100.0</ele><time>2026-03-29T07:26:24.078Z</time></trkpt><trkpt lat="44.9201015" lon="9.8139586"><ele>100.16666666666667</ele><time>2026-03-29T07:26:26.074Z</time></trkpt><trkpt lat="44.9200338" lon="9.8139296"><ele>100.33333333333334</ele><time>2026-03-29T07:26:28.067Z</time></trkpt><trkpt lat="44.9199602" lon="9.8139081"><ele>100.5</ele><time>2026-03-29T07:26:30.072Z</time></trkpt><trkpt lat="44.9198849" lon="9.8138826"><ele>100.66666666666666</ele><time>2026-03-29T07:26:32.078Z</time></trkpt><trkpt lat="44.9198034" lon="9.8138508"><ele>100.83333333333333</ele><time>2026-03-29T07:26:34.061Z</time></trkpt><trkpt lat="44.9197196" lon="9.8138197"><ele>101.0</ele><time>2026-03-29T07:26:36.062Z</time></trkpt><trkpt lat="44.919639" lon="9.8137893"><ele>100.99999999999999</ele><time>2026-03-29T07:26:38.083Z</time></trkpt><trkpt lat="44.9195619" lon="9.8137554"><ele>101.0</ele><time>2026-03-29T07:26:40.07Z</time></trkpt><trkpt lat="44.9194808" lon="9.8137243"><ele>101.0</ele><time>2026-03-29T07:26:42.083Z</time></trkpt><trkpt lat="44.9193984" lon="9.8136918"><ele>101.0</ele><time>2026-03-29T07:26:44.081Z</time></trkpt><trkpt lat="44.9193171" lon="9.8136616"><ele>100.99999999999999</ele><time>2026-03-29T07:26:46.087Z</time></trkpt><trkpt lat="44.9192331" lon="9.8136316"><ele>101.0</ele><time>2026-03-29T07:26:48.082Z</time></trkpt><trkpt lat="44.9191578" lon="9.813597"><ele>100.99999999999999</ele><time>2026-03-29T07:26:50.075Z</time></trkpt><trkpt lat="44.9190809" lon="9.8135759"><ele>101.0</ele><time>2026-03-29T07:26:52.078Z</time></trkpt><trkpt lat="44.9189998" lon="9.8135459"><ele>101.0</ele><time>2026-03-29T07:26:54.079Z</time></trkpt><trkpt lat="44.9189269" lon="9.8135131"><ele>101.0</ele><time>2026-03-29T07:26:56.082Z</time></trkpt><trkpt lat="44.9188467" lon="9.813484"><ele>100.99999999999999</ele><time>2026-03-29T07:26:58.078Z</time></trkpt><trkpt lat="44.9187691" lon="9.813455"><ele>101.0</ele><time>2026-03-29T07:27:00.079Z</time></trkpt><trkpt lat="44.9186849" lon="9.8134239"><ele>100.66666666666666</ele><time>2026-03-29T07:27:02.088Z</time></trkpt><trkpt lat="44.9185998" lon="9.8133891"><ele>100.33333333333333</ele><time>2026-03-29T07:27:04.084Z</time></trkpt><trkpt lat="44.9185181" lon="9.8133533"><ele>100.0</ele><time>2026-03-29T07:27:06.078Z</time></trkpt><trkpt lat="44.9184326" lon="9.8133317"><ele>99.66666666666666</ele><time>2026-03-29T07:27:08.077Z</time></trkpt><trkpt lat="44.9183517" lon="9.8133021"><ele>99.33333333333333</ele><time>2026-03-29T07:27:10.086Z</time></trkpt><trkpt lat="44.9182749" lon="9.8132691"><ele>99.0</ele><time>2026-03-29T07:27:12.065Z</time></trkpt><trkpt lat="44.9181934" lon="9.813241"><ele>99.83333333333333</ele><time>2026-03-29T07:27:14.078Z</time></trkpt><trkpt lat="44.9181205" lon="9.8132112"><ele>100.66666666666666</ele><time>2026-03-29T07:27:16.081Z</time></trkpt><trkpt lat="44.9180413" lon="9.8131867"><ele>101.5</ele><time>2026-03-29T07:27:18.08Z</time></trkpt><trkpt lat="44.9179671" lon="9.8131556"><ele>102.33333333333333</ele><time>2026-03-29T07:27:20.084Z</time></trkpt><trkpt lat="44.9178907" lon="9.813129"><ele>103.16666666666666</ele><time>2026-03-29T07:27:22.089Z</time></trkpt><trkpt lat="44.9178135" lon="9.8131022"><ele>104.0</ele><time>2026-03-29T07:27:24.09Z</time></trkpt><trkpt lat="44.9177373" lon="9.8130716"><ele>103.99999999999999</ele><time>2026-03-29T07:27:26.08Z</time></trkpt><trkpt lat="44.9176615" lon="9.8130411"><ele>104.0</ele><time>2026-03-29T07:27:28.089Z</time></trkpt><trkpt lat="44.9175847" lon="9.8130158"><ele>104.0</ele><time>2026-03-29T07:27:30.069Z</time></trkpt><trkpt lat="44.9175105" lon="9.8129839"><ele>104.0</ele><time>2026-03-29T07:27:32.09Z</time></trkpt><trkpt lat="44.9174289" lon="9.8129589"><ele>103.99999999999999</ele><time>2026-03-29T07:27:34.074Z</time></trkpt><trkpt lat="44.9173508" lon="9.8129271"><ele>104.0</ele><time>2026-03-29T07:27:36.071Z</time></trkpt><trkpt lat="44.9172712" lon="9.812903"><ele>103.71428571428571</ele><time>2026-03-29T07:27:38.087Z</time></trkpt><trkpt lat="44.9171992" lon="9.8128729"><ele>103.42857142857143</ele><time>2026-03-29T07:27:40.08Z</time></trkpt><trkpt lat="44.917124" lon="9.8128464"><ele>103.14285714285714</ele><time>2026-03-29T07:27:42.085Z</time></trkpt><trkpt lat="44.9170521" lon="9.8128229"><ele>102.85714285714286</ele><time>2026-03-29T07:27:44.083Z</time></trkpt><trkpt lat="44.9169802" lon="9.8127992"><ele>102.57142857142858</ele><time>2026-03-29T07:27:46.074Z</time></trkpt><trkpt lat="44.9169199" lon="9.8127697"><ele>102.28571428571429</ele><time>2026-03-29T07:27:48.071Z</time></trkpt><trkpt lat="44.9168644" lon="9.812721"><ele>102.0</ele><time>2026-03-29T07:27:51.08Z</time></trkpt><trkpt lat="44.9168293" lon="9.8128116"><ele>102.0</ele><time>2026-03-29T07:27:58.065Z</time></trkpt><trkpt lat="44.91679" lon="9.8129146"><ele>102.0</ele><time>2026-03-29T07:28:02.082Z</time></trkpt><trkpt lat="44.916762" lon="9.8130261"><ele>102.0</ele><time>2026-03-29T07:28:05.073Z</time></trkpt><trkpt lat="44.9167431" lon="9.8131127"><ele>102.0</ele><time>2026-03-29T07:28:08.076Z</time></trkpt><trkpt lat="44.9166749" lon="9.8130885"><ele>102.0</ele><time>2026-03-29T07:28:13.083Z</time></trkpt><trkpt lat="44.9166793" lon="9.8129725"><ele>102.0</ele><time>2026-03-29T07:28:17.078Z</time></trkpt><trkpt lat="44.916716" lon="9.812884"><ele>102.0</ele><time>2026-03-29T07:28:21.074Z</time></trkpt><trkpt lat="44.9167409" lon="9.8127922"><ele>102.0</ele><time>2026-03-29T07:28:24.096Z</time></trkpt><trkpt lat="44.916761" lon="9.8127065"><ele>102.0</ele><time>2026-03-29T07:28:27.073Z</time></trkpt><trkpt lat="44.9167288" lon="9.8126012"><ele>102.0</ele><time>2026-03-29T07:28:31.081Z</time></trkpt><trkpt lat="44.9166539" lon="9.8125399"><ele>102.0</ele><time>2026-03-29T07:28:35.071Z</time></trkpt><trkpt lat="44.9165851" lon="9.8125112"><ele>102.0</ele><time>2026-03-29T07:28:38.068Z</time></trkpt><trkpt lat="44.9165193" lon="9.8125014"><ele>102.0</ele><time>2026-03-29T07:28:41.071Z</time></trkpt><trkpt lat="44.9164461" lon="9.8124517"><ele>101.71428571428572</ele><time>2026-03-29T07:28:45.079Z</time></trkpt><trkpt lat="44.9163745" lon="9.8124257"><ele>101.42857142857143</ele><time>2026-03-29T07:28:49.067Z</time></trkpt><trkpt lat="44.9163075" lon="9.8123859"><ele>101.14285714285714</ele><time>2026-03-29T07:28:53.075Z</time></trkpt><trkpt lat="44.9162436" lon="9.8123565"><ele>100.85714285714286</ele><time>2026-03-29T07:28:56.074Z</time></trkpt><trkpt lat="44.9161763" lon="9.8123194"><ele>100.57142857142857</ele><time>2026-03-29T07:28:59.054Z</time></trkpt><trkpt lat="44.9161083" lon="9.8122855"><ele>100.28571428571429</ele><time>2026-03-29T07:29:02.075Z</time></trkpt><trkpt lat="44.9160456" lon="9.8122613"><ele>100.0</ele><time>2026-03-29T07:29:05.079Z</time></trkpt><trkpt lat="44.9159791" lon="9.8122283"><ele>100.00000000000001</ele><time>2026-03-29T07:29:09.061Z</time></trkpt><trkpt lat="44.9159137" lon="9.8122066"><ele>100.0</ele><time>2026-03-29T07:29:34.08Z</time></trkpt><trkpt lat="44.9158495" lon="9.8121802"><ele>100.0</ele><time>2026-03-29T07:29:43.072Z</time></trkpt><trkpt lat="44.9157844" lon="9.8121547"><ele>100.0</ele><time>2026-03-29T07:30:03.059Z</time></trkpt><trkpt lat="44.9157196" lon="9.8120935"><ele>100.0</ele><time>2026-03-29T07:30:09.085Z</time></trkpt><trkpt lat="44.915639" lon="9.8120806"><ele>100.00000000000001</ele><time>2026-03-29T07:30:13.082Z</time></trkpt><trkpt lat="44.9155747" lon="9.8120337"><ele>100.0</ele><time>2026-03-29T07:30:17.068Z</time></trkpt><trkpt lat="44.9155031" lon="9.8120021"><ele>100.42857142857143</ele><time>2026-03-29T07:30:21.078Z</time></trkpt><trkpt lat="44.9154421" lon="9.8119716"><ele>100.85714285714286</ele><time>2026-03-29T07:30:24.085Z</time></trkpt><trkpt lat="44.9153725" lon="9.811947"><ele>101.28571428571428</ele><time>2026-03-29T07:30:27.041Z</time></trkpt><trkpt lat="44.9152998" lon="9.8119162"><ele>101.71428571428572</ele><time>2026-03-29T07:30:30.072Z</time></trkpt><trkpt lat="44.9152316" lon="9.8118807"><ele>102.14285714285714</ele><time>2026-03-29T07:30:33.079Z</time></trkpt><trkpt lat="44.9151619" lon="9.8118423"><ele>102.57142857142857</ele><time>2026-03-29T07:30:36.083Z</time></trkpt><trkpt lat="44.9150835" lon="9.8118063"><ele>103.0</ele><time>2026-03-29T07:30:39.094Z</time></trkpt><trkpt lat="44.915001" lon="9.8117682"><ele>103.33333333333334</ele><time>2026-03-29T07:30:42.076Z</time></trkpt><trkpt lat="44.9149216" lon="9.8117314"><ele>103.66666666666667</ele><time>2026-03-29T07:30:45.097Z</time></trkpt><trkpt lat="44.9148438" lon="9.8116958"><ele>104.0</ele><time>2026-03-29T07:30:48.074Z</time></trkpt><trkpt lat="44.9147709" lon="9.8116554"><ele>104.33333333333334</ele><time>2026-03-29T07:30:51.069Z</time></trkpt><trkpt lat="44.9146965" lon="9.8116162"><ele>104.66666666666667</ele><time>2026-03-29T07:30:54.085Z</time></trkpt><trkpt lat="44.9146208" lon="9.8115802"><ele>105.0</ele><time>2026-03-29T07:30:57.073Z</time></trkpt><trkpt lat="44.9145379" lon="9.8115425"><ele>105.0</ele><time>2026-03-29T07:31:00.072Z</time></trkpt><trkpt lat="44.9144533" lon="9.8115022"><ele>105.0</ele><time>2026-03-29T07:31:03.097Z</time></trkpt><trkpt lat="44.9143726" lon="9.8114644"><ele>105.0</ele><time>2026-03-29T07:31:06.097Z</time></trkpt><trkpt lat="44.9142867" lon="9.8114243"><ele>105.0</ele><time>2026-03-29T07:31:09.09Z</time></trkpt><trkpt lat="44.9142056" lon="9.8113876"><ele>105.0</ele><time>2026-03-29T07:31:12.08Z</time></trkpt><trkpt lat="44.9141255" lon="9.8113408"><ele>105.0</ele><time>2026-03-29T07:31:15.09Z</time></trkpt><trkpt lat="44.9140433" lon="9.8112997"><ele>105.16666666666667</ele><time>2026-03-29T07:31:18.096Z</time></trkpt><trkpt lat="44.9139633" lon="9.811255"><ele>105.33333333333334</ele><time>2026-03-29T07:31:21.078Z</time></trkpt><trkpt lat="44.9139409" lon="9.8111542"><ele>105.5</ele><time>2026-03-29T07:31:24.094Z</time></trkpt><trkpt lat="44.9139589" lon="9.8110592"><ele>105.66666666666667</ele><time>2026-03-29T07:31:27.079Z</time></trkpt><trkpt lat="44.9139363" lon="9.8109727"><ele>105.83333333333334</ele><time>2026-03-29T07:31:30.063Z</time></trkpt><trkpt lat="44.9138583" lon="9.8109267"><ele>106.0</ele><time>2026-03-29T07:31:33.075Z</time></trkpt><trkpt lat="44.9137838" lon="9.8108924"><ele>106.00000000000001</ele><time>2026-03-29T07:31:36.082Z</time></trkpt><trkpt lat="44.9137089" lon="9.810853"><ele>106.0</ele><time>2026-03-29T07:31:39.07Z</time></trkpt><trkpt lat="44.9136307" lon="9.8108158"><ele>106.0</ele><time>2026-03-29T07:31:42.073Z</time></trkpt><trkpt lat="44.9135515" lon="9.8107715"><ele>106.0</ele><time>2026-03-29T07:31:45.087Z</time></trkpt><trkpt lat="44.9134657" lon="9.8107259"><ele>106.00000000000001</ele><time>2026-03-29T07:31:48.074Z</time></trkpt><trkpt lat="44.9133784" lon="9.8106791"><ele>106.0</ele><time>2026-03-29T07:31:51.079Z</time></trkpt><trkpt lat="44.9132916" lon="9.8106394"><ele>106.00000000000001</ele><time>2026-03-29T07:31:54.08Z</time></trkpt><trkpt lat="44.9132307" lon="9.8106148"><ele>106.0</ele><time>2026-03-29T07:31:56.078Z</time></trkpt><trkpt lat="44.9131485" lon="9.8105653"><ele>106.0</ele><time>2026-03-29T07:31:59.06Z</time></trkpt><trkpt lat="44.9130632" lon="9.810519"><ele>106.0</ele><time>2026-03-29T07:32:02.088Z</time></trkpt><trkpt lat="44.9129808" lon="9.8104723"><ele>106.00000000000001</ele><time>2026-03-29T07:32:05.077Z</time></trkpt><trkpt lat="44.9128984" lon="9.8104279"><ele>106.0</ele><time>2026-03-29T07:32:08.092Z</time></trkpt><trkpt lat="44.9128184" lon="9.8103835"><ele>106.00000000000001</ele><time>2026-03-29T07:32:11.089Z</time></trkpt><trkpt lat="44.9127295" lon="9.8103384"><ele>106.0</ele><time>2026-03-29T07:32:14.078Z</time></trkpt><trkpt lat="44.9126526" lon="9.8102976"><ele>106.0</ele><time>2026-03-29T07:32:17.086Z</time></trkpt><trkpt lat="44.912565" lon="9.810248"><ele>106.0</ele><time>2026-03-29T07:32:20.085Z</time></trkpt><trkpt lat="44.9125058" lon="9.8102137"><ele>106.00000000000001</ele><time>2026-03-29T07:32:22.102Z</time></trkpt><trkpt lat="44.9124281" lon="9.8101686"><ele>106.0</ele><time>2026-03-29T07:32:25.092Z</time></trkpt><trkpt lat="44.9123374" lon="9.8101265"><ele>106.00000000000001</ele><time>2026-03-29T07:32:28.091Z</time></trkpt><trkpt lat="44.9122751" lon="9.8100977"><ele>106.0</ele><time>2026-03-29T07:32:30.074Z</time></trkpt><trkpt lat="44.9121918" lon="9.810046"><ele>106.0</ele><time>2026-03-29T07:32:33.075Z</time></trkpt><trkpt lat="44.9121114" lon="9.8099972"><ele>106.0</ele><time>2026-03-29T07:32:36.079Z</time></trkpt><trkpt lat="44.9120496" lon="9.8099677"><ele>106.00000000000001</ele><time>2026-03-29T07:32:38.08Z</time></trkpt><trkpt lat="44.9119707" lon="9.8099256"><ele>106.0</ele><time>2026-03-29T07:32:41.069Z</time></trkpt><trkpt lat="44.9119106" lon="9.8098436"><ele>106.00000000000001</ele><time>2026-03-29T07:32:44.052Z</time></trkpt><trkpt lat="44.9119055" lon="9.8097273"><ele>106.0</ele><time>2026-03-29T07:32:47.054Z</time></trkpt><trkpt lat="44.9119242" lon="9.8096134"><ele>106.0</ele><time>2026-03-29T07:32:50.088Z</time></trkpt><trkpt lat="44.9119485" lon="9.8094905"><ele>106.0</ele><time>2026-03-29T07:32:53.091Z</time></trkpt><trkpt lat="44.9119696" lon="9.8093642"><ele>106.00000000000001</ele><time>2026-03-29T07:32:56.06Z</time></trkpt><trkpt lat="44.9119787" lon="9.8092737"><ele>106.0</ele><time>2026-03-29T07:32:58.077Z</time></trkpt><trkpt lat="44.9119659" lon="9.8091849"><ele>106.16666666666667</ele><time>2026-03-29T07:33:00.088Z</time></trkpt><trkpt lat="44.9119018" lon="9.8091042"><ele>106.33333333333334</ele><time>2026-03-29T07:33:03.109Z</time></trkpt><trkpt lat="44.9118168" lon="9.8090767"><ele>106.5</ele><time>2026-03-29T07:33:06.091Z</time></trkpt><trkpt lat="44.9117325" lon="9.8090375"><ele>106.66666666666666</ele><time>2026-03-29T07:33:09.087Z</time></trkpt><trkpt lat="44.91165" lon="9.8089947"><ele>106.83333333333333</ele><time>2026-03-29T07:33:12.09Z</time></trkpt><trkpt lat="44.9115614" lon="9.8089656"><ele>107.0</ele><time>2026-03-29T07:33:15.089Z</time></trkpt><trkpt lat="44.9114725" lon="9.8089221"><ele>107.49999999999999</ele><time>2026-03-29T07:33:18.08Z</time></trkpt><trkpt lat="44.9113886" lon="9.8088853"><ele>108.0</ele><time>2026-03-29T07:33:21.088Z</time></trkpt><trkpt lat="44.9112998" lon="9.8088443"><ele>108.5</ele><time>2026-03-29T07:33:24.084Z</time></trkpt><trkpt lat="44.9112156" lon="9.8088085"><ele>109.0</ele><time>2026-03-29T07:33:27.08Z</time></trkpt><trkpt lat="44.9111379" lon="9.8087719"><ele>109.49999999999999</ele><time>2026-03-29T07:33:30.078Z</time></trkpt><trkpt lat="44.9110555" lon="9.8087357"><ele>110.0</ele><time>2026-03-29T07:33:33.083Z</time></trkpt><trkpt lat="44.9109776" lon="9.8087005"><ele>110.33333333333333</ele><time>2026-03-29T07:33:36.074Z</time></trkpt><trkpt lat="44.9109054" lon="9.8086701"><ele>110.66666666666666</ele><time>2026-03-29T07:33:39.084Z</time></trkpt><trkpt lat="44.9108339" lon="9.8086886"><ele>111.0</ele><time>2026-03-29T07:33:43.065Z</time></trkpt><trkpt lat="44.9107853" lon="9.8087789"><ele>111.33333333333334</ele><time>2026-03-29T07:33:45.054Z</time></trkpt><trkpt lat="44.9107614" lon="9.8088868"><ele>111.66666666666667</ele><time>2026-03-29T07:33:47.078Z</time></trkpt><trkpt lat="44.9107497" lon="9.809002"><ele>112.0</ele><time>2026-03-29T07:33:49.071Z</time></trkpt><trkpt lat="44.9107366" lon="9.8091136"><ele>112.0</ele><time>2026-03-29T07:33:51.069Z</time></trkpt><trkpt lat="44.9107196" lon="9.8092439"><ele>111.99999999999999</ele><time>2026-03-29T07:33:53.088Z</time></trkpt><trkpt lat="44.9107078" lon="9.8093669"><ele>111.99999999999999</ele><time>2026-03-29T07:33:55.072Z</time></trkpt><trkpt lat="44.9106918" lon="9.8094985"><ele>112.0</ele><time>2026-03-29T07:33:57.087Z</time></trkpt><trkpt lat="44.9106721" lon="9.8096268"><ele>112.0</ele><time>2026-03-29T07:33:59.097Z</time></trkpt><trkpt lat="44.9106493" lon="9.8097571"><ele>111.8</ele><time>2026-03-29T07:34:01.085Z</time></trkpt><trkpt lat="44.9106216" lon="9.8098917"><ele>111.6</ele><time>2026-03-29T07:34:03.082Z</time></trkpt><trkpt lat="44.9105892" lon="9.8100169"><ele>111.39999999999999</ele><time>2026-03-29T07:34:05.081Z</time></trkpt><trkpt lat="44.9105385" lon="9.8101418"><ele>111.19999999999999</ele><time>2026-03-29T07:34:07.078Z</time></trkpt><trkpt lat="44.9104885" lon="9.8102574"><ele>111.0</ele><time>2026-03-29T07:34:09.085Z</time></trkpt><trkpt lat="44.9104307" lon="9.8103681"><ele>111.0</ele><time>2026-03-29T07:34:11.08Z</time></trkpt><trkpt lat="44.9103705" lon="9.8104831"><ele>111.0</ele><time>2026-03-29T07:34:13.078Z</time></trkpt><trkpt lat="44.910311" lon="9.8105847"><ele>111.0</ele><time>2026-03-29T07:34:15.078Z</time></trkpt><trkpt lat="44.9102414" lon="9.810679"><ele>111.0</ele><time>2026-03-29T07:34:17.088Z</time></trkpt><trkpt lat="44.9101652" lon="9.810773"><ele>111.0</ele><time>2026-03-29T07:34:19.08Z</time></trkpt><trkpt lat="44.9100866" lon="9.8108637"><ele>111.4</ele><time>2026-03-29T07:34:21.079Z</time></trkpt><trkpt lat="44.9100079" lon="9.8109338"><ele>111.8</ele><time>2026-03-29T07:34:23.077Z</time></trkpt><trkpt lat="44.9099315" lon="9.8110105"><ele>112.20000000000002</ele><time>2026-03-29T07:34:25.074Z</time></trkpt><trkpt lat="44.9098617" lon="9.8110789"><ele>112.60000000000001</ele><time>2026-03-29T07:34:27.077Z</time></trkpt><trkpt lat="44.9097821" lon="9.8111549"><ele>113.0</ele><time>2026-03-29T07:34:29.081Z</time></trkpt><trkpt lat="44.9097028" lon="9.811229"><ele>113.0</ele><time>2026-03-29T07:34:31.104Z</time></trkpt><trkpt lat="44.9096235" lon="9.8113093"><ele>113.00000000000001</ele><time>2026-03-29T07:34:33.085Z</time></trkpt><trkpt lat="44.9095475" lon="9.8113813"><ele>113.00000000000001</ele><time>2026-03-29T07:34:35.081Z</time></trkpt><trkpt lat="44.909471" lon="9.8114663"><ele>113.0</ele><time>2026-03-29T07:34:37.095Z</time></trkpt><trkpt lat="44.909396" lon="9.8115475"><ele>113.0</ele><time>2026-03-29T07:34:39.072Z</time></trkpt><trkpt lat="44.9093294" lon="9.8116389"><ele>113.0</ele><time>2026-03-29T07:34:41.096Z</time></trkpt><trkpt lat="44.9092664" lon="9.8117346"><ele>113.00000000000001</ele><time>2026-03-29T07:34:43.071Z</time></trkpt><trkpt lat="44.9092072" lon="9.811849"><ele>113.00000000000001</ele><time>2026-03-29T07:34:45.093Z</time></trkpt><trkpt lat="44.9091529" lon="9.8119645"><ele>113.0</ele><time>2026-03-29T07:34:47.086Z</time></trkpt><trkpt lat="44.9091121" lon="9.8120964"><ele>113.0</ele><time>2026-03-29T07:34:49.093Z</time></trkpt><trkpt lat="44.9090777" lon="9.8122196"><ele>113.0</ele><time>2026-03-29T07:34:51.078Z</time></trkpt><trkpt lat="44.9090473" lon="9.8123454"><ele>113.00000000000001</ele><time>2026-03-29T07:34:53.087Z</time></trkpt><trkpt lat="44.9090123" lon="9.8124764"><ele>113.00000000000001</ele><time>2026-03-29T07:34:55.071Z</time></trkpt><trkpt lat="44.9089726" lon="9.8126084"><ele>113.0</ele><time>2026-03-29T07:34:57.084Z</time></trkpt><trkpt lat="44.9089394" lon="9.8127355"><ele>113.0</ele><time>2026-03-29T07:34:59.091Z</time></trkpt><trkpt lat="44.9089013" lon="9.8128661"><ele>113.0</ele><time>2026-03-29T07:35:01.049Z</time></trkpt><trkpt lat="44.9088709" lon="9.813007"><ele>113.00000000000001</ele><time>2026-03-29T07:35:03.088Z</time></trkpt><trkpt lat="44.9088313" lon="9.8131364"><ele>113.00000000000001</ele><time>2026-03-29T07:35:05.055Z</time></trkpt><trkpt lat="44.9087975" lon="9.8132632"><ele>113.0</ele><time>2026-03-29T07:35:07.085Z</time></trkpt><trkpt lat="44.9087645" lon="9.8133982"><ele>113.0</ele><time>2026-03-29T07:35:09.091Z</time></trkpt><trkpt lat="44.9087266" lon="9.81353"><ele>112.80000000000001</ele><time>2026-03-29T07:35:11.09Z</time></trkpt><trkpt lat="44.9086974" lon="9.813658"><ele>112.60000000000001</ele><time>2026-03-29T07:35:13.076Z</time></trkpt><trkpt lat="44.9086628" lon="9.8137939"><ele>112.39999999999999</ele><time>2026-03-29T07:35:15.092Z</time></trkpt><trkpt lat="44.9086335" lon="9.8139188"><ele>112.19999999999999</ele><time>2026-03-29T07:35:17.086Z</time></trkpt><trkpt lat="44.9085983" lon="9.8140509"><ele>112.0</ele><time>2026-03-29T07:35:19.073Z</time></trkpt><trkpt lat="44.908566" lon="9.8141771"><ele>112.0</ele><time>2026-03-29T07:35:21.081Z</time></trkpt><trkpt lat="44.9085303" lon="9.8143163"><ele>111.99999999999999</ele><time>2026-03-29T07:35:23.077Z</time></trkpt><trkpt lat="44.9084928" lon="9.814462"><ele>111.99999999999999</ele><time>2026-03-29T07:35:25.087Z</time></trkpt><trkpt lat="44.9084536" lon="9.8145986"><ele>112.0</ele><time>2026-03-29T07:35:27.076Z</time></trkpt><trkpt lat="44.9084158" lon="9.8147319"><ele>112.0</ele><time>2026-03-29T07:35:29.101Z</time></trkpt><trkpt lat="44.9083685" lon="9.8148709"><ele>112.75</ele><time>2026-03-29T07:35:31.078Z</time></trkpt><trkpt lat="44.9083194" lon="9.8150014"><ele>113.5</ele><time>2026-03-29T07:35:33.083Z</time></trkpt><trkpt lat="44.908212" lon="9.8150633"><ele>114.25</ele><time>2026-03-29T07:35:35.079Z</time></trkpt><trkpt lat="44.9080947" lon="9.8150334"><ele>115.0</ele><time>2026-03-29T07:35:37.085Z</time></trkpt><trkpt lat="44.907995" lon="9.8149534"><ele>115.0</ele><time>2026-03-29T07:35:39.095Z</time></trkpt><trkpt lat="44.9078987" lon="9.8148962"><ele>115.0</ele><time>2026-03-29T07:35:41.085Z</time></trkpt><trkpt lat="44.9078149" lon="9.814834"><ele>115.0</ele><time>2026-03-29T07:35:43.09Z</time></trkpt><trkpt lat="44.9077343" lon="9.8147728"><ele>115.0</ele><time>2026-03-29T07:35:45.085Z</time></trkpt><trkpt lat="44.9076541" lon="9.8147168"><ele>115.0</ele><time>2026-03-29T07:35:47.079Z</time></trkpt><trkpt lat="44.907571" lon="9.8146609"><ele>115.0</ele><time>2026-03-29T07:35:49.049Z</time></trkpt><trkpt lat="44.9074884" lon="9.8146083"><ele>115.0</ele><time>2026-03-29T07:35:51.081Z</time></trkpt><trkpt lat="44.9073929" lon="9.8145824"><ele>115.0</ele><time>2026-03-29T07:35:53.083Z</time></trkpt><trkpt lat="44.9072992" lon="9.8145573"><ele>115.0</ele><time>2026-03-29T07:35:55.079Z</time></trkpt><trkpt lat="44.9071995" lon="9.8145398"><ele>115.0</ele><time>2026-03-29T07:35:57.063Z</time></trkpt><trkpt lat="44.9071089" lon="9.8145129"><ele>115.0</ele><time>2026-03-29T07:35:59.092Z</time></trkpt><trkpt lat="44.9070086" lon="9.8144879"><ele>115.0</ele><time>2026-03-29T07:36:01.092Z</time></trkpt><trkpt lat="44.9069168" lon="9.8144662"><ele>115.0</ele><time>2026-03-29T07:36:03.09Z</time></trkpt><trkpt lat="44.9068251" lon="9.8144242"><ele>115.0</ele><time>2026-03-29T07:36:05.074Z</time></trkpt><trkpt lat="44.906742" lon="9.8143785"><ele>115.0</ele><time>2026-03-29T07:36:07.086Z</time></trkpt><trkpt lat="44.9066588" lon="9.8143184"><ele>115.0</ele><time>2026-03-29T07:36:09.11Z</time></trkpt><trkpt lat="44.9065748" lon="9.8142658"><ele>115.0</ele><time>2026-03-29T07:36:11.093Z</time></trkpt><trkpt lat="44.9064822" lon="9.8142155"><ele>115.0</ele><time>2026-03-29T07:36:13.074Z</time></trkpt><trkpt lat="44.9063937" lon="9.8141632"><ele>115.0</ele><time>2026-03-29T07:36:15.08Z</time></trkpt><trkpt lat="44.9063065" lon="9.8141158"><ele>115.0</ele><time>2026-03-29T07:36:17.075Z</time></trkpt><trkpt lat="44.9062187" lon="9.8140601"><ele>115.0</ele><time>2026-03-29T07:36:19.094Z</time></trkpt><trkpt lat="44.9061327" lon="9.814009"><ele>115.0</ele><time>2026-03-29T07:36:21.073Z</time></trkpt><trkpt lat="44.9060412" lon="9.8139704"><ele>115.0</ele><time>2026-03-29T07:36:23.086Z</time></trkpt><trkpt lat="44.9059452" lon="9.8139367"><ele>115.0</ele><time>2026-03-29T07:36:25.087Z</time></trkpt><trkpt lat="44.9058484" lon="9.8139174"><ele>115.0</ele><time>2026-03-29T07:36:27.087Z</time></trkpt><trkpt lat="44.9057538" lon="9.8138921"><ele>115.0</ele><time>2026-03-29T07:36:29.077Z</time></trkpt><trkpt lat="44.9056621" lon="9.813848"><ele>115.0</ele><time>2026-03-29T07:36:31.086Z</time></trkpt><trkpt lat="44.9055702" lon="9.8138079"><ele>115.0</ele><time>2026-03-29T07:36:33.093Z</time></trkpt><trkpt lat="44.9054854" lon="9.8137709"><ele>115.0</ele><time>2026-03-29T07:36:35.09Z</time></trkpt><trkpt lat="44.9053907" lon="9.813735"><ele>115.0</ele><time>2026-03-29T07:36:37.066Z</time></trkpt><trkpt lat="44.9052956" lon="9.8136896"><ele>115.0</ele><time>2026-03-29T07:36:39.083Z</time></trkpt><trkpt lat="44.9052062" lon="9.8136389"><ele>115.0</ele><time>2026-03-29T07:36:41.088Z</time></trkpt><trkpt lat="44.9051143" lon="9.8135814"><ele>115.0</ele><time>2026-03-29T07:36:43.073Z</time></trkpt><trkpt lat="44.9050344" lon="9.8135188"><ele>115.0</ele><time>2026-03-29T07:36:45.084Z</time></trkpt><trkpt lat="44.9049599" lon="9.8134577"><ele>115.0</ele><time>2026-03-29T07:36:47.06Z</time></trkpt><trkpt lat="44.9048867" lon="9.8133949"><ele>115.8</ele><time>2026-03-29T07:36:49.086Z</time></trkpt><trkpt lat="44.9048146" lon="9.8133231"><ele>116.6</ele><time>2026-03-29T07:36:51.08Z</time></trkpt><trkpt lat="44.9047317" lon="9.8132589"><ele>117.4</ele><time>2026-03-29T07:36:53.05Z</time></trkpt><trkpt lat="44.9046504" lon="9.8131922"><ele>118.2</ele><time>2026-03-29T07:36:55.087Z</time></trkpt><trkpt lat="44.9045701" lon="9.8131374"><ele>119.0</ele><time>2026-03-29T07:36:57.084Z</time></trkpt><trkpt lat="44.9044836" lon="9.8130856"><ele>119.0</ele><time>2026-03-29T07:36:59.071Z</time></trkpt><trkpt lat="44.9044003" lon="9.8130333"><ele>119.0</ele><time>2026-03-29T07:37:01.079Z</time></trkpt><trkpt lat="44.9043155" lon="9.8129741"><ele>119.0</ele><time>2026-03-29T07:37:03.089Z</time></trkpt><trkpt lat="44.9042272" lon="9.8129233"><ele>119.0</ele><time>2026-03-29T07:37:05.111Z</time></trkpt><trkpt lat="44.9041397" lon="9.8128784"><ele>119.0</ele><time>2026-03-29T07:37:07.079Z</time></trkpt><trkpt lat="44.9040499" lon="9.8128397"><ele>119.16666666666666</ele><time>2026-03-29T07:37:09.085Z</time></trkpt><trkpt lat="44.9039581" lon="9.8128059"><ele>119.33333333333333</ele><time>2026-03-29T07:37:11.072Z</time></trkpt><trkpt lat="44.9038699" lon="9.8127628"><ele>119.5</ele><time>2026-03-29T07:37:13.09Z</time></trkpt><trkpt lat="44.9037896" lon="9.8127304"><ele>119.66666666666666</ele><time>2026-03-29T07:37:15.086Z</time></trkpt><trkpt lat="44.9037104" lon="9.8126863"><ele>119.83333333333333</ele><time>2026-03-29T07:37:17.083Z</time></trkpt><trkpt lat="44.9036265" lon="9.8126368"><ele>120.0</ele><time>2026-03-29T07:37:19.091Z</time></trkpt><trkpt lat="44.9035398" lon="9.8125896"><ele>120.0</ele><time>2026-03-29T07:37:21.089Z</time></trkpt><trkpt lat="44.9034505" lon="9.8125559"><ele>120.0</ele><time>2026-03-29T07:37:23.066Z</time></trkpt><trkpt lat="44.9033638" lon="9.8125135"><ele>120.0</ele><time>2026-03-29T07:37:25.075Z</time></trkpt><trkpt lat="44.9032835" lon="9.8124828"><ele>120.0</ele><time>2026-03-29T07:37:27.08Z</time></trkpt><trkpt lat="44.903199" lon="9.8124552"><ele>120.0</ele><time>2026-03-29T07:37:29.086Z</time></trkpt><trkpt lat="44.90311" lon="9.8124428"><ele>120.0</ele><time>2026-03-29T07:37:31.074Z</time></trkpt><trkpt lat="44.9030188" lon="9.81243"><ele>120.0</ele><time>2026-03-29T07:37:33.093Z</time></trkpt><trkpt lat="44.9029243" lon="9.812425"><ele>120.0</ele><time>2026-03-29T07:37:35.1Z</time></trkpt><trkpt lat="44.9028311" lon="9.8124209"><ele>120.0</ele><time>2026-03-29T07:37:37.089Z</time></trkpt><trkpt lat="44.9027485" lon="9.8124136"><ele>120.0</ele><time>2026-03-29T07:37:39.071Z</time></trkpt><trkpt lat="44.9026682" lon="9.8124036"><ele>120.0</ele><time>2026-03-29T07:37:41.098Z</time></trkpt><trkpt lat="44.902582" lon="9.8123919"><ele>120.0</ele><time>2026-03-29T07:37:43.084Z</time></trkpt><trkpt lat="44.902492" lon="9.8123716"><ele>119.8</ele><time>2026-03-29T07:37:45.06Z</time></trkpt><trkpt lat="44.9024045" lon="9.812354"><ele>119.6</ele><time>2026-03-29T07:37:47.079Z</time></trkpt><trkpt lat="44.9023144" lon="9.8123266"><ele>119.4</ele><time>2026-03-29T07:37:49.068Z</time></trkpt><trkpt lat="44.9022215" lon="9.8123045"><ele>119.2</ele><time>2026-03-29T07:37:51.082Z</time></trkpt><trkpt lat="44.9021314" lon="9.8122828"><ele>119.0</ele><time>2026-03-29T07:37:53.09Z</time></trkpt><trkpt lat="44.9020459" lon="9.8122547"><ele>119.0</ele><time>2026-03-29T07:37:55.087Z</time></trkpt><trkpt lat="44.9019578" lon="9.8122217"><ele>119.0</ele><time>2026-03-29T07:37:57.089Z</time></trkpt><trkpt lat="44.9018621" lon="9.8121985"><ele>119.0</ele><time>2026-03-29T07:37:59.086Z</time></trkpt><trkpt lat="44.9017708" lon="9.8121694"><ele>119.0</ele><time>2026-03-29T07:38:01.079Z</time></trkpt><trkpt lat="44.9016812" lon="9.8121308"><ele>119.0</ele><time>2026-03-29T07:38:03.083Z</time></trkpt><trkpt lat="44.9015923" lon="9.8120935"><ele>119.16666666666666</ele><time>2026-03-29T07:38:05.086Z</time></trkpt><trkpt lat="44.9015079" lon="9.8120613"><ele>119.33333333333333</ele><time>2026-03-29T07:38:07.03Z</time></trkpt><trkpt lat="44.9014257" lon="9.8120154"><ele>119.5</ele><time>2026-03-29T07:38:09.075Z</time></trkpt><trkpt lat="44.9013473" lon="9.811973"><ele>119.66666666666666</ele><time>2026-03-29T07:38:11.072Z</time></trkpt><trkpt lat="44.9012675" lon="9.8119323"><ele>119.83333333333333</ele><time>2026-03-29T07:38:13.084Z</time></trkpt><trkpt lat="44.9011868" lon="9.8118929"><ele>120.0</ele><time>2026-03-29T07:38:15.071Z</time></trkpt><trkpt lat="44.9011103" lon="9.8118398"><ele>120.16666666666667</ele><time>2026-03-29T07:38:17.066Z</time></trkpt><trkpt lat="44.9010307" lon="9.8117992"><ele>120.33333333333334</ele><time>2026-03-29T07:38:19.072Z</time></trkpt><trkpt lat="44.9009467" lon="9.8117569"><ele>120.5</ele><time>2026-03-29T07:38:21.08Z</time></trkpt><trkpt lat="44.900872" lon="9.8117116"><ele>120.66666666666667</ele><time>2026-03-29T07:38:23.078Z</time></trkpt><trkpt lat="44.900802" lon="9.8116673"><ele>120.83333333333334</ele><time>2026-03-29T07:38:25.058Z</time></trkpt><trkpt lat="44.9007335" lon="9.8116326"><ele>121.0</ele><time>2026-03-29T07:38:27.082Z</time></trkpt><trkpt lat="44.9006672" lon="9.8116268"><ele>121.16666666666667</ele><time>2026-03-29T07:38:29.087Z</time></trkpt><trkpt lat="44.9006122" lon="9.8116773"><ele>121.33333333333334</ele><time>2026-03-29T07:38:31.068Z</time></trkpt><trkpt lat="44.9005769" lon="9.8117725"><ele>121.5</ele><time>2026-03-29T07:38:33.07Z</time></trkpt><trkpt lat="44.9005526" lon="9.8118663"><ele>121.66666666666666</ele><time>2026-03-29T07:38:35.079Z</time></trkpt><trkpt lat="44.9005316" lon="9.8119731"><ele>121.83333333333333</ele><time>2026-03-29T07:38:37.073Z</time></trkpt><trkpt lat="44.9005041" lon="9.8120822"><ele>122.0</ele><time>2026-03-29T07:38:39.08Z</time></trkpt><trkpt lat="44.9004749" lon="9.8121883"><ele>121.66666666666666</ele><time>2026-03-29T07:38:41.084Z</time></trkpt><trkpt lat="44.9004555" lon="9.8123059"><ele>121.33333333333333</ele><time>2026-03-29T07:38:43.079Z</time></trkpt><trkpt lat="44.900434" lon="9.8124252"><ele>121.0</ele><time>2026-03-29T07:38:45.079Z</time></trkpt><trkpt lat="44.9004113" lon="9.8125358"><ele>120.66666666666666</ele><time>2026-03-29T07:38:47.085Z</time></trkpt><trkpt lat="44.9003881" lon="9.8126569"><ele>120.33333333333333</ele><time>2026-03-29T07:38:49.083Z</time></trkpt><trkpt lat="44.9003565" lon="9.8127896"><ele>120.0</ele><time>2026-03-29T07:38:51.045Z</time></trkpt><trkpt lat="44.9003297" lon="9.8129255"><ele>120.0</ele><time>2026-03-29T07:38:53.086Z</time></trkpt><trkpt lat="44.9003031" lon="9.81306"><ele>120.0</ele><time>2026-03-29T07:38:55.086Z</time></trkpt><trkpt lat="44.9002708" lon="9.8131834"><ele>120.0</ele><time>2026-03-29T07:38:57.063Z</time></trkpt><trkpt lat="44.9002438" lon="9.8133183"><ele>120.0</ele><time>2026-03-29T07:38:59.083Z</time></trkpt><trkpt lat="44.9002113" lon="9.8134549"><ele>120.0</ele><time>2026-03-29T07:39:01.091Z</time></trkpt><trkpt lat="44.9001855" lon="9.813581"><ele>120.0</ele><time>2026-03-29T07:39:03.092Z</time></trkpt><trkpt lat="44.9001515" lon="9.8137131"><ele>120.0</ele><time>2026-03-29T07:39:05.044Z</time></trkpt><trkpt lat="44.9001195" lon="9.8138521"><ele>120.0</ele><time>2026-03-29T07:39:07.075Z</time></trkpt><trkpt lat="44.9000835" lon="9.8139955"><ele>120.0</ele><time>2026-03-29T07:39:09.066Z</time></trkpt><trkpt lat="44.900042" lon="9.8141309"><ele>120.0</ele><time>2026-03-29T07:39:11.071Z</time></trkpt><trkpt lat="44.8999986" lon="9.8142683"><ele>119.6</ele><time>2026-03-29T07:39:13.071Z</time></trkpt><trkpt lat="44.899953" lon="9.814414"><ele>119.2</ele><time>2026-03-29T07:39:15.082Z</time></trkpt><trkpt lat="44.8999041" lon="9.8145522"><ele>118.80000000000001</ele><time>2026-03-29T07:39:17.085Z</time></trkpt><trkpt lat="44.8998612" lon="9.8146897"><ele>118.4</ele><time>2026-03-29T07:39:19.083Z</time></trkpt><trkpt lat="44.8998094" lon="9.8148189"><ele>118.0</ele><time>2026-03-29T07:39:21.091Z</time></trkpt><trkpt lat="44.8997593" lon="9.8149537"><ele>118.0</ele><time>2026-03-29T07:39:23.069Z</time></trkpt><trkpt lat="44.8997087" lon="9.8150823"><ele>118.00000000000001</ele><time>2026-03-29T07:39:25.093Z</time></trkpt><trkpt lat="44.8996597" lon="9.8152049"><ele>118.00000000000001</ele><time>2026-03-29T07:39:27.085Z</time></trkpt><trkpt lat="44.8996118" lon="9.815332"><ele>118.0</ele><time>2026-03-29T07:39:29.072Z</time></trkpt><trkpt lat="44.8995636" lon="9.8154493"><ele>118.0</ele><time>2026-03-29T07:39:31.057Z</time></trkpt><trkpt lat="44.899511" lon="9.8155702"><ele>118.2</ele><time>2026-03-29T07:39:33.075Z</time></trkpt><trkpt lat="44.8994621" lon="9.8156897"><ele>118.4</ele><time>2026-03-29T07:39:35.08Z</time></trkpt><trkpt lat="44.8994125" lon="9.8157975"><ele>118.60000000000001</ele><time>2026-03-29T07:39:37.083Z</time></trkpt><trkpt lat="44.8993672" lon="9.8159127"><ele>118.80000000000001</ele><time>2026-03-29T07:39:39.076Z</time></trkpt><trkpt lat="44.8993173" lon="9.8160276"><ele>119.0</ele><time>2026-03-29T07:39:41.077Z</time></trkpt><trkpt lat="44.8992712" lon="9.8161398"><ele>119.6</ele><time>2026-03-29T07:39:43.065Z</time></trkpt><trkpt lat="44.8992209" lon="9.8162575"><ele>120.2</ele><time>2026-03-29T07:39:45.073Z</time></trkpt><trkpt lat="44.8991736" lon="9.8163636"><ele>120.79999999999998</ele><time>2026-03-29T07:39:47.077Z</time></trkpt><trkpt lat="44.8991197" lon="9.816468"><ele>121.39999999999999</ele><time>2026-03-29T07:39:49.083Z</time></trkpt><trkpt lat="44.8990701" lon="9.8165776"><ele>122.0</ele><time>2026-03-29T07:39:51.085Z</time></trkpt><trkpt lat="44.8990141" lon="9.8166847"><ele>121.99999999999999</ele><time>2026-03-29T07:39:53.083Z</time></trkpt><trkpt lat="44.8989583" lon="9.8167806"><ele>122.0</ele><time>2026-03-29T07:39:55.08Z</time></trkpt><trkpt lat="44.898903" lon="9.8168738"><ele>122.0</ele><time>2026-03-29T07:39:57.082Z</time></trkpt><trkpt lat="44.8988494" lon="9.8169665"><ele>122.0</ele><time>2026-03-29T07:39:59.091Z</time></trkpt><trkpt lat="44.8987884" lon="9.8170671"><ele>121.99999999999999</ele><time>2026-03-29T07:40:01.079Z</time></trkpt><trkpt lat="44.8987361" lon="9.8171757"><ele>122.0</ele><time>2026-03-29T07:40:03.042Z</time></trkpt><trkpt lat="44.8986725" lon="9.8172815"><ele>121.6</ele><time>2026-03-29T07:40:05.067Z</time></trkpt><trkpt lat="44.8986102" lon="9.8174038"><ele>121.19999999999999</ele><time>2026-03-29T07:40:07.073Z</time></trkpt><trkpt lat="44.898549" lon="9.8175264"><ele>120.8</ele><time>2026-03-29T07:40:09.077Z</time></trkpt><trkpt lat="44.8984841" lon="9.8176476"><ele>120.4</ele><time>2026-03-29T07:40:11.088Z</time></trkpt><trkpt lat="44.8984211" lon="9.8177688"><ele>120.0</ele><time>2026-03-29T07:40:13.062Z</time></trkpt><trkpt lat="44.8983668" lon="9.8179021"><ele>119.8</ele><time>2026-03-29T07:40:15.064Z</time></trkpt><trkpt lat="44.8983125" lon="9.818032"><ele>119.6</ele><time>2026-03-29T07:40:17.058Z</time></trkpt><trkpt lat="44.8982615" lon="9.8181613"><ele>119.4</ele><time>2026-03-29T07:40:19.069Z</time></trkpt><trkpt lat="44.8982078" lon="9.8182924"><ele>119.2</ele><time>2026-03-29T07:40:21.095Z</time></trkpt><trkpt lat="44.898166" lon="9.8184291"><ele>119.0</ele><time>2026-03-29T07:40:23.088Z</time></trkpt><trkpt lat="44.89812" lon="9.8185675"><ele>119.0</ele><time>2026-03-29T07:40:25.08Z</time></trkpt><trkpt lat="44.8980691" lon="9.8187033"><ele>119.0</ele><time>2026-03-29T07:40:27.091Z</time></trkpt><trkpt lat="44.8980235" lon="9.8188396"><ele>119.0</ele><time>2026-03-29T07:40:29.087Z</time></trkpt><trkpt lat="44.8979647" lon="9.8189623"><ele>119.0</ele><time>2026-03-29T07:40:31.048Z</time></trkpt><trkpt lat="44.897902" lon="9.8190854"><ele>119.0</ele><time>2026-03-29T07:40:33.087Z</time></trkpt><trkpt lat="44.8978469" lon="9.8192126"><ele>119.4</ele><time>2026-03-29T07:40:35.076Z</time></trkpt><trkpt lat="44.8977842" lon="9.8193234"><ele>119.80000000000001</ele><time>2026-03-29T07:40:37.09Z</time></trkpt><trkpt lat="44.897725" lon="9.819425"><ele>120.19999999999999</ele><time>2026-03-29T07:40:39.077Z</time></trkpt><trkpt lat="44.8976541" lon="9.8195333"><ele>120.6</ele><time>2026-03-29T07:40:41.086Z</time></trkpt><trkpt lat="44.8975856" lon="9.8196341"><ele>121.0</ele><time>2026-03-29T07:40:43.081Z</time></trkpt><trkpt lat="44.8975159" lon="9.8197305"><ele>121.0</ele><time>2026-03-29T07:40:45.052Z</time></trkpt><trkpt lat="44.8974587" lon="9.8198317"><ele>121.0</ele><time>2026-03-29T07:40:47.066Z</time></trkpt><trkpt lat="44.8974014" lon="9.8199425"><ele>121.0</ele><time>2026-03-29T07:40:49.038Z</time></trkpt><trkpt lat="44.8973465" lon="9.8200431"><ele>121.0</ele><time>2026-03-29T07:40:51.034Z</time></trkpt><trkpt lat="44.8972901" lon="9.8201472"><ele>121.0</ele><time>2026-03-29T07:40:53.077Z</time></trkpt><trkpt lat="44.8972374" lon="9.8202345"><ele>121.16666666666667</ele><time>2026-03-29T07:40:55.066Z</time></trkpt><trkpt lat="44.8971753" lon="9.8203271"><ele>121.33333333333334</ele><time>2026-03-29T07:40:57.082Z</time></trkpt><trkpt lat="44.8971188" lon="9.8204241"><ele>121.5</ele><time>2026-03-29T07:40:59.087Z</time></trkpt><trkpt lat="44.8970634" lon="9.8205196"><ele>121.66666666666666</ele><time>2026-03-29T07:41:01.078Z</time></trkpt><trkpt lat="44.8970067" lon="9.8206084"><ele>121.83333333333333</ele><time>2026-03-29T07:41:03.082Z</time></trkpt><trkpt lat="44.8969642" lon="9.8206966"><ele>122.0</ele><time>2026-03-29T07:41:05.076Z</time></trkpt><trkpt lat="44.896917" lon="9.820762"><ele>121.99999999999999</ele><time>2026-03-29T07:41:07.087Z</time></trkpt><trkpt lat="44.8968482" lon="9.8207543"><ele>122.0</ele><time>2026-03-29T07:41:09.061Z</time></trkpt><trkpt lat="44.8967987" lon="9.8206901"><ele>121.99999999999999</ele><time>2026-03-29T07:41:11.086Z</time></trkpt><trkpt lat="44.8967564" lon="9.8206089"><ele>121.99999999999999</ele><time>2026-03-29T07:41:13.046Z</time></trkpt><trkpt lat="44.8966986" lon="9.8205433"><ele>122.0</ele><time>2026-03-29T07:41:15.075Z</time></trkpt><trkpt lat="44.8966442" lon="9.8204746"><ele>121.99999999999999</ele><time>2026-03-29T07:41:17.082Z</time></trkpt><trkpt lat="44.8965862" lon="9.8203954"><ele>121.99999999999999</ele><time>2026-03-29T07:41:19.076Z</time></trkpt><trkpt lat="44.8965213" lon="9.8203093"><ele>121.83333333333333</ele><time>2026-03-29T07:41:21.069Z</time></trkpt><trkpt lat="44.8964601" lon="9.8202316"><ele>121.66666666666666</ele><time>2026-03-29T07:41:23.074Z</time></trkpt><trkpt lat="44.8964002" lon="9.8201522"><ele>121.5</ele><time>2026-03-29T07:41:25.086Z</time></trkpt><trkpt lat="44.8963479" lon="9.820072"><ele>121.33333333333334</ele><time>2026-03-29T07:41:27.073Z</time></trkpt><trkpt lat="44.8962929" lon="9.8199858"><ele>121.16666666666667</ele><time>2026-03-29T07:41:29.083Z</time></trkpt><trkpt lat="44.896233" lon="9.8199105"><ele>121.0</ele><time>2026-03-29T07:41:31.077Z</time></trkpt><trkpt lat="44.8961751" lon="9.819831"><ele>121.00000000000001</ele><time>2026-03-29T07:41:33.077Z</time></trkpt><trkpt lat="44.8961193" lon="9.8197445"><ele>121.0</ele><time>2026-03-29T07:41:35.076Z</time></trkpt><trkpt lat="44.8960647" lon="9.8196638"><ele>121.0</ele><time>2026-03-29T07:41:37.08Z</time></trkpt><trkpt lat="44.8959985" lon="9.8195891"><ele>121.0</ele><time>2026-03-29T07:41:39.071Z</time></trkpt><trkpt lat="44.8959412" lon="9.8195084"><ele>121.00000000000001</ele><time>2026-03-29T07:41:41.08Z</time></trkpt><trkpt lat="44.8958843" lon="9.8194271"><ele>121.0</ele><time>2026-03-29T07:41:43.082Z</time></trkpt><trkpt lat="44.895819" lon="9.8193494"><ele>121.16666666666667</ele><time>2026-03-29T07:41:45.048Z</time></trkpt><trkpt lat="44.8957593" lon="9.8192658"><ele>121.33333333333334</ele><time>2026-03-29T07:41:47.078Z</time></trkpt><trkpt lat="44.8957046" lon="9.8191894"><ele>121.5</ele><time>2026-03-29T07:41:49.08Z</time></trkpt><trkpt lat="44.895648" lon="9.8191116"><ele>121.66666666666666</ele><time>2026-03-29T07:41:51.083Z</time></trkpt><trkpt lat="44.8955959" lon="9.8190275"><ele>121.83333333333333</ele><time>2026-03-29T07:41:53.067Z</time></trkpt><trkpt lat="44.8955407" lon="9.8189448"><ele>122.0</ele><time>2026-03-29T07:41:55.066Z</time></trkpt><trkpt lat="44.8954879" lon="9.8188594"><ele>121.99999999999999</ele><time>2026-03-29T07:41:57.059Z</time></trkpt><trkpt lat="44.8954263" lon="9.8187779"><ele>122.0</ele><time>2026-03-29T07:41:59.057Z</time></trkpt><trkpt lat="44.8953697" lon="9.8187007"><ele>122.0</ele><time>2026-03-29T07:42:01.085Z</time></trkpt><trkpt lat="44.8953191" lon="9.818616"><ele>122.0</ele><time>2026-03-29T07:42:03.086Z</time></trkpt><trkpt lat="44.895263" lon="9.8185273"><ele>121.99999999999999</ele><time>2026-03-29T07:42:05.08Z</time></trkpt><trkpt lat="44.895212" lon="9.8184343"><ele>122.0</ele><time>2026-03-29T07:42:07.067Z</time></trkpt><trkpt lat="44.8951545" lon="9.8183414"><ele>122.16666666666666</ele><time>2026-03-29T07:42:09.079Z</time></trkpt><trkpt lat="44.8951068" lon="9.818262"><ele>122.33333333333333</ele><time>2026-03-29T07:42:11.075Z</time></trkpt><trkpt lat="44.8950451" lon="9.8181885"><ele>122.5</ele><time>2026-03-29T07:42:13.081Z</time></trkpt><trkpt lat="44.8949928" lon="9.8181165"><ele>122.66666666666666</ele><time>2026-03-29T07:42:15.067Z</time></trkpt><trkpt lat="44.8949377" lon="9.8180258"><ele>122.83333333333333</ele><time>2026-03-29T07:42:17.063Z</time></trkpt><trkpt lat="44.8948906" lon="9.8179422"><ele>123.0</ele><time>2026-03-29T07:42:19.064Z</time></trkpt><trkpt lat="44.8948413" lon="9.8178615"><ele>123.33333333333333</ele><time>2026-03-29T07:42:21.071Z</time></trkpt><trkpt lat="44.8947935" lon="9.8177696"><ele>123.66666666666666</ele><time>2026-03-29T07:42:23.071Z</time></trkpt><trkpt lat="44.8947396" lon="9.8176853"><ele>124.0</ele><time>2026-03-29T07:42:25.078Z</time></trkpt><trkpt lat="44.8946986" lon="9.8176027"><ele>124.33333333333333</ele><time>2026-03-29T07:42:27.079Z</time></trkpt><trkpt lat="44.8946382" lon="9.817523"><ele>124.66666666666666</ele><time>2026-03-29T07:42:29.07Z</time></trkpt><trkpt lat="44.8945867" lon="9.8174486"><ele>125.0</ele><time>2026-03-29T07:42:31.075Z</time></trkpt><trkpt lat="44.8945305" lon="9.8173835"><ele>125.0</ele><time>2026-03-29T07:42:33.085Z</time></trkpt><trkpt lat="44.8944728" lon="9.8173198"><ele>125.0</ele><time>2026-03-29T07:42:35.079Z</time></trkpt><trkpt lat="44.8944166" lon="9.817254"><ele>125.0</ele><time>2026-03-29T07:42:37.08Z</time></trkpt><trkpt lat="44.8943626" lon="9.8171923"><ele>125.0</ele><time>2026-03-29T07:42:39.071Z</time></trkpt><trkpt lat="44.8943003" lon="9.8171194"><ele>125.0</ele><time>2026-03-29T07:42:41.076Z</time></trkpt><trkpt lat="44.894239" lon="9.8170584"><ele>125.0</ele><time>2026-03-29T07:42:43.07Z</time></trkpt><trkpt lat="44.8941735" lon="9.8169993"><ele>125.0</ele><time>2026-03-29T07:42:45.081Z</time></trkpt><trkpt lat="44.8941176" lon="9.8169327"><ele>125.16666666666666</ele><time>2026-03-29T07:42:47.08Z</time></trkpt><trkpt lat="44.894059" lon="9.8168583"><ele>125.33333333333333</ele><time>2026-03-29T07:42:49.074Z</time></trkpt><trkpt lat="44.8939956" lon="9.8167914"><ele>125.5</ele><time>2026-03-29T07:42:51.046Z</time></trkpt><trkpt lat="44.8939364" lon="9.8167209"><ele>125.66666666666666</ele><time>2026-03-29T07:42:53.079Z</time></trkpt><trkpt lat="44.8938715" lon="9.8166604"><ele>125.83333333333333</ele><time>2026-03-29T07:42:55.074Z</time></trkpt><trkpt lat="44.8938076" lon="9.816587"><ele>126.0</ele><time>2026-03-29T07:42:57.089Z</time></trkpt><trkpt lat="44.8937481" lon="9.8165185"><ele>126.0</ele><time>2026-03-29T07:42:59.062Z</time></trkpt><trkpt lat="44.8936889" lon="9.8164506"><ele>126.0</ele><time>2026-03-29T07:43:01.082Z</time></trkpt><trkpt lat="44.8936236" lon="9.8163858"><ele>126.0</ele><time>2026-03-29T07:43:03.091Z</time></trkpt><trkpt lat="44.8935582" lon="9.816325"><ele>126.0</ele><time>2026-03-29T07:43:05.081Z</time></trkpt><trkpt lat="44.8934997" lon="9.8162751"><ele>126.0</ele><time>2026-03-29T07:43:07.086Z</time></trkpt><trkpt lat="44.8934372" lon="9.8162045"><ele>126.0</ele><time>2026-03-29T07:43:09.083Z</time></trkpt><trkpt lat="44.8933757" lon="9.8161206"><ele>126.33333333333333</ele><time>2026-03-29T07:43:11.065Z</time></trkpt><trkpt lat="44.8933098" lon="9.8160614"><ele>126.66666666666666</ele><time>2026-03-29T07:43:13.079Z</time></trkpt><trkpt lat="44.8932432" lon="9.8159917"><ele>127.0</ele><time>2026-03-29T07:43:15.077Z</time></trkpt><trkpt lat="44.8931754" lon="9.8159228"><ele>127.33333333333333</ele><time>2026-03-29T07:43:17.068Z</time></trkpt><trkpt lat="44.8931078" lon="9.8158544"><ele>127.66666666666666</ele><time>2026-03-29T07:43:19.078Z</time></trkpt><trkpt lat="44.8930404" lon="9.8157839"><ele>128.0</ele><time>2026-03-29T07:43:21.079Z</time></trkpt><trkpt lat="44.8929743" lon="9.8157166"><ele>128.33333333333331</ele><time>2026-03-29T07:43:23.058Z</time></trkpt><trkpt lat="44.8929131" lon="9.815632"><ele>128.66666666666666</ele><time>2026-03-29T07:43:25.056Z</time></trkpt><trkpt lat="44.8928497" lon="9.8155598"><ele>129.0</ele><time>2026-03-29T07:43:27.084Z</time></trkpt><trkpt lat="44.8927852" lon="9.8154949"><ele>129.33333333333334</ele><time>2026-03-29T07:43:29.079Z</time></trkpt><trkpt lat="44.8927228" lon="9.815427"><ele>129.66666666666669</ele><time>2026-03-29T07:43:31.074Z</time></trkpt><trkpt lat="44.8926585" lon="9.8153592"><ele>130.0</ele><time>2026-03-29T07:43:33.062Z</time></trkpt><trkpt lat="44.8925943" lon="9.8152947"><ele>130.0</ele><time>2026-03-29T07:43:35.071Z</time></trkpt><trkpt lat="44.8925284" lon="9.8152269"><ele>130.0</ele><time>2026-03-29T07:43:37.082Z</time></trkpt><trkpt lat="44.8924601" lon="9.8151651"><ele>130.0</ele><time>2026-03-29T07:43:39.071Z</time></trkpt><trkpt lat="44.8924021" lon="9.8150994"><ele>130.0</ele><time>2026-03-29T07:43:41.062Z</time></trkpt><trkpt lat="44.8923353" lon="9.8150314"><ele>130.0</ele><time>2026-03-29T07:43:43.066Z</time></trkpt><trkpt lat="44.8922727" lon="9.814966"><ele>130.0</ele><time>2026-03-29T07:43:45.078Z</time></trkpt><trkpt lat="44.8922075" lon="9.8148992"><ele>130.16666666666669</ele><time>2026-03-29T07:43:47.074Z</time></trkpt><trkpt lat="44.8921435" lon="9.8148395"><ele>130.33333333333334</ele><time>2026-03-29T07:43:49.066Z</time></trkpt><trkpt lat="44.8920803" lon="9.8147711"><ele>130.5</ele><time>2026-03-29T07:43:51.081Z</time></trkpt><trkpt lat="44.8920213" lon="9.814706"><ele>130.66666666666666</ele><time>2026-03-29T07:43:53.073Z</time></trkpt><trkpt lat="44.8919584" lon="9.8146516"><ele>130.83333333333331</ele><time>2026-03-29T07:43:55.071Z</time></trkpt><trkpt lat="44.8918968" lon="9.814585"><ele>131.0</ele><time>2026-03-29T07:43:57.067Z</time></trkpt><trkpt lat="44.8918405" lon="9.8145221"><ele>131.0</ele><time>2026-03-29T07:43:59.082Z</time></trkpt><trkpt lat="44.8917788" lon="9.8144604"><ele>131.0</ele><time>2026-03-29T07:44:01.086Z</time></trkpt><trkpt lat="44.891713" lon="9.8144054"><ele>131.0</ele><time>2026-03-29T07:44:03.086Z</time></trkpt><trkpt lat="44.8916592" lon="9.8143568"><ele>131.0</ele><time>2026-03-29T07:44:05.081Z</time></trkpt><trkpt lat="44.8915922" lon="9.8142926"><ele>131.0</ele><time>2026-03-29T07:44:08.079Z</time></trkpt><trkpt lat="44.8915195" lon="9.8142464"><ele>131.0</ele><time>2026-03-29T07:44:11.074Z</time></trkpt><trkpt lat="44.8914648" lon="9.8142926"><ele>131.0</ele><time>2026-03-29T07:44:13.077Z</time></trkpt><trkpt lat="44.8914254" lon="9.8143929"><ele>131.4</ele><time>2026-03-29T07:44:15.076Z</time></trkpt><trkpt lat="44.8913787" lon="9.8145008"><ele>131.8</ele><time>2026-03-29T07:44:17.07Z</time></trkpt><trkpt lat="44.891337" lon="9.8145968"><ele>132.20000000000002</ele><time>2026-03-29T07:44:19.059Z</time></trkpt><trkpt lat="44.891288" lon="9.8147043"><ele>132.6</ele><time>2026-03-29T07:44:21.082Z</time></trkpt><trkpt lat="44.8912464" lon="9.8148247"><ele>133.0</ele><time>2026-03-29T07:44:23.073Z</time></trkpt><trkpt lat="44.8911945" lon="9.8149515"><ele>133.0</ele><time>2026-03-29T07:44:25.079Z</time></trkpt><trkpt lat="44.891136" lon="9.8150916"><ele>133.0</ele><time>2026-03-29T07:44:27.075Z</time></trkpt><trkpt lat="44.89108" lon="9.815233"><ele>133.0</ele><time>2026-03-29T07:44:29.079Z</time></trkpt><trkpt lat="44.8910486" lon="9.8153117"><ele>133.0</ele><time>2026-03-29T07:44:30.087Z</time></trkpt><trkpt lat="44.8910195" lon="9.8153907"><ele>133.0</ele><time>2026-03-29T07:44:31.087Z</time></trkpt><trkpt lat="44.8909554" lon="9.8155411"><ele>132.33333333333334</ele><time>2026-03-29T07:44:33.074Z</time></trkpt><trkpt lat="44.890923" lon="9.8156227"><ele>131.66666666666669</ele><time>2026-03-29T07:44:34.074Z</time></trkpt><trkpt lat="44.8908927" lon="9.8157027"><ele>131.0</ele><time>2026-03-29T07:44:35.089Z</time></trkpt><trkpt lat="44.8908548" lon="9.8157787"><ele>130.33333333333334</ele><time>2026-03-29T07:44:36.054Z</time></trkpt><trkpt lat="44.8908166" lon="9.8158497"><ele>129.66666666666666</ele><time>2026-03-29T07:44:37.087Z</time></trkpt><trkpt lat="44.8907794" lon="9.8159237"><ele>129.0</ele><time>2026-03-29T07:44:38.079Z</time></trkpt><trkpt lat="44.8906986" lon="9.8160606"><ele>128.75</ele><time>2026-03-29T07:44:40.083Z</time></trkpt><trkpt lat="44.8906295" lon="9.8162034"><ele>128.5</ele><time>2026-03-29T07:44:42.07Z</time></trkpt><trkpt lat="44.8905695" lon="9.8163407"><ele>128.25</ele><time>2026-03-29T07:44:44.085Z</time></trkpt><trkpt lat="44.8905095" lon="9.8164712"><ele>128.0</ele><time>2026-03-29T07:44:46.08Z</time></trkpt><trkpt lat="44.8904477" lon="9.816602"><ele>128.0</ele><time>2026-03-29T07:44:48.075Z</time></trkpt><trkpt lat="44.8903943" lon="9.8167334"><ele>128.0</ele><time>2026-03-29T07:44:50.075Z</time></trkpt><trkpt lat="44.8903401" lon="9.8168671"><ele>128.0</ele><time>2026-03-29T07:44:52.073Z</time></trkpt><trkpt lat="44.8902873" lon="9.8170006"><ele>128.0</ele><time>2026-03-29T07:44:54.084Z</time></trkpt><trkpt lat="44.8902336" lon="9.8171387"><ele>128.0</ele><time>2026-03-29T07:44:56.075Z</time></trkpt><trkpt lat="44.8901832" lon="9.817273"><ele>128.20000000000002</ele><time>2026-03-29T07:44:58.085Z</time></trkpt><trkpt lat="44.8901296" lon="9.8174009"><ele>128.4</ele><time>2026-03-29T07:45:00.086Z</time></trkpt><trkpt lat="44.890077" lon="9.8175239"><ele>128.60000000000002</ele><time>2026-03-29T07:45:02.082Z</time></trkpt><trkpt lat="44.8900318" lon="9.8176451"><ele>128.8</ele><time>2026-03-29T07:45:04.032Z</time></trkpt><trkpt lat="44.8899832" lon="9.8177669"><ele>129.0</ele><time>2026-03-29T07:45:06.076Z</time></trkpt><trkpt lat="44.8899392" lon="9.8178799"><ele>129.0</ele><time>2026-03-29T07:45:08.067Z</time></trkpt><trkpt lat="44.8898905" lon="9.8179853"><ele>129.0</ele><time>2026-03-29T07:45:10.067Z</time></trkpt><trkpt lat="44.8898447" lon="9.8180884"><ele>129.0</ele><time>2026-03-29T07:45:12.106Z</time></trkpt><trkpt lat="44.8898024" lon="9.8181948"><ele>129.0</ele><time>2026-03-29T07:45:14.061Z</time></trkpt><trkpt lat="44.889762" lon="9.8182921"><ele>129.0</ele><time>2026-03-29T07:45:16.071Z</time></trkpt><trkpt lat="44.8897159" lon="9.8183936"><ele>129.0</ele><time>2026-03-29T07:45:18.067Z</time></trkpt><trkpt lat="44.889676" lon="9.8185009"><ele>129.0</ele><time>2026-03-29T07:45:20.079Z</time></trkpt><trkpt lat="44.8896341" lon="9.8186166"><ele>129.0</ele><time>2026-03-29T07:45:22.07Z</time></trkpt><trkpt lat="44.889579" lon="9.8187319"><ele>129.0</ele><time>2026-03-29T07:45:24.066Z</time></trkpt><trkpt lat="44.8895276" lon="9.8188645"><ele>129.0</ele><time>2026-03-29T07:45:26.078Z</time></trkpt><trkpt lat="44.8894706" lon="9.8189916"><ele>129.0</ele><time>2026-03-29T07:45:28.087Z</time></trkpt><trkpt lat="44.8894185" lon="9.8191256"><ele>129.0</ele><time>2026-03-29T07:45:30.047Z</time></trkpt><trkpt lat="44.8893572" lon="9.8192588"><ele>129.0</ele><time>2026-03-29T07:45:32.068Z</time></trkpt><trkpt lat="44.8892993" lon="9.8193968"><ele>129.0</ele><time>2026-03-29T07:45:34.071Z</time></trkpt><trkpt lat="44.88925" lon="9.8195401"><ele>129.0</ele><time>2026-03-29T07:45:36.073Z</time></trkpt><trkpt lat="44.8891904" lon="9.8196695"><ele>129.0</ele><time>2026-03-29T07:45:38.072Z</time></trkpt><trkpt lat="44.8891366" lon="9.8198073"><ele>129.25</ele><time>2026-03-29T07:45:40.074Z</time></trkpt><trkpt lat="44.8890748" lon="9.8199421"><ele>129.5</ele><time>2026-03-29T07:45:42.075Z</time></trkpt><trkpt lat="44.8890167" lon="9.8200889"><ele>129.75</ele><time>2026-03-29T07:45:44.076Z</time></trkpt><trkpt lat="44.8889554" lon="9.8202278"><ele>130.0</ele><time>2026-03-29T07:45:46.082Z</time></trkpt><trkpt lat="44.8888944" lon="9.8203709"><ele>130.0</ele><time>2026-03-29T07:45:48.06Z</time></trkpt><trkpt lat="44.8888411" lon="9.8205149"><ele>130.0</ele><time>2026-03-29T07:45:50.079Z</time></trkpt><trkpt lat="44.8887814" lon="9.8206439"><ele>130.0</ele><time>2026-03-29T07:45:52.072Z</time></trkpt><trkpt lat="44.8887208" lon="9.8207843"><ele>130.0</ele><time>2026-03-29T07:45:54.073Z</time></trkpt><trkpt lat="44.8886703" lon="9.82092"><ele>130.0</ele><time>2026-03-29T07:45:56.071Z</time></trkpt><trkpt lat="44.8886159" lon="9.8210538"><ele>129.8</ele><time>2026-03-29T07:45:58.073Z</time></trkpt><trkpt lat="44.8885616" lon="9.821187"><ele>129.6</ele><time>2026-03-29T07:46:00.087Z</time></trkpt><trkpt lat="44.8885117" lon="9.8213142"><ele>129.4</ele><time>2026-03-29T07:46:02.054Z</time></trkpt><trkpt lat="44.8884592" lon="9.8214361"><ele>129.2</ele><time>2026-03-29T07:46:04.064Z</time></trkpt><trkpt lat="44.8884076" lon="9.8215549"><ele>129.0</ele><time>2026-03-29T07:46:06.087Z</time></trkpt><trkpt lat="44.8883609" lon="9.8216763"><ele>129.0</ele><time>2026-03-29T07:46:08.078Z</time></trkpt><trkpt lat="44.8883137" lon="9.8217975"><ele>129.0</ele><time>2026-03-29T07:46:10.074Z</time></trkpt><trkpt lat="44.8882664" lon="9.8219096"><ele>129.0</ele><time>2026-03-29T07:46:12.069Z</time></trkpt><trkpt lat="44.8882142" lon="9.8220251"><ele>129.0</ele><time>2026-03-29T07:46:14.06Z</time></trkpt><trkpt lat="44.8881668" lon="9.8221425"><ele>129.0</ele><time>2026-03-29T07:46:16.059Z</time></trkpt><trkpt lat="44.8881201" lon="9.8222584"><ele>129.0</ele><time>2026-03-29T07:46:18.079Z</time></trkpt><trkpt lat="44.8880732" lon="9.8223691"><ele>129.0</ele><time>2026-03-29T07:46:20.074Z</time></trkpt><trkpt lat="44.888025" lon="9.8224704"><ele>129.0</ele><time>2026-03-29T07:46:22.079Z</time></trkpt><trkpt lat="44.8879788" lon="9.8225772"><ele>129.0</ele><time>2026-03-29T07:46:24.091Z</time></trkpt><trkpt lat="44.887937" lon="9.8226806"><ele>129.0</ele><time>2026-03-29T07:46:26.076Z</time></trkpt><trkpt lat="44.8878975" lon="9.8227931"><ele>129.0</ele><time>2026-03-29T07:46:28.075Z</time></trkpt><trkpt lat="44.8878578" lon="9.8228835"><ele>128.85714285714283</ele><time>2026-03-29T07:46:30.079Z</time></trkpt><trkpt lat="44.8878195" lon="9.8229636"><ele>128.71428571428572</ele><time>2026-03-29T07:46:32.081Z</time></trkpt><trkpt lat="44.887786" lon="9.8230444"><ele>128.57142857142856</ele><time>2026-03-29T07:46:34.08Z</time></trkpt><trkpt lat="44.8877514" lon="9.8231199"><ele>128.42857142857142</ele><time>2026-03-29T07:46:36.077Z</time></trkpt><trkpt lat="44.8877114" lon="9.8232163"><ele>128.28571428571428</ele><time>2026-03-29T07:46:39.087Z</time></trkpt><trkpt lat="44.8876655" lon="9.8233069"><ele>128.14285714285714</ele><time>2026-03-29T07:46:42.077Z</time></trkpt><trkpt lat="44.8876282" lon="9.8234029"><ele>128.0</ele><time>2026-03-29T07:46:45.074Z</time></trkpt><trkpt lat="44.8875871" lon="9.8234859"><ele>128.5</ele><time>2026-03-29T07:46:48.085Z</time></trkpt><trkpt lat="44.8875232" lon="9.8235341"><ele>129.0</ele><time>2026-03-29T07:46:51.063Z</time></trkpt><trkpt lat="44.8874605" lon="9.8235254"><ele>129.5</ele><time>2026-03-29T07:46:53.084Z</time></trkpt><trkpt lat="44.887386" lon="9.8234871"><ele>130.0</ele><time>2026-03-29T07:46:56.074Z</time></trkpt><trkpt lat="44.8873216" lon="9.8234123"><ele>130.5</ele><time>2026-03-29T07:46:59.069Z</time></trkpt><trkpt lat="44.8872504" lon="9.8233405"><ele>131.0</ele><time>2026-03-29T07:47:02.078Z</time></trkpt><trkpt lat="44.8871761" lon="9.8232697"><ele>131.83333333333331</ele><time>2026-03-29T07:47:05.081Z</time></trkpt><trkpt lat="44.8871038" lon="9.8232048"><ele>132.66666666666666</ele><time>2026-03-29T07:47:08.08Z</time></trkpt><trkpt lat="44.8870325" lon="9.8231351"><ele>133.5</ele><time>2026-03-29T07:47:11.079Z</time></trkpt><trkpt lat="44.8869582" lon="9.8230589"><ele>134.33333333333334</ele><time>2026-03-29T07:47:14.076Z</time></trkpt><trkpt lat="44.8869011" lon="9.8230005"><ele>135.16666666666669</ele><time>2026-03-29T07:47:16.065Z</time></trkpt><trkpt lat="44.8868479" lon="9.8229449"><ele>136.0</ele><time>2026-03-29T07:47:18.076Z</time></trkpt><trkpt lat="44.8867908" lon="9.8228918"><ele>136.14285714285714</ele><time>2026-03-29T07:47:20.066Z</time></trkpt><trkpt lat="44.886736" lon="9.8228341"><ele>136.28571428571428</ele><time>2026-03-29T07:47:22.073Z</time></trkpt><trkpt lat="44.8866778" lon="9.8227803"><ele>136.42857142857144</ele><time>2026-03-29T07:47:24.074Z</time></trkpt><trkpt lat="44.8866164" lon="9.822737"><ele>136.57142857142856</ele><time>2026-03-29T07:47:26.083Z</time></trkpt><trkpt lat="44.8865485" lon="9.8226911"><ele>136.71428571428572</ele><time>2026-03-29T07:47:28.062Z</time></trkpt><trkpt lat="44.8864879" lon="9.822631"><ele>136.85714285714286</ele><time>2026-03-29T07:47:30.079Z</time></trkpt><trkpt lat="44.8864375" lon="9.8225745"><ele>137.0</ele><time>2026-03-29T07:47:32.069Z</time></trkpt><trkpt lat="44.8863714" lon="9.8225186"><ele>137.00000000000003</ele><time>2026-03-29T07:47:34.074Z</time></trkpt><trkpt lat="44.8863026" lon="9.8224746"><ele>137.0</ele><time>2026-03-29T07:47:36.081Z</time></trkpt><trkpt lat="44.8862436" lon="9.8224165"><ele>137.0</ele><time>2026-03-29T07:47:38.071Z</time></trkpt><trkpt lat="44.886189" lon="9.8223658"><ele>137.0</ele><time>2026-03-29T07:47:40.09Z</time></trkpt><trkpt lat="44.8861351" lon="9.8223083"><ele>137.0</ele><time>2026-03-29T07:47:42.075Z</time></trkpt><trkpt lat="44.8860787" lon="9.8222535"><ele>137.00000000000003</ele><time>2026-03-29T07:47:44.076Z</time></trkpt><trkpt lat="44.8860243" lon="9.8221994"><ele>137.0</ele><time>2026-03-29T07:47:46.076Z</time></trkpt><trkpt lat="44.8859465" lon="9.8221315"><ele>136.66666666666666</ele><time>2026-03-29T07:47:49.083Z</time></trkpt><trkpt lat="44.8858689" lon="9.8220586"><ele>136.33333333333331</ele><time>2026-03-29T07:47:52.082Z</time></trkpt><trkpt lat="44.8858161" lon="9.8220091"><ele>136.0</ele><time>2026-03-29T07:47:54.086Z</time></trkpt><trkpt lat="44.8857616" lon="9.821953"><ele>135.66666666666666</ele><time>2026-03-29T07:47:56.07Z</time></trkpt><trkpt lat="44.8857046" lon="9.8218949"><ele>135.33333333333334</ele><time>2026-03-29T07:47:58.074Z</time></trkpt><trkpt lat="44.8856266" lon="9.8218256"><ele>135.0</ele><time>2026-03-29T07:48:01.078Z</time></trkpt><trkpt lat="44.8855512" lon="9.8217545"><ele>136.0</ele><time>2026-03-29T07:48:04.072Z</time></trkpt><trkpt lat="44.8854807" lon="9.8216856"><ele>137.0</ele><time>2026-03-29T07:48:07.066Z</time></trkpt><trkpt lat="44.8854125" lon="9.821615"><ele>138.0</ele><time>2026-03-29T07:48:10.07Z</time></trkpt><trkpt lat="44.8853569" lon="9.8215689"><ele>139.0</ele><time>2026-03-29T07:48:12.074Z</time></trkpt><trkpt lat="44.8852806" lon="9.8215028"><ele>140.0</ele><time>2026-03-29T07:48:15.079Z</time></trkpt><trkpt lat="44.8852158" lon="9.8214316"><ele>141.0</ele><time>2026-03-29T07:48:18.078Z</time></trkpt><trkpt lat="44.8851447" lon="9.8213712"><ele>141.16666666666666</ele><time>2026-03-29T07:48:21.068Z</time></trkpt><trkpt lat="44.8850717" lon="9.8213142"><ele>141.33333333333334</ele><time>2026-03-29T07:48:24.079Z</time></trkpt><trkpt lat="44.8850017" lon="9.8212489"><ele>141.5</ele><time>2026-03-29T07:48:27.08Z</time></trkpt><trkpt lat="44.8849316" lon="9.8211819"><ele>141.66666666666669</ele><time>2026-03-29T07:48:30.084Z</time></trkpt><trkpt lat="44.8848642" lon="9.821115"><ele>141.83333333333334</ele><time>2026-03-29T07:48:33.077Z</time></trkpt><trkpt lat="44.8848011" lon="9.8210539"><ele>142.0</ele><time>2026-03-29T07:48:36.082Z</time></trkpt><trkpt lat="44.8847334" lon="9.8209886"><ele>142.5</ele><time>2026-03-29T07:48:39.071Z</time></trkpt><trkpt lat="44.8846697" lon="9.8209265"><ele>143.0</ele><time>2026-03-29T07:48:42.072Z</time></trkpt><trkpt lat="44.8846025" lon="9.8208569"><ele>143.5</ele><time>2026-03-29T07:48:45.081Z</time></trkpt><trkpt lat="44.8845418" lon="9.8207985"><ele>144.0</ele><time>2026-03-29T07:48:48.06Z</time></trkpt><trkpt lat="44.8844799" lon="9.820739"><ele>144.5</ele><time>2026-03-29T07:48:51.082Z</time></trkpt><trkpt lat="44.8844162" lon="9.8206772"><ele>145.0</ele><time>2026-03-29T07:48:54.084Z</time></trkpt><trkpt lat="44.8843501" lon="9.8206123"><ele>145.0</ele><time>2026-03-29T07:48:57.069Z</time></trkpt><trkpt lat="44.884282" lon="9.8205522"><ele>145.0</ele><time>2026-03-29T07:49:00.078Z</time></trkpt><trkpt lat="44.8842207" lon="9.820493"><ele>145.0</ele><time>2026-03-29T07:49:03.084Z</time></trkpt><trkpt lat="44.8841471" lon="9.8204217"><ele>145.0</ele><time>2026-03-29T07:49:06.075Z</time></trkpt><trkpt lat="44.884083" lon="9.820358"><ele>145.0</ele><time>2026-03-29T07:49:08.098Z</time></trkpt><trkpt lat="44.8840129" lon="9.8202969"><ele>145.0</ele><time>2026-03-29T07:49:10.078Z</time></trkpt><trkpt lat="44.8839435" lon="9.8202321"><ele>144.85714285714286</ele><time>2026-03-29T07:49:12.052Z</time></trkpt><trkpt lat="44.8838769" lon="9.8201674"><ele>144.71428571428572</ele><time>2026-03-29T07:49:14.069Z</time></trkpt><trkpt lat="44.8838135" lon="9.8201087"><ele>144.57142857142858</ele><time>2026-03-29T07:49:16.086Z</time></trkpt><trkpt lat="44.8837485" lon="9.8200477"><ele>144.42857142857144</ele><time>2026-03-29T07:49:18.076Z</time></trkpt><trkpt lat="44.8836881" lon="9.8199917"><ele>144.28571428571428</ele><time>2026-03-29T07:49:20.074Z</time></trkpt><trkpt lat="44.883631" lon="9.8199379"><ele>144.14285714285717</ele><time>2026-03-29T07:49:22.063Z</time></trkpt><trkpt lat="44.8835728" lon="9.819888"><ele>144.0</ele><time>2026-03-29T07:49:24.092Z</time></trkpt><trkpt lat="44.8835157" lon="9.819837"><ele>144.83333333333334</ele><time>2026-03-29T07:49:26.051Z</time></trkpt><trkpt lat="44.8834606" lon="9.8197865"><ele>145.66666666666666</ele><time>2026-03-29T07:49:28.077Z</time></trkpt><trkpt lat="44.8834081" lon="9.8197337"><ele>146.5</ele><time>2026-03-29T07:49:30.107Z</time></trkpt><trkpt lat="44.8833299" lon="9.819671"><ele>147.33333333333331</ele><time>2026-03-29T07:49:33.077Z</time></trkpt><trkpt lat="44.8832595" lon="9.8196018"><ele>148.16666666666666</ele><time>2026-03-29T07:49:36.081Z</time></trkpt><trkpt lat="44.8831913" lon="9.819543"><ele>149.0</ele><time>2026-03-29T07:49:39.08Z</time></trkpt><trkpt lat="44.8831339" lon="9.8194878"><ele>149.14285714285714</ele><time>2026-03-29T07:49:42.089Z</time></trkpt><trkpt lat="44.8830787" lon="9.819431"><ele>149.28571428571428</ele><time>2026-03-29T07:49:45.077Z</time></trkpt><trkpt lat="44.8830196" lon="9.8193734"><ele>149.42857142857142</ele><time>2026-03-29T07:49:48.046Z</time></trkpt><trkpt lat="44.882964" lon="9.8193219"><ele>149.57142857142856</ele><time>2026-03-29T07:49:51.065Z</time></trkpt><trkpt lat="44.8829134" lon="9.819263"><ele>149.71428571428572</ele><time>2026-03-29T07:49:54.076Z</time></trkpt><trkpt lat="44.8828538" lon="9.8192129"><ele>149.85714285714283</ele><time>2026-03-29T07:49:57.068Z</time></trkpt><trkpt lat="44.8827742" lon="9.8191699"><ele>150.0</ele><time>2026-03-29T07:50:00.084Z</time></trkpt><trkpt lat="44.8827006" lon="9.8191047"><ele>150.5</ele><time>2026-03-29T07:50:03.056Z</time></trkpt><trkpt lat="44.8826535" lon="9.819008"><ele>151.0</ele><time>2026-03-29T07:50:06.073Z</time></trkpt><trkpt lat="44.8826817" lon="9.8188817"><ele>151.5</ele><time>2026-03-29T07:50:09.077Z</time></trkpt><trkpt lat="44.8827362" lon="9.8187789"><ele>152.0</ele><time>2026-03-29T07:50:12.068Z</time></trkpt><trkpt lat="44.882769" lon="9.8186987"><ele>152.5</ele><time>2026-03-29T07:50:14.071Z</time></trkpt><trkpt lat="44.8827943" lon="9.8186092"><ele>153.0</ele><time>2026-03-29T07:50:16.066Z</time></trkpt><trkpt lat="44.8828152" lon="9.8185227"><ele>153.14285714285714</ele><time>2026-03-29T07:50:18.068Z</time></trkpt><trkpt lat="44.8828406" lon="9.8184363"><ele>153.28571428571428</ele><time>2026-03-29T07:50:20.069Z</time></trkpt><trkpt lat="44.8828629" lon="9.8183475"><ele>153.42857142857144</ele><time>2026-03-29T07:50:22.078Z</time></trkpt><trkpt lat="44.8828837" lon="9.8182612"><ele>153.57142857142856</ele><time>2026-03-29T07:50:24.071Z</time></trkpt><trkpt lat="44.8829124" lon="9.8181632"><ele>153.71428571428572</ele><time>2026-03-29T07:50:26.084Z</time></trkpt><trkpt lat="44.8829349" lon="9.8180685"><ele>153.85714285714286</ele><time>2026-03-29T07:50:28.082Z</time></trkpt><trkpt lat="44.8829627" lon="9.8179698"><ele>154.0</ele><time>2026-03-29T07:50:30.075Z</time></trkpt><trkpt lat="44.8829973" lon="9.8178723"><ele>154.0</ele><time>2026-03-29T07:50:32.083Z</time></trkpt><trkpt lat="44.883031" lon="9.817768"><ele>154.0</ele><time>2026-03-29T07:50:34.066Z</time></trkpt><trkpt lat="44.8830657" lon="9.8176689"><ele>154.0</ele><time>2026-03-29T07:50:36.077Z</time></trkpt><trkpt lat="44.8831032" lon="9.81756"><ele>154.0</ele><time>2026-03-29T07:50:38.082Z</time></trkpt><trkpt lat="44.8831366" lon="9.817454"><ele>154.0</ele><time>2026-03-29T07:50:40.074Z</time></trkpt><trkpt lat="44.8831766" lon="9.817341"><ele>154.0</ele><time>2026-03-29T07:50:42.078Z</time></trkpt><trkpt lat="44.8832114" lon="9.8172261"><ele>154.33333333333334</ele><time>2026-03-29T07:50:44.078Z</time></trkpt><trkpt lat="44.8832492" lon="9.8171075"><ele>154.66666666666669</ele><time>2026-03-29T07:50:46.079Z</time></trkpt><trkpt lat="44.8832843" lon="9.8170002"><ele>155.0</ele><time>2026-03-29T07:50:48.089Z</time></trkpt><trkpt lat="44.8833175" lon="9.8168883"><ele>155.33333333333334</ele><time>2026-03-29T07:50:50.083Z</time></trkpt><trkpt lat="44.8833568" lon="9.816784"><ele>155.66666666666666</ele><time>2026-03-29T07:50:52.07Z</time></trkpt><trkpt lat="44.8833927" lon="9.8166648"><ele>156.0</ele><time>2026-03-29T07:50:54.079Z</time></trkpt><trkpt lat="44.883428" lon="9.8165496"><ele>155.66666666666666</ele><time>2026-03-29T07:50:56.086Z</time></trkpt><trkpt lat="44.8834661" lon="9.816439"><ele>155.33333333333334</ele><time>2026-03-29T07:50:58.083Z</time></trkpt><trkpt lat="44.8835078" lon="9.8163321"><ele>155.0</ele><time>2026-03-29T07:51:00.081Z</time></trkpt><trkpt lat="44.8835445" lon="9.816223"><ele>154.66666666666669</ele><time>2026-03-29T07:51:02.075Z</time></trkpt><trkpt lat="44.8835899" lon="9.8161212"><ele>154.33333333333334</ele><time>2026-03-29T07:51:04.062Z</time></trkpt><trkpt lat="44.8836274" lon="9.8160103"><ele>154.0</ele><time>2026-03-29T07:51:06.079Z</time></trkpt><trkpt lat="44.8836637" lon="9.8159166"><ele>154.0</ele><time>2026-03-29T07:51:08.081Z</time></trkpt><trkpt lat="44.8837031" lon="9.8158157"><ele>154.0</ele><time>2026-03-29T07:51:10.077Z</time></trkpt><trkpt lat="44.8837404" lon="9.8157105"><ele>154.0</ele><time>2026-03-29T07:51:12.082Z</time></trkpt><trkpt lat="44.8837699" lon="9.8156039"><ele>154.0</ele><time>2026-03-29T07:51:14.078Z</time></trkpt><trkpt lat="44.8838008" lon="9.8155006"><ele>154.0</ele><time>2026-03-29T07:51:16.049Z</time></trkpt><trkpt lat="44.8838236" lon="9.8153918"><ele>154.0</ele><time>2026-03-29T07:51:18.09Z</time></trkpt><trkpt lat="44.8838413" lon="9.8152771"><ele>154.0</ele><time>2026-03-29T07:51:20.073Z</time></trkpt><trkpt lat="44.8838512" lon="9.8151585"><ele>154.0</ele><time>2026-03-29T07:51:22.086Z</time></trkpt><trkpt lat="44.8838568" lon="9.8150468"><ele>154.0</ele><time>2026-03-29T07:51:24.089Z</time></trkpt><trkpt lat="44.8838575" lon="9.8149293"><ele>154.0</ele><time>2026-03-29T07:51:26.083Z</time></trkpt><trkpt lat="44.8838577" lon="9.8148127"><ele>154.0</ele><time>2026-03-29T07:51:28.075Z</time></trkpt><trkpt lat="44.8838593" lon="9.8146966"><ele>154.0</ele><time>2026-03-29T07:51:30.074Z</time></trkpt><trkpt lat="44.8838597" lon="9.8145803"><ele>154.16666666666669</ele><time>2026-03-29T07:51:32.07Z</time></trkpt><trkpt lat="44.8838904" lon="9.8144785"><ele>154.33333333333334</ele><time>2026-03-29T07:51:34.07Z</time></trkpt><trkpt lat="44.8839198" lon="9.8143717"><ele>154.5</ele><time>2026-03-29T07:51:36.077Z</time></trkpt><trkpt lat="44.8839439" lon="9.8142753"><ele>154.66666666666666</ele><time>2026-03-29T07:51:38.068Z</time></trkpt><trkpt lat="44.8839693" lon="9.8141808"><ele>154.83333333333331</ele><time>2026-03-29T07:51:40.067Z</time></trkpt><trkpt lat="44.8839941" lon="9.8140812"><ele>155.0</ele><time>2026-03-29T07:51:42.079Z</time></trkpt><trkpt lat="44.8840211" lon="9.8139802"><ele>155.14285714285714</ele><time>2026-03-29T07:51:44.105Z</time></trkpt><trkpt lat="44.8840416" lon="9.8138824"><ele>155.28571428571428</ele><time>2026-03-29T07:51:46.072Z</time></trkpt><trkpt lat="44.8840408" lon="9.813784"><ele>155.42857142857144</ele><time>2026-03-29T07:51:48.071Z</time></trkpt><trkpt lat="44.8840182" lon="9.8136872"><ele>155.57142857142856</ele><time>2026-03-29T07:51:50.067Z</time></trkpt><trkpt lat="44.8839731" lon="9.8136145"><ele>155.7142857142857</ele><time>2026-03-29T07:51:52.071Z</time></trkpt><trkpt lat="44.8839223" lon="9.8135453"><ele>155.85714285714286</ele><time>2026-03-29T07:51:54.079Z</time></trkpt><trkpt lat="44.8838735" lon="9.8134805"><ele>156.0</ele><time>2026-03-29T07:51:56.077Z</time></trkpt><trkpt lat="44.883823" lon="9.8134238"><ele>156.14285714285714</ele><time>2026-03-29T07:51:58.072Z</time></trkpt><trkpt lat="44.883772" lon="9.8133613"><ele>156.28571428571428</ele><time>2026-03-29T07:52:00.08Z</time></trkpt><trkpt lat="44.883722" lon="9.8133006"><ele>156.42857142857142</ele><time>2026-03-29T07:52:02.083Z</time></trkpt><trkpt lat="44.8836744" lon="9.8132335"><ele>156.57142857142856</ele><time>2026-03-29T07:52:04.081Z</time></trkpt><trkpt lat="44.8836219" lon="9.8131654"><ele>156.71428571428572</ele><time>2026-03-29T07:52:06.081Z</time></trkpt><trkpt lat="44.8835688" lon="9.8130981"><ele>156.85714285714283</ele><time>2026-03-29T07:52:08.078Z</time></trkpt><trkpt lat="44.883512" lon="9.8130314"><ele>157.0</ele><time>2026-03-29T07:52:10.085Z</time></trkpt><trkpt lat="44.8834569" lon="9.812968"><ele>157.33333333333334</ele><time>2026-03-29T07:52:12.075Z</time></trkpt><trkpt lat="44.8834028" lon="9.8128974"><ele>157.66666666666669</ele><time>2026-03-29T07:52:14.073Z</time></trkpt><trkpt lat="44.8833395" lon="9.8128291"><ele>158.0</ele><time>2026-03-29T07:52:16.068Z</time></trkpt><trkpt lat="44.8832841" lon="9.812765"><ele>158.33333333333334</ele><time>2026-03-29T07:52:18.077Z</time></trkpt><trkpt lat="44.8832317" lon="9.8126948"><ele>158.66666666666666</ele><time>2026-03-29T07:52:20.086Z</time></trkpt><trkpt lat="44.8831698" lon="9.8126228"><ele>159.0</ele><time>2026-03-29T07:52:22.086Z</time></trkpt><trkpt lat="44.8831106" lon="9.812555"><ele>159.28571428571428</ele><time>2026-03-29T07:52:24.071Z</time></trkpt><trkpt lat="44.8830561" lon="9.8124893"><ele>159.57142857142858</ele><time>2026-03-29T07:52:26.083Z</time></trkpt><trkpt lat="44.8830059" lon="9.8124217"><ele>159.85714285714286</ele><time>2026-03-29T07:52:28.07Z</time></trkpt><trkpt lat="44.8829518" lon="9.8123573"><ele>160.14285714285714</ele><time>2026-03-29T07:52:30.064Z</time></trkpt><trkpt lat="44.8828989" lon="9.8122799"><ele>160.42857142857144</ele><time>2026-03-29T07:52:32.079Z</time></trkpt><trkpt lat="44.8828389" lon="9.8122129"><ele>160.71428571428572</ele><time>2026-03-29T07:52:34.072Z</time></trkpt><trkpt lat="44.8827895" lon="9.8121443"><ele>161.0</ele><time>2026-03-29T07:52:36.087Z</time></trkpt><trkpt lat="44.8827422" lon="9.8120817"><ele>161.0</ele><time>2026-03-29T07:52:38.085Z</time></trkpt><trkpt lat="44.882692" lon="9.8120209"><ele>161.0</ele><time>2026-03-29T07:52:40.071Z</time></trkpt><trkpt lat="44.8826302" lon="9.8119342"><ele>161.0</ele><time>2026-03-29T07:52:43.108Z</time></trkpt><trkpt lat="44.8825591" lon="9.8118527"><ele>161.0</ele><time>2026-03-29T07:52:46.088Z</time></trkpt><trkpt lat="44.8824947" lon="9.8117624"><ele>161.0</ele><time>2026-03-29T07:52:49.076Z</time></trkpt><trkpt lat="44.8824254" lon="9.8116741"><ele>161.0</ele><time>2026-03-29T07:52:52.068Z</time></trkpt><trkpt lat="44.8823583" lon="9.8115907"><ele>161.33333333333331</ele><time>2026-03-29T07:52:55.078Z</time></trkpt><trkpt lat="44.8822942" lon="9.8115116"><ele>161.66666666666666</ele><time>2026-03-29T07:52:58.074Z</time></trkpt><trkpt lat="44.8822447" lon="9.8114102"><ele>162.0</ele><time>2026-03-29T07:53:01.077Z</time></trkpt><trkpt lat="44.8822532" lon="9.8112855"><ele>162.33333333333334</ele><time>2026-03-29T07:53:04.072Z</time></trkpt><trkpt lat="44.8822898" lon="9.8112116"><ele>162.66666666666669</ele><time>2026-03-29T07:53:06.085Z</time></trkpt><trkpt lat="44.8823304" lon="9.8111436"><ele>163.0</ele><time>2026-03-29T07:53:08.086Z</time></trkpt><trkpt lat="44.8823669" lon="9.8110688"><ele>163.0</ele><time>2026-03-29T07:53:10.08Z</time></trkpt><trkpt lat="44.8824139" lon="9.8109915"><ele>163.0</ele><time>2026-03-29T07:53:12.069Z</time></trkpt><trkpt lat="44.8824527" lon="9.8109174"><ele>163.0</ele><time>2026-03-29T07:53:14.064Z</time></trkpt><trkpt lat="44.8824853" lon="9.8108227"><ele>163.0</ele><time>2026-03-29T07:53:16.09Z</time></trkpt><trkpt lat="44.8825221" lon="9.8107326"><ele>163.0</ele><time>2026-03-29T07:53:18.086Z</time></trkpt><trkpt lat="44.882566" lon="9.8106399"><ele>163.0</ele><time>2026-03-29T07:53:20.068Z</time></trkpt><trkpt lat="44.8826167" lon="9.810552"><ele>163.0</ele><time>2026-03-29T07:53:22.076Z</time></trkpt><trkpt lat="44.8826727" lon="9.8104558"><ele>162.83333333333334</ele><time>2026-03-29T07:53:24.081Z</time></trkpt><trkpt lat="44.8827262" lon="9.8103573"><ele>162.66666666666669</ele><time>2026-03-29T07:53:26.08Z</time></trkpt><trkpt lat="44.8827784" lon="9.8102526"><ele>162.5</ele><time>2026-03-29T07:53:28.075Z</time></trkpt><trkpt lat="44.8828329" lon="9.8101476"><ele>162.33333333333334</ele><time>2026-03-29T07:53:30.088Z</time></trkpt><trkpt lat="44.8828821" lon="9.8100495"><ele>162.16666666666666</ele><time>2026-03-29T07:53:32.08Z</time></trkpt><trkpt lat="44.8829291" lon="9.8099582"><ele>162.0</ele><time>2026-03-29T07:53:34.075Z</time></trkpt><trkpt lat="44.8829796" lon="9.8098576"><ele>162.0</ele><time>2026-03-29T07:53:36.082Z</time></trkpt><trkpt lat="44.883041" lon="9.809754"><ele>162.0</ele><time>2026-03-29T07:53:38.074Z</time></trkpt><trkpt lat="44.8830952" lon="9.8096501"><ele>162.0</ele><time>2026-03-29T07:53:40.078Z</time></trkpt><trkpt lat="44.8831441" lon="9.8095357"><ele>162.0</ele><time>2026-03-29T07:53:42.083Z</time></trkpt><trkpt lat="44.8831605" lon="9.8094025"><ele>162.0</ele><time>2026-03-29T07:53:44.068Z</time></trkpt><trkpt lat="44.8831464" lon="9.8092769"><ele>162.0</ele><time>2026-03-29T07:53:46.097Z</time></trkpt><trkpt lat="44.8831219" lon="9.8091548"><ele>162.0</ele><time>2026-03-29T07:53:48.061Z</time></trkpt><trkpt lat="44.8830915" lon="9.8090365"><ele>162.0</ele><time>2026-03-29T07:53:50.075Z</time></trkpt><trkpt lat="44.8830718" lon="9.808925"><ele>162.0</ele><time>2026-03-29T07:53:52.089Z</time></trkpt><trkpt lat="44.8830446" lon="9.808821"><ele>162.0</ele><time>2026-03-29T07:53:54.084Z</time></trkpt><trkpt lat="44.8830145" lon="9.8087246"><ele>162.0</ele><time>2026-03-29T07:53:56.06Z</time></trkpt><trkpt lat="44.8829611" lon="9.808625"><ele>162.0</ele><time>2026-03-29T07:53:58.084Z</time></trkpt><trkpt lat="44.8829077" lon="9.80854"><ele>162.0</ele><time>2026-03-29T07:54:00.07Z</time></trkpt><trkpt lat="44.8828419" lon="9.8084593"><ele>162.0</ele><time>2026-03-29T07:54:02.074Z</time></trkpt><trkpt lat="44.8827843" lon="9.8083799"><ele>162.0</ele><time>2026-03-29T07:54:04.05Z</time></trkpt><trkpt lat="44.8827218" lon="9.8083106"><ele>162.0</ele><time>2026-03-29T07:54:06.079Z</time></trkpt><trkpt lat="44.8826575" lon="9.8082391"><ele>162.0</ele><time>2026-03-29T07:54:08.071Z</time></trkpt><trkpt lat="44.8825982" lon="9.8081745"><ele>162.71428571428572</ele><time>2026-03-29T07:54:10.075Z</time></trkpt><trkpt lat="44.8825419" lon="9.8080978"><ele>163.42857142857142</ele><time>2026-03-29T07:54:12.081Z</time></trkpt><trkpt lat="44.8824926" lon="9.8080286"><ele>164.14285714285714</ele><time>2026-03-29T07:54:14.067Z</time></trkpt><trkpt lat="44.882433" lon="9.8079599"><ele>164.85714285714286</ele><time>2026-03-29T07:54:16.041Z</time></trkpt><trkpt lat="44.8823791" lon="9.8078873"><ele>165.57142857142858</ele><time>2026-03-29T07:54:18.081Z</time></trkpt><trkpt lat="44.8823215" lon="9.8078188"><ele>166.28571428571428</ele><time>2026-03-29T07:54:20.08Z</time></trkpt><trkpt lat="44.8822675" lon="9.8077509"><ele>167.0</ele><time>2026-03-29T07:54:22.09Z</time></trkpt><trkpt lat="44.8822135" lon="9.8076776"><ele>166.42857142857142</ele><time>2026-03-29T07:54:24.082Z</time></trkpt><trkpt lat="44.8821612" lon="9.8076144"><ele>165.85714285714286</ele><time>2026-03-29T07:54:26.069Z</time></trkpt><trkpt lat="44.8821168" lon="9.8075471"><ele>165.28571428571428</ele><time>2026-03-29T07:54:28.073Z</time></trkpt><trkpt lat="44.8820695" lon="9.8074753"><ele>164.71428571428572</ele><time>2026-03-29T07:54:30.073Z</time></trkpt><trkpt lat="44.8820199" lon="9.8074031"><ele>164.14285714285714</ele><time>2026-03-29T07:54:32.085Z</time></trkpt><trkpt lat="44.8819716" lon="9.8073398"><ele>163.57142857142858</ele><time>2026-03-29T07:54:34.081Z</time></trkpt><trkpt lat="44.8819197" lon="9.807276"><ele>163.0</ele><time>2026-03-29T07:54:36.088Z</time></trkpt><trkpt lat="44.8818702" lon="9.807211"><ele>163.0</ele><time>2026-03-29T07:54:38.08Z</time></trkpt><trkpt lat="44.8817996" lon="9.8071293"><ele>163.0</ele><time>2026-03-29T07:54:41.056Z</time></trkpt><trkpt lat="44.8817515" lon="9.8070627"><ele>163.0</ele><time>2026-03-29T07:54:43.082Z</time></trkpt><trkpt lat="44.8817024" lon="9.8070057"><ele>163.0</ele><time>2026-03-29T07:54:45.067Z</time></trkpt><trkpt lat="44.8816373" lon="9.8069212"><ele>163.0</ele><time>2026-03-29T07:54:48.075Z</time></trkpt><trkpt lat="44.8815716" lon="9.8068386"><ele>163.0</ele><time>2026-03-29T07:54:51.079Z</time></trkpt><trkpt lat="44.8815215" lon="9.8067772"><ele>163.8</ele><time>2026-03-29T07:54:53.068Z</time></trkpt><trkpt lat="44.8814559" lon="9.8066835"><ele>164.60000000000002</ele><time>2026-03-29T07:54:56.075Z</time></trkpt><trkpt lat="44.8813835" lon="9.8066021"><ele>165.39999999999998</ele><time>2026-03-29T07:54:59.109Z</time></trkpt><trkpt lat="44.8813128" lon="9.8065197"><ele>166.2</ele><time>2026-03-29T07:55:02.089Z</time></trkpt><trkpt lat="44.8812491" lon="9.8064418"><ele>167.0</ele><time>2026-03-29T07:55:05.073Z</time></trkpt><trkpt lat="44.8811812" lon="9.8063524"><ele>167.0</ele><time>2026-03-29T07:55:08.075Z</time></trkpt><trkpt lat="44.8811172" lon="9.8062601"><ele>167.0</ele><time>2026-03-29T07:55:11.09Z</time></trkpt><trkpt lat="44.8810507" lon="9.8061747"><ele>167.0</ele><time>2026-03-29T07:55:14.077Z</time></trkpt><trkpt lat="44.8809831" lon="9.8060883"><ele>167.0</ele><time>2026-03-29T07:55:17.067Z</time></trkpt><trkpt lat="44.8809066" lon="9.8060088"><ele>167.0</ele><time>2026-03-29T07:55:20.065Z</time></trkpt><trkpt lat="44.8808416" lon="9.8059144"><ele>168.0</ele><time>2026-03-29T07:55:23.066Z</time></trkpt><trkpt lat="44.8807713" lon="9.8058324"><ele>169.0</ele><time>2026-03-29T07:55:26.073Z</time></trkpt><trkpt lat="44.8807094" lon="9.8057458"><ele>170.0</ele><time>2026-03-29T07:55:29.075Z</time></trkpt><trkpt lat="44.8806398" lon="9.8056619"><ele>171.0</ele><time>2026-03-29T07:55:32.073Z</time></trkpt><trkpt lat="44.8805749" lon="9.8055731"><ele>172.0</ele><time>2026-03-29T07:55:35.069Z</time></trkpt><trkpt lat="44.8805146" lon="9.8054841"><ele>173.0</ele><time>2026-03-29T07:55:38.087Z</time></trkpt><trkpt lat="44.8804523" lon="9.80541"><ele>173.0</ele><time>2026-03-29T07:55:41.079Z</time></trkpt><trkpt lat="44.8803836" lon="9.8053293"><ele>173.0</ele><time>2026-03-29T07:55:44.066Z</time></trkpt><trkpt lat="44.8803399" lon="9.8052632"><ele>173.0</ele><time>2026-03-29T07:55:46.086Z</time></trkpt><trkpt lat="44.8802702" lon="9.8051759"><ele>173.0</ele><time>2026-03-29T07:55:49.058Z</time></trkpt><trkpt lat="44.8802016" lon="9.8050932"><ele>173.0</ele><time>2026-03-29T07:55:52.084Z</time></trkpt><trkpt lat="44.8801389" lon="9.8050083"><ele>173.0</ele><time>2026-03-29T07:55:55.083Z</time></trkpt><trkpt lat="44.8800939" lon="9.8049436"><ele>173.33333333333331</ele><time>2026-03-29T07:55:57.078Z</time></trkpt><trkpt lat="44.8800475" lon="9.8048825"><ele>173.66666666666666</ele><time>2026-03-29T07:55:59.079Z</time></trkpt><trkpt lat="44.8799862" lon="9.8047976"><ele>174.0</ele><time>2026-03-29T07:56:02.078Z</time></trkpt><trkpt lat="44.8799237" lon="9.8047148"><ele>174.33333333333334</ele><time>2026-03-29T07:56:05.077Z</time></trkpt><trkpt lat="44.8798725" lon="9.8046571"><ele>174.66666666666669</ele><time>2026-03-29T07:56:07.09Z</time></trkpt><trkpt lat="44.8798217" lon="9.8045915"><ele>175.0</ele><time>2026-03-29T07:56:09.082Z</time></trkpt><trkpt lat="44.8797534" lon="9.8045109"><ele>175.0</ele><time>2026-03-29T07:56:12.068Z</time></trkpt><trkpt lat="44.8797047" lon="9.8044528"><ele>175.0</ele><time>2026-03-29T07:56:14.082Z</time></trkpt><trkpt lat="44.8796352" lon="9.8043699"><ele>175.0</ele><time>2026-03-29T07:56:17.078Z</time></trkpt><trkpt lat="44.8795919" lon="9.8043038"><ele>175.0</ele><time>2026-03-29T07:56:19.066Z</time></trkpt><trkpt lat="44.8795338" lon="9.8042192"><ele>175.0</ele><time>2026-03-29T07:56:22.086Z</time></trkpt><trkpt lat="44.8794675" lon="9.8041417"><ele>175.0</ele><time>2026-03-29T07:56:25.071Z</time></trkpt><trkpt lat="44.8794158" lon="9.8040878"><ele>174.66666666666669</ele><time>2026-03-29T07:56:27.092Z</time></trkpt><trkpt lat="44.8793456" lon="9.804003"><ele>174.33333333333334</ele><time>2026-03-29T07:56:30.074Z</time></trkpt><trkpt lat="44.8792807" lon="9.8039398"><ele>174.0</ele><time>2026-03-29T07:56:33.082Z</time></trkpt><trkpt lat="44.8792158" lon="9.8038697"><ele>173.66666666666666</ele><time>2026-03-29T07:56:36.071Z</time></trkpt><trkpt lat="44.8791479" lon="9.8037953"><ele>173.33333333333331</ele><time>2026-03-29T07:56:39.078Z</time></trkpt><trkpt lat="44.8790809" lon="9.8037207"><ele>173.0</ele><time>2026-03-29T07:56:42.076Z</time></trkpt><trkpt lat="44.879011" lon="9.8036534"><ele>174.33333333333331</ele><time>2026-03-29T07:56:45.098Z</time></trkpt><trkpt lat="44.878944" lon="9.8035911"><ele>175.66666666666666</ele><time>2026-03-29T07:56:48.077Z</time></trkpt><trkpt lat="44.8788791" lon="9.8035241"><ele>177.0</ele><time>2026-03-29T07:56:51.065Z</time></trkpt><trkpt lat="44.8788078" lon="9.8034478"><ele>178.33333333333334</ele><time>2026-03-29T07:56:54.082Z</time></trkpt><trkpt lat="44.8787445" lon="9.803374"><ele>179.66666666666669</ele><time>2026-03-29T07:56:57.09Z</time></trkpt><trkpt lat="44.8786738" lon="9.8032919"><ele>181.0</ele><time>2026-03-29T07:57:00.086Z</time></trkpt><trkpt lat="44.8786228" lon="9.8032372"><ele>181.16666666666669</ele><time>2026-03-29T07:57:02.077Z</time></trkpt><trkpt lat="44.8785518" lon="9.8031633"><ele>181.33333333333334</ele><time>2026-03-29T07:57:05.084Z</time></trkpt><trkpt lat="44.8785023" lon="9.8031065"><ele>181.5</ele><time>2026-03-29T07:57:07.094Z</time></trkpt><trkpt lat="44.8784251" lon="9.803028"><ele>181.66666666666666</ele><time>2026-03-29T07:57:10.033Z</time></trkpt><trkpt lat="44.8783566" lon="9.8029576"><ele>181.83333333333331</ele><time>2026-03-29T07:57:13.037Z</time></trkpt><trkpt lat="44.8782859" lon="9.8028721"><ele>182.0</ele><time>2026-03-29T07:57:16.055Z</time></trkpt><trkpt lat="44.8782193" lon="9.8027954"><ele>182.16666666666666</ele><time>2026-03-29T07:57:19.063Z</time></trkpt><trkpt lat="44.8781577" lon="9.8027179"><ele>182.33333333333331</ele><time>2026-03-29T07:57:22.069Z</time></trkpt><trkpt lat="44.8781083" lon="9.8026627"><ele>182.5</ele><time>2026-03-29T07:57:24.082Z</time></trkpt><trkpt lat="44.8780383" lon="9.8025918"><ele>182.66666666666666</ele><time>2026-03-29T07:57:27.085Z</time></trkpt><trkpt lat="44.8779666" lon="9.8025118"><ele>182.83333333333334</ele><time>2026-03-29T07:57:30.08Z</time></trkpt><trkpt lat="44.877896" lon="9.8024348"><ele>183.0</ele><time>2026-03-29T07:57:33.084Z</time></trkpt><trkpt lat="44.8778282" lon="9.8023573"><ele>183.0</ele><time>2026-03-29T07:57:36.05Z</time></trkpt><trkpt lat="44.8777601" lon="9.8022872"><ele>183.0</ele><time>2026-03-29T07:57:39.044Z</time></trkpt><trkpt lat="44.8776883" lon="9.8022042"><ele>183.0</ele><time>2026-03-29T07:57:42.076Z</time></trkpt><trkpt lat="44.877619" lon="9.8021225"><ele>183.0</ele><time>2026-03-29T07:57:45.089Z</time></trkpt><trkpt lat="44.8775467" lon="9.8020435"><ele>183.0</ele><time>2026-03-29T07:57:48.078Z</time></trkpt><trkpt lat="44.8774737" lon="9.8019618"><ele>183.5</ele><time>2026-03-29T07:57:51.084Z</time></trkpt><trkpt lat="44.8774071" lon="9.8018861"><ele>184.0</ele><time>2026-03-29T07:57:54.091Z</time></trkpt><trkpt lat="44.8773439" lon="9.8018204"><ele>184.5</ele><time>2026-03-29T07:57:57.074Z</time></trkpt><trkpt lat="44.8772674" lon="9.8017509"><ele>185.0</ele><time>2026-03-29T07:58:00.072Z</time></trkpt><trkpt lat="44.8772137" lon="9.8016898"><ele>185.5</ele><time>2026-03-29T07:58:02.076Z</time></trkpt><trkpt lat="44.8771603" lon="9.8016378"><ele>186.0</ele><time>2026-03-29T07:58:04.081Z</time></trkpt><trkpt lat="44.8771055" lon="9.8015805"><ele>186.0</ele><time>2026-03-29T07:58:06.079Z</time></trkpt><trkpt lat="44.8770555" lon="9.8015252"><ele>186.0</ele><time>2026-03-29T07:58:08.079Z</time></trkpt><trkpt lat="44.8769809" lon="9.8014478"><ele>186.0</ele><time>2026-03-29T07:58:11.075Z</time></trkpt><trkpt lat="44.8769099" lon="9.8013709"><ele>186.0</ele><time>2026-03-29T07:58:14.073Z</time></trkpt><trkpt lat="44.8768551" lon="9.8013115"><ele>186.0</ele><time>2026-03-29T07:58:16.066Z</time></trkpt><trkpt lat="44.8768012" lon="9.8012571"><ele>186.0</ele><time>2026-03-29T07:58:18.064Z</time></trkpt><trkpt lat="44.876732" lon="9.8011736"><ele>186.33333333333334</ele><time>2026-03-29T07:58:21.084Z</time></trkpt><trkpt lat="44.8766576" lon="9.8010914"><ele>186.66666666666666</ele><time>2026-03-29T07:58:24.078Z</time></trkpt><trkpt lat="44.8766084" lon="9.8010341"><ele>187.0</ele><time>2026-03-29T07:58:26.079Z</time></trkpt><trkpt lat="44.8765325" lon="9.8009611"><ele>187.33333333333331</ele><time>2026-03-29T07:58:29.091Z</time></trkpt><trkpt lat="44.8764841" lon="9.8009035"><ele>187.66666666666666</ele><time>2026-03-29T07:58:31.068Z</time></trkpt><trkpt lat="44.8764114" lon="9.8008233"><ele>188.0</ele><time>2026-03-29T07:58:34.07Z</time></trkpt><trkpt lat="44.8763429" lon="9.8007405"><ele>188.0</ele><time>2026-03-29T07:58:37.074Z</time></trkpt><trkpt lat="44.8762692" lon="9.8006629"><ele>188.0</ele><time>2026-03-29T07:58:40.078Z</time></trkpt><trkpt lat="44.8762032" lon="9.8006011"><ele>188.0</ele><time>2026-03-29T07:58:43.069Z</time></trkpt><trkpt lat="44.8761423" lon="9.8005401"><ele>188.0</ele><time>2026-03-29T07:58:46.085Z</time></trkpt><trkpt lat="44.876078" lon="9.8004628"><ele>188.0</ele><time>2026-03-29T07:58:49.068Z</time></trkpt><trkpt lat="44.8760111" lon="9.800395"><ele>188.0</ele><time>2026-03-29T07:58:52.077Z</time></trkpt><trkpt lat="44.8759536" lon="9.8003283"><ele>188.83333333333331</ele><time>2026-03-29T07:58:55.066Z</time></trkpt><trkpt lat="44.8758845" lon="9.800261"><ele>189.66666666666666</ele><time>2026-03-29T07:58:58.087Z</time></trkpt><trkpt lat="44.8758302" lon="9.8002004"><ele>190.5</ele><time>2026-03-29T07:59:01.08Z</time></trkpt><trkpt lat="44.8757637" lon="9.8001354"><ele>191.33333333333331</ele><time>2026-03-29T07:59:04.083Z</time></trkpt><trkpt lat="44.8757093" lon="9.8000651"><ele>192.16666666666666</ele><time>2026-03-29T07:59:07.085Z</time></trkpt><trkpt lat="44.8756494" lon="9.7999891"><ele>193.0</ele><time>2026-03-29T07:59:10.074Z</time></trkpt><trkpt lat="44.8756382" lon="9.799865"><ele>192.99999999999997</ele><time>2026-03-29T07:59:13.076Z</time></trkpt><trkpt lat="44.8756563" lon="9.7997661"><ele>193.0</ele><time>2026-03-29T07:59:15.075Z</time></trkpt><trkpt lat="44.8756854" lon="9.7996635"><ele>193.0</ele><time>2026-03-29T07:59:17.093Z</time></trkpt><trkpt lat="44.8757157" lon="9.7995667"><ele>193.0</ele><time>2026-03-29T07:59:19.076Z</time></trkpt><trkpt lat="44.875721" lon="9.7994671"><ele>192.99999999999997</ele><time>2026-03-29T07:59:21.077Z</time></trkpt><trkpt lat="44.8756623" lon="9.7993875"><ele>193.0</ele><time>2026-03-29T07:59:23.076Z</time></trkpt><trkpt lat="44.8755773" lon="9.7993909"><ele>193.0</ele><time>2026-03-29T07:59:25.062Z</time></trkpt><trkpt lat="44.8754933" lon="9.7993853"><ele>193.0</ele><time>2026-03-29T07:59:27.08Z</time></trkpt><trkpt lat="44.8754014" lon="9.7993557"><ele>193.0</ele><time>2026-03-29T07:59:29.076Z</time></trkpt><trkpt lat="44.8753075" lon="9.799318"><ele>193.0</ele><time>2026-03-29T07:59:31.073Z</time></trkpt><trkpt lat="44.8752002" lon="9.7992804"><ele>193.0</ele><time>2026-03-29T07:59:33.092Z</time></trkpt><trkpt lat="44.875092" lon="9.7992527"><ele>193.2</ele><time>2026-03-29T07:59:35.074Z</time></trkpt><trkpt lat="44.8749899" lon="9.7992071"><ele>193.4</ele><time>2026-03-29T07:59:37.072Z</time></trkpt><trkpt lat="44.8748852" lon="9.7991696"><ele>193.6</ele><time>2026-03-29T07:59:39.061Z</time></trkpt><trkpt lat="44.8747997" lon="9.7991087"><ele>193.79999999999998</ele><time>2026-03-29T07:59:41.073Z</time></trkpt><trkpt lat="44.8747325" lon="9.7990545"><ele>194.0</ele><time>2026-03-29T07:59:43.078Z</time></trkpt><trkpt lat="44.8746782" lon="9.7989996"><ele>194.00000000000003</ele><time>2026-03-29T07:59:45.082Z</time></trkpt><trkpt lat="44.8746114" lon="9.7989042"><ele>194.0</ele><time>2026-03-29T07:59:48.066Z</time></trkpt><trkpt lat="44.8745447" lon="9.7988329"><ele>194.0</ele><time>2026-03-29T07:59:51.078Z</time></trkpt><trkpt lat="44.8744835" lon="9.7987565"><ele>194.0</ele><time>2026-03-29T07:59:54.074Z</time></trkpt><trkpt lat="44.8744282" lon="9.7986784"><ele>194.00000000000003</ele><time>2026-03-29T07:59:57.081Z</time></trkpt><trkpt lat="44.8743689" lon="9.7986241"><ele>194.0</ele><time>2026-03-29T08:00:00.08Z</time></trkpt><trkpt lat="44.8742994" lon="9.7985671"><ele>194.33333333333334</ele><time>2026-03-29T08:00:03.077Z</time></trkpt><trkpt lat="44.8742334" lon="9.7985178"><ele>194.66666666666669</ele><time>2026-03-29T08:00:06.095Z</time></trkpt><trkpt lat="44.8741551" lon="9.798473"><ele>195.0</ele><time>2026-03-29T08:00:09.07Z</time></trkpt><trkpt lat="44.8740889" lon="9.7984244"><ele>195.33333333333331</ele><time>2026-03-29T08:00:12.078Z</time></trkpt><trkpt lat="44.8740101" lon="9.7983706"><ele>195.66666666666666</ele><time>2026-03-29T08:00:15.075Z</time></trkpt><trkpt lat="44.8739361" lon="9.7983295"><ele>196.0</ele><time>2026-03-29T08:00:18.081Z</time></trkpt><trkpt lat="44.8738679" lon="9.7982845"><ele>196.16666666666666</ele><time>2026-03-29T08:00:21.076Z</time></trkpt><trkpt lat="44.8737932" lon="9.7982349"><ele>196.33333333333331</ele><time>2026-03-29T08:00:24.057Z</time></trkpt><trkpt lat="44.8737281" lon="9.7981792"><ele>196.5</ele><time>2026-03-29T08:00:27.08Z</time></trkpt><trkpt lat="44.8736574" lon="9.7981353"><ele>196.66666666666669</ele><time>2026-03-29T08:00:30.084Z</time></trkpt><trkpt lat="44.8735883" lon="9.7980791"><ele>196.83333333333334</ele><time>2026-03-29T08:00:33.078Z</time></trkpt><trkpt lat="44.8735145" lon="9.7980302"><ele>197.0</ele><time>2026-03-29T08:00:36.074Z</time></trkpt><trkpt lat="44.8734421" lon="9.7979767"><ele>197.66666666666669</ele><time>2026-03-29T08:00:39.079Z</time></trkpt><trkpt lat="44.8733671" lon="9.797929"><ele>198.33333333333334</ele><time>2026-03-29T08:00:42.082Z</time></trkpt><trkpt lat="44.8732902" lon="9.7978778"><ele>199.0</ele><time>2026-03-29T08:00:45.079Z</time></trkpt><trkpt lat="44.8732134" lon="9.7978308"><ele>199.66666666666669</ele><time>2026-03-29T08:00:48.065Z</time></trkpt><trkpt lat="44.8731432" lon="9.7977782"><ele>200.33333333333334</ele><time>2026-03-29T08:00:51.078Z</time></trkpt><trkpt lat="44.8730654" lon="9.7977269"><ele>201.0</ele><time>2026-03-29T08:00:54.084Z</time></trkpt><trkpt lat="44.8729873" lon="9.7976785"><ele>201.16666666666666</ele><time>2026-03-29T08:00:57.058Z</time></trkpt><trkpt lat="44.8729099" lon="9.7976215"><ele>201.33333333333331</ele><time>2026-03-29T08:01:00.068Z</time></trkpt><trkpt lat="44.8728293" lon="9.7975672"><ele>201.5</ele><time>2026-03-29T08:01:03.092Z</time></trkpt><trkpt lat="44.8727506" lon="9.7975197"><ele>201.66666666666666</ele><time>2026-03-29T08:01:06.08Z</time></trkpt><trkpt lat="44.8726746" lon="9.7974589"><ele>201.83333333333331</ele><time>2026-03-29T08:01:09.079Z</time></trkpt><trkpt lat="44.8725937" lon="9.7974035"><ele>202.0</ele><time>2026-03-29T08:01:12.066Z</time></trkpt><trkpt lat="44.8725201" lon="9.797352"><ele>202.66666666666666</ele><time>2026-03-29T08:01:15.079Z</time></trkpt><trkpt lat="44.8724364" lon="9.7973086"><ele>203.33333333333331</ele><time>2026-03-29T08:01:18.078Z</time></trkpt><trkpt lat="44.8723523" lon="9.7972935"><ele>204.0</ele><time>2026-03-29T08:01:21.077Z</time></trkpt><trkpt lat="44.8722699" lon="9.7972844"><ele>204.66666666666669</ele><time>2026-03-29T08:01:24.071Z</time></trkpt><trkpt lat="44.872178" lon="9.7973036"><ele>205.33333333333334</ele><time>2026-03-29T08:01:27.082Z</time></trkpt><trkpt lat="44.8721033" lon="9.7973397"><ele>206.0</ele><time>2026-03-29T08:01:30.078Z</time></trkpt><trkpt lat="44.8720338" lon="9.7973657"><ele>206.00000000000003</ele><time>2026-03-29T08:01:33.087Z</time></trkpt><trkpt lat="44.8719607" lon="9.7973822"><ele>206.0</ele><time>2026-03-29T08:01:36.083Z</time></trkpt><trkpt lat="44.8718838" lon="9.7973787"><ele>206.0</ele><time>2026-03-29T08:01:39.085Z</time></trkpt><trkpt lat="44.8718003" lon="9.7973592"><ele>206.0</ele><time>2026-03-29T08:01:42.081Z</time></trkpt><trkpt lat="44.8717154" lon="9.7973255"><ele>206.00000000000003</ele><time>2026-03-29T08:01:45.074Z</time></trkpt><trkpt lat="44.8716332" lon="9.7972862"><ele>206.0</ele><time>2026-03-29T08:01:48.085Z</time></trkpt><trkpt lat="44.8715548" lon="9.7972294"><ele>206.66666666666669</ele><time>2026-03-29T08:01:51.065Z</time></trkpt><trkpt lat="44.8714745" lon="9.7971801"><ele>207.33333333333334</ele><time>2026-03-29T08:01:54.094Z</time></trkpt><trkpt lat="44.871396" lon="9.7971339"><ele>208.0</ele><time>2026-03-29T08:01:57.079Z</time></trkpt><trkpt lat="44.8713091" lon="9.7970794"><ele>208.66666666666669</ele><time>2026-03-29T08:02:00.065Z</time></trkpt><trkpt lat="44.871225" lon="9.797028"><ele>209.33333333333334</ele><time>2026-03-29T08:02:03.052Z</time></trkpt><trkpt lat="44.8711475" lon="9.7969718"><ele>210.0</ele><time>2026-03-29T08:02:06.084Z</time></trkpt><trkpt lat="44.8710639" lon="9.7969188"><ele>210.0</ele><time>2026-03-29T08:02:09.079Z</time></trkpt><trkpt lat="44.8709851" lon="9.796866"><ele>210.0</ele><time>2026-03-29T08:02:12.079Z</time></trkpt><trkpt lat="44.8709269" lon="9.7968278"><ele>210.0</ele><time>2026-03-29T08:02:14.074Z</time></trkpt><trkpt lat="44.8708434" lon="9.7967744"><ele>210.0</ele><time>2026-03-29T08:02:17.085Z</time></trkpt><trkpt lat="44.8707638" lon="9.7967235"><ele>210.0</ele><time>2026-03-29T08:02:20.074Z</time></trkpt><trkpt lat="44.8706841" lon="9.7966713"><ele>210.0</ele><time>2026-03-29T08:02:23.071Z</time></trkpt><trkpt lat="44.8706051" lon="9.7966118"><ele>210.5</ele><time>2026-03-29T08:02:26.076Z</time></trkpt><trkpt lat="44.8705245" lon="9.7965729"><ele>211.0</ele><time>2026-03-29T08:02:29.07Z</time></trkpt><trkpt lat="44.8704457" lon="9.7965238"><ele>211.5</ele><time>2026-03-29T08:02:32.093Z</time></trkpt><trkpt lat="44.8703689" lon="9.7964742"><ele>212.0</ele><time>2026-03-29T08:02:35.063Z</time></trkpt><trkpt lat="44.8702946" lon="9.7964189"><ele>212.5</ele><time>2026-03-29T08:02:38.079Z</time></trkpt><trkpt lat="44.8702159" lon="9.7963713"><ele>213.0</ele><time>2026-03-29T08:02:41.08Z</time></trkpt><trkpt lat="44.8701328" lon="9.7963238"><ele>212.83333333333334</ele><time>2026-03-29T08:02:44.085Z</time></trkpt><trkpt lat="44.8700591" lon="9.79627"><ele>212.66666666666669</ele><time>2026-03-29T08:02:47.069Z</time></trkpt><trkpt lat="44.8699786" lon="9.7962266"><ele>212.5</ele><time>2026-03-29T08:02:50.081Z</time></trkpt><trkpt lat="44.8699026" lon="9.7961753"><ele>212.33333333333334</ele><time>2026-03-29T08:02:53.078Z</time></trkpt><trkpt lat="44.8698255" lon="9.7961305"><ele>212.16666666666669</ele><time>2026-03-29T08:02:56.082Z</time></trkpt><trkpt lat="44.8697517" lon="9.7960839"><ele>212.0</ele><time>2026-03-29T08:02:59.069Z</time></trkpt><trkpt lat="44.8696764" lon="9.7960416"><ele>212.00000000000003</ele><time>2026-03-29T08:03:02.078Z</time></trkpt><trkpt lat="44.8696029" lon="9.795991"><ele>212.0</ele><time>2026-03-29T08:03:05.078Z</time></trkpt><trkpt lat="44.8695294" lon="9.7959462"><ele>212.0</ele><time>2026-03-29T08:03:08.089Z</time></trkpt><trkpt lat="44.8694553" lon="9.7958985"><ele>212.0</ele><time>2026-03-29T08:03:11.093Z</time></trkpt><trkpt lat="44.869388" lon="9.7958283"><ele>212.00000000000003</ele><time>2026-03-29T08:03:14.089Z</time></trkpt><trkpt lat="44.8693229" lon="9.7957501"><ele>212.0</ele><time>2026-03-29T08:03:17.086Z</time></trkpt><trkpt lat="44.8692719" lon="9.7956919"><ele>212.00000000000003</ele><time>2026-03-29T08:03:19.084Z</time></trkpt><trkpt lat="44.8692057" lon="9.7956035"><ele>212.0</ele><time>2026-03-29T08:03:22.072Z</time></trkpt><trkpt lat="44.8691515" lon="9.7955484"><ele>212.0</ele><time>2026-03-29T08:03:24.079Z</time></trkpt><trkpt lat="44.8690748" lon="9.7954593"><ele>212.0</ele><time>2026-03-29T08:03:27.078Z</time></trkpt><trkpt lat="44.8690251" lon="9.7954034"><ele>212.00000000000003</ele><time>2026-03-29T08:03:29.082Z</time></trkpt><trkpt lat="44.8689805" lon="9.7953343"><ele>212.0</ele><time>2026-03-29T08:03:31.079Z</time></trkpt><trkpt lat="44.8689308" lon="9.7952632"><ele>212.0</ele><time>2026-03-29T08:03:33.092Z</time></trkpt><trkpt lat="44.8688791" lon="9.7951982"><ele>212.0</ele><time>2026-03-29T08:03:35.081Z</time></trkpt><trkpt lat="44.868833" lon="9.7951222"><ele>212.0</ele><time>2026-03-29T08:03:37.074Z</time></trkpt><trkpt lat="44.8687873" lon="9.7950455"><ele>212.0</ele><time>2026-03-29T08:03:39.077Z</time></trkpt><trkpt lat="44.8687377" lon="9.7949725"><ele>212.0</ele><time>2026-03-29T08:03:41.091Z</time></trkpt><trkpt lat="44.8686919" lon="9.7949004"><ele>212.0</ele><time>2026-03-29T08:03:43.079Z</time></trkpt><trkpt lat="44.8686179" lon="9.7948139"><ele>212.0</ele><time>2026-03-29T08:03:46.079Z</time></trkpt><trkpt lat="44.8685655" lon="9.7947583"><ele>212.57142857142858</ele><time>2026-03-29T08:03:48.083Z</time></trkpt><trkpt lat="44.868507" lon="9.79472"><ele>213.14285714285714</ele><time>2026-03-29T08:03:50.076Z</time></trkpt><trkpt lat="44.8684498" lon="9.7946769"><ele>213.71428571428572</ele><time>2026-03-29T08:03:52.075Z</time></trkpt><trkpt lat="44.8683922" lon="9.7946385"><ele>214.28571428571428</ele><time>2026-03-29T08:03:54.07Z</time></trkpt><trkpt lat="44.8683388" lon="9.7945886"><ele>214.85714285714283</ele><time>2026-03-29T08:03:56.085Z</time></trkpt><trkpt lat="44.8682725" lon="9.7945544"><ele>215.42857142857142</ele><time>2026-03-29T08:03:58.071Z</time></trkpt><trkpt lat="44.8681856" lon="9.7945011"><ele>216.0</ele><time>2026-03-29T08:04:01.085Z</time></trkpt><trkpt lat="44.8681244" lon="9.7944597"><ele>216.0</ele><time>2026-03-29T08:04:03.083Z</time></trkpt><trkpt lat="44.86806" lon="9.7944238"><ele>216.0</ele><time>2026-03-29T08:04:05.075Z</time></trkpt><trkpt lat="44.867999" lon="9.7943912"><ele>216.0</ele><time>2026-03-29T08:04:07.079Z</time></trkpt><trkpt lat="44.8679389" lon="9.7943565"><ele>216.0</ele><time>2026-03-29T08:04:09.081Z</time></trkpt><trkpt lat="44.8678797" lon="9.7943228"><ele>216.0</ele><time>2026-03-29T08:04:11.097Z</time></trkpt><trkpt lat="44.8678211" lon="9.7942877"><ele>216.0</ele><time>2026-03-29T08:04:13.073Z</time></trkpt><trkpt lat="44.8677607" lon="9.7942552"><ele>216.0</ele><time>2026-03-29T08:04:15.08Z</time></trkpt><trkpt lat="44.867703" lon="9.7942152"><ele>216.33333333333334</ele><time>2026-03-29T08:04:17.079Z</time></trkpt><trkpt lat="44.8676426" lon="9.7941871"><ele>216.66666666666669</ele><time>2026-03-29T08:04:19.082Z</time></trkpt><trkpt lat="44.8675587" lon="9.7941423"><ele>217.0</ele><time>2026-03-29T08:04:22.095Z</time></trkpt><trkpt lat="44.8674765" lon="9.7940798"><ele>217.33333333333334</ele><time>2026-03-29T08:04:25.09Z</time></trkpt><trkpt lat="44.8673902" lon="9.7940271"><ele>217.66666666666669</ele><time>2026-03-29T08:04:28.069Z</time></trkpt><trkpt lat="44.8673319" lon="9.7939928"><ele>218.0</ele><time>2026-03-29T08:04:30.07Z</time></trkpt><trkpt lat="44.8672706" lon="9.7939586"><ele>218.28571428571428</ele><time>2026-03-29T08:04:32.076Z</time></trkpt><trkpt lat="44.8672099" lon="9.7939219"><ele>218.57142857142858</ele><time>2026-03-29T08:04:34.091Z</time></trkpt><trkpt lat="44.8671496" lon="9.7938788"><ele>218.85714285714283</ele><time>2026-03-29T08:04:36.088Z</time></trkpt><trkpt lat="44.8670858" lon="9.7938452"><ele>219.14285714285714</ele><time>2026-03-29T08:04:38.08Z</time></trkpt><trkpt lat="44.8670213" lon="9.7938032"><ele>219.42857142857142</ele><time>2026-03-29T08:04:40.084Z</time></trkpt><trkpt lat="44.866953" lon="9.7937608"><ele>219.7142857142857</ele><time>2026-03-29T08:04:42.085Z</time></trkpt><trkpt lat="44.8668919" lon="9.7937289"><ele>220.0</ele><time>2026-03-29T08:04:44.086Z</time></trkpt><trkpt lat="44.8668274" lon="9.7936928"><ele>219.33333333333331</ele><time>2026-03-29T08:04:46.077Z</time></trkpt><trkpt lat="44.866746" lon="9.7936417"><ele>218.66666666666666</ele><time>2026-03-29T08:04:49.072Z</time></trkpt><trkpt lat="44.8666761" lon="9.7935965"><ele>218.0</ele><time>2026-03-29T08:04:51.038Z</time></trkpt><trkpt lat="44.8666073" lon="9.7935551"><ele>217.33333333333331</ele><time>2026-03-29T08:04:53.087Z</time></trkpt><trkpt lat="44.8665512" lon="9.793513"><ele>216.66666666666666</ele><time>2026-03-29T08:04:55.031Z</time></trkpt><trkpt lat="44.8664885" lon="9.7934744"><ele>216.0</ele><time>2026-03-29T08:04:57.08Z</time></trkpt><trkpt lat="44.8664096" lon="9.79343"><ele>217.28571428571428</ele><time>2026-03-29T08:04:59.043Z</time></trkpt><trkpt lat="44.866347" lon="9.7933889"><ele>218.57142857142856</ele><time>2026-03-29T08:05:01.06Z</time></trkpt><trkpt lat="44.8662823" lon="9.7933498"><ele>219.8571428571429</ele><time>2026-03-29T08:05:03.086Z</time></trkpt><trkpt lat="44.8662071" lon="9.7933048"><ele>221.14285714285717</ele><time>2026-03-29T08:05:05.066Z</time></trkpt><trkpt lat="44.8661401" lon="9.7932653"><ele>222.42857142857144</ele><time>2026-03-29T08:05:07.1Z</time></trkpt><trkpt lat="44.8660737" lon="9.7932272"><ele>223.71428571428575</ele><time>2026-03-29T08:05:09.091Z</time></trkpt><trkpt lat="44.8660107" lon="9.7931879"><ele>225.00000000000003</ele><time>2026-03-29T08:05:11.079Z</time></trkpt><trkpt lat="44.8659376" lon="9.7931308"><ele>225.0</ele><time>2026-03-29T08:05:13.092Z</time></trkpt><trkpt lat="44.8658661" lon="9.7930901"><ele>225.0</ele><time>2026-03-29T08:05:15.066Z</time></trkpt><trkpt lat="44.8657924" lon="9.7930413"><ele>225.0</ele><time>2026-03-29T08:05:17.065Z</time></trkpt><trkpt lat="44.8657248" lon="9.7930014"><ele>225.0</ele><time>2026-03-29T08:05:19.073Z</time></trkpt><trkpt lat="44.8656541" lon="9.7929596"><ele>225.0</ele><time>2026-03-29T08:05:21.087Z</time></trkpt><trkpt lat="44.8655785" lon="9.7929178"><ele>225.0</ele><time>2026-03-29T08:05:23.086Z</time></trkpt><trkpt lat="44.8655078" lon="9.7928644"><ele>225.0</ele><time>2026-03-29T08:05:25.064Z</time></trkpt><trkpt lat="44.865431" lon="9.7927952"><ele>225.0</ele><time>2026-03-29T08:05:27.069Z</time></trkpt><trkpt lat="44.8653493" lon="9.7927291"><ele>225.0</ele><time>2026-03-29T08:05:29.08Z</time></trkpt><trkpt lat="44.8652581" lon="9.792664"><ele>225.0</ele><time>2026-03-29T08:05:31.078Z</time></trkpt><trkpt lat="44.8651608" lon="9.7926048"><ele>225.0</ele><time>2026-03-29T08:05:33.075Z</time></trkpt><trkpt lat="44.8650612" lon="9.7925265"><ele>225.2</ele><time>2026-03-29T08:05:35.086Z</time></trkpt><trkpt lat="44.8649695" lon="9.7924647"><ele>225.4</ele><time>2026-03-29T08:05:37.059Z</time></trkpt><trkpt lat="44.864871" lon="9.7923999"><ele>225.60000000000002</ele><time>2026-03-29T08:05:39.091Z</time></trkpt><trkpt lat="44.8647867" lon="9.7923502"><ele>225.8</ele><time>2026-03-29T08:05:41.096Z</time></trkpt><trkpt lat="44.8647045" lon="9.792315"><ele>226.0</ele><time>2026-03-29T08:05:43.046Z</time></trkpt><trkpt lat="44.8646192" lon="9.7922755"><ele>226.0</ele><time>2026-03-29T08:05:45.087Z</time></trkpt><trkpt lat="44.8645479" lon="9.7922462"><ele>226.0</ele><time>2026-03-29T08:05:47.086Z</time></trkpt><trkpt lat="44.8644781" lon="9.7922175"><ele>226.0</ele><time>2026-03-29T08:05:49.09Z</time></trkpt><trkpt lat="44.8644077" lon="9.7921912"><ele>226.0</ele><time>2026-03-29T08:05:51.076Z</time></trkpt><trkpt lat="44.864342" lon="9.7921734"><ele>226.0</ele><time>2026-03-29T08:05:53.082Z</time></trkpt><trkpt lat="44.8642791" lon="9.7921539"><ele>226.0</ele><time>2026-03-29T08:05:55.084Z</time></trkpt><trkpt lat="44.8641863" lon="9.7921351"><ele>226.0</ele><time>2026-03-29T08:05:58.072Z</time></trkpt><trkpt lat="44.8640957" lon="9.7921182"><ele>225.83333333333331</ele><time>2026-03-29T08:06:01.062Z</time></trkpt><trkpt lat="44.8640227" lon="9.7921084"><ele>225.66666666666666</ele><time>2026-03-29T08:06:04.069Z</time></trkpt><trkpt lat="44.8639426" lon="9.7920922"><ele>225.5</ele><time>2026-03-29T08:06:07.083Z</time></trkpt><trkpt lat="44.8638669" lon="9.7920586"><ele>225.33333333333331</ele><time>2026-03-29T08:06:10.082Z</time></trkpt><trkpt lat="44.8637918" lon="9.7920382"><ele>225.16666666666666</ele><time>2026-03-29T08:06:13.076Z</time></trkpt><trkpt lat="44.8637123" lon="9.7920127"><ele>225.0</ele><time>2026-03-29T08:06:16.092Z</time></trkpt><trkpt lat="44.8636256" lon="9.791984"><ele>225.0</ele><time>2026-03-29T08:06:19.085Z</time></trkpt><trkpt lat="44.8635392" lon="9.7919695"><ele>225.0</ele><time>2026-03-29T08:06:22.072Z</time></trkpt><trkpt lat="44.8634565" lon="9.7919453"><ele>225.0</ele><time>2026-03-29T08:06:25.069Z</time></trkpt><trkpt lat="44.8633715" lon="9.7919126"><ele>225.0</ele><time>2026-03-29T08:06:28.063Z</time></trkpt><trkpt lat="44.8632808" lon="9.7918956"><ele>225.0</ele><time>2026-03-29T08:06:31.089Z</time></trkpt><trkpt lat="44.8631914" lon="9.7918733"><ele>225.0</ele><time>2026-03-29T08:06:34.087Z</time></trkpt><trkpt lat="44.8631013" lon="9.7918505"><ele>225.16666666666666</ele><time>2026-03-29T08:06:37.088Z</time></trkpt><trkpt lat="44.8630327" lon="9.7918363"><ele>225.33333333333331</ele><time>2026-03-29T08:06:39.082Z</time></trkpt><trkpt lat="44.8629407" lon="9.7918182"><ele>225.5</ele><time>2026-03-29T08:06:42.084Z</time></trkpt><trkpt lat="44.8628728" lon="9.7918047"><ele>225.66666666666666</ele><time>2026-03-29T08:06:44.078Z</time></trkpt><trkpt lat="44.8627914" lon="9.7917749"><ele>225.83333333333331</ele><time>2026-03-29T08:06:46.087Z</time></trkpt><trkpt lat="44.8627222" lon="9.7917286"><ele>226.0</ele><time>2026-03-29T08:06:48.086Z</time></trkpt><trkpt lat="44.8626566" lon="9.7916722"><ele>226.57142857142858</ele><time>2026-03-29T08:06:50.089Z</time></trkpt><trkpt lat="44.8625861" lon="9.7916054"><ele>227.1428571428571</ele><time>2026-03-29T08:06:52.081Z</time></trkpt><trkpt lat="44.862522" lon="9.7915545"><ele>227.7142857142857</ele><time>2026-03-29T08:06:54.058Z</time></trkpt><trkpt lat="44.8624562" lon="9.7915126"><ele>228.28571428571428</ele><time>2026-03-29T08:06:56.086Z</time></trkpt><trkpt lat="44.8623938" lon="9.7914695"><ele>228.85714285714283</ele><time>2026-03-29T08:06:58.09Z</time></trkpt><trkpt lat="44.8623342" lon="9.7914323"><ele>229.4285714285714</ele><time>2026-03-29T08:07:00.078Z</time></trkpt><trkpt lat="44.8622679" lon="9.7914079"><ele>229.99999999999997</ele><time>2026-03-29T08:07:02.079Z</time></trkpt><trkpt lat="44.8621803" lon="9.7913748"><ele>230.00000000000003</ele><time>2026-03-29T08:07:05.065Z</time></trkpt><trkpt lat="44.8620909" lon="9.7913475"><ele>230.0</ele><time>2026-03-29T08:07:08.088Z</time></trkpt><trkpt lat="44.8620068" lon="9.7913316"><ele>230.0</ele><time>2026-03-29T08:07:11.079Z</time></trkpt><trkpt lat="44.861923" lon="9.7912957"><ele>230.0</ele><time>2026-03-29T08:07:14.074Z</time></trkpt><trkpt lat="44.8618436" lon="9.7912812"><ele>230.00000000000003</ele><time>2026-03-29T08:07:17.069Z</time></trkpt><trkpt lat="44.8617627" lon="9.7912634"><ele>230.0</ele><time>2026-03-29T08:07:20.062Z</time></trkpt><trkpt lat="44.8616893" lon="9.7912282"><ele>229.57142857142856</ele><time>2026-03-29T08:07:23.073Z</time></trkpt><trkpt lat="44.8616142" lon="9.7911976"><ele>229.14285714285714</ele><time>2026-03-29T08:07:26.089Z</time></trkpt><trkpt lat="44.8615385" lon="9.7911771"><ele>228.71428571428572</ele><time>2026-03-29T08:07:29.068Z</time></trkpt><trkpt lat="44.861473" lon="9.7911208"><ele>228.28571428571428</ele><time>2026-03-29T08:07:32.075Z</time></trkpt><trkpt lat="44.8614117" lon="9.7910469"><ele>227.8571428571429</ele><time>2026-03-29T08:07:36.086Z</time></trkpt><trkpt lat="44.861363" lon="9.7909881"><ele>227.42857142857144</ele><time>2026-03-29T08:07:39.086Z</time></trkpt><trkpt lat="44.8613022" lon="9.7909322"><ele>227.0</ele><time>2026-03-29T08:07:42.091Z</time></trkpt><trkpt lat="44.8612264" lon="9.7908811"><ele>227.00000000000003</ele><time>2026-03-29T08:07:45.099Z</time></trkpt><trkpt lat="44.8611618" lon="9.7908117"><ele>227.0</ele><time>2026-03-29T08:07:48.08Z</time></trkpt><trkpt lat="44.8611101" lon="9.7907558"><ele>227.0</ele><time>2026-03-29T08:07:50.087Z</time></trkpt><trkpt lat="44.8610568" lon="9.7906922"><ele>227.0</ele><time>2026-03-29T08:07:52.09Z</time></trkpt><trkpt lat="44.8610138" lon="9.7906129"><ele>227.00000000000003</ele><time>2026-03-29T08:07:54.077Z</time></trkpt><trkpt lat="44.860966" lon="9.790525"><ele>227.0</ele><time>2026-03-29T08:07:56.078Z</time></trkpt><trkpt lat="44.8609058" lon="9.7904339"><ele>228.0</ele><time>2026-03-29T08:07:58.071Z</time></trkpt><trkpt lat="44.8608445" lon="9.7903316"><ele>229.0</ele><time>2026-03-29T08:08:00.078Z</time></trkpt><trkpt lat="44.8607782" lon="9.7902352"><ele>230.0</ele><time>2026-03-29T08:08:02.082Z</time></trkpt><trkpt lat="44.8607114" lon="9.7901435"><ele>231.0</ele><time>2026-03-29T08:08:04.082Z</time></trkpt><trkpt lat="44.8606569" lon="9.7900373"><ele>232.0</ele><time>2026-03-29T08:08:06.076Z</time></trkpt><trkpt lat="44.8605989" lon="9.7899459"><ele>232.0</ele><time>2026-03-29T08:08:08.083Z</time></trkpt><trkpt lat="44.860548" lon="9.7898262"><ele>232.0</ele><time>2026-03-29T08:08:10.073Z</time></trkpt><trkpt lat="44.8605109" lon="9.7897012"><ele>232.0</ele><time>2026-03-29T08:08:12.076Z</time></trkpt><trkpt lat="44.8604455" lon="9.7895699"><ele>232.0</ele><time>2026-03-29T08:08:14.082Z</time></trkpt><trkpt lat="44.8603546" lon="9.7894569"><ele>232.0</ele><time>2026-03-29T08:08:16.082Z</time></trkpt><trkpt lat="44.860259" lon="9.7893545"><ele>233.39999999999998</ele><time>2026-03-29T08:08:18.083Z</time></trkpt><trkpt lat="44.8601772" lon="9.789231"><ele>234.79999999999998</ele><time>2026-03-29T08:08:20.095Z</time></trkpt><trkpt lat="44.8600966" lon="9.7891088"><ele>236.2</ele><time>2026-03-29T08:08:22.066Z</time></trkpt><trkpt lat="44.860059" lon="9.7890328"><ele>237.6</ele><time>2026-03-29T08:08:23.086Z</time></trkpt><trkpt lat="44.8600264" lon="9.7889506"><ele>239.0</ele><time>2026-03-29T08:08:24.09Z</time></trkpt><trkpt lat="44.8599806" lon="9.7887945"><ele>239.0</ele><time>2026-03-29T08:08:26.077Z</time></trkpt><trkpt lat="44.8599532" lon="9.7887081"><ele>238.99999999999997</ele><time>2026-03-29T08:08:27.086Z</time></trkpt><trkpt lat="44.8598852" lon="9.7885856"><ele>238.99999999999997</ele><time>2026-03-29T08:08:29.084Z</time></trkpt><trkpt lat="44.8598174" lon="9.7884862"><ele>239.0</ele><time>2026-03-29T08:08:31.087Z</time></trkpt><trkpt lat="44.8597489" lon="9.7883904"><ele>239.0</ele><time>2026-03-29T08:08:33.084Z</time></trkpt><trkpt lat="44.8596748" lon="9.7883026"><ele>239.6</ele><time>2026-03-29T08:08:35.083Z</time></trkpt><trkpt lat="44.8596044" lon="9.7882014"><ele>240.2</ele><time>2026-03-29T08:08:37.082Z</time></trkpt><trkpt lat="44.8595227" lon="9.7880819"><ele>240.79999999999998</ele><time>2026-03-29T08:08:39.065Z</time></trkpt><trkpt lat="44.8594504" lon="9.7879658"><ele>241.39999999999998</ele><time>2026-03-29T08:08:41.077Z</time></trkpt><trkpt lat="44.8593713" lon="9.7878503"><ele>242.0</ele><time>2026-03-29T08:08:43.09Z</time></trkpt><trkpt lat="44.8592722" lon="9.7877756"><ele>242.0</ele><time>2026-03-29T08:08:45.087Z</time></trkpt><trkpt lat="44.8591574" lon="9.7877487"><ele>242.0</ele><time>2026-03-29T08:08:47.093Z</time></trkpt><trkpt lat="44.8590369" lon="9.7877191"><ele>242.0</ele><time>2026-03-29T08:08:49.09Z</time></trkpt><trkpt lat="44.8589236" lon="9.7876995"><ele>242.0</ele><time>2026-03-29T08:08:51.083Z</time></trkpt><trkpt lat="44.8588051" lon="9.7876921"><ele>242.0</ele><time>2026-03-29T08:08:53.085Z</time></trkpt><trkpt lat="44.8586866" lon="9.7876803"><ele>242.0</ele><time>2026-03-29T08:08:55.064Z</time></trkpt><trkpt lat="44.8586189" lon="9.7876742"><ele>242.0</ele><time>2026-03-29T08:08:56.073Z</time></trkpt><trkpt lat="44.8585107" lon="9.7876481"><ele>242.0</ele><time>2026-03-29T08:08:58.077Z</time></trkpt><trkpt lat="44.8584109" lon="9.7876389"><ele>242.0</ele><time>2026-03-29T08:09:00.081Z</time></trkpt><trkpt lat="44.8583142" lon="9.7876136"><ele>239.33333333333334</ele><time>2026-03-29T08:09:02.065Z</time></trkpt><trkpt lat="44.8582252" lon="9.7875902"><ele>236.66666666666669</ele><time>2026-03-29T08:09:04.072Z</time></trkpt><trkpt lat="44.8581343" lon="9.7875548"><ele>234.0</ele><time>2026-03-29T08:09:06.102Z</time></trkpt><trkpt lat="44.8580624" lon="9.7875204"><ele>231.33333333333331</ele><time>2026-03-29T08:09:08.079Z</time></trkpt><trkpt lat="44.8579956" lon="9.7874752"><ele>228.66666666666666</ele><time>2026-03-29T08:09:10.088Z</time></trkpt><trkpt lat="44.8579175" lon="9.7874197"><ele>226.0</ele><time>2026-03-29T08:09:12.06Z</time></trkpt><trkpt lat="44.8578311" lon="9.7873829"><ele>225.99999999999997</ele><time>2026-03-29T08:09:14.078Z</time></trkpt><trkpt lat="44.8577629" lon="9.7873471"><ele>226.0</ele><time>2026-03-29T08:09:16.077Z</time></trkpt><trkpt lat="44.8577016" lon="9.7873128"><ele>226.0</ele><time>2026-03-29T08:09:18.066Z</time></trkpt><trkpt lat="44.857641" lon="9.7872832"><ele>226.0</ele><time>2026-03-29T08:09:20.079Z</time></trkpt><trkpt lat="44.857555" lon="9.7872411"><ele>225.99999999999997</ele><time>2026-03-29T08:09:23.08Z</time></trkpt><trkpt lat="44.8574681" lon="9.7872"><ele>226.0</ele><time>2026-03-29T08:09:26.081Z</time></trkpt><trkpt lat="44.8573828" lon="9.7871566"><ele>227.28571428571428</ele><time>2026-03-29T08:09:29.093Z</time></trkpt><trkpt lat="44.8573064" lon="9.7871358"><ele>228.57142857142856</ele><time>2026-03-29T08:09:32.08Z</time></trkpt><trkpt lat="44.8572344" lon="9.7871066"><ele>229.85714285714283</ele><time>2026-03-29T08:09:35.049Z</time></trkpt><trkpt lat="44.8571583" lon="9.7870896"><ele>231.14285714285714</ele><time>2026-03-29T08:09:38.066Z</time></trkpt><trkpt lat="44.8570883" lon="9.7870836"><ele>232.4285714285714</ele><time>2026-03-29T08:09:41.072Z</time></trkpt><trkpt lat="44.8570137" lon="9.7870683"><ele>233.7142857142857</ele><time>2026-03-29T08:09:44.068Z</time></trkpt><trkpt lat="44.8569503" lon="9.787058"><ele>235.0</ele><time>2026-03-29T08:09:47.035Z</time></trkpt><trkpt lat="44.8568823" lon="9.7870577"><ele>235.0</ele><time>2026-03-29T08:09:50.071Z</time></trkpt><trkpt lat="44.8568171" lon="9.7870596"><ele>234.99999999999997</ele><time>2026-03-29T08:09:53.078Z</time></trkpt><trkpt lat="44.8567456" lon="9.7870619"><ele>235.0</ele><time>2026-03-29T08:09:57.066Z</time></trkpt><trkpt lat="44.8566728" lon="9.7870535"><ele>235.0</ele><time>2026-03-29T08:10:01.072Z</time></trkpt><trkpt lat="44.8566027" lon="9.7870422"><ele>234.99999999999997</ele><time>2026-03-29T08:10:05.059Z</time></trkpt><trkpt lat="44.8565273" lon="9.7870378"><ele>235.0</ele><time>2026-03-29T08:10:09.077Z</time></trkpt><trkpt lat="44.8564487" lon="9.7870452"><ele>235.0</ele><time>2026-03-29T08:10:14.073Z</time></trkpt><trkpt lat="44.8563816" lon="9.7870426"><ele>236.57142857142856</ele><time>2026-03-29T08:10:18.094Z</time></trkpt><trkpt lat="44.8563095" lon="9.7870418"><ele>238.1428571428571</ele><time>2026-03-29T08:10:22.077Z</time></trkpt><trkpt lat="44.856246" lon="9.7870405"><ele>239.71428571428572</ele><time>2026-03-29T08:10:26.078Z</time></trkpt><trkpt lat="44.8561753" lon="9.7870465"><ele>241.28571428571428</ele><time>2026-03-29T08:10:31.065Z</time></trkpt><trkpt lat="44.8561031" lon="9.7870428"><ele>242.85714285714286</ele><time>2026-03-29T08:10:36.062Z</time></trkpt><trkpt lat="44.8560357" lon="9.7870308"><ele>244.42857142857144</ele><time>2026-03-29T08:10:40.06Z</time></trkpt><trkpt lat="44.8559575" lon="9.787037"><ele>246.00000000000003</ele><time>2026-03-29T08:10:45.055Z</time></trkpt><trkpt lat="44.8558868" lon="9.7870323"><ele>247.71428571428575</ele><time>2026-03-29T08:10:49.074Z</time></trkpt><trkpt lat="44.8558163" lon="9.7870329"><ele>249.42857142857144</ele><time>2026-03-29T08:10:54.075Z</time></trkpt><trkpt lat="44.8557419" lon="9.7870484"><ele>251.14285714285714</ele><time>2026-03-29T08:10:59.075Z</time></trkpt><trkpt lat="44.855666" lon="9.787047"><ele>252.85714285714286</ele><time>2026-03-29T08:11:04.073Z</time></trkpt><trkpt lat="44.8556019" lon="9.7870172"><ele>254.57142857142856</ele><time>2026-03-29T08:11:11.073Z</time></trkpt><trkpt lat="44.8555427" lon="9.7870572"><ele>256.2857142857143</ele><time>2026-03-29T08:12:03.086Z</time></trkpt><trkpt lat="44.8554783" lon="9.7870545"><ele>258.0</ele><time>2026-03-29T08:12:08.076Z</time></trkpt><trkpt lat="44.8554034" lon="9.7870637"><ele>257.99999999999994</ele><time>2026-03-29T08:12:13.077Z</time></trkpt><trkpt lat="44.8553399" lon="9.7870496"><ele>258.0</ele><time>2026-03-29T08:12:18.072Z</time></trkpt><trkpt lat="44.8552742" lon="9.7870243"><ele>258.0</ele><time>2026-03-29T08:12:23.078Z</time></trkpt><trkpt lat="44.8552088" lon="9.787008"><ele>258.0</ele><time>2026-03-29T08:12:28.076Z</time></trkpt><trkpt lat="44.8551439" lon="9.7869706"><ele>258.0</ele><time>2026-03-29T08:12:33.074Z</time></trkpt><trkpt lat="44.8551034" lon="9.7868896"><ele>257.99999999999994</ele><time>2026-03-29T08:12:48.066Z</time></trkpt><trkpt lat="44.8550361" lon="9.786873"><ele>258.0</ele><time>2026-03-29T08:13:08.069Z</time></trkpt><trkpt lat="44.8549658" lon="9.7868691"><ele>256.99999999999994</ele><time>2026-03-29T08:13:16.054Z</time></trkpt><trkpt lat="44.8548987" lon="9.7868464"><ele>256.0</ele><time>2026-03-29T08:13:30.048Z</time></trkpt><trkpt lat="44.8548311" lon="9.7868442"><ele>254.99999999999997</ele><time>2026-03-29T08:13:39.06Z</time></trkpt><trkpt lat="44.8547624" lon="9.7868081"><ele>253.99999999999997</ele><time>2026-03-29T08:14:07.066Z</time></trkpt><trkpt lat="44.8547034" lon="9.7867699"><ele>253.0</ele><time>2026-03-29T08:14:12.07Z</time></trkpt><trkpt lat="44.8546409" lon="9.7867579"><ele>251.99999999999997</ele><time>2026-03-29T08:14:17.073Z</time></trkpt><trkpt lat="44.8545779" lon="9.7867219"><ele>250.99999999999997</ele><time>2026-03-29T08:14:22.076Z</time></trkpt><trkpt lat="44.8545085" lon="9.7866883"><ele>250.99999999999997</ele><time>2026-03-29T08:14:28.071Z</time></trkpt><trkpt lat="44.854437" lon="9.7866562"><ele>251.0</ele><time>2026-03-29T08:14:33.083Z</time></trkpt><trkpt lat="44.8543738" lon="9.7866318"><ele>250.99999999999997</ele><time>2026-03-29T08:14:38.077Z</time></trkpt><trkpt lat="44.854312" lon="9.7866079"><ele>250.99999999999997</ele><time>2026-03-29T08:14:43.084Z</time></trkpt><trkpt lat="44.8542442" lon="9.7865661"><ele>251.0</ele><time>2026-03-29T08:14:48.081Z</time></trkpt><trkpt lat="44.8541709" lon="9.7865504"><ele>250.99999999999997</ele><time>2026-03-29T08:14:53.066Z</time></trkpt><trkpt lat="44.8541067" lon="9.7865414"><ele>250.99999999999997</ele><time>2026-03-29T08:14:57.081Z</time></trkpt><trkpt lat="44.8540358" lon="9.7865013"><ele>253.1428571428571</ele><time>2026-03-29T08:15:02.073Z</time></trkpt><trkpt lat="44.8539753" lon="9.7864398"><ele>255.28571428571428</ele><time>2026-03-29T08:15:07.08Z</time></trkpt><trkpt lat="44.8539196" lon="9.7863864"><ele>257.42857142857144</ele><time>2026-03-29T08:15:12.073Z</time></trkpt><trkpt lat="44.8538721" lon="9.7863256"><ele>259.57142857142856</ele><time>2026-03-29T08:15:16.069Z</time></trkpt><trkpt lat="44.8538219" lon="9.7862468"><ele>261.7142857142857</ele><time>2026-03-29T08:15:21.084Z</time></trkpt><trkpt lat="44.8537816" lon="9.7861664"><ele>263.85714285714283</ele><time>2026-03-29T08:15:26.081Z</time></trkpt><trkpt lat="44.8537189" lon="9.7861253"><ele>266.0</ele><time>2026-03-29T08:15:31.073Z</time></trkpt><trkpt lat="44.8536521" lon="9.7861273"><ele>266.0</ele><time>2026-03-29T08:15:35.048Z</time></trkpt><trkpt lat="44.8535821" lon="9.786129"><ele>266.0</ele><time>2026-03-29T08:15:40.072Z</time></trkpt><trkpt lat="44.8535191" lon="9.7861191"><ele>266.0</ele><time>2026-03-29T08:15:45.041Z</time></trkpt><trkpt lat="44.8534516" lon="9.7861108"><ele>266.0</ele><time>2026-03-29T08:15:51.059Z</time></trkpt><trkpt lat="44.8533775" lon="9.7861062"><ele>266.0</ele><time>2026-03-29T08:15:56.094Z</time></trkpt><trkpt lat="44.8533135" lon="9.7861243"><ele>266.0</ele><time>2026-03-29T08:16:01.08Z</time></trkpt><trkpt lat="44.8532426" lon="9.7861507"><ele>266.0</ele><time>2026-03-29T08:16:06.086Z</time></trkpt><trkpt lat="44.8531787" lon="9.7861691"><ele>268.57142857142856</ele><time>2026-03-29T08:16:10.079Z</time></trkpt><trkpt lat="44.8531122" lon="9.7861957"><ele>271.1428571428571</ele><time>2026-03-29T08:16:15.072Z</time></trkpt><trkpt lat="44.8530461" lon="9.7861845"><ele>273.7142857142857</ele><time>2026-03-29T08:16:20.07Z</time></trkpt><trkpt lat="44.8529801" lon="9.7861587"><ele>276.2857142857143</ele><time>2026-03-29T08:16:25.084Z</time></trkpt><trkpt lat="44.8529163" lon="9.7861584"><ele>278.85714285714283</ele><time>2026-03-29T08:16:30.079Z</time></trkpt><trkpt lat="44.8528461" lon="9.7861416"><ele>281.42857142857144</ele><time>2026-03-29T08:16:35.093Z</time></trkpt><trkpt lat="44.8527815" lon="9.7861286"><ele>284.0</ele><time>2026-03-29T08:16:40.069Z</time></trkpt><trkpt lat="44.8527191" lon="9.7861092"><ele>284.0</ele><time>2026-03-29T08:16:45.069Z</time></trkpt><trkpt lat="44.8526475" lon="9.7860931"><ele>284.0</ele><time>2026-03-29T08:16:50.074Z</time></trkpt><trkpt lat="44.8525864" lon="9.7860699"><ele>284.0</ele><time>2026-03-29T08:16:55.085Z</time></trkpt><trkpt lat="44.8525264" lon="9.7860405"><ele>284.0</ele><time>2026-03-29T08:17:00.072Z</time></trkpt><trkpt lat="44.8524641" lon="9.7859872"><ele>284.0</ele><time>2026-03-29T08:17:05.091Z</time></trkpt><trkpt lat="44.8524151" lon="9.7859234"><ele>284.0</ele><time>2026-03-29T08:17:10.082Z</time></trkpt><trkpt lat="44.8523874" lon="9.7858368"><ele>284.0</ele><time>2026-03-29T08:17:16.097Z</time></trkpt><trkpt lat="44.8523679" lon="9.7857408"><ele>283.42857142857144</ele><time>2026-03-29T08:17:21.084Z</time></trkpt><trkpt lat="44.85232" lon="9.7856673"><ele>282.85714285714283</ele><time>2026-03-29T08:17:27.094Z</time></trkpt><trkpt lat="44.8522794" lon="9.7855974"><ele>282.2857142857143</ele><time>2026-03-29T08:17:32.087Z</time></trkpt><trkpt lat="44.8522276" lon="9.785515"><ele>281.7142857142857</ele><time>2026-03-29T08:17:38.082Z</time></trkpt><trkpt lat="44.852184" lon="9.7854455"><ele>281.1428571428571</ele><time>2026-03-29T08:17:42.082Z</time></trkpt><trkpt lat="44.8521409" lon="9.7853744"><ele>280.57142857142856</ele><time>2026-03-29T08:17:47.082Z</time></trkpt><trkpt lat="44.8520949" lon="9.7852941"><ele>280.0</ele><time>2026-03-29T08:17:52.071Z</time></trkpt><trkpt lat="44.8520664" lon="9.7852024"><ele>278.7142857142857</ele><time>2026-03-29T08:17:58.088Z</time></trkpt><trkpt lat="44.8520471" lon="9.7851089"><ele>277.42857142857144</ele><time>2026-03-29T08:18:04.097Z</time></trkpt><trkpt lat="44.8520281" lon="9.7850056"><ele>276.1428571428571</ele><time>2026-03-29T08:18:09.083Z</time></trkpt><trkpt lat="44.852003" lon="9.7849101"><ele>274.8571428571429</ele><time>2026-03-29T08:18:14.077Z</time></trkpt><trkpt lat="44.8519799" lon="9.784824"><ele>273.57142857142856</ele><time>2026-03-29T08:18:19.048Z</time></trkpt><trkpt lat="44.8519738" lon="9.7847266"><ele>272.2857142857143</ele><time>2026-03-29T08:18:23.075Z</time></trkpt><trkpt lat="44.8519617" lon="9.7846294"><ele>271.0</ele><time>2026-03-29T08:18:28.099Z</time></trkpt><trkpt lat="44.8519648" lon="9.7845366"><ele>271.0</ele><time>2026-03-29T08:18:32.062Z</time></trkpt><trkpt lat="44.8519647" lon="9.7844375"><ele>271.0</ele><time>2026-03-29T08:18:36.072Z</time></trkpt><trkpt lat="44.851941" lon="9.7843472"><ele>271.0</ele><time>2026-03-29T08:18:40.078Z</time></trkpt><trkpt lat="44.8519015" lon="9.7842582"><ele>271.0</ele><time>2026-03-29T08:18:45.082Z</time></trkpt><trkpt lat="44.8518569" lon="9.7841944"><ele>271.0</ele><time>2026-03-29T08:18:49.088Z</time></trkpt><trkpt lat="44.8517993" lon="9.7841229"><ele>271.0</ele><time>2026-03-29T08:18:54.063Z</time></trkpt><trkpt lat="44.8517308" lon="9.7840647"><ele>271.0</ele><time>2026-03-29T08:18:59.086Z</time></trkpt><trkpt lat="44.8516589" lon="9.7840263"><ele>273.2857142857143</ele><time>2026-03-29T08:19:04.094Z</time></trkpt><trkpt lat="44.8516036" lon="9.7840688"><ele>275.57142857142856</ele><time>2026-03-29T08:19:10.086Z</time></trkpt><trkpt lat="44.8516304" lon="9.784161"><ele>277.8571428571429</ele><time>2026-03-29T08:19:15.082Z</time></trkpt><trkpt lat="44.8516715" lon="9.7842397"><ele>280.1428571428571</ele><time>2026-03-29T08:19:20.094Z</time></trkpt><trkpt lat="44.8516857" lon="9.7843387"><ele>282.42857142857144</ele><time>2026-03-29T08:19:26.091Z</time></trkpt><trkpt lat="44.8516692" lon="9.7844304"><ele>284.7142857142857</ele><time>2026-03-29T08:19:31.089Z</time></trkpt><trkpt lat="44.8516422" lon="9.7845142"><ele>287.0</ele><time>2026-03-29T08:19:36.085Z</time></trkpt><trkpt lat="44.8515991" lon="9.7845945"><ele>288.42857142857144</ele><time>2026-03-29T08:19:42.099Z</time></trkpt><trkpt lat="44.8515504" lon="9.7846561"><ele>289.8571428571429</ele><time>2026-03-29T08:19:47.099Z</time></trkpt><trkpt lat="44.8514964" lon="9.7846059"><ele>291.2857142857143</ele><time>2026-03-29T08:20:51.098Z</time></trkpt><trkpt lat="44.8514934" lon="9.7845062"><ele>292.7142857142857</ele><time>2026-03-29T08:21:00.086Z</time></trkpt><trkpt lat="44.8514593" lon="9.7844164"><ele>294.14285714285717</ele><time>2026-03-29T08:21:07.079Z</time></trkpt><trkpt lat="44.8513898" lon="9.7843848"><ele>295.57142857142856</ele><time>2026-03-29T08:21:15.086Z</time></trkpt><trkpt lat="44.8513418" lon="9.7844424"><ele>297.0</ele><time>2026-03-29T08:21:23.094Z</time></trkpt><trkpt lat="44.8513099" lon="9.7845305"><ele>297.0</ele><time>2026-03-29T08:21:31.08Z</time></trkpt><trkpt lat="44.8512617" lon="9.7846007"><ele>297.0</ele><time>2026-03-29T08:22:30.086Z</time></trkpt><trkpt lat="44.8511947" lon="9.7846296"><ele>297.0</ele><time>2026-03-29T08:22:45.078Z</time></trkpt><trkpt lat="44.8511395" lon="9.7846828"><ele>297.0</ele><time>2026-03-29T08:22:52.078Z</time></trkpt><trkpt lat="44.8510749" lon="9.7847132"><ele>297.0</ele><time>2026-03-29T08:22:59.092Z</time></trkpt><trkpt lat="44.851012" lon="9.7847375"><ele>297.0</ele><time>2026-03-29T08:23:06.079Z</time></trkpt><trkpt lat="44.8509422" lon="9.7847458"><ele>297.0</ele><time>2026-03-29T08:23:15.081Z</time></trkpt><trkpt lat="44.850879" lon="9.7847799"><ele>299.14285714285717</ele><time>2026-03-29T08:23:21.088Z</time></trkpt><trkpt lat="44.8508162" lon="9.7848101"><ele>301.28571428571433</ele><time>2026-03-29T08:23:28.075Z</time></trkpt><trkpt lat="44.8507541" lon="9.7848385"><ele>303.42857142857144</ele><time>2026-03-29T08:23:35.094Z</time></trkpt><trkpt lat="44.8506905" lon="9.7848742"><ele>305.57142857142856</ele><time>2026-03-29T08:23:43.078Z</time></trkpt><trkpt lat="44.8506208" lon="9.784903"><ele>307.71428571428567</ele><time>2026-03-29T08:24:38.077Z</time></trkpt><trkpt lat="44.8505652" lon="9.7849605"><ele>309.8571428571429</ele><time>2026-03-29T08:24:46.088Z</time></trkpt><trkpt lat="44.8505054" lon="9.785028"><ele>312.0</ele><time>2026-03-29T08:25:39.084Z</time></trkpt><trkpt lat="44.850452" lon="9.7850829"><ele>312.0</ele><time>2026-03-29T08:26:25.082Z</time></trkpt><trkpt lat="44.8503884" lon="9.785117"><ele>312.0</ele><time>2026-03-29T08:26:34.087Z</time></trkpt><trkpt lat="44.8503262" lon="9.7851555"><ele>312.0</ele><time>2026-03-29T08:26:42.071Z</time></trkpt><trkpt lat="44.8502725" lon="9.7852022"><ele>312.0</ele><time>2026-03-29T08:26:50.1Z</time></trkpt><trkpt lat="44.8502254" lon="9.7852692"><ele>312.0</ele><time>2026-03-29T08:26:57.092Z</time></trkpt><trkpt lat="44.8501801" lon="9.7853399"><ele>312.0</ele><time>2026-03-29T08:27:13.09Z</time></trkpt><trkpt lat="44.8501301" lon="9.7854047"><ele>312.0</ele><time>2026-03-29T08:27:19.087Z</time></trkpt><trkpt lat="44.8500829" lon="9.7854685"><ele>313.42857142857144</ele><time>2026-03-29T08:27:27.096Z</time></trkpt><trkpt lat="44.85003" lon="9.7855305"><ele>314.85714285714283</ele><time>2026-03-29T08:27:36.089Z</time></trkpt><trkpt lat="44.8499732" lon="9.7855727"><ele>316.2857142857143</ele><time>2026-03-29T08:27:44.086Z</time></trkpt><trkpt lat="44.8499144" lon="9.7856226"><ele>317.7142857142857</ele><time>2026-03-29T08:27:52.09Z</time></trkpt><trkpt lat="44.8498509" lon="9.785668"><ele>319.1428571428571</ele><time>2026-03-29T08:28:04.09Z</time></trkpt><trkpt lat="44.8497866" lon="9.7856943"><ele>320.57142857142856</ele><time>2026-03-29T08:28:10.083Z</time></trkpt><trkpt lat="44.8497302" lon="9.7857357"><ele>322.0</ele><time>2026-03-29T08:28:26.094Z</time></trkpt><trkpt lat="44.8496614" lon="9.7857554"><ele>322.0</ele><time>2026-03-29T08:28:41.091Z</time></trkpt><trkpt lat="44.8495903" lon="9.7857543"><ele>322.0</ele><time>2026-03-29T08:28:49.086Z</time></trkpt><trkpt lat="44.8495174" lon="9.785695"><ele>322.0</ele><time>2026-03-29T08:29:05.077Z</time></trkpt><trkpt lat="44.8494629" lon="9.7856403"><ele>322.0</ele><time>2026-03-29T08:29:07.095Z</time></trkpt><trkpt lat="44.8493863" lon="9.7855763"><ele>322.0</ele><time>2026-03-29T08:29:09.116Z</time></trkpt><trkpt lat="44.8493111" lon="9.7855684"><ele>322.0</ele><time>2026-03-29T08:29:12.099Z</time></trkpt><trkpt lat="44.8492403" lon="9.7855837"><ele>322.42857142857144</ele><time>2026-03-29T08:29:17.09Z</time></trkpt><trkpt lat="44.8491656" lon="9.7855881"><ele>322.8571428571429</ele><time>2026-03-29T08:29:22.088Z</time></trkpt><trkpt lat="44.8490918" lon="9.7855849"><ele>323.2857142857143</ele><time>2026-03-29T08:29:27.074Z</time></trkpt><trkpt lat="44.8490204" lon="9.7855884"><ele>323.7142857142857</ele><time>2026-03-29T08:29:32.082Z</time></trkpt><trkpt lat="44.8489513" lon="9.7855886"><ele>324.14285714285717</ele><time>2026-03-29T08:29:37.09Z</time></trkpt><trkpt lat="44.8488834" lon="9.7855822"><ele>324.57142857142856</ele><time>2026-03-29T08:29:42.087Z</time></trkpt><trkpt lat="44.8488144" lon="9.7855857"><ele>325.0</ele><time>2026-03-29T08:29:47.075Z</time></trkpt><trkpt lat="44.8487481" lon="9.7855821"><ele>325.0</ele><time>2026-03-29T08:29:52.079Z</time></trkpt><trkpt lat="44.8486792" lon="9.7855911"><ele>325.0</ele><time>2026-03-29T08:29:57.074Z</time></trkpt><trkpt lat="44.8486045" lon="9.7855958"><ele>325.0</ele><time>2026-03-29T08:30:02.081Z</time></trkpt><trkpt lat="44.8485449" lon="9.7856518"><ele>325.0</ele><time>2026-03-29T08:30:07.099Z</time></trkpt><trkpt lat="44.8485195" lon="9.7857374"><ele>325.0</ele><time>2026-03-29T08:30:11.078Z</time></trkpt><trkpt lat="44.8484624" lon="9.7858084"><ele>325.0</ele><time>2026-03-29T08:30:16.083Z</time></trkpt><trkpt lat="44.8484176" lon="9.7857246"><ele>325.0</ele><time>2026-03-29T08:30:21.096Z</time></trkpt><trkpt lat="44.8483777" lon="9.7856512"><ele>326.7142857142857</ele><time>2026-03-29T08:30:24.086Z</time></trkpt><trkpt lat="44.8483228" lon="9.7855705"><ele>328.42857142857144</ele><time>2026-03-29T08:30:27.095Z</time></trkpt><trkpt lat="44.8482697" lon="9.785511"><ele>330.14285714285717</ele><time>2026-03-29T08:30:31.081Z</time></trkpt><trkpt lat="44.8482141" lon="9.7854607"><ele>331.8571428571429</ele><time>2026-03-29T08:30:36.093Z</time></trkpt><trkpt lat="44.8481509" lon="9.7854078"><ele>333.57142857142856</ele><time>2026-03-29T08:30:41.086Z</time></trkpt><trkpt lat="44.8480902" lon="9.7853489"><ele>335.28571428571433</ele><time>2026-03-29T08:30:46.085Z</time></trkpt><trkpt lat="44.8480296" lon="9.7852937"><ele>337.0</ele><time>2026-03-29T08:30:50.092Z</time></trkpt><trkpt lat="44.8479611" lon="9.7852587"><ele>337.00000000000006</ele><time>2026-03-29T08:30:54.092Z</time></trkpt><trkpt lat="44.8478943" lon="9.7852519"><ele>337.0</ele><time>2026-03-29T08:30:57.088Z</time></trkpt><trkpt lat="44.8478198" lon="9.7852507"><ele>337.0</ele><time>2026-03-29T08:31:01.073Z</time></trkpt><trkpt lat="44.8477446" lon="9.7852651"><ele>337.0</ele><time>2026-03-29T08:31:06.075Z</time></trkpt><trkpt lat="44.8476737" lon="9.7852866"><ele>337.0</ele><time>2026-03-29T08:31:10.088Z</time></trkpt><trkpt lat="44.8476054" lon="9.7853224"><ele>337.00000000000006</ele><time>2026-03-29T08:31:14.091Z</time></trkpt><trkpt lat="44.8475419" lon="9.7853556"><ele>337.0</ele><time>2026-03-29T08:31:18.084Z</time></trkpt><trkpt lat="44.8474678" lon="9.7853835"><ele>337.16666666666663</ele><time>2026-03-29T08:31:23.09Z</time></trkpt><trkpt lat="44.8473901" lon="9.7853961"><ele>337.3333333333333</ele><time>2026-03-29T08:31:27.073Z</time></trkpt><trkpt lat="44.8473183" lon="9.7853952"><ele>337.5</ele><time>2026-03-29T08:31:31.093Z</time></trkpt><trkpt lat="44.8472347" lon="9.7853799"><ele>337.6666666666667</ele><time>2026-03-29T08:31:35.082Z</time></trkpt><trkpt lat="44.8471615" lon="9.7853745"><ele>337.83333333333337</ele><time>2026-03-29T08:31:38.086Z</time></trkpt><trkpt lat="44.8470877" lon="9.7853742"><ele>338.0</ele><time>2026-03-29T08:31:41.088Z</time></trkpt><trkpt lat="44.8470192" lon="9.7853716"><ele>338.0</ele><time>2026-03-29T08:31:45.093Z</time></trkpt><trkpt lat="44.8469542" lon="9.7853591"><ele>338.0</ele><time>2026-03-29T08:31:49.087Z</time></trkpt><trkpt lat="44.8468847" lon="9.7853768"><ele>338.0</ele><time>2026-03-29T08:31:55.089Z</time></trkpt><trkpt lat="44.8468095" lon="9.7853711"><ele>338.0</ele><time>2026-03-29T08:32:00.075Z</time></trkpt><trkpt lat="44.8467437" lon="9.7853581"><ele>338.0</ele><time>2026-03-29T08:32:05.095Z</time></trkpt><trkpt lat="44.8466851" lon="9.7853094"><ele>338.0</ele><time>2026-03-29T08:32:09.092Z</time></trkpt><trkpt lat="44.8466209" lon="9.7852633"><ele>338.0</ele><time>2026-03-29T08:32:13.089Z</time></trkpt><trkpt lat="44.8465649" lon="9.785198"><ele>337.42857142857144</ele><time>2026-03-29T08:32:17.079Z</time></trkpt><trkpt lat="44.8465106" lon="9.785153"><ele>336.85714285714283</ele><time>2026-03-29T08:32:21.105Z</time></trkpt><trkpt lat="44.8464567" lon="9.785105"><ele>336.2857142857143</ele><time>2026-03-29T08:32:25.103Z</time></trkpt><trkpt lat="44.8463938" lon="9.7850476"><ele>335.7142857142857</ele><time>2026-03-29T08:32:30.092Z</time></trkpt><trkpt lat="44.8463373" lon="9.7850001"><ele>335.14285714285717</ele><time>2026-03-29T08:32:34.036Z</time></trkpt><trkpt lat="44.8462812" lon="9.784935"><ele>334.57142857142856</ele><time>2026-03-29T08:32:39.102Z</time></trkpt><trkpt lat="44.8462198" lon="9.7848885"><ele>334.0</ele><time>2026-03-29T08:32:44.054Z</time></trkpt><trkpt lat="44.8461499" lon="9.7848365"><ele>334.0</ele><time>2026-03-29T08:32:49.085Z</time></trkpt><trkpt lat="44.8460841" lon="9.784787"><ele>334.0</ele><time>2026-03-29T08:32:52.086Z</time></trkpt><trkpt lat="44.8460209" lon="9.784733"><ele>334.0</ele><time>2026-03-29T08:32:55.103Z</time></trkpt><trkpt lat="44.8459511" lon="9.784705"><ele>334.0</ele><time>2026-03-29T08:32:59.1Z</time></trkpt><trkpt lat="44.8458851" lon="9.7846735"><ele>334.0</ele><time>2026-03-29T08:33:03.089Z</time></trkpt><trkpt lat="44.845817" lon="9.7846433"><ele>334.0</ele><time>2026-03-29T08:33:07.091Z</time></trkpt><trkpt lat="44.8457501" lon="9.7846541"><ele>334.0</ele><time>2026-03-29T08:33:13.077Z</time></trkpt><trkpt lat="44.8456809" lon="9.7846811"><ele>333.8333333333333</ele><time>2026-03-29T08:33:19.071Z</time></trkpt><trkpt lat="44.8456274" lon="9.7847299"><ele>333.66666666666663</ele><time>2026-03-29T08:33:25.084Z</time></trkpt><trkpt lat="44.8455486" lon="9.7847378"><ele>333.5</ele><time>2026-03-29T08:33:28.084Z</time></trkpt><trkpt lat="44.8454787" lon="9.7847308"><ele>333.3333333333333</ele><time>2026-03-29T08:33:30.096Z</time></trkpt><trkpt lat="44.8453877" lon="9.7847064"><ele>333.1666666666667</ele><time>2026-03-29T08:33:32.119Z</time></trkpt><trkpt lat="44.8452972" lon="9.7846546"><ele>333.0</ele><time>2026-03-29T08:33:34.087Z</time></trkpt><trkpt lat="44.8452132" lon="9.7845984"><ele>333.59999999999997</ele><time>2026-03-29T08:33:36.087Z</time></trkpt><trkpt lat="44.8451173" lon="9.7845816"><ele>334.2</ele><time>2026-03-29T08:33:38.085Z</time></trkpt><trkpt lat="44.8450031" lon="9.7845986"><ele>334.8</ele><time>2026-03-29T08:33:40.091Z</time></trkpt><trkpt lat="44.8448872" lon="9.7846376"><ele>335.4</ele><time>2026-03-29T08:33:42.086Z</time></trkpt><trkpt lat="44.8448241" lon="9.7846531"><ele>336.0</ele><time>2026-03-29T08:33:43.085Z</time></trkpt><trkpt lat="44.8447599" lon="9.7846692"><ele>336.0</ele><time>2026-03-29T08:33:44.078Z</time></trkpt><trkpt lat="44.8446966" lon="9.7846858"><ele>336.0</ele><time>2026-03-29T08:33:45.083Z</time></trkpt><trkpt lat="44.8446334" lon="9.7847042"><ele>336.0</ele><time>2026-03-29T08:33:46.089Z</time></trkpt><trkpt lat="44.8445659" lon="9.7847112"><ele>336.0</ele><time>2026-03-29T08:33:47.083Z</time></trkpt><trkpt lat="44.8444978" lon="9.7847216"><ele>336.0</ele><time>2026-03-29T08:33:48.094Z</time></trkpt><trkpt lat="44.8444294" lon="9.7847295"><ele>336.0</ele><time>2026-03-29T08:33:49.098Z</time></trkpt><trkpt lat="44.8443055" lon="9.7847418"><ele>336.25</ele><time>2026-03-29T08:33:51.101Z</time></trkpt><trkpt lat="44.8441891" lon="9.7847731"><ele>336.5</ele><time>2026-03-29T08:33:53.09Z</time></trkpt><trkpt lat="44.8440768" lon="9.7848248"><ele>336.75</ele><time>2026-03-29T08:33:55.095Z</time></trkpt><trkpt lat="44.8439745" lon="9.7848883"><ele>337.0</ele><time>2026-03-29T08:33:57.085Z</time></trkpt><trkpt lat="44.843872" lon="9.7849584"><ele>337.0</ele><time>2026-03-29T08:33:59.082Z</time></trkpt><trkpt lat="44.843774" lon="9.7850264"><ele>337.0</ele><time>2026-03-29T08:34:01.077Z</time></trkpt><trkpt lat="44.8436715" lon="9.785082"><ele>337.0</ele><time>2026-03-29T08:34:03.074Z</time></trkpt><trkpt lat="44.8435618" lon="9.7850797"><ele>337.0</ele><time>2026-03-29T08:34:05.087Z</time></trkpt><trkpt lat="44.8434636" lon="9.7850452"><ele>337.0</ele><time>2026-03-29T08:34:07.05Z</time></trkpt><trkpt lat="44.8433751" lon="9.7850075"><ele>336.5714285714286</ele><time>2026-03-29T08:34:09.082Z</time></trkpt><trkpt lat="44.8433082" lon="9.7849886"><ele>336.14285714285717</ele><time>2026-03-29T08:34:11.097Z</time></trkpt><trkpt lat="44.8432458" lon="9.784967"><ele>335.7142857142857</ele><time>2026-03-29T08:34:14.075Z</time></trkpt><trkpt lat="44.8431762" lon="9.784943"><ele>335.28571428571433</ele><time>2026-03-29T08:34:17.065Z</time></trkpt><trkpt lat="44.8431019" lon="9.7849119"><ele>334.8571428571429</ele><time>2026-03-29T08:34:21.092Z</time></trkpt><trkpt lat="44.8430408" lon="9.7848871"><ele>334.42857142857144</ele><time>2026-03-29T08:34:24.053Z</time></trkpt><trkpt lat="44.842968" lon="9.7848568"><ele>334.0</ele><time>2026-03-29T08:34:28.083Z</time></trkpt><trkpt lat="44.8429041" lon="9.7848338"><ele>334.0</ele><time>2026-03-29T08:34:31.048Z</time></trkpt><trkpt lat="44.8428277" lon="9.7847956"><ele>334.0</ele><time>2026-03-29T08:34:35.09Z</time></trkpt><trkpt lat="44.8427495" lon="9.7847631"><ele>334.0</ele><time>2026-03-29T08:34:39.092Z</time></trkpt><trkpt lat="44.8426811" lon="9.7847336"><ele>334.0</ele><time>2026-03-29T08:34:43.087Z</time></trkpt><trkpt lat="44.8426125" lon="9.7846991"><ele>334.0</ele><time>2026-03-29T08:34:47.088Z</time></trkpt><trkpt lat="44.842544" lon="9.7846731"><ele>334.0</ele><time>2026-03-29T08:34:51.077Z</time></trkpt><trkpt lat="44.8424828" lon="9.7846401"><ele>334.0</ele><time>2026-03-29T08:34:55.094Z</time></trkpt><trkpt lat="44.8424454" lon="9.7845639"><ele>334.3333333333333</ele><time>2026-03-29T08:34:59.094Z</time></trkpt><trkpt lat="44.8423995" lon="9.7844732"><ele>334.66666666666663</ele><time>2026-03-29T08:35:03.09Z</time></trkpt><trkpt lat="44.8423797" lon="9.7843681"><ele>335.0</ele><time>2026-03-29T08:35:07.074Z</time></trkpt><trkpt lat="44.8423682" lon="9.7842457"><ele>335.3333333333333</ele><time>2026-03-29T08:35:11.09Z</time></trkpt><trkpt lat="44.8423406" lon="9.7841581"><ele>335.6666666666667</ele><time>2026-03-29T08:35:14.095Z</time></trkpt><trkpt lat="44.8423027" lon="9.7840653"><ele>336.0</ele><time>2026-03-29T08:35:17.042Z</time></trkpt><trkpt lat="44.842237" lon="9.7840046"><ele>336.2857142857143</ele><time>2026-03-29T08:35:20.071Z</time></trkpt><trkpt lat="44.8421674" lon="9.7839691"><ele>336.57142857142856</ele><time>2026-03-29T08:35:23.07Z</time></trkpt><trkpt lat="44.8420961" lon="9.7839803"><ele>336.8571428571429</ele><time>2026-03-29T08:35:26.104Z</time></trkpt><trkpt lat="44.842035" lon="9.7840097"><ele>337.1428571428571</ele><time>2026-03-29T08:35:29.09Z</time></trkpt><trkpt lat="44.8419738" lon="9.7840512"><ele>337.42857142857144</ele><time>2026-03-29T08:35:33.098Z</time></trkpt><trkpt lat="44.8419095" lon="9.7841085"><ele>337.7142857142857</ele><time>2026-03-29T08:35:38.074Z</time></trkpt><trkpt lat="44.8418427" lon="9.7841719"><ele>338.0</ele><time>2026-03-29T08:35:43.093Z</time></trkpt><trkpt lat="44.8417801" lon="9.7842297"><ele>338.8571428571429</ele><time>2026-03-29T08:35:47.076Z</time></trkpt><trkpt lat="44.8417081" lon="9.7842872"><ele>339.7142857142857</ele><time>2026-03-29T08:35:51.078Z</time></trkpt><trkpt lat="44.84164" lon="9.7843347"><ele>340.57142857142856</ele><time>2026-03-29T08:35:56.081Z</time></trkpt><trkpt lat="44.8415781" lon="9.7843871"><ele>341.42857142857144</ele><time>2026-03-29T08:36:01.101Z</time></trkpt><trkpt lat="44.8415144" lon="9.7844374"><ele>342.2857142857143</ele><time>2026-03-29T08:36:05.078Z</time></trkpt><trkpt lat="44.8414459" lon="9.784484"><ele>343.14285714285717</ele><time>2026-03-29T08:36:09.088Z</time></trkpt><trkpt lat="44.8413862" lon="9.7845262"><ele>344.0</ele><time>2026-03-29T08:36:13.089Z</time></trkpt><trkpt lat="44.841321" lon="9.7845509"><ele>344.14285714285717</ele><time>2026-03-29T08:36:17.072Z</time></trkpt><trkpt lat="44.841258" lon="9.7845751"><ele>344.2857142857143</ele><time>2026-03-29T08:36:21.095Z</time></trkpt><trkpt lat="44.8411893" lon="9.7845856"><ele>344.42857142857144</ele><time>2026-03-29T08:36:25.073Z</time></trkpt><trkpt lat="44.8411219" lon="9.7846175"><ele>344.57142857142856</ele><time>2026-03-29T08:36:30.077Z</time></trkpt><trkpt lat="44.8410541" lon="9.7846148"><ele>344.7142857142857</ele><time>2026-03-29T08:36:35.084Z</time></trkpt><trkpt lat="44.8409809" lon="9.784607"><ele>344.8571428571429</ele><time>2026-03-29T08:36:40.085Z</time></trkpt><trkpt lat="44.8409135" lon="9.7845801"><ele>345.0</ele><time>2026-03-29T08:36:45.066Z</time></trkpt><trkpt lat="44.8408468" lon="9.7845535"><ele>346.42857142857144</ele><time>2026-03-29T08:36:50.098Z</time></trkpt><trkpt lat="44.8407823" lon="9.7845204"><ele>347.85714285714283</ele><time>2026-03-29T08:36:55.082Z</time></trkpt><trkpt lat="44.8407119" lon="9.7844897"><ele>349.2857142857143</ele><time>2026-03-29T08:37:00.094Z</time></trkpt><trkpt lat="44.8406438" lon="9.7844896"><ele>350.7142857142857</ele><time>2026-03-29T08:37:05.087Z</time></trkpt><trkpt lat="44.8405783" lon="9.784478"><ele>352.14285714285717</ele><time>2026-03-29T08:37:10.083Z</time></trkpt><trkpt lat="44.8405057" lon="9.7844682"><ele>353.57142857142856</ele><time>2026-03-29T08:37:15.077Z</time></trkpt><trkpt lat="44.8404334" lon="9.7844721"><ele>355.0</ele><time>2026-03-29T08:37:20.082Z</time></trkpt><trkpt lat="44.8403586" lon="9.784465"><ele>355.0</ele><time>2026-03-29T08:37:25.077Z</time></trkpt><trkpt lat="44.8402999" lon="9.784427"><ele>355.0</ele><time>2026-03-29T08:37:29.084Z</time></trkpt><trkpt lat="44.8402341" lon="9.7843749"><ele>355.0</ele><time>2026-03-29T08:37:35.101Z</time></trkpt><trkpt lat="44.8401803" lon="9.7843023"><ele>355.0</ele><time>2026-03-29T08:37:40.099Z</time></trkpt><trkpt lat="44.8401364" lon="9.7842327"><ele>355.0</ele><time>2026-03-29T08:37:44.085Z</time></trkpt><trkpt lat="44.8400882" lon="9.7841485"><ele>355.0</ele><time>2026-03-29T08:37:49.1Z</time></trkpt><trkpt lat="44.840046" lon="9.7840791"><ele>355.0</ele><time>2026-03-29T08:37:53.079Z</time></trkpt><trkpt lat="44.8400002" lon="9.7839999"><ele>356.66666666666663</ele><time>2026-03-29T08:37:58.082Z</time></trkpt><trkpt lat="44.8399811" lon="9.7839085"><ele>358.3333333333333</ele><time>2026-03-29T08:38:02.099Z</time></trkpt><trkpt lat="44.8399764" lon="9.783782"><ele>360.0</ele><time>2026-03-29T08:38:05.099Z</time></trkpt><trkpt lat="44.8399787" lon="9.7836777"><ele>361.6666666666667</ele><time>2026-03-29T08:38:07.092Z</time></trkpt><trkpt lat="44.8399932" lon="9.7835631"><ele>363.33333333333337</ele><time>2026-03-29T08:38:09.091Z</time></trkpt><trkpt lat="44.8400078" lon="9.7834545"><ele>365.0</ele><time>2026-03-29T08:38:11.072Z</time></trkpt><trkpt lat="44.8400232" lon="9.7833487"><ele>365.0</ele><time>2026-03-29T08:38:13.092Z</time></trkpt><trkpt lat="44.8400367" lon="9.7832349"><ele>365.0</ele><time>2026-03-29T08:38:15.091Z</time></trkpt><trkpt lat="44.8400929" lon="9.7831287"><ele>365.0</ele><time>2026-03-29T08:38:18.082Z</time></trkpt><trkpt lat="44.8401529" lon="9.7830376"><ele>365.0</ele><time>2026-03-29T08:38:21.097Z</time></trkpt><trkpt lat="44.8401929" lon="9.7829426"><ele>365.0</ele><time>2026-03-29T08:38:24.086Z</time></trkpt><trkpt lat="44.8401706" lon="9.7828442"><ele>365.0</ele><time>2026-03-29T08:38:28.132Z</time></trkpt><trkpt lat="44.8401034" lon="9.7827862"><ele>365.0</ele><time>2026-03-29T08:38:32.1Z</time></trkpt><trkpt lat="44.8400541" lon="9.7827034"><ele>365.0</ele><time>2026-03-29T08:38:36.097Z</time></trkpt><trkpt lat="44.8400374" lon="9.7825987"><ele>365.0</ele><time>2026-03-29T08:38:39.085Z</time></trkpt><trkpt lat="44.840062" lon="9.7824972"><ele>365.0</ele><time>2026-03-29T08:38:41.088Z</time></trkpt><trkpt lat="44.8400926" lon="9.7824008"><ele>365.0</ele><time>2026-03-29T08:38:43.095Z</time></trkpt><trkpt lat="44.8401296" lon="9.782317"><ele>365.0</ele><time>2026-03-29T08:38:46.083Z</time></trkpt><trkpt lat="44.8401771" lon="9.7822267"><ele>364.7142857142857</ele><time>2026-03-29T08:38:49.089Z</time></trkpt><trkpt lat="44.8402198" lon="9.7821405"><ele>364.42857142857144</ele><time>2026-03-29T08:38:53.097Z</time></trkpt><trkpt lat="44.8402398" lon="9.7820491"><ele>364.1428571428571</ele><time>2026-03-29T08:38:56.105Z</time></trkpt><trkpt lat="44.8402329" lon="9.7819483"><ele>363.8571428571429</ele><time>2026-03-29T08:38:59.084Z</time></trkpt><trkpt lat="44.8401722" lon="9.7818876"><ele>363.57142857142856</ele><time>2026-03-29T08:39:03.094Z</time></trkpt><trkpt lat="44.8400988" lon="9.7818584"><ele>363.2857142857143</ele><time>2026-03-29T08:39:07.086Z</time></trkpt><trkpt lat="44.8400235" lon="9.7818346"><ele>363.0</ele><time>2026-03-29T08:39:11.089Z</time></trkpt><trkpt lat="44.8399588" lon="9.7817921"><ele>362.99999999999994</ele><time>2026-03-29T08:39:16.108Z</time></trkpt><trkpt lat="44.8399126" lon="9.7817157"><ele>363.0</ele><time>2026-03-29T08:39:21.091Z</time></trkpt><trkpt lat="44.839884" lon="9.7816254"><ele>363.0</ele><time>2026-03-29T08:39:25.097Z</time></trkpt><trkpt lat="44.8398387" lon="9.7815357"><ele>363.0</ele><time>2026-03-29T08:39:29.093Z</time></trkpt><trkpt lat="44.8398114" lon="9.7814496"><ele>363.0</ele><time>2026-03-29T08:39:33.088Z</time></trkpt><trkpt lat="44.8397633" lon="9.7813816"><ele>362.99999999999994</ele><time>2026-03-29T08:39:37.107Z</time></trkpt><trkpt lat="44.8397241" lon="9.7812928"><ele>363.0</ele><time>2026-03-29T08:39:42.094Z</time></trkpt><trkpt lat="44.8397504" lon="9.7812116"><ele>362.99999999999994</ele><time>2026-03-29T08:39:46.077Z</time></trkpt><trkpt lat="44.8398147" lon="9.7811664"><ele>363.0</ele><time>2026-03-29T08:39:51.071Z</time></trkpt><trkpt lat="44.8398694" lon="9.78111"><ele>363.0</ele><time>2026-03-29T08:39:54.103Z</time></trkpt><trkpt lat="44.8398983" lon="9.7809988"><ele>363.0</ele><time>2026-03-29T08:39:58.077Z</time></trkpt><trkpt lat="44.8399303" lon="9.7809197"><ele>363.0</ele><time>2026-03-29T08:40:00.092Z</time></trkpt><trkpt lat="44.8399652" lon="9.7808411"><ele>362.99999999999994</ele><time>2026-03-29T08:40:02.093Z</time></trkpt><trkpt lat="44.8400026" lon="9.7807649"><ele>363.0</ele><time>2026-03-29T08:40:04.091Z</time></trkpt><trkpt lat="44.840047" lon="9.7806936"><ele>361.5</ele><time>2026-03-29T08:40:06.094Z</time></trkpt><trkpt lat="44.8400883" lon="9.7806051"><ele>360.0</ele><time>2026-03-29T08:40:08.1Z</time></trkpt><trkpt lat="44.8401383" lon="9.7805152"><ele>358.5</ele><time>2026-03-29T08:40:10.096Z</time></trkpt><trkpt lat="44.8401914" lon="9.7804343"><ele>357.0</ele><time>2026-03-29T08:40:12.096Z</time></trkpt><trkpt lat="44.8402477" lon="9.7803522"><ele>355.5</ele><time>2026-03-29T08:40:14.103Z</time></trkpt><trkpt lat="44.8402944" lon="9.7802473"><ele>354.0</ele><time>2026-03-29T08:40:16.086Z</time></trkpt><trkpt lat="44.8403463" lon="9.7801536"><ele>352.5</ele><time>2026-03-29T08:40:18.099Z</time></trkpt><trkpt lat="44.8403819" lon="9.7800453"><ele>351.0</ele><time>2026-03-29T08:40:20.087Z</time></trkpt><trkpt lat="44.8404387" lon="9.779954"><ele>349.5</ele><time>2026-03-29T08:40:22.079Z</time></trkpt><trkpt lat="44.8405079" lon="9.7798772"><ele>348.0</ele><time>2026-03-29T08:40:24.079Z</time></trkpt><trkpt lat="44.8405873" lon="9.779831"><ele>346.5</ele><time>2026-03-29T08:40:26.09Z</time></trkpt><trkpt lat="44.8406566" lon="9.7797711"><ele>345.0</ele><time>2026-03-29T08:40:28.1Z</time></trkpt><trkpt lat="44.8407247" lon="9.7796734"><ele>345.0</ele><time>2026-03-29T08:40:30.088Z</time></trkpt><trkpt lat="44.8407802" lon="9.7795761"><ele>345.0</ele><time>2026-03-29T08:40:32.084Z</time></trkpt><trkpt lat="44.8408226" lon="9.7794777"><ele>345.0</ele><time>2026-03-29T08:40:34.093Z</time></trkpt><trkpt lat="44.8408767" lon="9.7793614"><ele>345.0</ele><time>2026-03-29T08:40:36.095Z</time></trkpt><trkpt lat="44.8409165" lon="9.7792447"><ele>345.0</ele><time>2026-03-29T08:40:38.093Z</time></trkpt><trkpt lat="44.8409668" lon="9.779157"><ele>345.0</ele><time>2026-03-29T08:40:40.089Z</time></trkpt><trkpt lat="44.8410285" lon="9.7790623"><ele>342.1666666666667</ele><time>2026-03-29T08:40:42.086Z</time></trkpt><trkpt lat="44.8410982" lon="9.7789514"><ele>339.3333333333333</ele><time>2026-03-29T08:40:44.086Z</time></trkpt><trkpt lat="44.8411579" lon="9.7789182"><ele>336.5</ele><time>2026-03-29T08:40:46.1Z</time></trkpt><trkpt lat="44.8412336" lon="9.7788913"><ele>333.66666666666663</ele><time>2026-03-29T08:40:49.091Z</time></trkpt><trkpt lat="44.8412927" lon="9.7788348"><ele>330.8333333333333</ele><time>2026-03-29T08:40:52.099Z</time></trkpt><trkpt lat="44.8413561" lon="9.7787855"><ele>328.0</ele><time>2026-03-29T08:40:55.08Z</time></trkpt><trkpt lat="44.841426" lon="9.7787265"><ele>327.99999999999994</ele><time>2026-03-29T08:40:57.093Z</time></trkpt><trkpt lat="44.8414785" lon="9.7786711"><ele>328.0</ele><time>2026-03-29T08:40:59.083Z</time></trkpt><trkpt lat="44.8415257" lon="9.7786071"><ele>328.0</ele><time>2026-03-29T08:41:02.093Z</time></trkpt><trkpt lat="44.8415771" lon="9.778537"><ele>328.0</ele><time>2026-03-29T08:41:05.096Z</time></trkpt><trkpt lat="44.8416457" lon="9.7784739"><ele>328.0</ele><time>2026-03-29T08:41:09.096Z</time></trkpt><trkpt lat="44.8416965" lon="9.7784171"><ele>327.99999999999994</ele><time>2026-03-29T08:41:13.079Z</time></trkpt><trkpt lat="44.8417483" lon="9.7783357"><ele>328.0</ele><time>2026-03-29T08:41:17.065Z</time></trkpt><trkpt lat="44.8418113" lon="9.7783012"><ele>327.71428571428567</ele><time>2026-03-29T08:41:20.089Z</time></trkpt><trkpt lat="44.8418741" lon="9.778312"><ele>327.42857142857144</ele><time>2026-03-29T08:41:34.095Z</time></trkpt><trkpt lat="44.8419051" lon="9.7782153"><ele>327.1428571428571</ele><time>2026-03-29T08:41:39.086Z</time></trkpt><trkpt lat="44.8418792" lon="9.7781309"><ele>326.85714285714283</ele><time>2026-03-29T08:41:43.097Z</time></trkpt><trkpt lat="44.8418553" lon="9.7780245"><ele>326.57142857142856</ele><time>2026-03-29T08:41:48.097Z</time></trkpt><trkpt lat="44.84181" lon="9.7779525"><ele>326.2857142857143</ele><time>2026-03-29T08:41:52.085Z</time></trkpt><trkpt lat="44.8417477" lon="9.7779064"><ele>326.0</ele><time>2026-03-29T08:41:57.09Z</time></trkpt><trkpt lat="44.841689" lon="9.7778386"><ele>326.0</ele><time>2026-03-29T08:42:02.111Z</time></trkpt><trkpt lat="44.8416423" lon="9.7777594"><ele>326.0</ele><time>2026-03-29T08:42:06.095Z</time></trkpt><trkpt lat="44.8416058" lon="9.7776791"><ele>326.0</ele><time>2026-03-29T08:42:10.078Z</time></trkpt><trkpt lat="44.8415517" lon="9.7776142"><ele>326.0</ele><time>2026-03-29T08:42:14.091Z</time></trkpt><trkpt lat="44.8414876" lon="9.7775848"><ele>326.0</ele><time>2026-03-29T08:42:17.084Z</time></trkpt><trkpt lat="44.8414222" lon="9.7775838"><ele>326.0</ele><time>2026-03-29T08:43:17.088Z</time></trkpt><trkpt lat="44.8413603" lon="9.7775631"><ele>326.0</ele><time>2026-03-29T08:43:20.109Z</time></trkpt><trkpt lat="44.8412977" lon="9.777547"><ele>323.0</ele><time>2026-03-29T08:43:23.055Z</time></trkpt><trkpt lat="44.8413014" lon="9.777452"><ele>320.0</ele><time>2026-03-29T08:43:29.075Z</time></trkpt><trkpt lat="44.8413703" lon="9.7773914"><ele>317.0</ele><time>2026-03-29T08:43:33.07Z</time></trkpt><trkpt lat="44.8414115" lon="9.7773128"><ele>314.0</ele><time>2026-03-29T08:43:37.079Z</time></trkpt><trkpt lat="44.8413702" lon="9.7772088"><ele>311.0</ele><time>2026-03-29T08:43:41.07Z</time></trkpt><trkpt lat="44.841321" lon="9.777124"><ele>308.0</ele><time>2026-03-29T08:43:44.079Z</time></trkpt><trkpt lat="44.8412669" lon="9.7770741"><ele>305.0</ele><time>2026-03-29T08:43:47.071Z</time></trkpt><trkpt lat="44.8412013" lon="9.7770614"><ele>305.0</ele><time>2026-03-29T08:43:51.097Z</time></trkpt><trkpt lat="44.8411603" lon="9.7769918"><ele>305.0</ele><time>2026-03-29T08:43:57.081Z</time></trkpt><trkpt lat="44.8412093" lon="9.7769313"><ele>305.0</ele><time>2026-03-29T08:44:02.071Z</time></trkpt><trkpt lat="44.8412652" lon="9.7768768"><ele>305.0</ele><time>2026-03-29T08:44:08.093Z</time></trkpt><trkpt lat="44.8413291" lon="9.7768415"><ele>305.0</ele><time>2026-03-29T08:44:21.082Z</time></trkpt><trkpt lat="44.8413749" lon="9.7767744"><ele>305.0</ele><time>2026-03-29T08:44:27.073Z</time></trkpt><trkpt lat="44.8414169" lon="9.7766514"><ele>305.0</ele><time>2026-03-29T08:44:30.078Z</time></trkpt><trkpt lat="44.8414481" lon="9.7765609"><ele>301.7142857142857</ele><time>2026-03-29T08:44:32.072Z</time></trkpt><trkpt lat="44.8414811" lon="9.7764735"><ele>298.4285714285714</ele><time>2026-03-29T08:44:34.08Z</time></trkpt><trkpt lat="44.8415092" lon="9.7763841"><ele>295.1428571428571</ele><time>2026-03-29T08:44:36.079Z</time></trkpt><trkpt lat="44.8415414" lon="9.7762895"><ele>291.8571428571429</ele><time>2026-03-29T08:44:39.079Z</time></trkpt><trkpt lat="44.8415764" lon="9.7761956"><ele>288.57142857142856</ele><time>2026-03-29T08:44:44.082Z</time></trkpt><trkpt lat="44.8416469" lon="9.7761767"><ele>285.2857142857143</ele><time>2026-03-29T08:44:49.077Z</time></trkpt><trkpt lat="44.8417088" lon="9.7762029"><ele>282.0</ele><time>2026-03-29T08:44:54.078Z</time></trkpt><trkpt lat="44.8417122" lon="9.7762943"><ele>282.0</ele><time>2026-03-29T08:45:29.081Z</time></trkpt><trkpt lat="44.8417604" lon="9.7763701"><ele>282.0</ele><time>2026-03-29T08:45:36.064Z</time></trkpt><trkpt lat="44.841825" lon="9.7764235"><ele>282.0</ele><time>2026-03-29T08:45:53.08Z</time></trkpt><trkpt lat="44.8418893" lon="9.7764372"><ele>282.0</ele><time>2026-03-29T08:45:57.081Z</time></trkpt><trkpt lat="44.8419674" lon="9.7764361"><ele>282.0</ele><time>2026-03-29T08:46:01.083Z</time></trkpt><trkpt lat="44.8420405" lon="9.7763847"><ele>282.0</ele><time>2026-03-29T08:46:04.084Z</time></trkpt><trkpt lat="44.8421347" lon="9.7764049"><ele>280.42857142857144</ele><time>2026-03-29T08:46:07.076Z</time></trkpt><trkpt lat="44.8421921" lon="9.7764642"><ele>278.85714285714283</ele><time>2026-03-29T08:46:09.082Z</time></trkpt><trkpt lat="44.8422466" lon="9.7765385"><ele>277.2857142857143</ele><time>2026-03-29T08:46:12.086Z</time></trkpt><trkpt lat="44.8423028" lon="9.7765915"><ele>275.7142857142857</ele><time>2026-03-29T08:46:14.078Z</time></trkpt><trkpt lat="44.8423495" lon="9.7766648"><ele>274.14285714285717</ele><time>2026-03-29T08:46:16.068Z</time></trkpt><trkpt lat="44.8424235" lon="9.7766466"><ele>272.57142857142856</ele><time>2026-03-29T08:46:19.084Z</time></trkpt><trkpt lat="44.842479" lon="9.7765837"><ele>271.0</ele><time>2026-03-29T08:46:21.076Z</time></trkpt><trkpt lat="44.842526" lon="9.7765149"><ele>271.0</ele><time>2026-03-29T08:46:23.072Z</time></trkpt><trkpt lat="44.8425548" lon="9.7764357"><ele>271.0</ele><time>2026-03-29T08:46:25.085Z</time></trkpt><trkpt lat="44.8425588" lon="9.7763392"><ele>271.0</ele><time>2026-03-29T08:46:27.084Z</time></trkpt><trkpt lat="44.8426081" lon="9.7762441"><ele>271.0</ele><time>2026-03-29T08:46:30.074Z</time></trkpt><trkpt lat="44.8426329" lon="9.7761612"><ele>271.0</ele><time>2026-03-29T08:46:32.081Z</time></trkpt><trkpt lat="44.842718" lon="9.7761597"><ele>271.0</ele><time>2026-03-29T08:46:35.084Z</time></trkpt><trkpt lat="44.8427898" lon="9.776232"><ele>269.1428571428571</ele><time>2026-03-29T08:46:38.074Z</time></trkpt><trkpt lat="44.8428538" lon="9.7762328"><ele>267.2857142857143</ele><time>2026-03-29T08:46:40.078Z</time></trkpt><trkpt lat="44.842904" lon="9.7761615"><ele>265.42857142857144</ele><time>2026-03-29T08:46:42.075Z</time></trkpt><trkpt lat="44.8429551" lon="9.776109"><ele>263.57142857142856</ele><time>2026-03-29T08:46:44.072Z</time></trkpt><trkpt lat="44.84301" lon="9.7760276"><ele>261.7142857142857</ele><time>2026-03-29T08:46:47.07Z</time></trkpt><trkpt lat="44.8430647" lon="9.7759271"><ele>259.85714285714283</ele><time>2026-03-29T08:46:50.095Z</time></trkpt><trkpt lat="44.8431304" lon="9.7759225"><ele>258.0</ele><time>2026-03-29T08:46:53.066Z</time></trkpt><trkpt lat="44.8431911" lon="9.7759711"><ele>257.99999999999994</ele><time>2026-03-29T08:46:57.088Z</time></trkpt><trkpt lat="44.8432492" lon="9.7760107"><ele>258.0</ele><time>2026-03-29T08:47:00.091Z</time></trkpt><trkpt lat="44.8433282" lon="9.7759852"><ele>258.0</ele><time>2026-03-29T08:47:03.08Z</time></trkpt><trkpt lat="44.8434017" lon="9.7760256"><ele>258.0</ele><time>2026-03-29T08:47:06.084Z</time></trkpt><trkpt lat="44.843447" lon="9.7761073"><ele>258.0</ele><time>2026-03-29T08:47:08.091Z</time></trkpt><trkpt lat="44.8434939" lon="9.7762087"><ele>257.99999999999994</ele><time>2026-03-29T08:47:10.09Z</time></trkpt><trkpt lat="44.8435475" lon="9.776262"><ele>258.0</ele><time>2026-03-29T08:47:13.081Z</time></trkpt><trkpt lat="44.8436268" lon="9.776198"><ele>256.8</ele><time>2026-03-29T08:47:16.084Z</time></trkpt><trkpt lat="44.8437046" lon="9.7760989"><ele>255.60000000000002</ele><time>2026-03-29T08:47:18.076Z</time></trkpt><trkpt lat="44.8437648" lon="9.7760158"><ele>254.39999999999998</ele><time>2026-03-29T08:47:21.091Z</time></trkpt><trkpt lat="44.8438351" lon="9.7759248"><ele>253.2</ele><time>2026-03-29T08:47:24.083Z</time></trkpt><trkpt lat="44.843872" lon="9.7758187"><ele>252.0</ele><time>2026-03-29T08:47:26.066Z</time></trkpt><trkpt lat="44.8439202" lon="9.7757195"><ele>250.85714285714286</ele><time>2026-03-29T08:47:29.085Z</time></trkpt><trkpt lat="44.843987" lon="9.775647"><ele>249.71428571428572</ele><time>2026-03-29T08:47:32.09Z</time></trkpt><trkpt lat="44.844028" lon="9.7755584"><ele>248.57142857142856</ele><time>2026-03-29T08:47:35.082Z</time></trkpt><trkpt lat="44.844073" lon="9.7754729"><ele>247.42857142857142</ele><time>2026-03-29T08:47:38.072Z</time></trkpt><trkpt lat="44.8441205" lon="9.7754054"><ele>246.28571428571428</ele><time>2026-03-29T08:47:41.075Z</time></trkpt><trkpt lat="44.8441815" lon="9.7753486"><ele>245.1428571428571</ele><time>2026-03-29T08:47:47.07Z</time></trkpt><trkpt lat="44.8442354" lon="9.775299"><ele>243.99999999999997</ele><time>2026-03-29T08:47:49.09Z</time></trkpt><trkpt lat="44.8442529" lon="9.7751915"><ele>242.66666666666666</ele><time>2026-03-29T08:47:52.074Z</time></trkpt><trkpt lat="44.8442576" lon="9.7750699"><ele>241.33333333333331</ele><time>2026-03-29T08:47:55.089Z</time></trkpt><trkpt lat="44.8442658" lon="9.7749421"><ele>240.0</ele><time>2026-03-29T08:47:58.103Z</time></trkpt><trkpt lat="44.8442752" lon="9.7748475"><ele>238.66666666666669</ele><time>2026-03-29T08:48:00.085Z</time></trkpt><trkpt lat="44.8442797" lon="9.7747533"><ele>237.33333333333334</ele><time>2026-03-29T08:48:02.066Z</time></trkpt><trkpt lat="44.8442808" lon="9.7746493"><ele>236.0</ele><time>2026-03-29T08:48:04.083Z</time></trkpt><trkpt lat="44.8442734" lon="9.7745492"><ele>236.0</ele><time>2026-03-29T08:48:06.088Z</time></trkpt><trkpt lat="44.8442411" lon="9.7744479"><ele>236.0</ele><time>2026-03-29T08:48:08.096Z</time></trkpt><trkpt lat="44.8442476" lon="9.7743437"><ele>236.0</ele><time>2026-03-29T08:48:11.093Z</time></trkpt><trkpt lat="44.8442989" lon="9.774264"><ele>236.0</ele><time>2026-03-29T08:48:14.095Z</time></trkpt><trkpt lat="44.8443568" lon="9.7741759"><ele>236.0</ele><time>2026-03-29T08:48:18.066Z</time></trkpt><trkpt lat="44.8444112" lon="9.7741183"><ele>236.0</ele><time>2026-03-29T08:48:21.082Z</time></trkpt><trkpt lat="44.8444755" lon="9.7741042"><ele>236.0</ele><time>2026-03-29T08:48:24.081Z</time></trkpt><trkpt lat="44.8445586" lon="9.7741024"><ele>233.28571428571428</ele><time>2026-03-29T08:48:27.058Z</time></trkpt><trkpt lat="44.8446222" lon="9.774074"><ele>230.57142857142858</ele><time>2026-03-29T08:48:29.08Z</time></trkpt><trkpt lat="44.8446834" lon="9.7740423"><ele>227.85714285714286</ele><time>2026-03-29T08:48:31.07Z</time></trkpt><trkpt lat="44.8447559" lon="9.7739796"><ele>225.14285714285714</ele><time>2026-03-29T08:48:34.068Z</time></trkpt><trkpt lat="44.8448294" lon="9.7739897"><ele>222.42857142857144</ele><time>2026-03-29T08:49:20.08Z</time></trkpt><trkpt lat="44.8448289" lon="9.7740873"><ele>219.71428571428572</ele><time>2026-03-29T08:49:26.1Z</time></trkpt><trkpt lat="44.8448566" lon="9.7741898"><ele>217.0</ele><time>2026-03-29T08:49:31.098Z</time></trkpt><trkpt lat="44.8448709" lon="9.7742939"><ele>218.0</ele><time>2026-03-29T08:49:36.09Z</time></trkpt><trkpt lat="44.8448612" lon="9.7743917"><ele>219.0</ele><time>2026-03-29T08:49:40.083Z</time></trkpt><trkpt lat="44.8448605" lon="9.7744961"><ele>220.0</ele><time>2026-03-29T08:49:44.08Z</time></trkpt><trkpt lat="44.8448522" lon="9.774597"><ele>221.0</ele><time>2026-03-29T08:49:49.118Z</time></trkpt><trkpt lat="44.8448289" lon="9.774684"><ele>222.0</ele><time>2026-03-29T08:49:54.092Z</time></trkpt><trkpt lat="44.8448126" lon="9.7747783"><ele>223.0</ele><time>2026-03-29T08:49:58.081Z</time></trkpt><trkpt lat="44.8447941" lon="9.7748635"><ele>224.0</ele><time>2026-03-29T08:50:02.095Z</time></trkpt><trkpt lat="44.8447641" lon="9.7749587"><ele>224.0</ele><time>2026-03-29T08:50:06.1Z</time></trkpt><trkpt lat="44.8447615" lon="9.7750658"><ele>224.0</ele><time>2026-03-29T08:50:11.094Z</time></trkpt><trkpt lat="44.8447637" lon="9.7751732"><ele>224.0</ele><time>2026-03-29T08:50:16.081Z</time></trkpt><trkpt lat="44.8447797" lon="9.7752618"><ele>224.0</ele><time>2026-03-29T08:50:19.094Z</time></trkpt><trkpt lat="44.8448317" lon="9.775315"><ele>224.0</ele><time>2026-03-29T08:50:28.101Z</time></trkpt><trkpt lat="44.8448092" lon="9.7752156"><ele>224.0</ele><time>2026-03-29T08:50:41.065Z</time></trkpt><trkpt lat="44.844811" lon="9.7751209"><ele>224.0</ele><time>2026-03-29T08:50:48.088Z</time></trkpt><trkpt lat="44.8448477" lon="9.7752136"><ele>224.0</ele><time>2026-03-29T08:51:40.097Z</time></trkpt><trkpt lat="44.8449116" lon="9.7751791"><ele>224.0</ele><time>2026-03-29T08:51:50.089Z</time></trkpt><trkpt lat="44.8449695" lon="9.7752173"><ele>224.0</ele><time>2026-03-29T08:52:15.08Z</time></trkpt><trkpt lat="44.8450403" lon="9.7751864"><ele>224.0</ele><time>2026-03-29T08:52:19.085Z</time></trkpt><trkpt lat="44.8450223" lon="9.7750801"><ele>224.0</ele><time>2026-03-29T08:52:24.07Z</time></trkpt><trkpt lat="44.8450899" lon="9.7750327"><ele>224.0</ele><time>2026-03-29T08:52:48.075Z</time></trkpt><trkpt lat="44.8451604" lon="9.7750218"><ele>224.0</ele><time>2026-03-29T08:52:51.044Z</time></trkpt><trkpt lat="44.8452355" lon="9.7750428"><ele>222.83333333333334</ele><time>2026-03-29T08:52:54.09Z</time></trkpt><trkpt lat="44.8453049" lon="9.7750711"><ele>221.66666666666669</ele><time>2026-03-29T08:52:57.07Z</time></trkpt><trkpt lat="44.8453382" lon="9.7751714"><ele>220.5</ele><time>2026-03-29T08:53:00.086Z</time></trkpt><trkpt lat="44.8453784" lon="9.7752758"><ele>219.33333333333331</ele><time>2026-03-29T08:53:04.076Z</time></trkpt><trkpt lat="44.8454491" lon="9.7753088"><ele>218.16666666666666</ele><time>2026-03-29T08:53:13.077Z</time></trkpt><trkpt lat="44.845504" lon="9.7753555"><ele>217.0</ele><time>2026-03-29T08:53:18.086Z</time></trkpt><trkpt lat="44.8454958" lon="9.7754631"><ele>217.0</ele><time>2026-03-29T08:53:23.089Z</time></trkpt><trkpt lat="44.8455304" lon="9.7755432"><ele>217.0</ele><time>2026-03-29T08:53:27.088Z</time></trkpt><trkpt lat="44.8455969" lon="9.7755656"><ele>217.0</ele><time>2026-03-29T08:53:30.084Z</time></trkpt><trkpt lat="44.8456615" lon="9.7755839"><ele>217.0</ele><time>2026-03-29T08:53:33.084Z</time></trkpt><trkpt lat="44.8457351" lon="9.7756107"><ele>217.0</ele><time>2026-03-29T08:53:36.092Z</time></trkpt><trkpt lat="44.8458" lon="9.7756511"><ele>217.0</ele><time>2026-03-29T08:53:39.082Z</time></trkpt><trkpt lat="44.8458627" lon="9.7757473"><ele>217.0</ele><time>2026-03-29T08:53:42.086Z</time></trkpt><trkpt lat="44.8459233" lon="9.7757902"><ele>215.83333333333331</ele><time>2026-03-29T08:53:45.09Z</time></trkpt><trkpt lat="44.8459876" lon="9.7758143"><ele>214.66666666666666</ele><time>2026-03-29T08:53:48.067Z</time></trkpt><trkpt lat="44.8460672" lon="9.7757803"><ele>213.5</ele><time>2026-03-29T08:53:52.091Z</time></trkpt><trkpt lat="44.8461415" lon="9.7757739"><ele>212.33333333333331</ele><time>2026-03-29T08:53:55.076Z</time></trkpt><trkpt lat="44.8462001" lon="9.7758596"><ele>211.16666666666666</ele><time>2026-03-29T08:53:58.085Z</time></trkpt><trkpt lat="44.8462467" lon="9.7759604"><ele>210.0</ele><time>2026-03-29T08:54:01.075Z</time></trkpt><trkpt lat="44.8462469" lon="9.7760783"><ele>210.0</ele><time>2026-03-29T08:54:04.082Z</time></trkpt><trkpt lat="44.8463113" lon="9.7761676"><ele>210.0</ele><time>2026-03-29T08:54:07.09Z</time></trkpt><trkpt lat="44.8463456" lon="9.7762544"><ele>210.0</ele><time>2026-03-29T08:54:10.079Z</time></trkpt><trkpt lat="44.8463584" lon="9.7763437"><ele>210.0</ele><time>2026-03-29T08:54:13.088Z</time></trkpt><trkpt lat="44.8463299" lon="9.7764363"><ele>210.0</ele><time>2026-03-29T08:54:16.078Z</time></trkpt><trkpt lat="44.8463284" lon="9.7765447"><ele>210.0</ele><time>2026-03-29T08:54:21.082Z</time></trkpt><trkpt lat="44.8462994" lon="9.776625"><ele>210.0</ele><time>2026-03-29T08:54:24.09Z</time></trkpt><trkpt lat="44.846245" lon="9.7766761"><ele>210.0</ele><time>2026-03-29T08:54:27.077Z</time></trkpt><trkpt lat="44.8462395" lon="9.7767775"><ele>210.0</ele><time>2026-03-29T08:54:31.082Z</time></trkpt><trkpt lat="44.8463068" lon="9.7768315"><ele>210.0</ele><time>2026-03-29T08:54:35.073Z</time></trkpt><trkpt lat="44.8463484" lon="9.7769002"><ele>210.0</ele><time>2026-03-29T08:54:38.092Z</time></trkpt><trkpt lat="44.8464137" lon="9.7769446"><ele>210.0</ele><time>2026-03-29T08:54:41.071Z</time></trkpt><trkpt lat="44.8464805" lon="9.776958"><ele>210.0</ele><time>2026-03-29T08:54:43.088Z</time></trkpt><trkpt lat="44.8465591" lon="9.7769479"><ele>210.0</ele><time>2026-03-29T08:54:45.081Z</time></trkpt><trkpt lat="44.8466239" lon="9.7769931"><ele>209.83333333333334</ele><time>2026-03-29T08:54:48.069Z</time></trkpt><trkpt lat="44.8466783" lon="9.7770428"><ele>209.66666666666669</ele><time>2026-03-29T08:54:51.075Z</time></trkpt><trkpt lat="44.8467304" lon="9.7771065"><ele>209.5</ele><time>2026-03-29T08:54:55.069Z</time></trkpt><trkpt lat="44.8467836" lon="9.7771978"><ele>209.33333333333334</ele><time>2026-03-29T08:54:58.087Z</time></trkpt><trkpt lat="44.8468326" lon="9.7772898"><ele>209.16666666666669</ele><time>2026-03-29T08:55:01.067Z</time></trkpt><trkpt lat="44.8468781" lon="9.7773634"><ele>209.0</ele><time>2026-03-29T08:55:04.093Z</time></trkpt><trkpt lat="44.8469498" lon="9.7774298"><ele>209.00000000000003</ele><time>2026-03-29T08:55:08.073Z</time></trkpt><trkpt lat="44.847026" lon="9.7774682"><ele>209.0</ele><time>2026-03-29T08:55:11.076Z</time></trkpt><trkpt lat="44.8471029" lon="9.7774419"><ele>209.0</ele><time>2026-03-29T08:55:14.082Z</time></trkpt><trkpt lat="44.8471724" lon="9.7773947"><ele>209.0</ele><time>2026-03-29T08:55:17.069Z</time></trkpt><trkpt lat="44.8472474" lon="9.7774557"><ele>209.00000000000003</ele><time>2026-03-29T08:55:21.066Z</time></trkpt><trkpt lat="44.8472996" lon="9.7775378"><ele>209.0</ele><time>2026-03-29T08:55:24.053Z</time></trkpt><trkpt lat="44.847324" lon="9.7776342"><ele>209.0</ele><time>2026-03-29T08:55:27.087Z</time></trkpt><trkpt lat="44.8473909" lon="9.7776443"><ele>209.0</ele><time>2026-03-29T08:55:32.066Z</time></trkpt><trkpt lat="44.8474462" lon="9.777694"><ele>209.0</ele><time>2026-03-29T08:55:35.055Z</time></trkpt><trkpt lat="44.8475036" lon="9.7777656"><ele>209.0</ele><time>2026-03-29T08:55:38.066Z</time></trkpt><trkpt lat="44.8475585" lon="9.7778239"><ele>209.0</ele><time>2026-03-29T08:55:41.075Z</time></trkpt><trkpt lat="44.8476234" lon="9.777863"><ele>209.0</ele><time>2026-03-29T08:55:45.094Z</time></trkpt><trkpt lat="44.8476528" lon="9.7779542"><ele>209.0</ele><time>2026-03-29T08:55:49.075Z</time></trkpt><trkpt lat="44.8477041" lon="9.77802"><ele>208.85714285714286</ele><time>2026-03-29T08:55:52.081Z</time></trkpt><trkpt lat="44.8477408" lon="9.7781051"><ele>208.71428571428572</ele><time>2026-03-29T08:55:56.087Z</time></trkpt><trkpt lat="44.8478034" lon="9.77816"><ele>208.57142857142856</ele><time>2026-03-29T08:56:00.085Z</time></trkpt><trkpt lat="44.8478425" lon="9.7782379"><ele>208.42857142857144</ele><time>2026-03-29T08:56:06.091Z</time></trkpt><trkpt lat="44.8478463" lon="9.7783383"><ele>208.2857142857143</ele><time>2026-03-29T08:56:17.069Z</time></trkpt><trkpt lat="44.847862" lon="9.7784276"><ele>208.14285714285714</ele><time>2026-03-29T08:56:37.08Z</time></trkpt><trkpt lat="44.8479257" lon="9.778428"><ele>208.0</ele><time>2026-03-29T08:56:49.066Z</time></trkpt><trkpt lat="44.8479584" lon="9.7785044"><ele>211.16666666666666</ele><time>2026-03-29T08:56:55.089Z</time></trkpt><trkpt lat="44.8480183" lon="9.7785694"><ele>214.33333333333331</ele><time>2026-03-29T08:57:01.083Z</time></trkpt><trkpt lat="44.8480916" lon="9.7786153"><ele>217.5</ele><time>2026-03-29T08:57:04.073Z</time></trkpt><trkpt lat="44.8481695" lon="9.7786178"><ele>220.66666666666669</ele><time>2026-03-29T08:57:07.087Z</time></trkpt><trkpt lat="44.848258" lon="9.7786427"><ele>223.83333333333334</ele><time>2026-03-29T08:57:10.07Z</time></trkpt><trkpt lat="44.8483342" lon="9.7786811"><ele>227.0</ele><time>2026-03-29T08:57:13.079Z</time></trkpt><trkpt lat="44.8484217" lon="9.7787271"><ele>224.83333333333334</ele><time>2026-03-29T08:57:16.084Z</time></trkpt><trkpt lat="44.8484994" lon="9.7787566"><ele>222.66666666666669</ele><time>2026-03-29T08:57:18.08Z</time></trkpt><trkpt lat="44.8485929" lon="9.7787908"><ele>220.5</ele><time>2026-03-29T08:57:21.077Z</time></trkpt><trkpt lat="44.8486563" lon="9.7788193"><ele>218.33333333333331</ele><time>2026-03-29T08:57:23.071Z</time></trkpt><trkpt lat="44.8487188" lon="9.7788523"><ele>216.16666666666666</ele><time>2026-03-29T08:57:25.071Z</time></trkpt><trkpt lat="44.8488098" lon="9.7788824"><ele>214.0</ele><time>2026-03-29T08:57:28.074Z</time></trkpt><trkpt lat="44.8488965" lon="9.7789172"><ele>213.99999999999997</ele><time>2026-03-29T08:57:31.074Z</time></trkpt><trkpt lat="44.8489853" lon="9.7789332"><ele>214.0</ele><time>2026-03-29T08:57:34.075Z</time></trkpt><trkpt lat="44.8490676" lon="9.7789534"><ele>214.0</ele><time>2026-03-29T08:57:37.088Z</time></trkpt><trkpt lat="44.8491385" lon="9.7789908"><ele>214.0</ele><time>2026-03-29T08:57:40.075Z</time></trkpt><trkpt lat="44.8492235" lon="9.7790162"><ele>213.99999999999997</ele><time>2026-03-29T08:57:43.08Z</time></trkpt><trkpt lat="44.8492957" lon="9.7790504"><ele>214.0</ele><time>2026-03-29T08:57:46.089Z</time></trkpt><trkpt lat="44.8493747" lon="9.7790817"><ele>212.85714285714286</ele><time>2026-03-29T08:57:49.061Z</time></trkpt><trkpt lat="44.849441" lon="9.7791011"><ele>211.71428571428572</ele><time>2026-03-29T08:57:51.077Z</time></trkpt><trkpt lat="44.8495094" lon="9.7791211"><ele>210.57142857142856</ele><time>2026-03-29T08:57:53.07Z</time></trkpt><trkpt lat="44.8495822" lon="9.7791261"><ele>209.42857142857144</ele><time>2026-03-29T08:57:55.075Z</time></trkpt><trkpt lat="44.8496513" lon="9.7791031"><ele>208.28571428571428</ele><time>2026-03-29T08:57:57.095Z</time></trkpt><trkpt lat="44.8497107" lon="9.7790551"><ele>207.14285714285714</ele><time>2026-03-29T08:57:59.112Z</time></trkpt><trkpt lat="44.8497874" lon="9.7790295"><ele>206.0</ele><time>2026-03-29T08:58:01.091Z</time></trkpt><trkpt lat="44.8498641" lon="9.7790052"><ele>206.00000000000003</ele><time>2026-03-29T08:58:03.096Z</time></trkpt><trkpt lat="44.8499392" lon="9.7789682"><ele>206.0</ele><time>2026-03-29T08:58:05.09Z</time></trkpt><trkpt lat="44.8500133" lon="9.7789381"><ele>206.0</ele><time>2026-03-29T08:58:07.086Z</time></trkpt><trkpt lat="44.8500862" lon="9.7789159"><ele>206.0</ele><time>2026-03-29T08:58:09.081Z</time></trkpt><trkpt lat="44.8501716" lon="9.7789231"><ele>206.00000000000003</ele><time>2026-03-29T08:58:11.089Z</time></trkpt><trkpt lat="44.8502589" lon="9.778935"><ele>206.0</ele><time>2026-03-29T08:58:13.097Z</time></trkpt><trkpt lat="44.8503366" lon="9.7789375"><ele>205.66666666666669</ele><time>2026-03-29T08:58:15.092Z</time></trkpt><trkpt lat="44.8504217" lon="9.7789379"><ele>205.33333333333334</ele><time>2026-03-29T08:58:17.078Z</time></trkpt><trkpt lat="44.8505122" lon="9.7789271"><ele>205.0</ele><time>2026-03-29T08:58:19.102Z</time></trkpt><trkpt lat="44.8505912" lon="9.7789224"><ele>204.66666666666669</ele><time>2026-03-29T08:58:21.096Z</time></trkpt><trkpt lat="44.8506683" lon="9.7789058"><ele>204.33333333333334</ele><time>2026-03-29T08:58:23.103Z</time></trkpt><trkpt lat="44.8507438" lon="9.778899"><ele>204.0</ele><time>2026-03-29T08:58:25.084Z</time></trkpt><trkpt lat="44.8508223" lon="9.7788731"><ele>204.0</ele><time>2026-03-29T08:58:27.061Z</time></trkpt><trkpt lat="44.8509071" lon="9.7788503"><ele>204.0</ele><time>2026-03-29T08:58:29.089Z</time></trkpt><trkpt lat="44.8509939" lon="9.778866"><ele>204.0</ele><time>2026-03-29T08:58:31.079Z</time></trkpt><trkpt lat="44.851084" lon="9.7788757"><ele>204.0</ele><time>2026-03-29T08:58:33.082Z</time></trkpt><trkpt lat="44.8511869" lon="9.7788693"><ele>204.0</ele><time>2026-03-29T08:58:35.088Z</time></trkpt><trkpt lat="44.8512846" lon="9.7788695"><ele>204.2</ele><time>2026-03-29T08:58:37.088Z</time></trkpt><trkpt lat="44.851385" lon="9.77889"><ele>204.39999999999998</ele><time>2026-03-29T08:58:39.09Z</time></trkpt><trkpt lat="44.851477" lon="9.778912"><ele>204.6</ele><time>2026-03-29T08:58:41.093Z</time></trkpt><trkpt lat="44.8515655" lon="9.7789373"><ele>204.8</ele><time>2026-03-29T08:58:43.091Z</time></trkpt><trkpt lat="44.851657" lon="9.7789515"><ele>205.0</ele><time>2026-03-29T08:58:45.084Z</time></trkpt><trkpt lat="44.8517333" lon="9.7789629"><ele>204.14285714285714</ele><time>2026-03-29T08:58:47.095Z</time></trkpt><trkpt lat="44.8518121" lon="9.7789866"><ele>203.28571428571428</ele><time>2026-03-29T08:58:49.081Z</time></trkpt><trkpt lat="44.8518806" lon="9.7789897"><ele>202.42857142857142</ele><time>2026-03-29T08:58:51.095Z</time></trkpt><trkpt lat="44.8519477" lon="9.7789819"><ele>201.57142857142856</ele><time>2026-03-29T08:58:53.099Z</time></trkpt><trkpt lat="44.8520195" lon="9.778999"><ele>200.71428571428572</ele><time>2026-03-29T08:58:55.097Z</time></trkpt><trkpt lat="44.8520805" lon="9.7790604"><ele>199.85714285714283</ele><time>2026-03-29T08:58:57.081Z</time></trkpt><trkpt lat="44.8521421" lon="9.7791096"><ele>199.0</ele><time>2026-03-29T08:58:59.096Z</time></trkpt><trkpt lat="44.8522129" lon="9.7791337"><ele>198.99999999999997</ele><time>2026-03-29T08:59:01.094Z</time></trkpt><trkpt lat="44.8522847" lon="9.7791508"><ele>199.0</ele><time>2026-03-29T08:59:03.096Z</time></trkpt><trkpt lat="44.8523652" lon="9.7791432"><ele>199.0</ele><time>2026-03-29T08:59:05.094Z</time></trkpt><trkpt lat="44.8524368" lon="9.7791351"><ele>199.0</ele><time>2026-03-29T08:59:07.099Z</time></trkpt><trkpt lat="44.8525088" lon="9.7791104"><ele>198.99999999999997</ele><time>2026-03-29T08:59:09.095Z</time></trkpt><trkpt lat="44.8525846" lon="9.7790773"><ele>199.0</ele><time>2026-03-29T08:59:11.098Z</time></trkpt><trkpt lat="44.8526548" lon="9.7790467"><ele>198.83333333333331</ele><time>2026-03-29T08:59:13.088Z</time></trkpt><trkpt lat="44.8527274" lon="9.7790275"><ele>198.66666666666666</ele><time>2026-03-29T08:59:15.093Z</time></trkpt><trkpt lat="44.8528088" lon="9.77902"><ele>198.5</ele><time>2026-03-29T08:59:17.107Z</time></trkpt><trkpt lat="44.8528813" lon="9.7790239"><ele>198.33333333333331</ele><time>2026-03-29T08:59:19.093Z</time></trkpt><trkpt lat="44.8529512" lon="9.7790408"><ele>198.16666666666666</ele><time>2026-03-29T08:59:21.091Z</time></trkpt><trkpt lat="44.8530274" lon="9.7790566"><ele>198.0</ele><time>2026-03-29T08:59:23.087Z</time></trkpt><trkpt lat="44.8531104" lon="9.7790693"><ele>198.0</ele><time>2026-03-29T08:59:25.105Z</time></trkpt><trkpt lat="44.8531866" lon="9.7790882"><ele>198.0</ele><time>2026-03-29T08:59:27.091Z</time></trkpt><trkpt lat="44.8532658" lon="9.7791104"><ele>198.0</ele><time>2026-03-29T08:59:29.089Z</time></trkpt><trkpt lat="44.8533433" lon="9.7791353"><ele>198.0</ele><time>2026-03-29T08:59:31.094Z</time></trkpt><trkpt lat="44.8534212" lon="9.7791591"><ele>198.0</ele><time>2026-03-29T08:59:33.096Z</time></trkpt><trkpt lat="44.8534974" lon="9.7791839"><ele>198.0</ele><time>2026-03-29T08:59:35.095Z</time></trkpt><trkpt lat="44.8535735" lon="9.7792127"><ele>197.66666666666666</ele><time>2026-03-29T08:59:37.086Z</time></trkpt><trkpt lat="44.8536433" lon="9.7792554"><ele>197.33333333333331</ele><time>2026-03-29T08:59:39.099Z</time></trkpt><trkpt lat="44.8537125" lon="9.7793175"><ele>197.0</ele><time>2026-03-29T08:59:41.088Z</time></trkpt><trkpt lat="44.8537824" lon="9.779392"><ele>196.66666666666666</ele><time>2026-03-29T08:59:43.094Z</time></trkpt><trkpt lat="44.8538366" lon="9.779473"><ele>196.33333333333331</ele><time>2026-03-29T08:59:45.091Z</time></trkpt><trkpt lat="44.8538769" lon="9.7795615"><ele>196.0</ele><time>2026-03-29T08:59:47.087Z</time></trkpt><trkpt lat="44.8539266" lon="9.7796206"><ele>196.0</ele><time>2026-03-29T08:59:49.058Z</time></trkpt><trkpt lat="44.8539912" lon="9.7796424"><ele>196.0</ele><time>2026-03-29T08:59:51.09Z</time></trkpt><trkpt lat="44.8540672" lon="9.7796522"><ele>196.0</ele><time>2026-03-29T08:59:53.097Z</time></trkpt><trkpt lat="44.8541386" lon="9.7796582"><ele>196.0</ele><time>2026-03-29T08:59:55.096Z</time></trkpt><trkpt lat="44.8542038" lon="9.7796867"><ele>196.0</ele><time>2026-03-29T08:59:57.097Z</time></trkpt><trkpt lat="44.8542676" lon="9.7797386"><ele>196.0</ele><time>2026-03-29T08:59:59.089Z</time></trkpt><trkpt lat="44.8543414" lon="9.7797517"><ele>196.0</ele><time>2026-03-29T09:00:01.082Z</time></trkpt><trkpt lat="44.8544099" lon="9.7798315"><ele>195.83333333333331</ele><time>2026-03-29T09:00:04.082Z</time></trkpt><trkpt lat="44.8544527" lon="9.7799379"><ele>195.66666666666666</ele><time>2026-03-29T09:00:07.08Z</time></trkpt><trkpt lat="44.8544935" lon="9.7800087"><ele>195.5</ele><time>2026-03-29T09:00:09.08Z</time></trkpt><trkpt lat="44.8545468" lon="9.7800863"><ele>195.33333333333331</ele><time>2026-03-29T09:00:11.092Z</time></trkpt><trkpt lat="44.8546057" lon="9.7801539"><ele>195.16666666666666</ele><time>2026-03-29T09:00:13.091Z</time></trkpt><trkpt lat="44.8546699" lon="9.7802245"><ele>195.0</ele><time>2026-03-29T09:00:15.086Z</time></trkpt><trkpt lat="44.8547285" lon="9.7802785"><ele>194.85714285714286</ele><time>2026-03-29T09:00:17.092Z</time></trkpt><trkpt lat="44.8547971" lon="9.7803184"><ele>194.71428571428572</ele><time>2026-03-29T09:00:19.098Z</time></trkpt><trkpt lat="44.8548653" lon="9.7803455"><ele>194.57142857142856</ele><time>2026-03-29T09:00:21.086Z</time></trkpt><trkpt lat="44.8549302" lon="9.7803897"><ele>194.42857142857144</ele><time>2026-03-29T09:00:23.09Z</time></trkpt><trkpt lat="44.854992" lon="9.7804501"><ele>194.2857142857143</ele><time>2026-03-29T09:00:25.092Z</time></trkpt><trkpt lat="44.855055" lon="9.7805058"><ele>194.14285714285714</ele><time>2026-03-29T09:00:27.098Z</time></trkpt><trkpt lat="44.8551204" lon="9.7805663"><ele>194.0</ele><time>2026-03-29T09:00:29.085Z</time></trkpt><trkpt lat="44.8551831" lon="9.7806325"><ele>194.00000000000003</ele><time>2026-03-29T09:00:31.085Z</time></trkpt><trkpt lat="44.8552437" lon="9.7806963"><ele>194.0</ele><time>2026-03-29T09:00:33.086Z</time></trkpt><trkpt lat="44.8553118" lon="9.7807422"><ele>194.0</ele><time>2026-03-29T09:00:35.07Z</time></trkpt><trkpt lat="44.8553926" lon="9.7807837"><ele>194.0</ele><time>2026-03-29T09:00:37.08Z</time></trkpt><trkpt lat="44.8554665" lon="9.7808347"><ele>194.00000000000003</ele><time>2026-03-29T09:00:39.087Z</time></trkpt><trkpt lat="44.8555369" lon="9.780897"><ele>194.0</ele><time>2026-03-29T09:00:41.077Z</time></trkpt><trkpt lat="44.855612" lon="9.7809594"><ele>194.00000000000003</ele><time>2026-03-29T09:00:43.096Z</time></trkpt><trkpt lat="44.8556833" lon="9.7810116"><ele>194.0</ele><time>2026-03-29T09:00:45.044Z</time></trkpt><trkpt lat="44.8557562" lon="9.7810479"><ele>194.0</ele><time>2026-03-29T09:00:47.057Z</time></trkpt><trkpt lat="44.8558394" lon="9.7810837"><ele>194.0</ele><time>2026-03-29T09:00:49.086Z</time></trkpt><trkpt lat="44.855919" lon="9.7811083"><ele>194.00000000000003</ele><time>2026-03-29T09:00:51.082Z</time></trkpt><trkpt lat="44.8559991" lon="9.7811349"><ele>194.0</ele><time>2026-03-29T09:00:53.087Z</time></trkpt><trkpt lat="44.8560772" lon="9.781167"><ele>193.66666666666669</ele><time>2026-03-29T09:00:55.094Z</time></trkpt><trkpt lat="44.8561594" lon="9.7811976"><ele>193.33333333333334</ele><time>2026-03-29T09:00:57.086Z</time></trkpt><trkpt lat="44.8562354" lon="9.7812596"><ele>193.0</ele><time>2026-03-29T09:00:59.09Z</time></trkpt><trkpt lat="44.856309" lon="9.7813394"><ele>192.66666666666669</ele><time>2026-03-29T09:01:01.09Z</time></trkpt><trkpt lat="44.8563896" lon="9.7814072"><ele>192.33333333333334</ele><time>2026-03-29T09:01:03.087Z</time></trkpt><trkpt lat="44.8564681" lon="9.7814058"><ele>192.0</ele><time>2026-03-29T09:01:05.093Z</time></trkpt><trkpt lat="44.8565346" lon="9.7814"><ele>192.0</ele><time>2026-03-29T09:01:07.081Z</time></trkpt><trkpt lat="44.856625" lon="9.7814182"><ele>192.0</ele><time>2026-03-29T09:01:09.092Z</time></trkpt><trkpt lat="44.8566972" lon="9.7814584"><ele>192.0</ele><time>2026-03-29T09:01:11.103Z</time></trkpt><trkpt lat="44.856766" lon="9.7815245"><ele>192.0</ele><time>2026-03-29T09:01:13.06Z</time></trkpt><trkpt lat="44.856848" lon="9.7815519"><ele>192.0</ele><time>2026-03-29T09:01:15.042Z</time></trkpt><trkpt lat="44.8569272" lon="9.7815449"><ele>192.0</ele><time>2026-03-29T09:01:17.065Z</time></trkpt><trkpt lat="44.8570052" lon="9.7815302"><ele>191.83333333333334</ele><time>2026-03-29T09:01:19.079Z</time></trkpt><trkpt lat="44.8570831" lon="9.7815304"><ele>191.66666666666666</ele><time>2026-03-29T09:01:21.092Z</time></trkpt><trkpt lat="44.8571502" lon="9.7815647"><ele>191.5</ele><time>2026-03-29T09:01:23.099Z</time></trkpt><trkpt lat="44.8572157" lon="9.7816523"><ele>191.33333333333331</ele><time>2026-03-29T09:01:25.09Z</time></trkpt><trkpt lat="44.857264" lon="9.7817393"><ele>191.16666666666666</ele><time>2026-03-29T09:01:27.085Z</time></trkpt><trkpt lat="44.8573175" lon="9.7818421"><ele>191.0</ele><time>2026-03-29T09:01:29.092Z</time></trkpt><trkpt lat="44.8573793" lon="9.7819271"><ele>190.83333333333331</ele><time>2026-03-29T09:01:31.094Z</time></trkpt><trkpt lat="44.8574524" lon="9.7819992"><ele>190.66666666666666</ele><time>2026-03-29T09:01:33.096Z</time></trkpt><trkpt lat="44.8575222" lon="9.7820777"><ele>190.5</ele><time>2026-03-29T09:01:35.095Z</time></trkpt><trkpt lat="44.8575938" lon="9.7821372"><ele>190.33333333333334</ele><time>2026-03-29T09:01:37.089Z</time></trkpt><trkpt lat="44.8576676" lon="9.7821656"><ele>190.16666666666669</ele><time>2026-03-29T09:01:39.096Z</time></trkpt><trkpt lat="44.8577399" lon="9.7821705"><ele>190.0</ele><time>2026-03-29T09:01:41.078Z</time></trkpt><trkpt lat="44.8578105" lon="9.7822223"><ele>189.83333333333334</ele><time>2026-03-29T09:01:43.078Z</time></trkpt><trkpt lat="44.857898" lon="9.7822957"><ele>189.66666666666669</ele><time>2026-03-29T09:01:45.081Z</time></trkpt><trkpt lat="44.8579653" lon="9.7823619"><ele>189.5</ele><time>2026-03-29T09:01:47.091Z</time></trkpt><trkpt lat="44.8580414" lon="9.7824343"><ele>189.33333333333334</ele><time>2026-03-29T09:01:49.095Z</time></trkpt><trkpt lat="44.858107" lon="9.7824889"><ele>189.16666666666666</ele><time>2026-03-29T09:01:51.093Z</time></trkpt><trkpt lat="44.8581674" lon="9.7825444"><ele>189.0</ele><time>2026-03-29T09:01:53.091Z</time></trkpt><trkpt lat="44.8582492" lon="9.7826144"><ele>189.0</ele><time>2026-03-29T09:01:55.092Z</time></trkpt><trkpt lat="44.8583379" lon="9.7826702"><ele>189.0</ele><time>2026-03-29T09:01:57.097Z</time></trkpt><trkpt lat="44.8584147" lon="9.7827257"><ele>189.0</ele><time>2026-03-29T09:01:59.084Z</time></trkpt><trkpt lat="44.8585007" lon="9.7827764"><ele>189.0</ele><time>2026-03-29T09:02:01.106Z</time></trkpt><trkpt lat="44.8585813" lon="9.7828218"><ele>189.0</ele><time>2026-03-29T09:02:03.093Z</time></trkpt><trkpt lat="44.8586669" lon="9.7828878"><ele>188.39999999999998</ele><time>2026-03-29T09:02:05.088Z</time></trkpt><trkpt lat="44.858752" lon="9.782943"><ele>187.8</ele><time>2026-03-29T09:02:07.077Z</time></trkpt><trkpt lat="44.8588353" lon="9.7829868"><ele>187.2</ele><time>2026-03-29T09:02:09.082Z</time></trkpt><trkpt lat="44.8589154" lon="9.7830491"><ele>186.60000000000002</ele><time>2026-03-29T09:02:11.091Z</time></trkpt><trkpt lat="44.8590067" lon="9.7830972"><ele>186.0</ele><time>2026-03-29T09:02:13.092Z</time></trkpt><trkpt lat="44.8590979" lon="9.7831168"><ele>186.0</ele><time>2026-03-29T09:02:15.08Z</time></trkpt><trkpt lat="44.8591882" lon="9.7831318"><ele>186.0</ele><time>2026-03-29T09:02:17.096Z</time></trkpt><trkpt lat="44.8592732" lon="9.7831578"><ele>186.0</ele><time>2026-03-29T09:02:19.094Z</time></trkpt><trkpt lat="44.8593342" lon="9.7832309"><ele>186.0</ele><time>2026-03-29T09:02:21.092Z</time></trkpt><trkpt lat="44.8593605" lon="9.7833297"><ele>186.0</ele><time>2026-03-29T09:02:24.087Z</time></trkpt><trkpt lat="44.8593282" lon="9.7834425"><ele>186.0</ele><time>2026-03-29T09:02:27.089Z</time></trkpt><trkpt lat="44.8593254" lon="9.7835388"><ele>185.83333333333334</ele><time>2026-03-29T09:02:30.088Z</time></trkpt><trkpt lat="44.8594094" lon="9.7835793"><ele>185.66666666666666</ele><time>2026-03-29T09:02:33.059Z</time></trkpt><trkpt lat="44.8594685" lon="9.7836315"><ele>185.5</ele><time>2026-03-29T09:02:35.091Z</time></trkpt><trkpt lat="44.8595087" lon="9.7837067"><ele>185.33333333333331</ele><time>2026-03-29T09:02:37.073Z</time></trkpt><trkpt lat="44.859582" lon="9.7837836"><ele>185.16666666666666</ele><time>2026-03-29T09:02:40.09Z</time></trkpt><trkpt lat="44.8596545" lon="9.7838591"><ele>185.0</ele><time>2026-03-29T09:02:43.077Z</time></trkpt><trkpt lat="44.8597018" lon="9.783918"><ele>185.0</ele><time>2026-03-29T09:02:45.087Z</time></trkpt><trkpt lat="44.8597641" lon="9.7840163"><ele>185.0</ele><time>2026-03-29T09:02:48.091Z</time></trkpt><trkpt lat="44.8598387" lon="9.7840905"><ele>185.0</ele><time>2026-03-29T09:02:51.089Z</time></trkpt><trkpt lat="44.8598925" lon="9.7841393"><ele>185.0</ele><time>2026-03-29T09:02:53.081Z</time></trkpt><trkpt lat="44.8599562" lon="9.7841924"><ele>185.0</ele><time>2026-03-29T09:02:55.087Z</time></trkpt><trkpt lat="44.8600112" lon="9.7842402"><ele>185.0</ele><time>2026-03-29T09:02:57.082Z</time></trkpt><trkpt lat="44.860064" lon="9.7842974"><ele>184.99999999999997</ele><time>2026-03-29T09:02:59.084Z</time></trkpt><trkpt lat="44.8601129" lon="9.7843602"><ele>185.0</ele><time>2026-03-29T09:03:01.077Z</time></trkpt><trkpt lat="44.8601703" lon="9.784415"><ele>185.0</ele><time>2026-03-29T09:03:03.083Z</time></trkpt><trkpt lat="44.860236" lon="9.7844667"><ele>185.0</ele><time>2026-03-29T09:03:05.078Z</time></trkpt><trkpt lat="44.860323" lon="9.784478"><ele>185.0</ele><time>2026-03-29T09:03:07.084Z</time></trkpt><trkpt lat="44.8603912" lon="9.7844492"><ele>184.99999999999997</ele><time>2026-03-29T09:03:09.084Z</time></trkpt><trkpt lat="44.8604453" lon="9.7844011"><ele>185.0</ele><time>2026-03-29T09:03:11.086Z</time></trkpt><trkpt lat="44.8604907" lon="9.7843337"><ele>184.83333333333331</ele><time>2026-03-29T09:03:13.089Z</time></trkpt><trkpt lat="44.8605188" lon="9.784233"><ele>184.66666666666666</ele><time>2026-03-29T09:03:15.08Z</time></trkpt><trkpt lat="44.8605577" lon="9.784149"><ele>184.5</ele><time>2026-03-29T09:03:17.087Z</time></trkpt><trkpt lat="44.8605883" lon="9.7840641"><ele>184.33333333333334</ele><time>2026-03-29T09:03:19.093Z</time></trkpt><trkpt lat="44.8606179" lon="9.7839502"><ele>184.16666666666669</ele><time>2026-03-29T09:03:21.081Z</time></trkpt><trkpt lat="44.8606553" lon="9.7838512"><ele>184.0</ele><time>2026-03-29T09:03:23.087Z</time></trkpt><trkpt lat="44.8606874" lon="9.7837597"><ele>184.0</ele><time>2026-03-29T09:03:25.096Z</time></trkpt><trkpt lat="44.860729" lon="9.783659"><ele>184.0</ele><time>2026-03-29T09:03:27.087Z</time></trkpt><trkpt lat="44.8607723" lon="9.7835766"><ele>184.0</ele><time>2026-03-29T09:03:29.089Z</time></trkpt><trkpt lat="44.8608064" lon="9.7834702"><ele>184.0</ele><time>2026-03-29T09:03:31.086Z</time></trkpt><trkpt lat="44.8608432" lon="9.7833681"><ele>184.0</ele><time>2026-03-29T09:03:33.079Z</time></trkpt><trkpt lat="44.8608813" lon="9.7832626"><ele>184.0</ele><time>2026-03-29T09:03:35.089Z</time></trkpt><trkpt lat="44.8609211" lon="9.7831635"><ele>183.83333333333334</ele><time>2026-03-29T09:03:37.096Z</time></trkpt><trkpt lat="44.8609669" lon="9.7830602"><ele>183.66666666666669</ele><time>2026-03-29T09:03:39.093Z</time></trkpt><trkpt lat="44.8610159" lon="9.7829566"><ele>183.5</ele><time>2026-03-29T09:03:41.094Z</time></trkpt><trkpt lat="44.8610642" lon="9.7828583"><ele>183.33333333333334</ele><time>2026-03-29T09:03:43.086Z</time></trkpt><trkpt lat="44.8611189" lon="9.7827533"><ele>183.16666666666666</ele><time>2026-03-29T09:03:45.093Z</time></trkpt><trkpt lat="44.8611749" lon="9.7826448"><ele>183.0</ele><time>2026-03-29T09:03:47.081Z</time></trkpt><trkpt lat="44.8612293" lon="9.7825412"><ele>183.5</ele><time>2026-03-29T09:03:49.086Z</time></trkpt><trkpt lat="44.8612803" lon="9.7824396"><ele>184.0</ele><time>2026-03-29T09:03:51.099Z</time></trkpt><trkpt lat="44.8613314" lon="9.7823363"><ele>184.5</ele><time>2026-03-29T09:03:53.097Z</time></trkpt><trkpt lat="44.8613769" lon="9.7822359"><ele>185.0</ele><time>2026-03-29T09:03:55.083Z</time></trkpt><trkpt lat="44.8614252" lon="9.7821407"><ele>185.5</ele><time>2026-03-29T09:03:57.077Z</time></trkpt><trkpt lat="44.8614703" lon="9.782037"><ele>186.0</ele><time>2026-03-29T09:03:59.096Z</time></trkpt><trkpt lat="44.8615121" lon="9.7819369"><ele>186.5</ele><time>2026-03-29T09:04:01.068Z</time></trkpt><trkpt lat="44.8615515" lon="9.7818348"><ele>187.0</ele><time>2026-03-29T09:04:03.088Z</time></trkpt><trkpt lat="44.8615871" lon="9.7817385"><ele>187.5</ele><time>2026-03-29T09:04:05.088Z</time></trkpt><trkpt lat="44.861625" lon="9.7816531"><ele>188.0</ele><time>2026-03-29T09:04:07.098Z</time></trkpt><trkpt lat="44.8616648" lon="9.7815771"><ele>188.5</ele><time>2026-03-29T09:04:09.094Z</time></trkpt><trkpt lat="44.8617085" lon="9.7815108"><ele>189.0</ele><time>2026-03-29T09:04:11.092Z</time></trkpt><trkpt lat="44.8617788" lon="9.7814256"><ele>189.0</ele><time>2026-03-29T09:04:14.096Z</time></trkpt><trkpt lat="44.8618413" lon="9.7813435"><ele>189.0</ele><time>2026-03-29T09:04:17.083Z</time></trkpt><trkpt lat="44.8619029" lon="9.7812692"><ele>189.0</ele><time>2026-03-29T09:04:20.083Z</time></trkpt><trkpt lat="44.8619648" lon="9.7811983"><ele>189.0</ele><time>2026-03-29T09:04:23.091Z</time></trkpt><trkpt lat="44.8620349" lon="9.7811267"><ele>189.0</ele><time>2026-03-29T09:04:26.086Z</time></trkpt><trkpt lat="44.862085" lon="9.7810667"><ele>189.0</ele><time>2026-03-29T09:04:28.082Z</time></trkpt><trkpt lat="44.8621315" lon="9.7809987"><ele>189.0</ele><time>2026-03-29T09:04:30.095Z</time></trkpt><trkpt lat="44.8622069" lon="9.7809493"><ele>189.0</ele><time>2026-03-29T09:04:33.099Z</time></trkpt><trkpt lat="44.8622956" lon="9.7809786"><ele>189.0</ele><time>2026-03-29T09:04:36.091Z</time></trkpt><trkpt lat="44.8623634" lon="9.7810187"><ele>189.0</ele><time>2026-03-29T09:04:38.089Z</time></trkpt><trkpt lat="44.8624166" lon="9.7810713"><ele>189.0</ele><time>2026-03-29T09:04:40.094Z</time></trkpt><trkpt lat="44.8624938" lon="9.7811224"><ele>189.0</ele><time>2026-03-29T09:04:42.096Z</time></trkpt><trkpt lat="44.8625796" lon="9.7811849"><ele>188.39999999999998</ele><time>2026-03-29T09:04:44.083Z</time></trkpt><trkpt lat="44.8626688" lon="9.7812385"><ele>187.8</ele><time>2026-03-29T09:04:46.095Z</time></trkpt><trkpt lat="44.862766" lon="9.7812757"><ele>187.2</ele><time>2026-03-29T09:04:48.087Z</time></trkpt><trkpt lat="44.8628732" lon="9.7813133"><ele>186.60000000000002</ele><time>2026-03-29T09:04:50.092Z</time></trkpt><trkpt lat="44.86299" lon="9.7813371"><ele>186.0</ele><time>2026-03-29T09:04:52.091Z</time></trkpt><trkpt lat="44.863105" lon="9.7813466"><ele>186.0</ele><time>2026-03-29T09:04:54.083Z</time></trkpt><trkpt lat="44.8632167" lon="9.781357"><ele>186.0</ele><time>2026-03-29T09:04:56.073Z</time></trkpt><trkpt lat="44.8633325" lon="9.7813746"><ele>186.0</ele><time>2026-03-29T09:04:58.09Z</time></trkpt><trkpt lat="44.8634527" lon="9.7813783"><ele>186.0</ele><time>2026-03-29T09:05:00.087Z</time></trkpt><trkpt lat="44.8635778" lon="9.7813876"><ele>186.0</ele><time>2026-03-29T09:05:02.095Z</time></trkpt><trkpt lat="44.8636976" lon="9.7814016"><ele>186.0</ele><time>2026-03-29T09:05:04.092Z</time></trkpt><trkpt lat="44.8638154" lon="9.7814119"><ele>186.0</ele><time>2026-03-29T09:05:06.076Z</time></trkpt><trkpt lat="44.8639335" lon="9.7814272"><ele>186.0</ele><time>2026-03-29T09:05:08.102Z</time></trkpt><trkpt lat="44.8640508" lon="9.7814423"><ele>186.0</ele><time>2026-03-29T09:05:10.073Z</time></trkpt><trkpt lat="44.8641158" lon="9.7814506"><ele>186.0</ele><time>2026-03-29T09:05:11.085Z</time></trkpt><trkpt lat="44.8642385" lon="9.7814563"><ele>186.0</ele><time>2026-03-29T09:05:13.09Z</time></trkpt><trkpt lat="44.8643606" lon="9.781469"><ele>186.0</ele><time>2026-03-29T09:05:15.078Z</time></trkpt><trkpt lat="44.864482" lon="9.781482"><ele>186.0</ele><time>2026-03-29T09:05:17.092Z</time></trkpt><trkpt lat="44.8645489" lon="9.7814906"><ele>186.0</ele><time>2026-03-29T09:05:18.094Z</time></trkpt><trkpt lat="44.864674" lon="9.7815007"><ele>186.0</ele><time>2026-03-29T09:05:20.091Z</time></trkpt><trkpt lat="44.8647373" lon="9.7815064"><ele>186.0</ele><time>2026-03-29T09:05:21.091Z</time></trkpt><trkpt lat="44.8648607" lon="9.7815249"><ele>186.0</ele><time>2026-03-29T09:05:23.104Z</time></trkpt><trkpt lat="44.8649243" lon="9.7815359"><ele>186.0</ele><time>2026-03-29T09:05:24.076Z</time></trkpt><trkpt lat="44.865049" lon="9.781545"><ele>185.66666666666666</ele><time>2026-03-29T09:05:26.086Z</time></trkpt><trkpt lat="44.865113" lon="9.7815492"><ele>185.33333333333334</ele><time>2026-03-29T09:05:27.085Z</time></trkpt><trkpt lat="44.8652401" lon="9.7815606"><ele>185.0</ele><time>2026-03-29T09:05:29.093Z</time></trkpt><trkpt lat="44.8653063" lon="9.7815666"><ele>184.66666666666669</ele><time>2026-03-29T09:05:30.085Z</time></trkpt><trkpt lat="44.8653729" lon="9.7815727"><ele>184.33333333333334</ele><time>2026-03-29T09:05:31.087Z</time></trkpt><trkpt lat="44.8654358" lon="9.7815804"><ele>184.0</ele><time>2026-03-29T09:05:32.086Z</time></trkpt><trkpt lat="44.8654996" lon="9.7815865"><ele>184.0</ele><time>2026-03-29T09:05:33.093Z</time></trkpt><trkpt lat="44.8655633" lon="9.7815876"><ele>184.0</ele><time>2026-03-29T09:05:34.089Z</time></trkpt><trkpt lat="44.865627" lon="9.7815933"><ele>184.0</ele><time>2026-03-29T09:05:35.09Z</time></trkpt><trkpt lat="44.8656915" lon="9.7815995"><ele>184.0</ele><time>2026-03-29T09:05:36.093Z</time></trkpt><trkpt lat="44.8658176" lon="9.7816182"><ele>184.0</ele><time>2026-03-29T09:05:38.084Z</time></trkpt><trkpt lat="44.8659393" lon="9.781631"><ele>184.0</ele><time>2026-03-29T09:05:40.094Z</time></trkpt><trkpt lat="44.8660626" lon="9.7816392"><ele>184.0</ele><time>2026-03-29T09:05:42.102Z</time></trkpt><trkpt lat="44.8661263" lon="9.7816494"><ele>184.0</ele><time>2026-03-29T09:05:43.091Z</time></trkpt><trkpt lat="44.8662469" lon="9.7816626"><ele>184.0</ele><time>2026-03-29T09:05:45.088Z</time></trkpt><trkpt lat="44.8663705" lon="9.7816795"><ele>184.0</ele><time>2026-03-29T09:05:47.087Z</time></trkpt><trkpt lat="44.8664915" lon="9.7816867"><ele>184.0</ele><time>2026-03-29T09:05:49.094Z</time></trkpt><trkpt lat="44.8666113" lon="9.7816941"><ele>184.0</ele><time>2026-03-29T09:05:51.084Z</time></trkpt><trkpt lat="44.8666753" lon="9.7816999"><ele>184.0</ele><time>2026-03-29T09:05:52.106Z</time></trkpt><trkpt lat="44.8667389" lon="9.7817074"><ele>184.0</ele><time>2026-03-29T09:05:53.081Z</time></trkpt><trkpt lat="44.8668587" lon="9.781717"><ele>184.0</ele><time>2026-03-29T09:05:55.096Z</time></trkpt><trkpt lat="44.8669834" lon="9.7817289"><ele>184.0</ele><time>2026-03-29T09:05:57.095Z</time></trkpt><trkpt lat="44.8670992" lon="9.78174"><ele>184.5</ele><time>2026-03-29T09:05:59.094Z</time></trkpt><trkpt lat="44.8672215" lon="9.7817493"><ele>185.0</ele><time>2026-03-29T09:06:01.088Z</time></trkpt><trkpt lat="44.8673451" lon="9.781759"><ele>185.5</ele><time>2026-03-29T09:06:03.089Z</time></trkpt><trkpt lat="44.867464" lon="9.7817781"><ele>186.0</ele><time>2026-03-29T09:06:05.095Z</time></trkpt><trkpt lat="44.8675863" lon="9.7817851"><ele>185.25</ele><time>2026-03-29T09:06:07.097Z</time></trkpt><trkpt lat="44.8677028" lon="9.7817878"><ele>184.5</ele><time>2026-03-29T09:06:09.105Z</time></trkpt><trkpt lat="44.8678134" lon="9.7817929"><ele>183.75</ele><time>2026-03-29T09:06:11.08Z</time></trkpt><trkpt lat="44.8679283" lon="9.7817966"><ele>183.0</ele><time>2026-03-29T09:06:13.087Z</time></trkpt><trkpt lat="44.8680448" lon="9.7817981"><ele>183.0</ele><time>2026-03-29T09:06:15.07Z</time></trkpt><trkpt lat="44.8681256" lon="9.781681"><ele>183.0</ele><time>2026-03-29T09:06:17.089Z</time></trkpt><trkpt lat="44.8681532" lon="9.7815513"><ele>183.0</ele><time>2026-03-29T09:06:19.089Z</time></trkpt><trkpt lat="44.868166" lon="9.7814404"><ele>183.0</ele><time>2026-03-29T09:06:21.085Z</time></trkpt><trkpt lat="44.868181" lon="9.7813377"><ele>183.0</ele><time>2026-03-29T09:06:23.095Z</time></trkpt><trkpt lat="44.868204" lon="9.7812368"><ele>183.0</ele><time>2026-03-29T09:06:25.096Z</time></trkpt><trkpt lat="44.8682253" lon="9.7811495"><ele>183.0</ele><time>2026-03-29T09:06:27.096Z</time></trkpt><trkpt lat="44.868246" lon="9.7810356"><ele>183.0</ele><time>2026-03-29T09:06:30.1Z</time></trkpt><trkpt lat="44.8682275" lon="9.7809183"><ele>183.0</ele><time>2026-03-29T09:06:33.099Z</time></trkpt><trkpt lat="44.8681953" lon="9.780812"><ele>183.0</ele><time>2026-03-29T09:06:36.085Z</time></trkpt><trkpt lat="44.8681649" lon="9.7807018"><ele>183.0</ele><time>2026-03-29T09:06:39.067Z</time></trkpt><trkpt lat="44.8681281" lon="9.7805944"><ele>183.0</ele><time>2026-03-29T09:06:42.075Z</time></trkpt><trkpt lat="44.8680831" lon="9.7804904"><ele>183.83333333333334</ele><time>2026-03-29T09:06:45.088Z</time></trkpt><trkpt lat="44.8680528" lon="9.7803889"><ele>184.66666666666666</ele><time>2026-03-29T09:06:48.095Z</time></trkpt><trkpt lat="44.8680245" lon="9.7802772"><ele>185.5</ele><time>2026-03-29T09:06:51.08Z</time></trkpt><trkpt lat="44.8680287" lon="9.7801618"><ele>186.33333333333331</ele><time>2026-03-29T09:06:54.093Z</time></trkpt><trkpt lat="44.8680445" lon="9.7800336"><ele>187.16666666666666</ele><time>2026-03-29T09:06:57.092Z</time></trkpt><trkpt lat="44.8680665" lon="9.7799165"><ele>188.0</ele><time>2026-03-29T09:07:00.091Z</time></trkpt><trkpt lat="44.8680797" lon="9.7797955"><ele>188.66666666666666</ele><time>2026-03-29T09:07:03.084Z</time></trkpt><trkpt lat="44.8680869" lon="9.7796642"><ele>189.33333333333331</ele><time>2026-03-29T09:07:06.088Z</time></trkpt><trkpt lat="44.8680864" lon="9.7795336"><ele>190.0</ele><time>2026-03-29T09:07:09.094Z</time></trkpt><trkpt lat="44.8680748" lon="9.7794151"><ele>190.66666666666666</ele><time>2026-03-29T09:07:12.086Z</time></trkpt><trkpt lat="44.8680474" lon="9.7793026"><ele>191.33333333333334</ele><time>2026-03-29T09:07:15.089Z</time></trkpt><trkpt lat="44.8679955" lon="9.779193"><ele>192.0</ele><time>2026-03-29T09:07:18.088Z</time></trkpt><trkpt lat="44.8679282" lon="9.7791146"><ele>192.83333333333334</ele><time>2026-03-29T09:07:21.087Z</time></trkpt><trkpt lat="44.8678628" lon="9.7790314"><ele>193.66666666666669</ele><time>2026-03-29T09:07:24.092Z</time></trkpt><trkpt lat="44.8677989" lon="9.7789652"><ele>194.5</ele><time>2026-03-29T09:07:27.083Z</time></trkpt><trkpt lat="44.8677381" lon="9.7788861"><ele>195.33333333333334</ele><time>2026-03-29T09:07:30.091Z</time></trkpt><trkpt lat="44.8676829" lon="9.7788099"><ele>196.16666666666669</ele><time>2026-03-29T09:07:33.066Z</time></trkpt><trkpt lat="44.8676454" lon="9.7787264"><ele>197.0</ele><time>2026-03-29T09:07:36.088Z</time></trkpt><trkpt lat="44.8676024" lon="9.7786436"><ele>197.14285714285714</ele><time>2026-03-29T09:07:39.081Z</time></trkpt><trkpt lat="44.8675622" lon="9.7785571"><ele>197.28571428571428</ele><time>2026-03-29T09:07:42.061Z</time></trkpt><trkpt lat="44.8675204" lon="9.7784726"><ele>197.42857142857144</ele><time>2026-03-29T09:07:45.065Z</time></trkpt><trkpt lat="44.8674675" lon="9.7784028"><ele>197.57142857142856</ele><time>2026-03-29T09:07:48.086Z</time></trkpt><trkpt lat="44.8674042" lon="9.7783406"><ele>197.7142857142857</ele><time>2026-03-29T09:07:52.095Z</time></trkpt><trkpt lat="44.8673334" lon="9.7783121"><ele>197.85714285714286</ele><time>2026-03-29T09:07:56.086Z</time></trkpt><trkpt lat="44.8672612" lon="9.7782847"><ele>198.0</ele><time>2026-03-29T09:08:00.093Z</time></trkpt><trkpt lat="44.8671889" lon="9.7782764"><ele>198.57142857142858</ele><time>2026-03-29T09:08:04.092Z</time></trkpt><trkpt lat="44.8671165" lon="9.7782565"><ele>199.14285714285714</ele><time>2026-03-29T09:08:09.096Z</time></trkpt><trkpt lat="44.8670557" lon="9.7782241"><ele>199.71428571428572</ele><time>2026-03-29T09:08:13.095Z</time></trkpt><trkpt lat="44.8669861" lon="9.778192"><ele>200.28571428571428</ele><time>2026-03-29T09:08:18.077Z</time></trkpt><trkpt lat="44.8669277" lon="9.7781454"><ele>200.85714285714283</ele><time>2026-03-29T09:08:22.093Z</time></trkpt><trkpt lat="44.8668725" lon="9.7781"><ele>201.42857142857142</ele><time>2026-03-29T09:08:26.093Z</time></trkpt><trkpt lat="44.8668112" lon="9.7780323"><ele>202.0</ele><time>2026-03-29T09:08:31.094Z</time></trkpt><trkpt lat="44.8667598" lon="9.7779783"><ele>202.57142857142856</ele><time>2026-03-29T09:08:35.082Z</time></trkpt><trkpt lat="44.8667064" lon="9.7779187"><ele>203.14285714285714</ele><time>2026-03-29T09:08:39.067Z</time></trkpt><trkpt lat="44.8666471" lon="9.7778458"><ele>203.71428571428572</ele><time>2026-03-29T09:08:44.07Z</time></trkpt><trkpt lat="44.8666015" lon="9.7777839"><ele>204.28571428571428</ele><time>2026-03-29T09:08:48.085Z</time></trkpt><trkpt lat="44.8665461" lon="9.7777107"><ele>204.85714285714286</ele><time>2026-03-29T09:08:53.091Z</time></trkpt><trkpt lat="44.8664919" lon="9.7776591"><ele>205.42857142857142</ele><time>2026-03-29T09:08:57.086Z</time></trkpt><trkpt lat="44.8664366" lon="9.7776071"><ele>206.0</ele><time>2026-03-29T09:09:01.075Z</time></trkpt><trkpt lat="44.8663695" lon="9.7775487"><ele>206.57142857142856</ele><time>2026-03-29T09:09:06.095Z</time></trkpt><trkpt lat="44.8663077" lon="9.7774983"><ele>207.14285714285714</ele><time>2026-03-29T09:09:11.076Z</time></trkpt><trkpt lat="44.8662533" lon="9.7774495"><ele>207.71428571428572</ele><time>2026-03-29T09:09:16.082Z</time></trkpt><trkpt lat="44.8661911" lon="9.777395"><ele>208.28571428571428</ele><time>2026-03-29T09:10:11.086Z</time></trkpt><trkpt lat="44.8661282" lon="9.7773364"><ele>208.85714285714286</ele><time>2026-03-29T09:10:16.077Z</time></trkpt><trkpt lat="44.8660724" lon="9.7772886"><ele>209.42857142857142</ele><time>2026-03-29T09:10:20.088Z</time></trkpt><trkpt lat="44.8660161" lon="9.7772428"><ele>210.0</ele><time>2026-03-29T09:10:24.082Z</time></trkpt><trkpt lat="44.8659557" lon="9.7771952"><ele>210.28571428571428</ele><time>2026-03-29T09:10:28.083Z</time></trkpt><trkpt lat="44.8659004" lon="9.7771375"><ele>210.57142857142856</ele><time>2026-03-29T09:10:32.085Z</time></trkpt><trkpt lat="44.8658472" lon="9.7770726"><ele>210.85714285714286</ele><time>2026-03-29T09:10:36.11Z</time></trkpt><trkpt lat="44.8657947" lon="9.7770072"><ele>211.14285714285714</ele><time>2026-03-29T09:10:40.081Z</time></trkpt><trkpt lat="44.8657363" lon="9.7769348"><ele>211.42857142857142</ele><time>2026-03-29T09:10:45.076Z</time></trkpt><trkpt lat="44.865681" lon="9.7768853"><ele>211.71428571428572</ele><time>2026-03-29T09:10:49.085Z</time></trkpt><trkpt lat="44.8656219" lon="9.7768444"><ele>212.0</ele><time>2026-03-29T09:10:53.064Z</time></trkpt><trkpt lat="44.8655873" lon="9.7767536"><ele>213.0</ele><time>2026-03-29T09:10:58.095Z</time></trkpt><trkpt lat="44.8656215" lon="9.7766659"><ele>214.0</ele><time>2026-03-29T09:11:04.081Z</time></trkpt><trkpt lat="44.8656795" lon="9.7765922"><ele>215.0</ele><time>2026-03-29T09:11:09.096Z</time></trkpt><trkpt lat="44.8657258" lon="9.776522"><ele>216.0</ele><time>2026-03-29T09:11:15.085Z</time></trkpt><trkpt lat="44.8657769" lon="9.776459"><ele>217.0</ele><time>2026-03-29T09:11:20.087Z</time></trkpt><trkpt lat="44.865829" lon="9.7763857"><ele>218.0</ele><time>2026-03-29T09:11:26.092Z</time></trkpt><trkpt lat="44.8658765" lon="9.7763122"><ele>219.0</ele><time>2026-03-29T09:11:31.091Z</time></trkpt><trkpt lat="44.8659206" lon="9.7762393"><ele>219.0</ele><time>2026-03-29T09:11:36.076Z</time></trkpt><trkpt lat="44.8659423" lon="9.7761448"><ele>219.0</ele><time>2026-03-29T09:11:42.087Z</time></trkpt><trkpt lat="44.8659227" lon="9.7760532"><ele>219.0</ele><time>2026-03-29T09:11:46.084Z</time></trkpt><trkpt lat="44.8659276" lon="9.7759554"><ele>219.0</ele><time>2026-03-29T09:11:50.083Z</time></trkpt><trkpt lat="44.8659621" lon="9.7758668"><ele>219.0</ele><time>2026-03-29T09:11:55.092Z</time></trkpt><trkpt lat="44.8660124" lon="9.7757735"><ele>219.0</ele><time>2026-03-29T09:12:00.094Z</time></trkpt><trkpt lat="44.8660558" lon="9.7756882"><ele>219.0</ele><time>2026-03-29T09:12:03.081Z</time></trkpt><trkpt lat="44.8660944" lon="9.775602"><ele>218.71428571428572</ele><time>2026-03-29T09:12:06.083Z</time></trkpt><trkpt lat="44.8661393" lon="9.7754958"><ele>218.42857142857142</ele><time>2026-03-29T09:12:09.081Z</time></trkpt><trkpt lat="44.8661673" lon="9.7754102"><ele>218.14285714285714</ele><time>2026-03-29T09:12:12.078Z</time></trkpt><trkpt lat="44.8661791" lon="9.77531"><ele>217.85714285714286</ele><time>2026-03-29T09:12:15.093Z</time></trkpt><trkpt lat="44.866189" lon="9.7752106"><ele>217.57142857142856</ele><time>2026-03-29T09:12:18.098Z</time></trkpt><trkpt lat="44.8661979" lon="9.7751206"><ele>217.28571428571428</ele><time>2026-03-29T09:12:21.083Z</time></trkpt><trkpt lat="44.8662056" lon="9.7750302"><ele>217.0</ele><time>2026-03-29T09:12:24.094Z</time></trkpt><trkpt lat="44.8662085" lon="9.7749357"><ele>216.99999999999997</ele><time>2026-03-29T09:12:28.082Z</time></trkpt><trkpt lat="44.8662168" lon="9.7748334"><ele>217.0</ele><time>2026-03-29T09:13:35.069Z</time></trkpt><trkpt lat="44.8662623" lon="9.7747317"><ele>217.0</ele><time>2026-03-29T09:13:38.097Z</time></trkpt><trkpt lat="44.8663234" lon="9.7746775"><ele>217.0</ele><time>2026-03-29T09:13:41.076Z</time></trkpt><trkpt lat="44.8663894" lon="9.7746156"><ele>216.99999999999997</ele><time>2026-03-29T09:13:45.087Z</time></trkpt><trkpt lat="44.8664498" lon="9.774561"><ele>217.0</ele><time>2026-03-29T09:13:52.087Z</time></trkpt><trkpt lat="44.8665368" lon="9.7745759"><ele>216.99999999999997</ele><time>2026-03-29T09:13:55.084Z</time></trkpt><trkpt lat="44.866616" lon="9.774631"><ele>217.0</ele><time>2026-03-29T09:13:58.082Z</time></trkpt><trkpt lat="44.8666907" lon="9.7746876"><ele>217.0</ele><time>2026-03-29T09:14:01.096Z</time></trkpt><trkpt lat="44.8667575" lon="9.7747581"><ele>217.0</ele><time>2026-03-29T09:14:04.059Z</time></trkpt><trkpt lat="44.8668158" lon="9.7748137"><ele>216.99999999999997</ele><time>2026-03-29T09:14:06.11Z</time></trkpt><trkpt lat="44.8668867" lon="9.7748824"><ele>217.0</ele><time>2026-03-29T09:14:08.077Z</time></trkpt><trkpt lat="44.8669504" lon="9.7749364"><ele>217.0</ele><time>2026-03-29T09:14:10.085Z</time></trkpt><trkpt lat="44.8670076" lon="9.7749759"><ele>217.0</ele><time>2026-03-29T09:14:12.09Z</time></trkpt><trkpt lat="44.867064" lon="9.7750222"><ele>217.0</ele><time>2026-03-29T09:14:15.091Z</time></trkpt><trkpt lat="44.8671379" lon="9.7750735"><ele>217.0</ele><time>2026-03-29T09:14:18.086Z</time></trkpt><trkpt lat="44.8671978" lon="9.7751593"><ele>217.0</ele><time>2026-03-29T09:14:21.077Z</time></trkpt><trkpt lat="44.8672441" lon="9.7752271"><ele>217.0</ele><time>2026-03-29T09:14:23.082Z</time></trkpt><trkpt lat="44.8672867" lon="9.7752985"><ele>217.0</ele><time>2026-03-29T09:14:25.077Z</time></trkpt><trkpt lat="44.8673446" lon="9.7753792"><ele>217.28571428571428</ele><time>2026-03-29T09:14:27.089Z</time></trkpt><trkpt lat="44.8673897" lon="9.7754807"><ele>217.57142857142856</ele><time>2026-03-29T09:14:29.1Z</time></trkpt><trkpt lat="44.8674296" lon="9.7755665"><ele>217.85714285714286</ele><time>2026-03-29T09:14:31.081Z</time></trkpt><trkpt lat="44.8674764" lon="9.7756733"><ele>218.14285714285714</ele><time>2026-03-29T09:14:34.081Z</time></trkpt><trkpt lat="44.8675187" lon="9.7757425"><ele>218.42857142857142</ele><time>2026-03-29T09:14:37.078Z</time></trkpt><trkpt lat="44.8675814" lon="9.7757012"><ele>218.71428571428572</ele><time>2026-03-29T09:14:41.097Z</time></trkpt><trkpt lat="44.8676124" lon="9.7756183"><ele>219.0</ele><time>2026-03-29T09:14:47.094Z</time></trkpt><trkpt lat="44.8676474" lon="9.7755335"><ele>219.0</ele><time>2026-03-29T09:14:52.093Z</time></trkpt><trkpt lat="44.8676983" lon="9.7754806"><ele>219.0</ele><time>2026-03-29T09:14:59.085Z</time></trkpt><trkpt lat="44.8677487" lon="9.7754051"><ele>219.0</ele><time>2026-03-29T09:15:15.088Z</time></trkpt><trkpt lat="44.8677893" lon="9.7753252"><ele>219.0</ele><time>2026-03-29T09:15:25.071Z</time></trkpt><trkpt lat="44.8678236" lon="9.7752377"><ele>219.0</ele><time>2026-03-29T09:15:34.088Z</time></trkpt><trkpt lat="44.8678711" lon="9.7751738"><ele>219.0</ele><time>2026-03-29T09:15:50.092Z</time></trkpt><trkpt lat="44.8679222" lon="9.7751131"><ele>219.0</ele><time>2026-03-29T09:16:02.093Z</time></trkpt><trkpt lat="44.8679649" lon="9.7750375"><ele>220.71428571428572</ele><time>2026-03-29T09:16:12.096Z</time></trkpt><trkpt lat="44.8680013" lon="9.7749597"><ele>222.42857142857142</ele><time>2026-03-29T09:16:22.088Z</time></trkpt><trkpt lat="44.8680434" lon="9.7748859"><ele>224.14285714285714</ele><time>2026-03-29T09:16:32.077Z</time></trkpt><trkpt lat="44.8680939" lon="9.7748243"><ele>225.85714285714286</ele><time>2026-03-29T09:16:42.048Z</time></trkpt><trkpt lat="44.8681398" lon="9.7747544"><ele>227.57142857142856</ele><time>2026-03-29T09:16:53.077Z</time></trkpt><trkpt lat="44.8681885" lon="9.7746828"><ele>229.28571428571428</ele><time>2026-03-29T09:17:06.093Z</time></trkpt><trkpt lat="44.8682298" lon="9.7746096"><ele>231.0</ele><time>2026-03-29T09:17:14.095Z</time></trkpt><trkpt lat="44.8682699" lon="9.7745285"><ele>231.0</ele><time>2026-03-29T09:17:22.091Z</time></trkpt><trkpt lat="44.8683143" lon="9.7744581"><ele>231.0</ele><time>2026-03-29T09:17:30.073Z</time></trkpt><trkpt lat="44.8683763" lon="9.7744814"><ele>231.0</ele><time>2026-03-29T09:17:38.076Z</time></trkpt><trkpt lat="44.8683887" lon="9.7743939"><ele>231.0</ele><time>2026-03-29T09:18:40.086Z</time></trkpt><trkpt lat="44.868353" lon="9.7742923"><ele>231.0</ele><time>2026-03-29T09:18:45.092Z</time></trkpt><trkpt lat="44.8683159" lon="9.7741934"><ele>231.0</ele><time>2026-03-29T09:18:50.092Z</time></trkpt><trkpt lat="44.8682863" lon="9.7740985"><ele>231.0</ele><time>2026-03-29T09:18:55.092Z</time></trkpt><trkpt lat="44.8682542" lon="9.7740127"><ele>231.85714285714286</ele><time>2026-03-29T09:19:00.085Z</time></trkpt><trkpt lat="44.8682405" lon="9.7739224"><ele>232.71428571428572</ele><time>2026-03-29T09:19:05.094Z</time></trkpt><trkpt lat="44.8682112" lon="9.7738362"><ele>233.57142857142856</ele><time>2026-03-29T09:19:10.089Z</time></trkpt><trkpt lat="44.8681783" lon="9.7737455"><ele>234.42857142857142</ele><time>2026-03-29T09:19:16.089Z</time></trkpt><trkpt lat="44.8681588" lon="9.7736566"><ele>235.28571428571428</ele><time>2026-03-29T09:19:22.081Z</time></trkpt><trkpt lat="44.8681325" lon="9.7735751"><ele>236.1428571428571</ele><time>2026-03-29T09:19:27.089Z</time></trkpt><trkpt lat="44.8680906" lon="9.7734692"><ele>236.99999999999997</ele><time>2026-03-29T09:19:33.099Z</time></trkpt><trkpt lat="44.8680648" lon="9.7733849"><ele>237.57142857142856</ele><time>2026-03-29T09:19:37.092Z</time></trkpt><trkpt lat="44.8680407" lon="9.7732837"><ele>238.14285714285714</ele><time>2026-03-29T09:19:42.085Z</time></trkpt><trkpt lat="44.8680149" lon="9.7731885"><ele>238.71428571428572</ele><time>2026-03-29T09:19:47.087Z</time></trkpt><trkpt lat="44.8679803" lon="9.7731005"><ele>239.28571428571428</ele><time>2026-03-29T09:19:52.081Z</time></trkpt><trkpt lat="44.8679555" lon="9.7730021"><ele>239.8571428571429</ele><time>2026-03-29T09:19:57.078Z</time></trkpt><trkpt lat="44.8679256" lon="9.7729067"><ele>240.42857142857144</ele><time>2026-03-29T09:20:02.096Z</time></trkpt><trkpt lat="44.8678909" lon="9.7728181"><ele>241.0</ele><time>2026-03-29T09:20:07.086Z</time></trkpt><trkpt lat="44.867862" lon="9.7727224"><ele>241.57142857142858</ele><time>2026-03-29T09:20:12.087Z</time></trkpt><trkpt lat="44.867832" lon="9.7726252"><ele>242.14285714285717</ele><time>2026-03-29T09:20:17.095Z</time></trkpt><trkpt lat="44.8678084" lon="9.7725259"><ele>242.71428571428572</ele><time>2026-03-29T09:20:22.086Z</time></trkpt><trkpt lat="44.8677812" lon="9.7724256"><ele>243.28571428571428</ele><time>2026-03-29T09:20:27.086Z</time></trkpt><trkpt lat="44.8677635" lon="9.7723402"><ele>243.85714285714286</ele><time>2026-03-29T09:20:32.088Z</time></trkpt><trkpt lat="44.8677432" lon="9.7722339"><ele>244.42857142857144</ele><time>2026-03-29T09:20:37.091Z</time></trkpt><trkpt lat="44.8677217" lon="9.7721266"><ele>245.0</ele><time>2026-03-29T09:20:41.106Z</time></trkpt><trkpt lat="44.8677053" lon="9.7720295"><ele>245.00000000000003</ele><time>2026-03-29T09:20:45.088Z</time></trkpt><trkpt lat="44.8676844" lon="9.7719324"><ele>245.0</ele><time>2026-03-29T09:20:49.081Z</time></trkpt><trkpt lat="44.8676709" lon="9.7718346"><ele>245.0</ele><time>2026-03-29T09:20:53.083Z</time></trkpt><trkpt lat="44.8676582" lon="9.7717349"><ele>245.0</ele><time>2026-03-29T09:20:57.093Z</time></trkpt><trkpt lat="44.8676308" lon="9.7716292"><ele>245.00000000000003</ele><time>2026-03-29T09:21:01.071Z</time></trkpt><trkpt lat="44.8675752" lon="9.7715409"><ele>245.0</ele><time>2026-03-29T09:21:05.095Z</time></trkpt><trkpt lat="44.8675106" lon="9.7714894"><ele>246.83333333333334</ele><time>2026-03-29T09:21:09.1Z</time></trkpt><trkpt lat="44.8674332" lon="9.7714585"><ele>248.66666666666669</ele><time>2026-03-29T09:21:13.087Z</time></trkpt><trkpt lat="44.8673553" lon="9.7714308"><ele>250.5</ele><time>2026-03-29T09:21:17.118Z</time></trkpt><trkpt lat="44.867292" lon="9.7714138"><ele>252.33333333333331</ele><time>2026-03-29T09:21:20.106Z</time></trkpt><trkpt lat="44.8672161" lon="9.7713931"><ele>254.16666666666666</ele><time>2026-03-29T09:21:24.097Z</time></trkpt><trkpt lat="44.86714" lon="9.7713547"><ele>256.0</ele><time>2026-03-29T09:21:28.083Z</time></trkpt><trkpt lat="44.8670596" lon="9.7713279"><ele>255.99999999999997</ele><time>2026-03-29T09:21:32.091Z</time></trkpt><trkpt lat="44.866985" lon="9.7712975"><ele>256.0</ele><time>2026-03-29T09:21:36.093Z</time></trkpt><trkpt lat="44.8669117" lon="9.7712758"><ele>256.0</ele><time>2026-03-29T09:21:40.083Z</time></trkpt><trkpt lat="44.8668344" lon="9.7712391"><ele>256.0</ele><time>2026-03-29T09:21:44.094Z</time></trkpt><trkpt lat="44.8667591" lon="9.7712124"><ele>255.99999999999997</ele><time>2026-03-29T09:21:48.102Z</time></trkpt><trkpt lat="44.8666956" lon="9.7711884"><ele>256.0</ele><time>2026-03-29T09:21:51.094Z</time></trkpt><trkpt lat="44.8666182" lon="9.7711651"><ele>256.66666666666663</ele><time>2026-03-29T09:21:55.093Z</time></trkpt><trkpt lat="44.8665418" lon="9.7711357"><ele>257.3333333333333</ele><time>2026-03-29T09:21:59.098Z</time></trkpt><trkpt lat="44.8664639" lon="9.771109"><ele>258.0</ele><time>2026-03-29T09:22:03.093Z</time></trkpt><trkpt lat="44.8663911" lon="9.7710874"><ele>258.6666666666667</ele><time>2026-03-29T09:22:07.093Z</time></trkpt><trkpt lat="44.8663163" lon="9.7710568"><ele>259.33333333333337</ele><time>2026-03-29T09:22:11.091Z</time></trkpt><trkpt lat="44.8662382" lon="9.7710296"><ele>260.0</ele><time>2026-03-29T09:22:15.084Z</time></trkpt><trkpt lat="44.8661628" lon="9.7709932"><ele>260.00000000000006</ele><time>2026-03-29T09:22:19.094Z</time></trkpt><trkpt lat="44.8661024" lon="9.7709668"><ele>260.0</ele><time>2026-03-29T09:22:22.097Z</time></trkpt><trkpt lat="44.8660408" lon="9.7709462"><ele>260.0</ele><time>2026-03-29T09:22:25.094Z</time></trkpt><trkpt lat="44.8659793" lon="9.7709077"><ele>260.0</ele><time>2026-03-29T09:22:28.094Z</time></trkpt><trkpt lat="44.8659056" lon="9.7708655"><ele>260.0</ele><time>2026-03-29T09:22:32.088Z</time></trkpt><trkpt lat="44.8658436" lon="9.7708153"><ele>260.00000000000006</ele><time>2026-03-29T09:22:36.085Z</time></trkpt><trkpt lat="44.8657782" lon="9.7707471"><ele>260.0</ele><time>2026-03-29T09:22:40.094Z</time></trkpt><trkpt lat="44.8657127" lon="9.7706822"><ele>261.7142857142857</ele><time>2026-03-29T09:22:44.073Z</time></trkpt><trkpt lat="44.8656664" lon="9.7706081"><ele>263.42857142857144</ele><time>2026-03-29T09:22:48.088Z</time></trkpt><trkpt lat="44.8656049" lon="9.7705389"><ele>265.1428571428571</ele><time>2026-03-29T09:22:52.069Z</time></trkpt><trkpt lat="44.8655516" lon="9.770483"><ele>266.8571428571429</ele><time>2026-03-29T09:22:56.089Z</time></trkpt><trkpt lat="44.8654775" lon="9.7704421"><ele>268.57142857142856</ele><time>2026-03-29T09:23:00.058Z</time></trkpt><trkpt lat="44.8654091" lon="9.7704135"><ele>270.2857142857143</ele><time>2026-03-29T09:23:04.092Z</time></trkpt><trkpt lat="44.8653392" lon="9.7703684"><ele>272.0</ele><time>2026-03-29T09:23:08.079Z</time></trkpt><trkpt lat="44.8652561" lon="9.7703452"><ele>271.99999999999994</ele><time>2026-03-29T09:23:12.085Z</time></trkpt><trkpt lat="44.8651921" lon="9.770332"><ele>272.0</ele><time>2026-03-29T09:23:15.091Z</time></trkpt><trkpt lat="44.8651192" lon="9.7703036"><ele>272.0</ele><time>2026-03-29T09:23:19.096Z</time></trkpt><trkpt lat="44.8650367" lon="9.7702655"><ele>272.0</ele><time>2026-03-29T09:23:23.084Z</time></trkpt><trkpt lat="44.86497" lon="9.770233"><ele>272.0</ele><time>2026-03-29T09:23:26.096Z</time></trkpt><trkpt lat="44.8649033" lon="9.7702022"><ele>271.99999999999994</ele><time>2026-03-29T09:23:29.097Z</time></trkpt><trkpt lat="44.8648408" lon="9.7701575"><ele>272.0</ele><time>2026-03-29T09:23:31.088Z</time></trkpt><trkpt lat="44.8647652" lon="9.7701125"><ele>271.71428571428567</ele><time>2026-03-29T09:23:34.086Z</time></trkpt><trkpt lat="44.8646929" lon="9.7700799"><ele>271.42857142857144</ele><time>2026-03-29T09:23:37.095Z</time></trkpt><trkpt lat="44.8646243" lon="9.7700322"><ele>271.1428571428571</ele><time>2026-03-29T09:23:40.096Z</time></trkpt><trkpt lat="44.8645607" lon="9.7699986"><ele>270.85714285714283</ele><time>2026-03-29T09:23:43.073Z</time></trkpt><trkpt lat="44.8644964" lon="9.7699696"><ele>270.57142857142856</ele><time>2026-03-29T09:23:46.081Z</time></trkpt><trkpt lat="44.8644399" lon="9.7699229"><ele>270.2857142857143</ele><time>2026-03-29T09:23:49.082Z</time></trkpt><trkpt lat="44.8643801" lon="9.7698826"><ele>270.0</ele><time>2026-03-29T09:23:52.088Z</time></trkpt><trkpt lat="44.8643223" lon="9.7698362"><ele>271.57142857142856</ele><time>2026-03-29T09:23:55.101Z</time></trkpt><trkpt lat="44.8642605" lon="9.7697945"><ele>273.1428571428571</ele><time>2026-03-29T09:23:58.096Z</time></trkpt><trkpt lat="44.8642018" lon="9.7697613"><ele>274.7142857142857</ele><time>2026-03-29T09:24:01.096Z</time></trkpt><trkpt lat="44.8641428" lon="9.7697241"><ele>276.2857142857143</ele><time>2026-03-29T09:24:04.088Z</time></trkpt><trkpt lat="44.8640841" lon="9.7696874"><ele>277.8571428571429</ele><time>2026-03-29T09:24:07.095Z</time></trkpt><trkpt lat="44.8640237" lon="9.7696531"><ele>279.42857142857144</ele><time>2026-03-29T09:24:10.09Z</time></trkpt><trkpt lat="44.8639587" lon="9.7696225"><ele>281.0</ele><time>2026-03-29T09:24:13.077Z</time></trkpt><trkpt lat="44.8638991" lon="9.7695857"><ele>281.0</ele><time>2026-03-29T09:24:16.093Z</time></trkpt><trkpt lat="44.8638235" lon="9.7695562"><ele>281.0</ele><time>2026-03-29T09:24:20.095Z</time></trkpt><trkpt lat="44.8637401" lon="9.7695304"><ele>281.0</ele><time>2026-03-29T09:24:24.103Z</time></trkpt><trkpt lat="44.8636765" lon="9.7694982"><ele>281.0</ele><time>2026-03-29T09:24:27.085Z</time></trkpt><trkpt lat="44.8636051" lon="9.769483"><ele>281.0</ele><time>2026-03-29T09:24:30.09Z</time></trkpt><trkpt lat="44.8635222" lon="9.7694701"><ele>281.0</ele><time>2026-03-29T09:24:34.092Z</time></trkpt><trkpt lat="44.8634496" lon="9.7694642"><ele>281.8571428571429</ele><time>2026-03-29T09:24:37.092Z</time></trkpt><trkpt lat="44.8633858" lon="9.7694719"><ele>282.7142857142857</ele><time>2026-03-29T09:24:40.098Z</time></trkpt><trkpt lat="44.8633187" lon="9.7694643"><ele>283.57142857142856</ele><time>2026-03-29T09:24:43.07Z</time></trkpt><trkpt lat="44.86325" lon="9.7694736"><ele>284.42857142857144</ele><time>2026-03-29T09:24:46.09Z</time></trkpt><trkpt lat="44.8631732" lon="9.7694771"><ele>285.2857142857143</ele><time>2026-03-29T09:24:49.095Z</time></trkpt><trkpt lat="44.8630931" lon="9.7694673"><ele>286.14285714285717</ele><time>2026-03-29T09:24:52.083Z</time></trkpt><trkpt lat="44.8630097" lon="9.7694692"><ele>287.0</ele><time>2026-03-29T09:24:55.098Z</time></trkpt><trkpt lat="44.8629366" lon="9.7694641"><ele>287.0</ele><time>2026-03-29T09:24:58.097Z</time></trkpt><trkpt lat="44.8628596" lon="9.7694524"><ele>287.0</ele><time>2026-03-29T09:25:01.088Z</time></trkpt><trkpt lat="44.8627762" lon="9.7694509"><ele>287.0</ele><time>2026-03-29T09:25:04.078Z</time></trkpt><trkpt lat="44.8627027" lon="9.7694471"><ele>287.0</ele><time>2026-03-29T09:25:07.083Z</time></trkpt><trkpt lat="44.8626245" lon="9.7694491"><ele>287.0</ele><time>2026-03-29T09:25:10.092Z</time></trkpt><trkpt lat="44.8625529" lon="9.7694574"><ele>287.0</ele><time>2026-03-29T09:25:13.095Z</time></trkpt><trkpt lat="44.862483" lon="9.7694584"><ele>287.2857142857143</ele><time>2026-03-29T09:25:16.078Z</time></trkpt><trkpt lat="44.8624054" lon="9.7694761"><ele>287.57142857142856</ele><time>2026-03-29T09:25:19.087Z</time></trkpt><trkpt lat="44.8623393" lon="9.7694832"><ele>287.8571428571429</ele><time>2026-03-29T09:25:22.084Z</time></trkpt><trkpt lat="44.8622765" lon="9.7695081"><ele>288.1428571428571</ele><time>2026-03-29T09:25:25.09Z</time></trkpt><trkpt lat="44.8622148" lon="9.7695493"><ele>288.42857142857144</ele><time>2026-03-29T09:25:29.087Z</time></trkpt><trkpt lat="44.862227" lon="9.7696383"><ele>288.7142857142857</ele><time>2026-03-29T09:26:18.084Z</time></trkpt><trkpt lat="44.8622415" lon="9.7695448"><ele>289.0</ele><time>2026-03-29T09:28:10.063Z</time></trkpt><trkpt lat="44.8623069" lon="9.7695049"><ele>289.0</ele><time>2026-03-29T09:28:15.091Z</time></trkpt><trkpt lat="44.8623737" lon="9.7694843"><ele>289.0</ele><time>2026-03-29T09:28:18.087Z</time></trkpt><trkpt lat="44.8624582" lon="9.7694615"><ele>289.0</ele><time>2026-03-29T09:28:22.082Z</time></trkpt><trkpt lat="44.8625447" lon="9.7694541"><ele>289.0</ele><time>2026-03-29T09:28:25.099Z</time></trkpt><trkpt lat="44.862614" lon="9.7694599"><ele>289.0</ele><time>2026-03-29T09:28:27.099Z</time></trkpt><trkpt lat="44.8626916" lon="9.7694516"><ele>289.0</ele><time>2026-03-29T09:28:29.086Z</time></trkpt><trkpt lat="44.8627789" lon="9.7694709"><ele>288.59999999999997</ele><time>2026-03-29T09:28:31.09Z</time></trkpt><trkpt lat="44.8628642" lon="9.7694724"><ele>288.2</ele><time>2026-03-29T09:28:33.09Z</time></trkpt><trkpt lat="44.8629551" lon="9.7694854"><ele>287.79999999999995</ele><time>2026-03-29T09:28:35.083Z</time></trkpt><trkpt lat="44.8630517" lon="9.7694852"><ele>287.4</ele><time>2026-03-29T09:28:37.076Z</time></trkpt><trkpt lat="44.8631434" lon="9.7694872"><ele>287.0</ele><time>2026-03-29T09:28:39.092Z</time></trkpt><trkpt lat="44.8632355" lon="9.7694881"><ele>287.0</ele><time>2026-03-29T09:28:41.097Z</time></trkpt><trkpt lat="44.8633247" lon="9.76949"><ele>287.0</ele><time>2026-03-29T09:28:43.069Z</time></trkpt><trkpt lat="44.8634072" lon="9.7694804"><ele>287.0</ele><time>2026-03-29T09:28:45.082Z</time></trkpt><trkpt lat="44.8634958" lon="9.7694825"><ele>287.0</ele><time>2026-03-29T09:28:47.091Z</time></trkpt><trkpt lat="44.86359" lon="9.7695044"><ele>287.0</ele><time>2026-03-29T09:28:49.099Z</time></trkpt><trkpt lat="44.8636869" lon="9.7695358"><ele>285.8</ele><time>2026-03-29T09:28:51.089Z</time></trkpt><trkpt lat="44.8637903" lon="9.7695785"><ele>284.6</ele><time>2026-03-29T09:28:53.099Z</time></trkpt><trkpt lat="44.8639012" lon="9.7696263"><ele>283.40000000000003</ele><time>2026-03-29T09:28:55.097Z</time></trkpt><trkpt lat="44.8639635" lon="9.7696573"><ele>282.2</ele><time>2026-03-29T09:28:56.087Z</time></trkpt><trkpt lat="44.8640237" lon="9.7696845"><ele>281.0</ele><time>2026-03-29T09:28:57.087Z</time></trkpt><trkpt lat="44.8641378" lon="9.7697375"><ele>281.00000000000006</ele><time>2026-03-29T09:28:59.092Z</time></trkpt><trkpt lat="44.8642056" lon="9.7697896"><ele>281.0</ele><time>2026-03-29T09:29:00.105Z</time></trkpt><trkpt lat="44.8642669" lon="9.7698345"><ele>281.0</ele><time>2026-03-29T09:29:01.092Z</time></trkpt><trkpt lat="44.86433" lon="9.7698733"><ele>281.0</ele><time>2026-03-29T09:29:02.095Z</time></trkpt><trkpt lat="44.864394" lon="9.7699137"><ele>281.0</ele><time>2026-03-29T09:29:03.087Z</time></trkpt><trkpt lat="44.8644569" lon="9.769951"><ele>281.00000000000006</ele><time>2026-03-29T09:29:04.092Z</time></trkpt><trkpt lat="44.8645198" lon="9.7699914"><ele>281.0</ele><time>2026-03-29T09:29:05.096Z</time></trkpt><trkpt lat="44.8645824" lon="9.7700255"><ele>279.6</ele><time>2026-03-29T09:29:06.072Z</time></trkpt><trkpt lat="44.8646439" lon="9.7700561"><ele>278.20000000000005</ele><time>2026-03-29T09:29:07.103Z</time></trkpt><trkpt lat="44.8647045" lon="9.7700923"><ele>276.79999999999995</ele><time>2026-03-29T09:29:08.099Z</time></trkpt><trkpt lat="44.8648167" lon="9.7701662"><ele>275.4</ele><time>2026-03-29T09:29:10.092Z</time></trkpt><trkpt lat="44.864928" lon="9.7702244"><ele>274.0</ele><time>2026-03-29T09:29:12.097Z</time></trkpt><trkpt lat="44.8650391" lon="9.7702723"><ele>273.5</ele><time>2026-03-29T09:29:14.085Z</time></trkpt><trkpt lat="44.8651527" lon="9.7703218"><ele>273.0</ele><time>2026-03-29T09:29:16.089Z</time></trkpt><trkpt lat="44.865267" lon="9.770366"><ele>272.5</ele><time>2026-03-29T09:29:18.092Z</time></trkpt><trkpt lat="44.8653817" lon="9.7703995"><ele>272.0</ele><time>2026-03-29T09:29:20.093Z</time></trkpt><trkpt lat="44.8654882" lon="9.7704489"><ele>272.0</ele><time>2026-03-29T09:29:22.09Z</time></trkpt><trkpt lat="44.8655908" lon="9.7705256"><ele>272.0</ele><time>2026-03-29T09:29:24.099Z</time></trkpt><trkpt lat="44.8656419" lon="9.7705813"><ele>272.0</ele><time>2026-03-29T09:29:25.088Z</time></trkpt><trkpt lat="44.8656911" lon="9.7706418"><ele>272.0</ele><time>2026-03-29T09:29:26.104Z</time></trkpt><trkpt lat="44.8657405" lon="9.7706981"><ele>272.0</ele><time>2026-03-29T09:29:27.098Z</time></trkpt><trkpt lat="44.8658318" lon="9.7708009"><ele>272.0</ele><time>2026-03-29T09:29:29.104Z</time></trkpt><trkpt lat="44.8659361" lon="9.7708793"><ele>269.25</ele><time>2026-03-29T09:29:31.103Z</time></trkpt><trkpt lat="44.8660496" lon="9.7709429"><ele>266.5</ele><time>2026-03-29T09:29:33.09Z</time></trkpt><trkpt lat="44.8661652" lon="9.7709931"><ele>263.75</ele><time>2026-03-29T09:29:35.105Z</time></trkpt><trkpt lat="44.8662788" lon="9.7710325"><ele>261.0</ele><time>2026-03-29T09:29:37.094Z</time></trkpt><trkpt lat="44.8663869" lon="9.7710792"><ele>261.0</ele><time>2026-03-29T09:29:39.086Z</time></trkpt><trkpt lat="44.8665034" lon="9.7711216"><ele>261.0</ele><time>2026-03-29T09:29:41.083Z</time></trkpt><trkpt lat="44.8666198" lon="9.7711663"><ele>261.0</ele><time>2026-03-29T09:29:43.09Z</time></trkpt><trkpt lat="44.866682" lon="9.7711901"><ele>261.0</ele><time>2026-03-29T09:29:44.089Z</time></trkpt><trkpt lat="44.8667975" lon="9.7712348"><ele>261.0</ele><time>2026-03-29T09:29:46.099Z</time></trkpt><trkpt lat="44.8668623" lon="9.771256"><ele>260.2857142857143</ele><time>2026-03-29T09:29:47.094Z</time></trkpt><trkpt lat="44.8669231" lon="9.7712895"><ele>259.57142857142856</ele><time>2026-03-29T09:29:48.093Z</time></trkpt><trkpt lat="44.8669886" lon="9.7713092"><ele>258.85714285714283</ele><time>2026-03-29T09:29:49.09Z</time></trkpt><trkpt lat="44.8671047" lon="9.7713529"><ele>258.1428571428571</ele><time>2026-03-29T09:29:51.104Z</time></trkpt><trkpt lat="44.8671699" lon="9.7713755"><ele>257.4285714285714</ele><time>2026-03-29T09:29:52.075Z</time></trkpt><trkpt lat="44.8672318" lon="9.7713962"><ele>256.7142857142857</ele><time>2026-03-29T09:29:53.086Z</time></trkpt><trkpt lat="44.8672928" lon="9.7714231"><ele>256.0</ele><time>2026-03-29T09:29:54.107Z</time></trkpt><trkpt lat="44.8674036" lon="9.7714563"><ele>256.0</ele><time>2026-03-29T09:29:56.092Z</time></trkpt><trkpt lat="44.867515" lon="9.7714937"><ele>256.0</ele><time>2026-03-29T09:29:58.095Z</time></trkpt><trkpt lat="44.8676086" lon="9.7715565"><ele>256.0</ele><time>2026-03-29T09:30:00.104Z</time></trkpt><trkpt lat="44.8676823" lon="9.7715801"><ele>256.0</ele><time>2026-03-29T09:30:02.101Z</time></trkpt><trkpt lat="44.8677456" lon="9.7715074"><ele>256.0</ele><time>2026-03-29T09:30:04.067Z</time></trkpt><trkpt lat="44.8678258" lon="9.7714437"><ele>255.0</ele><time>2026-03-29T09:30:06.091Z</time></trkpt><trkpt lat="44.867901" lon="9.7713905"><ele>253.99999999999997</ele><time>2026-03-29T09:30:08.108Z</time></trkpt><trkpt lat="44.8679743" lon="9.7713744"><ele>253.0</ele><time>2026-03-29T09:30:10.098Z</time></trkpt><trkpt lat="44.8680493" lon="9.7713678"><ele>252.0</ele><time>2026-03-29T09:30:12.085Z</time></trkpt><trkpt lat="44.8681225" lon="9.7713743"><ele>250.99999999999997</ele><time>2026-03-29T09:30:14.086Z</time></trkpt><trkpt lat="44.8681929" lon="9.7713844"><ele>250.0</ele><time>2026-03-29T09:30:16.091Z</time></trkpt><trkpt lat="44.8682635" lon="9.7713855"><ele>249.0</ele><time>2026-03-29T09:30:18.087Z</time></trkpt><trkpt lat="44.8683301" lon="9.7713866"><ele>249.0</ele><time>2026-03-29T09:30:20.072Z</time></trkpt><trkpt lat="44.868398" lon="9.7713864"><ele>249.0</ele><time>2026-03-29T09:30:22.086Z</time></trkpt><trkpt lat="44.86847" lon="9.7713701"><ele>249.0</ele><time>2026-03-29T09:30:24.093Z</time></trkpt><trkpt lat="44.8685523" lon="9.7713547"><ele>249.0</ele><time>2026-03-29T09:30:26.09Z</time></trkpt><trkpt lat="44.8686371" lon="9.771347"><ele>249.0</ele><time>2026-03-29T09:30:28.098Z</time></trkpt><trkpt lat="44.8687251" lon="9.7713327"><ele>249.0</ele><time>2026-03-29T09:30:30.087Z</time></trkpt><trkpt lat="44.8688211" lon="9.7713166"><ele>247.6</ele><time>2026-03-29T09:30:32.087Z</time></trkpt><trkpt lat="44.868923" lon="9.7712837"><ele>246.2</ele><time>2026-03-29T09:30:34.093Z</time></trkpt><trkpt lat="44.8690342" lon="9.7712496"><ele>244.79999999999998</ele><time>2026-03-29T09:30:36.087Z</time></trkpt><trkpt lat="44.8691311" lon="9.7712278"><ele>243.39999999999998</ele><time>2026-03-29T09:30:38.083Z</time></trkpt><trkpt lat="44.869234" lon="9.7711989"><ele>242.0</ele><time>2026-03-29T09:30:40.073Z</time></trkpt><trkpt lat="44.8693273" lon="9.771198"><ele>240.50000000000003</ele><time>2026-03-29T09:30:42.109Z</time></trkpt><trkpt lat="44.869417" lon="9.7712024"><ele>239.0</ele><time>2026-03-29T09:30:44.084Z</time></trkpt><trkpt lat="44.869505" lon="9.7712169"><ele>237.5</ele><time>2026-03-29T09:30:46.094Z</time></trkpt><trkpt lat="44.8695906" lon="9.7712178"><ele>236.0</ele><time>2026-03-29T09:30:48.093Z</time></trkpt><trkpt lat="44.8696805" lon="9.7712195"><ele>234.50000000000003</ele><time>2026-03-29T09:30:50.1Z</time></trkpt><trkpt lat="44.8697741" lon="9.7712263"><ele>233.0</ele><time>2026-03-29T09:30:52.082Z</time></trkpt><trkpt lat="44.869876" lon="9.7712257"><ele>233.0</ele><time>2026-03-29T09:30:54.049Z</time></trkpt><trkpt lat="44.8699849" lon="9.7712247"><ele>233.0</ele><time>2026-03-29T09:30:56.084Z</time></trkpt><trkpt lat="44.8700971" lon="9.7712095"><ele>233.0</ele><time>2026-03-29T09:30:58.091Z</time></trkpt><trkpt lat="44.8702196" lon="9.7711963"><ele>233.0</ele><time>2026-03-29T09:31:00.089Z</time></trkpt><trkpt lat="44.870339" lon="9.7711951"><ele>231.60000000000002</ele><time>2026-03-29T09:31:02.087Z</time></trkpt><trkpt lat="44.8704555" lon="9.7711967"><ele>230.20000000000002</ele><time>2026-03-29T09:31:04.082Z</time></trkpt><trkpt lat="44.8705607" lon="9.7712074"><ele>228.8</ele><time>2026-03-29T09:31:06.1Z</time></trkpt><trkpt lat="44.8706599" lon="9.7712104"><ele>227.4</ele><time>2026-03-29T09:31:08.103Z</time></trkpt><trkpt lat="44.8707591" lon="9.7711745"><ele>226.0</ele><time>2026-03-29T09:31:10.083Z</time></trkpt><trkpt lat="44.870822" lon="9.7710613"><ele>227.0</ele><time>2026-03-29T09:31:12.095Z</time></trkpt><trkpt lat="44.870843" lon="9.7709222"><ele>228.00000000000003</ele><time>2026-03-29T09:31:14.094Z</time></trkpt><trkpt lat="44.8708422" lon="9.770779"><ele>229.00000000000003</ele><time>2026-03-29T09:31:16.096Z</time></trkpt><trkpt lat="44.8708399" lon="9.7706293"><ele>230.0</ele><time>2026-03-29T09:31:18.096Z</time></trkpt><trkpt lat="44.8708433" lon="9.7704809"><ele>231.0</ele><time>2026-03-29T09:31:20.094Z</time></trkpt><trkpt lat="44.8708561" lon="9.7703339"><ele>231.0</ele><time>2026-03-29T09:31:22.095Z</time></trkpt><trkpt lat="44.8708759" lon="9.7701931"><ele>231.00000000000003</ele><time>2026-03-29T09:31:24.087Z</time></trkpt><trkpt lat="44.8709032" lon="9.7700544"><ele>231.00000000000003</ele><time>2026-03-29T09:31:26.097Z</time></trkpt><trkpt lat="44.8709802" lon="9.769967"><ele>231.0</ele><time>2026-03-29T09:31:28.084Z</time></trkpt><trkpt lat="44.8710817" lon="9.7699139"><ele>231.0</ele><time>2026-03-29T09:31:30.099Z</time></trkpt><trkpt lat="44.871203" lon="9.7698567"><ele>229.33333333333334</ele><time>2026-03-29T09:31:32.11Z</time></trkpt><trkpt lat="44.8712655" lon="9.76983"><ele>227.66666666666669</ele><time>2026-03-29T09:31:33.067Z</time></trkpt><trkpt lat="44.871389" lon="9.7697721"><ele>226.0</ele><time>2026-03-29T09:31:35.096Z</time></trkpt><trkpt lat="44.8714572" lon="9.7697548"><ele>224.33333333333334</ele><time>2026-03-29T09:31:36.078Z</time></trkpt><trkpt lat="44.8715223" lon="9.7697343"><ele>222.66666666666669</ele><time>2026-03-29T09:31:37.083Z</time></trkpt><trkpt lat="44.8715827" lon="9.7697061"><ele>221.0</ele><time>2026-03-29T09:31:38.08Z</time></trkpt><trkpt lat="44.8716481" lon="9.7696751"><ele>221.00000000000003</ele><time>2026-03-29T09:31:39.092Z</time></trkpt><trkpt lat="44.8717133" lon="9.7696498"><ele>221.0</ele><time>2026-03-29T09:31:40.087Z</time></trkpt><trkpt lat="44.8717778" lon="9.7696194"><ele>221.0</ele><time>2026-03-29T09:31:41.088Z</time></trkpt><trkpt lat="44.8718469" lon="9.7695894"><ele>221.0</ele><time>2026-03-29T09:31:42.085Z</time></trkpt><trkpt lat="44.8719236" lon="9.7695603"><ele>221.0</ele><time>2026-03-29T09:31:43.093Z</time></trkpt><trkpt lat="44.871997" lon="9.7695337"><ele>221.00000000000003</ele><time>2026-03-29T09:31:44.089Z</time></trkpt><trkpt lat="44.8720754" lon="9.7695044"><ele>221.0</ele><time>2026-03-29T09:31:45.095Z</time></trkpt><trkpt lat="44.8721524" lon="9.7694775"><ele>220.00000000000003</ele><time>2026-03-29T09:31:46.081Z</time></trkpt><trkpt lat="44.8722285" lon="9.7694498"><ele>219.0</ele><time>2026-03-29T09:31:47.089Z</time></trkpt><trkpt lat="44.8723019" lon="9.7694205"><ele>218.0</ele><time>2026-03-29T09:31:48.104Z</time></trkpt><trkpt lat="44.8723762" lon="9.7693962"><ele>217.0</ele><time>2026-03-29T09:31:49.095Z</time></trkpt><trkpt lat="44.8724484" lon="9.7693754"><ele>216.0</ele><time>2026-03-29T09:31:50.086Z</time></trkpt><trkpt lat="44.8725141" lon="9.7693552"><ele>215.00000000000003</ele><time>2026-03-29T09:31:51.065Z</time></trkpt><trkpt lat="44.8725752" lon="9.7693321"><ele>214.0</ele><time>2026-03-29T09:31:52.06Z</time></trkpt><trkpt lat="44.8726893" lon="9.7692905"><ele>212.39999999999998</ele><time>2026-03-29T09:31:54.086Z</time></trkpt><trkpt lat="44.8727718" lon="9.7692387"><ele>210.79999999999998</ele><time>2026-03-29T09:31:56.097Z</time></trkpt><trkpt lat="44.8728583" lon="9.7692393"><ele>209.2</ele><time>2026-03-29T09:31:58.081Z</time></trkpt><trkpt lat="44.8729227" lon="9.7692689"><ele>207.60000000000002</ele><time>2026-03-29T09:32:00.081Z</time></trkpt><trkpt lat="44.8729969" lon="9.7693242"><ele>206.0</ele><time>2026-03-29T09:32:02.094Z</time></trkpt><trkpt lat="44.8730885" lon="9.7694466"><ele>205.83333333333334</ele><time>2026-03-29T09:32:04.069Z</time></trkpt><trkpt lat="44.8731582" lon="9.7695033"><ele>205.66666666666669</ele><time>2026-03-29T09:32:05.092Z</time></trkpt><trkpt lat="44.8732327" lon="9.7695502"><ele>205.5</ele><time>2026-03-29T09:32:06.083Z</time></trkpt><trkpt lat="44.8733122" lon="9.7695864"><ele>205.33333333333331</ele><time>2026-03-29T09:32:07.086Z</time></trkpt><trkpt lat="44.8734047" lon="9.7696044"><ele>205.16666666666666</ele><time>2026-03-29T09:32:08.094Z</time></trkpt><trkpt lat="44.8734919" lon="9.7695926"><ele>205.0</ele><time>2026-03-29T09:32:09.068Z</time></trkpt><trkpt lat="44.8735723" lon="9.7695784"><ele>204.16666666666666</ele><time>2026-03-29T09:32:10.076Z</time></trkpt><trkpt lat="44.8736618" lon="9.7695457"><ele>203.33333333333331</ele><time>2026-03-29T09:32:11.092Z</time></trkpt><trkpt lat="44.8737511" lon="9.7695248"><ele>202.5</ele><time>2026-03-29T09:32:12.082Z</time></trkpt><trkpt lat="44.8738353" lon="9.7695033"><ele>201.66666666666669</ele><time>2026-03-29T09:32:13.1Z</time></trkpt><trkpt lat="44.8739196" lon="9.7694906"><ele>200.83333333333334</ele><time>2026-03-29T09:32:14.09Z</time></trkpt><trkpt lat="44.873999" lon="9.7694789"><ele>200.0</ele><time>2026-03-29T09:32:15.096Z</time></trkpt><trkpt lat="44.8740721" lon="9.7694723"><ele>200.00000000000003</ele><time>2026-03-29T09:32:16.098Z</time></trkpt><trkpt lat="44.8741434" lon="9.7694624"><ele>200.0</ele><time>2026-03-29T09:32:17.098Z</time></trkpt><trkpt lat="44.8742185" lon="9.7694454"><ele>200.0</ele><time>2026-03-29T09:32:18.081Z</time></trkpt><trkpt lat="44.8742906" lon="9.7693959"><ele>200.0</ele><time>2026-03-29T09:32:19.096Z</time></trkpt><trkpt lat="44.8743611" lon="9.7693262"><ele>200.00000000000003</ele><time>2026-03-29T09:32:20.091Z</time></trkpt><trkpt lat="44.8744375" lon="9.7692613"><ele>200.0</ele><time>2026-03-29T09:32:21.094Z</time></trkpt><trkpt lat="44.8745121" lon="9.7691831"><ele>199.4</ele><time>2026-03-29T09:32:22.095Z</time></trkpt><trkpt lat="44.8745913" lon="9.7690968"><ele>198.8</ele><time>2026-03-29T09:32:23.094Z</time></trkpt><trkpt lat="44.8746723" lon="9.7690097"><ele>198.2</ele><time>2026-03-29T09:32:24.092Z</time></trkpt><trkpt lat="44.8747495" lon="9.7689237"><ele>197.6</ele><time>2026-03-29T09:32:25.096Z</time></trkpt><trkpt lat="44.8748175" lon="9.7688487"><ele>197.0</ele><time>2026-03-29T09:32:26.092Z</time></trkpt><trkpt lat="44.8748801" lon="9.7687678"><ele>197.00000000000003</ele><time>2026-03-29T09:32:27.097Z</time></trkpt><trkpt lat="44.874946" lon="9.7686901"><ele>197.0</ele><time>2026-03-29T09:32:28.093Z</time></trkpt><trkpt lat="44.8750034" lon="9.7686243"><ele>197.0</ele><time>2026-03-29T09:32:29.097Z</time></trkpt><trkpt lat="44.8750899" lon="9.7685183"><ele>197.0</ele><time>2026-03-29T09:32:31.103Z</time></trkpt><trkpt lat="44.8751628" lon="9.7684435"><ele>197.00000000000003</ele><time>2026-03-29T09:32:33.093Z</time></trkpt><trkpt lat="44.8752238" lon="9.7683693"><ele>197.0</ele><time>2026-03-29T09:32:35.087Z</time></trkpt><trkpt lat="44.8752855" lon="9.7683084"><ele>197.71428571428572</ele><time>2026-03-29T09:32:37.068Z</time></trkpt><trkpt lat="44.8753517" lon="9.768255"><ele>198.42857142857144</ele><time>2026-03-29T09:32:40.095Z</time></trkpt><trkpt lat="44.8754231" lon="9.7682042"><ele>199.14285714285714</ele><time>2026-03-29T09:32:44.072Z</time></trkpt><trkpt lat="44.8754881" lon="9.7681495"><ele>199.85714285714286</ele><time>2026-03-29T09:32:48.095Z</time></trkpt><trkpt lat="44.8755568" lon="9.7680766"><ele>200.57142857142856</ele><time>2026-03-29T09:32:52.087Z</time></trkpt><trkpt lat="44.8756085" lon="9.7680241"><ele>201.28571428571428</ele><time>2026-03-29T09:32:55.088Z</time></trkpt><trkpt lat="44.8756536" lon="9.7679614"><ele>202.0</ele><time>2026-03-29T09:32:58.092Z</time></trkpt><trkpt lat="44.8757111" lon="9.7678778"><ele>202.0</ele><time>2026-03-29T09:33:02.097Z</time></trkpt><trkpt lat="44.8757548" lon="9.7677959"><ele>202.0</ele><time>2026-03-29T09:33:06.114Z</time></trkpt><trkpt lat="44.8757917" lon="9.7677082"><ele>202.0</ele><time>2026-03-29T09:33:10.094Z</time></trkpt><trkpt lat="44.8758206" lon="9.767625"><ele>202.0</ele><time>2026-03-29T09:33:14.061Z</time></trkpt><trkpt lat="44.8758664" lon="9.7675422"><ele>202.0</ele><time>2026-03-29T09:33:18.064Z</time></trkpt><trkpt lat="44.875933" lon="9.7674811"><ele>202.0</ele><time>2026-03-29T09:33:22.092Z</time></trkpt><trkpt lat="44.8760037" lon="9.7674505"><ele>202.0</ele><time>2026-03-29T09:33:25.098Z</time></trkpt><trkpt lat="44.8760711" lon="9.7673953"><ele>203.14285714285714</ele><time>2026-03-29T09:33:28.074Z</time></trkpt><trkpt lat="44.8761342" lon="9.7673301"><ele>204.28571428571428</ele><time>2026-03-29T09:33:31.081Z</time></trkpt><trkpt lat="44.8761939" lon="9.7672702"><ele>205.42857142857144</ele><time>2026-03-29T09:33:34.096Z</time></trkpt><trkpt lat="44.8762491" lon="9.7672013"><ele>206.57142857142856</ele><time>2026-03-29T09:33:37.1Z</time></trkpt><trkpt lat="44.8763162" lon="9.7671254"><ele>207.71428571428572</ele><time>2026-03-29T09:33:40.095Z</time></trkpt><trkpt lat="44.8763637" lon="9.7670599"><ele>208.85714285714286</ele><time>2026-03-29T09:33:42.09Z</time></trkpt><trkpt lat="44.8764145" lon="9.7669905"><ele>210.0</ele><time>2026-03-29T09:33:44.068Z</time></trkpt><trkpt lat="44.8764658" lon="9.7669221"><ele>209.4</ele><time>2026-03-29T09:33:46.1Z</time></trkpt><trkpt lat="44.8765258" lon="9.7668414"><ele>208.8</ele><time>2026-03-29T09:33:48.097Z</time></trkpt><trkpt lat="44.8765926" lon="9.7667643"><ele>208.2</ele><time>2026-03-29T09:33:50.108Z</time></trkpt><trkpt lat="44.8766706" lon="9.7667019"><ele>207.6</ele><time>2026-03-29T09:33:52.099Z</time></trkpt><trkpt lat="44.8767567" lon="9.7666248"><ele>207.0</ele><time>2026-03-29T09:33:54.101Z</time></trkpt><trkpt lat="44.8768322" lon="9.7665339"><ele>207.0</ele><time>2026-03-29T09:33:56.085Z</time></trkpt><trkpt lat="44.8769216" lon="9.7664437"><ele>207.0</ele><time>2026-03-29T09:33:58.089Z</time></trkpt><trkpt lat="44.8770182" lon="9.7663529"><ele>207.0</ele><time>2026-03-29T09:34:00.095Z</time></trkpt><trkpt lat="44.8771159" lon="9.7662711"><ele>207.0</ele><time>2026-03-29T09:34:02.093Z</time></trkpt><trkpt lat="44.877214" lon="9.7661828"><ele>207.0</ele><time>2026-03-29T09:34:04.088Z</time></trkpt><trkpt lat="44.8772704" lon="9.7661382"><ele>207.0</ele><time>2026-03-29T09:34:05.092Z</time></trkpt><trkpt lat="44.8773799" lon="9.7660537"><ele>207.0</ele><time>2026-03-29T09:34:07.095Z</time></trkpt><trkpt lat="44.8774286" lon="9.7659971"><ele>207.0</ele><time>2026-03-29T09:34:08.103Z</time></trkpt><trkpt lat="44.8774771" lon="9.7659264"><ele>207.0</ele><time>2026-03-29T09:34:09.099Z</time></trkpt><trkpt lat="44.8775252" lon="9.7658507"><ele>207.0</ele><time>2026-03-29T09:34:10.079Z</time></trkpt><trkpt lat="44.8775788" lon="9.7657802"><ele>205.5</ele><time>2026-03-29T09:34:11.096Z</time></trkpt><trkpt lat="44.8776362" lon="9.7657207"><ele>204.0</ele><time>2026-03-29T09:34:12.081Z</time></trkpt><trkpt lat="44.8777043" lon="9.7656933"><ele>202.5</ele><time>2026-03-29T09:34:13.094Z</time></trkpt><trkpt lat="44.8777874" lon="9.7656808"><ele>201.0</ele><time>2026-03-29T09:34:14.095Z</time></trkpt><trkpt lat="44.877874" lon="9.7656877"><ele>199.5</ele><time>2026-03-29T09:34:15.083Z</time></trkpt><trkpt lat="44.8779645" lon="9.7657"><ele>198.0</ele><time>2026-03-29T09:34:16.085Z</time></trkpt><trkpt lat="44.8780533" lon="9.7657147"><ele>198.0</ele><time>2026-03-29T09:34:17.08Z</time></trkpt><trkpt lat="44.8781444" lon="9.7657292"><ele>198.0</ele><time>2026-03-29T09:34:18.083Z</time></trkpt><trkpt lat="44.8782372" lon="9.7657419"><ele>198.0</ele><time>2026-03-29T09:34:19.083Z</time></trkpt><trkpt lat="44.8783268" lon="9.7657618"><ele>198.0</ele><time>2026-03-29T09:34:20.085Z</time></trkpt><trkpt lat="44.8784123" lon="9.7657755"><ele>198.0</ele><time>2026-03-29T09:34:21.078Z</time></trkpt><trkpt lat="44.8784929" lon="9.7657877"><ele>198.0</ele><time>2026-03-29T09:34:22.048Z</time></trkpt><trkpt lat="44.8785799" lon="9.765801"><ele>196.2</ele><time>2026-03-29T09:34:23.082Z</time></trkpt><trkpt lat="44.8786727" lon="9.765805"><ele>194.4</ele><time>2026-03-29T09:34:24.087Z</time></trkpt><trkpt lat="44.8787649" lon="9.765797"><ele>192.6</ele><time>2026-03-29T09:34:25.044Z</time></trkpt><trkpt lat="44.8788635" lon="9.7657852"><ele>190.79999999999998</ele><time>2026-03-29T09:34:26.038Z</time></trkpt><trkpt lat="44.8789632" lon="9.765772"><ele>189.0</ele><time>2026-03-29T09:34:27.06Z</time></trkpt><trkpt lat="44.8790619" lon="9.7657564"><ele>189.0</ele><time>2026-03-29T09:34:28.047Z</time></trkpt><trkpt lat="44.8791659" lon="9.7657452"><ele>189.0</ele><time>2026-03-29T09:34:29.062Z</time></trkpt><trkpt lat="44.8792617" lon="9.7657298"><ele>189.0</ele><time>2026-03-29T09:34:30.048Z</time></trkpt><trkpt lat="44.8793593" lon="9.7657089"><ele>189.0</ele><time>2026-03-29T09:34:31.05Z</time></trkpt><trkpt lat="44.8794606" lon="9.7656889"><ele>189.0</ele><time>2026-03-29T09:34:32.087Z</time></trkpt><trkpt lat="44.8795582" lon="9.7656816"><ele>186.79999999999998</ele><time>2026-03-29T09:34:33.082Z</time></trkpt><trkpt lat="44.8796566" lon="9.7656717"><ele>184.6</ele><time>2026-03-29T09:34:34.095Z</time></trkpt><trkpt lat="44.8797556" lon="9.7656661"><ele>182.4</ele><time>2026-03-29T09:34:35.083Z</time></trkpt><trkpt lat="44.8798512" lon="9.7656592"><ele>180.2</ele><time>2026-03-29T09:34:36.058Z</time></trkpt><trkpt lat="44.8799557" lon="9.7656468"><ele>178.0</ele><time>2026-03-29T09:34:37.099Z</time></trkpt><trkpt lat="44.8800612" lon="9.7656295"><ele>177.2</ele><time>2026-03-29T09:34:38.086Z</time></trkpt><trkpt lat="44.8801626" lon="9.7656128"><ele>176.4</ele><time>2026-03-29T09:34:39.09Z</time></trkpt><trkpt lat="44.880266" lon="9.7656021"><ele>175.6</ele><time>2026-03-29T09:34:40.088Z</time></trkpt><trkpt lat="44.8803669" lon="9.7655992"><ele>174.79999999999998</ele><time>2026-03-29T09:34:41.082Z</time></trkpt><trkpt lat="44.8804705" lon="9.7656076"><ele>174.0</ele><time>2026-03-29T09:34:42.071Z</time></trkpt><trkpt lat="44.880569" lon="9.7656161"><ele>174.0</ele><time>2026-03-29T09:34:43.1Z</time></trkpt><trkpt lat="44.8806715" lon="9.7656287"><ele>174.0</ele><time>2026-03-29T09:34:44.07Z</time></trkpt><trkpt lat="44.8807737" lon="9.7656507"><ele>174.0</ele><time>2026-03-29T09:34:45.086Z</time></trkpt><trkpt lat="44.8808739" lon="9.7656719"><ele>174.0</ele><time>2026-03-29T09:34:46.095Z</time></trkpt><trkpt lat="44.880967" lon="9.7656901"><ele>174.0</ele><time>2026-03-29T09:34:47.089Z</time></trkpt><trkpt lat="44.8810589" lon="9.7657141"><ele>172.2</ele><time>2026-03-29T09:34:48.09Z</time></trkpt><trkpt lat="44.8811446" lon="9.7657416"><ele>170.39999999999998</ele><time>2026-03-29T09:34:49.097Z</time></trkpt><trkpt lat="44.8812358" lon="9.7657691"><ele>168.6</ele><time>2026-03-29T09:34:50.097Z</time></trkpt><trkpt lat="44.8813304" lon="9.7657812"><ele>166.8</ele><time>2026-03-29T09:34:51.088Z</time></trkpt><trkpt lat="44.8814212" lon="9.7657925"><ele>165.0</ele><time>2026-03-29T09:34:52.098Z</time></trkpt><trkpt lat="44.8815082" lon="9.7657914"><ele>165.0</ele><time>2026-03-29T09:34:53.084Z</time></trkpt><trkpt lat="44.881586" lon="9.7657857"><ele>165.0</ele><time>2026-03-29T09:34:54.061Z</time></trkpt><trkpt lat="44.8816609" lon="9.7657867"><ele>165.0</ele><time>2026-03-29T09:34:55.096Z</time></trkpt><trkpt lat="44.8817318" lon="9.7658009"><ele>165.0</ele><time>2026-03-29T09:34:56.085Z</time></trkpt><trkpt lat="44.8817979" lon="9.7658178"><ele>165.0</ele><time>2026-03-29T09:34:57.083Z</time></trkpt><trkpt lat="44.8819108" lon="9.7658421"><ele>165.0</ele><time>2026-03-29T09:34:59.08Z</time></trkpt><trkpt lat="44.881998" lon="9.7658202"><ele>164.0</ele><time>2026-03-29T09:35:01.094Z</time></trkpt><trkpt lat="44.8820326" lon="9.7656772"><ele>163.0</ele><time>2026-03-29T09:35:03.09Z</time></trkpt><trkpt lat="44.8820165" lon="9.7654983"><ele>162.0</ele><time>2026-03-29T09:35:05.089Z</time></trkpt><trkpt lat="44.8819889" lon="9.7653907"><ele>161.0</ele><time>2026-03-29T09:35:06.081Z</time></trkpt><trkpt lat="44.8819626" lon="9.7652725"><ele>160.0</ele><time>2026-03-29T09:35:07.09Z</time></trkpt><trkpt lat="44.8819289" lon="9.7651481"><ele>159.0</ele><time>2026-03-29T09:35:08.092Z</time></trkpt><trkpt lat="44.8818944" lon="9.7650343"><ele>158.0</ele><time>2026-03-29T09:35:09.103Z</time></trkpt><trkpt lat="44.8818734" lon="9.7649171"><ele>157.0</ele><time>2026-03-29T09:35:10.096Z</time></trkpt><trkpt lat="44.8818748" lon="9.7647876"><ele>156.0</ele><time>2026-03-29T09:35:11.107Z</time></trkpt><trkpt lat="44.8818883" lon="9.764666"><ele>155.0</ele><time>2026-03-29T09:35:12.095Z</time></trkpt><trkpt lat="44.8818945" lon="9.7645408"><ele>154.0</ele><time>2026-03-29T09:35:13.094Z</time></trkpt><trkpt lat="44.8818992" lon="9.7644153"><ele>154.0</ele><time>2026-03-29T09:35:14.094Z</time></trkpt><trkpt lat="44.881908" lon="9.7643112"><ele>154.0</ele><time>2026-03-29T09:35:15.087Z</time></trkpt><trkpt lat="44.8819476" lon="9.7641523"><ele>154.0</ele><time>2026-03-29T09:35:17.08Z</time></trkpt><trkpt lat="44.882016" lon="9.7640997"><ele>154.0</ele><time>2026-03-29T09:35:19.083Z</time></trkpt><trkpt lat="44.8820911" lon="9.7641414"><ele>154.0</ele><time>2026-03-29T09:35:21.089Z</time></trkpt><trkpt lat="44.8821672" lon="9.7641642"><ele>154.0</ele><time>2026-03-29T09:35:23.086Z</time></trkpt><trkpt lat="44.8822499" lon="9.7641839"><ele>154.0</ele><time>2026-03-29T09:35:25.097Z</time></trkpt><trkpt lat="44.8823395" lon="9.7642053"><ele>154.0</ele><time>2026-03-29T09:35:27.078Z</time></trkpt><trkpt lat="44.8824345" lon="9.7642135"><ele>154.0</ele><time>2026-03-29T09:35:29.081Z</time></trkpt><trkpt lat="44.8825245" lon="9.7642077"><ele>154.0</ele><time>2026-03-29T09:35:31.066Z</time></trkpt><trkpt lat="44.8826132" lon="9.7641814"><ele>154.0</ele><time>2026-03-29T09:35:33.09Z</time></trkpt><trkpt lat="44.8827007" lon="9.7641298"><ele>153.6</ele><time>2026-03-29T09:35:35.072Z</time></trkpt><trkpt lat="44.882785" lon="9.76407"><ele>153.2</ele><time>2026-03-29T09:35:37.1Z</time></trkpt><trkpt lat="44.8828672" lon="9.7640966"><ele>152.79999999999998</ele><time>2026-03-29T09:35:39.088Z</time></trkpt><trkpt lat="44.8829178" lon="9.764221"><ele>152.4</ele><time>2026-03-29T09:35:41.107Z</time></trkpt><trkpt lat="44.882952" lon="9.76433"><ele>152.0</ele><time>2026-03-29T09:35:43.093Z</time></trkpt><trkpt lat="44.8829846" lon="9.7644528"><ele>152.0</ele><time>2026-03-29T09:35:45.098Z</time></trkpt><trkpt lat="44.8830153" lon="9.7645759"><ele>152.0</ele><time>2026-03-29T09:35:47.09Z</time></trkpt><trkpt lat="44.8830447" lon="9.7647142"><ele>152.0</ele><time>2026-03-29T09:35:49.084Z</time></trkpt><trkpt lat="44.8830822" lon="9.7648442"><ele>152.0</ele><time>2026-03-29T09:35:51.099Z</time></trkpt><trkpt lat="44.8831308" lon="9.76496"><ele>152.0</ele><time>2026-03-29T09:35:53.081Z</time></trkpt><trkpt lat="44.8831847" lon="9.7650785"><ele>152.0</ele><time>2026-03-29T09:35:55.097Z</time></trkpt><trkpt lat="44.8832517" lon="9.7651795"><ele>152.0</ele><time>2026-03-29T09:35:57.088Z</time></trkpt><trkpt lat="44.8833258" lon="9.7652775"><ele>152.0</ele><time>2026-03-29T09:35:59.089Z</time></trkpt><trkpt lat="44.8834061" lon="9.7653736"><ele>152.0</ele><time>2026-03-29T09:36:01.095Z</time></trkpt><trkpt lat="44.8834854" lon="9.765466"><ele>152.0</ele><time>2026-03-29T09:36:03.087Z</time></trkpt><trkpt lat="44.8835564" lon="9.7655596"><ele>152.0</ele><time>2026-03-29T09:36:05.081Z</time></trkpt><trkpt lat="44.8836192" lon="9.7656566"><ele>152.0</ele><time>2026-03-29T09:36:07.08Z</time></trkpt><trkpt lat="44.8836832" lon="9.765732"><ele>152.0</ele><time>2026-03-29T09:36:09.087Z</time></trkpt><trkpt lat="44.883757" lon="9.765798"><ele>152.0</ele><time>2026-03-29T09:36:11.078Z</time></trkpt><trkpt lat="44.8838499" lon="9.7658479"><ele>152.0</ele><time>2026-03-29T09:36:13.059Z</time></trkpt><trkpt lat="44.8839503" lon="9.7659018"><ele>152.0</ele><time>2026-03-29T09:36:15.086Z</time></trkpt><trkpt lat="44.884041" lon="9.7659628"><ele>152.0</ele><time>2026-03-29T09:36:17.096Z</time></trkpt><trkpt lat="44.8841377" lon="9.7660088"><ele>152.0</ele><time>2026-03-29T09:36:19.074Z</time></trkpt><trkpt lat="44.8842436" lon="9.7660413"><ele>152.0</ele><time>2026-03-29T09:36:21.084Z</time></trkpt><trkpt lat="44.8843489" lon="9.7660646"><ele>152.0</ele><time>2026-03-29T09:36:23.083Z</time></trkpt><trkpt lat="44.8844445" lon="9.7660732"><ele>151.4</ele><time>2026-03-29T09:36:25.102Z</time></trkpt><trkpt lat="44.8845445" lon="9.7660808"><ele>150.79999999999998</ele><time>2026-03-29T09:36:27.087Z</time></trkpt><trkpt lat="44.8846519" lon="9.766084"><ele>150.2</ele><time>2026-03-29T09:36:29.083Z</time></trkpt><trkpt lat="44.8847557" lon="9.7660835"><ele>149.6</ele><time>2026-03-29T09:36:31.095Z</time></trkpt><trkpt lat="44.8848688" lon="9.7660871"><ele>149.0</ele><time>2026-03-29T09:36:33.1Z</time></trkpt><trkpt lat="44.8849629" lon="9.766085"><ele>149.0</ele><time>2026-03-29T09:36:35.084Z</time></trkpt><trkpt lat="44.8850504" lon="9.7660824"><ele>149.0</ele><time>2026-03-29T09:36:37.088Z</time></trkpt><trkpt lat="44.8851467" lon="9.7660858"><ele>149.0</ele><time>2026-03-29T09:36:39.076Z</time></trkpt><trkpt lat="44.8852373" lon="9.7660762"><ele>149.0</ele><time>2026-03-29T09:36:41.077Z</time></trkpt><trkpt lat="44.8853245" lon="9.7660787"><ele>149.0</ele><time>2026-03-29T09:36:43.078Z</time></trkpt><trkpt lat="44.885405" lon="9.7660295"><ele>149.4</ele><time>2026-03-29T09:36:45.082Z</time></trkpt><trkpt lat="44.8854834" lon="9.7659575"><ele>149.8</ele><time>2026-03-29T09:36:47.077Z</time></trkpt><trkpt lat="44.8855604" lon="9.7658763"><ele>150.2</ele><time>2026-03-29T09:36:49.107Z</time></trkpt><trkpt lat="44.8856303" lon="9.7657999"><ele>150.6</ele><time>2026-03-29T09:36:51.086Z</time></trkpt><trkpt lat="44.8856991" lon="9.7657173"><ele>151.0</ele><time>2026-03-29T09:36:53.081Z</time></trkpt><trkpt lat="44.8857729" lon="9.7656318"><ele>151.0</ele><time>2026-03-29T09:36:55.075Z</time></trkpt><trkpt lat="44.8858505" lon="9.7655337"><ele>151.0</ele><time>2026-03-29T09:36:57.085Z</time></trkpt><trkpt lat="44.8859399" lon="9.7654831"><ele>151.0</ele><time>2026-03-29T09:36:59.087Z</time></trkpt><trkpt lat="44.8860387" lon="9.7654569"><ele>151.0</ele><time>2026-03-29T09:37:01.101Z</time></trkpt><trkpt lat="44.8861335" lon="9.7654263"><ele>151.0</ele><time>2026-03-29T09:37:03.092Z</time></trkpt><trkpt lat="44.8862337" lon="9.7654391"><ele>150.66666666666669</ele><time>2026-03-29T09:37:05.089Z</time></trkpt><trkpt lat="44.8862932" lon="9.7655282"><ele>150.33333333333334</ele><time>2026-03-29T09:37:07.087Z</time></trkpt><trkpt lat="44.8863524" lon="9.7656118"><ele>150.0</ele><time>2026-03-29T09:37:09.092Z</time></trkpt><trkpt lat="44.8864124" lon="9.7657106"><ele>149.66666666666666</ele><time>2026-03-29T09:37:11.089Z</time></trkpt><trkpt lat="44.8864643" lon="9.7658166"><ele>149.33333333333331</ele><time>2026-03-29T09:37:13.083Z</time></trkpt><trkpt lat="44.886513" lon="9.7659104"><ele>149.0</ele><time>2026-03-29T09:37:15.096Z</time></trkpt><trkpt lat="44.8865583" lon="9.7660097"><ele>148.8</ele><time>2026-03-29T09:37:17.084Z</time></trkpt><trkpt lat="44.886605" lon="9.7661203"><ele>148.60000000000002</ele><time>2026-03-29T09:37:19.076Z</time></trkpt><trkpt lat="44.8866615" lon="9.7662293"><ele>148.4</ele><time>2026-03-29T09:37:21.098Z</time></trkpt><trkpt lat="44.8867163" lon="9.7663371"><ele>148.20000000000002</ele><time>2026-03-29T09:37:23.083Z</time></trkpt><trkpt lat="44.8867747" lon="9.7664487"><ele>148.0</ele><time>2026-03-29T09:37:25.102Z</time></trkpt><trkpt lat="44.8868319" lon="9.7665302"><ele>148.0</ele><time>2026-03-29T09:37:27.074Z</time></trkpt><trkpt lat="44.8868939" lon="9.766621"><ele>148.0</ele><time>2026-03-29T09:37:29.075Z</time></trkpt><trkpt lat="44.8869591" lon="9.7667014"><ele>148.0</ele><time>2026-03-29T09:37:31.078Z</time></trkpt><trkpt lat="44.8870341" lon="9.7667381"><ele>148.0</ele><time>2026-03-29T09:37:33.089Z</time></trkpt><trkpt lat="44.8870999" lon="9.7667796"><ele>148.0</ele><time>2026-03-29T09:37:35.077Z</time></trkpt><trkpt lat="44.8871515" lon="9.7668686"><ele>148.0</ele><time>2026-03-29T09:37:37.089Z</time></trkpt><trkpt lat="44.8871924" lon="9.7669434"><ele>147.83333333333334</ele><time>2026-03-29T09:37:39.075Z</time></trkpt><trkpt lat="44.8872222" lon="9.7670413"><ele>147.66666666666669</ele><time>2026-03-29T09:37:41.103Z</time></trkpt><trkpt lat="44.8872771" lon="9.7671327"><ele>147.5</ele><time>2026-03-29T09:37:43.097Z</time></trkpt><trkpt lat="44.8872998" lon="9.7672376"><ele>147.33333333333334</ele><time>2026-03-29T09:37:45.084Z</time></trkpt><trkpt lat="44.8873401" lon="9.7673114"><ele>147.16666666666666</ele><time>2026-03-29T09:37:47.09Z</time></trkpt><trkpt lat="44.8874004" lon="9.7673975"><ele>147.0</ele><time>2026-03-29T09:37:49.094Z</time></trkpt><trkpt lat="44.8874211" lon="9.7674958"><ele>147.0</ele><time>2026-03-29T09:37:51.093Z</time></trkpt><trkpt lat="44.8874701" lon="9.767571"><ele>147.0</ele><time>2026-03-29T09:37:53.088Z</time></trkpt><trkpt lat="44.8875227" lon="9.7676541"><ele>147.0</ele><time>2026-03-29T09:37:55.078Z</time></trkpt><trkpt lat="44.8875869" lon="9.7677453"><ele>147.0</ele><time>2026-03-29T09:37:57.089Z</time></trkpt><trkpt lat="44.8876325" lon="9.7678614"><ele>147.0</ele><time>2026-03-29T09:37:59.084Z</time></trkpt><trkpt lat="44.8876214" lon="9.7679568"><ele>147.0</ele><time>2026-03-29T09:38:01.104Z</time></trkpt><trkpt lat="44.8875988" lon="9.7680684"><ele>146.66666666666666</ele><time>2026-03-29T09:38:03.088Z</time></trkpt><trkpt lat="44.8876103" lon="9.7682033"><ele>146.33333333333334</ele><time>2026-03-29T09:38:06.101Z</time></trkpt><trkpt lat="44.8876452" lon="9.7683013"><ele>146.0</ele><time>2026-03-29T09:38:08.103Z</time></trkpt><trkpt lat="44.8876839" lon="9.7684119"><ele>145.66666666666669</ele><time>2026-03-29T09:38:10.087Z</time></trkpt><trkpt lat="44.8877261" lon="9.7685259"><ele>145.33333333333334</ele><time>2026-03-29T09:38:12.094Z</time></trkpt><trkpt lat="44.8877756" lon="9.7686342"><ele>145.0</ele><time>2026-03-29T09:38:14.101Z</time></trkpt><trkpt lat="44.8878209" lon="9.7687455"><ele>145.0</ele><time>2026-03-29T09:38:16.088Z</time></trkpt><trkpt lat="44.887865" lon="9.768869"><ele>145.0</ele><time>2026-03-29T09:38:18.092Z</time></trkpt><trkpt lat="44.887912" lon="9.7689724"><ele>145.0</ele><time>2026-03-29T09:38:20.082Z</time></trkpt><trkpt lat="44.8879602" lon="9.7690861"><ele>145.0</ele><time>2026-03-29T09:38:22.085Z</time></trkpt><trkpt lat="44.888016" lon="9.7691896"><ele>145.0</ele><time>2026-03-29T09:38:24.087Z</time></trkpt><trkpt lat="44.8880677" lon="9.7692977"><ele>146.8</ele><time>2026-03-29T09:38:26.097Z</time></trkpt><trkpt lat="44.888127" lon="9.769399"><ele>148.6</ele><time>2026-03-29T09:38:28.088Z</time></trkpt><trkpt lat="44.8882005" lon="9.7694727"><ele>150.4</ele><time>2026-03-29T09:38:30.093Z</time></trkpt><trkpt lat="44.8882763" lon="9.7695541"><ele>152.2</ele><time>2026-03-29T09:38:32.095Z</time></trkpt><trkpt lat="44.8883445" lon="9.7696499"><ele>154.0</ele><time>2026-03-29T09:38:34.096Z</time></trkpt><trkpt lat="44.8884037" lon="9.7697334"><ele>153.0</ele><time>2026-03-29T09:38:36.097Z</time></trkpt><trkpt lat="44.8884763" lon="9.7698009"><ele>152.0</ele><time>2026-03-29T09:38:38.084Z</time></trkpt><trkpt lat="44.8885504" lon="9.769831"><ele>151.0</ele><time>2026-03-29T09:38:40.09Z</time></trkpt><trkpt lat="44.8886317" lon="9.7698556"><ele>150.0</ele><time>2026-03-29T09:38:42.088Z</time></trkpt><trkpt lat="44.888714" lon="9.7698726"><ele>149.0</ele><time>2026-03-29T09:38:44.089Z</time></trkpt><trkpt lat="44.8887913" lon="9.7698941"><ele>148.0</ele><time>2026-03-29T09:38:46.1Z</time></trkpt><trkpt lat="44.8888731" lon="9.7699182"><ele>148.0</ele><time>2026-03-29T09:38:48.092Z</time></trkpt><trkpt lat="44.8889708" lon="9.7699357"><ele>148.0</ele><time>2026-03-29T09:38:50.09Z</time></trkpt><trkpt lat="44.8890609" lon="9.7699683"><ele>148.0</ele><time>2026-03-29T09:38:52.085Z</time></trkpt><trkpt lat="44.8891375" lon="9.7698849"><ele>148.0</ele><time>2026-03-29T09:38:54.089Z</time></trkpt><trkpt lat="44.8892105" lon="9.7697773"><ele>148.0</ele><time>2026-03-29T09:38:56.086Z</time></trkpt><trkpt lat="44.8893045" lon="9.769736"><ele>147.5</ele><time>2026-03-29T09:38:58.09Z</time></trkpt><trkpt lat="44.8893881" lon="9.7697025"><ele>147.0</ele><time>2026-03-29T09:39:00.124Z</time></trkpt><trkpt lat="44.8894558" lon="9.7696136"><ele>146.5</ele><time>2026-03-29T09:39:02.096Z</time></trkpt><trkpt lat="44.88956" lon="9.7696031"><ele>146.0</ele><time>2026-03-29T09:39:04.093Z</time></trkpt><trkpt lat="44.8896381" lon="9.7695762"><ele>145.5</ele><time>2026-03-29T09:39:06.091Z</time></trkpt><trkpt lat="44.8897047" lon="9.7695576"><ele>145.0</ele><time>2026-03-29T09:39:08.091Z</time></trkpt><trkpt lat="44.8897781" lon="9.7695928"><ele>145.0</ele><time>2026-03-29T09:39:10.087Z</time></trkpt><trkpt lat="44.889852" lon="9.7695835"><ele>145.0</ele><time>2026-03-29T09:39:12.098Z</time></trkpt><trkpt lat="44.8899296" lon="9.7695655"><ele>145.0</ele><time>2026-03-29T09:39:14.093Z</time></trkpt><trkpt lat="44.8900366" lon="9.7695205"><ele>145.0</ele><time>2026-03-29T09:39:16.084Z</time></trkpt><trkpt lat="44.8901184" lon="9.7694945"><ele>145.0</ele><time>2026-03-29T09:39:27.084Z</time></trkpt><trkpt lat="44.8901842" lon="9.769464"><ele>145.0</ele><time>2026-03-29T09:39:35.084Z</time></trkpt><trkpt lat="44.8902573" lon="9.7694547"><ele>144.66666666666669</ele><time>2026-03-29T09:39:38.088Z</time></trkpt><trkpt lat="44.8903211" lon="9.769424"><ele>144.33333333333334</ele><time>2026-03-29T09:39:40.077Z</time></trkpt><trkpt lat="44.8904011" lon="9.7694327"><ele>144.0</ele><time>2026-03-29T09:39:42.089Z</time></trkpt><trkpt lat="44.8904699" lon="9.7694579"><ele>143.66666666666666</ele><time>2026-03-29T09:39:44.083Z</time></trkpt><trkpt lat="44.8905422" lon="9.769487"><ele>143.33333333333331</ele><time>2026-03-29T09:39:46.102Z</time></trkpt><trkpt lat="44.8906234" lon="9.7695133"><ele>143.0</ele><time>2026-03-29T09:39:48.095Z</time></trkpt><trkpt lat="44.8907054" lon="9.7695401"><ele>143.0</ele><time>2026-03-29T09:39:50.098Z</time></trkpt><trkpt lat="44.8907905" lon="9.7695697"><ele>143.0</ele><time>2026-03-29T09:39:52.09Z</time></trkpt><trkpt lat="44.8908874" lon="9.7695809"><ele>143.0</ele><time>2026-03-29T09:39:54.089Z</time></trkpt><trkpt lat="44.8909763" lon="9.769609"><ele>143.0</ele><time>2026-03-29T09:39:56.077Z</time></trkpt><trkpt lat="44.8910526" lon="9.7696394"><ele>143.0</ele><time>2026-03-29T09:39:58.096Z</time></trkpt><trkpt lat="44.8911256" lon="9.769642"><ele>143.0</ele><time>2026-03-29T09:40:00.104Z</time></trkpt><trkpt lat="44.8911949" lon="9.7695658"><ele>142.66666666666666</ele><time>2026-03-29T09:40:02.113Z</time></trkpt><trkpt lat="44.891245" lon="9.7694795"><ele>142.33333333333331</ele><time>2026-03-29T09:40:04.097Z</time></trkpt><trkpt lat="44.8912888" lon="9.7693873"><ele>142.0</ele><time>2026-03-29T09:40:06.088Z</time></trkpt><trkpt lat="44.8913281" lon="9.7692874"><ele>141.66666666666666</ele><time>2026-03-29T09:40:08.092Z</time></trkpt><trkpt lat="44.8913591" lon="9.7692"><ele>141.33333333333334</ele><time>2026-03-29T09:40:10.083Z</time></trkpt><trkpt lat="44.8914541" lon="9.7692182"><ele>141.0</ele><time>2026-03-29T09:40:13.07Z</time></trkpt><trkpt lat="44.891529" lon="9.7693031"><ele>141.0</ele><time>2026-03-29T09:40:15.097Z</time></trkpt><trkpt lat="44.8915956" lon="9.7693982"><ele>141.0</ele><time>2026-03-29T09:40:17.109Z</time></trkpt><trkpt lat="44.8916637" lon="9.7694778"><ele>141.0</ele><time>2026-03-29T09:40:19.087Z</time></trkpt><trkpt lat="44.8916975" lon="9.7695876"><ele>141.0</ele><time>2026-03-29T09:40:21.093Z</time></trkpt><trkpt lat="44.8917348" lon="9.7697046"><ele>141.0</ele><time>2026-03-29T09:40:23.097Z</time></trkpt><trkpt lat="44.8918118" lon="9.7697651"><ele>141.0</ele><time>2026-03-29T09:40:25.092Z</time></trkpt><trkpt lat="44.891855" lon="9.7698577"><ele>140.83333333333334</ele><time>2026-03-29T09:40:27.079Z</time></trkpt><trkpt lat="44.891883" lon="9.7699626"><ele>140.66666666666666</ele><time>2026-03-29T09:40:29.087Z</time></trkpt><trkpt lat="44.8919084" lon="9.7700623"><ele>140.5</ele><time>2026-03-29T09:40:31.091Z</time></trkpt><trkpt lat="44.8919557" lon="9.7701582"><ele>140.33333333333331</ele><time>2026-03-29T09:40:33.093Z</time></trkpt><trkpt lat="44.8920029" lon="9.7702265"><ele>140.16666666666666</ele><time>2026-03-29T09:40:35.091Z</time></trkpt><trkpt lat="44.8920611" lon="9.7703293"><ele>140.0</ele><time>2026-03-29T09:40:38.083Z</time></trkpt><trkpt lat="44.8921265" lon="9.7703793"><ele>140.0</ele><time>2026-03-29T09:40:40.083Z</time></trkpt><trkpt lat="44.8921962" lon="9.7704168"><ele>140.0</ele><time>2026-03-29T09:40:42.098Z</time></trkpt><trkpt lat="44.8922556" lon="9.7704819"><ele>140.0</ele><time>2026-03-29T09:40:44.093Z</time></trkpt><trkpt lat="44.8922959" lon="9.7705707"><ele>140.0</ele><time>2026-03-29T09:40:46.094Z</time></trkpt><trkpt lat="44.8923516" lon="9.7706533"><ele>140.0</ele><time>2026-03-29T09:40:48.084Z</time></trkpt><trkpt lat="44.8923966" lon="9.7707313"><ele>140.0</ele><time>2026-03-29T09:40:50.087Z</time></trkpt><trkpt lat="44.8924449" lon="9.770805"><ele>140.0</ele><time>2026-03-29T09:40:52.098Z</time></trkpt><trkpt lat="44.892486" lon="9.770931"><ele>140.0</ele><time>2026-03-29T09:40:55.102Z</time></trkpt><trkpt lat="44.8925459" lon="9.7710021"><ele>140.0</ele><time>2026-03-29T09:40:57.088Z</time></trkpt><trkpt lat="44.8925664" lon="9.7710876"><ele>140.0</ele><time>2026-03-29T09:40:59.09Z</time></trkpt><trkpt lat="44.8925668" lon="9.7711825"><ele>140.0</ele><time>2026-03-29T09:41:01.094Z</time></trkpt><trkpt lat="44.8925958" lon="9.7712709"><ele>140.0</ele><time>2026-03-29T09:41:03.095Z</time></trkpt><trkpt lat="44.8926223" lon="9.7713863"><ele>140.0</ele><time>2026-03-29T09:41:05.09Z</time></trkpt><trkpt lat="44.8926463" lon="9.7715069"><ele>139.5</ele><time>2026-03-29T09:41:07.098Z</time></trkpt><trkpt lat="44.892696" lon="9.7716049"><ele>139.0</ele><time>2026-03-29T09:41:09.061Z</time></trkpt><trkpt lat="44.892761" lon="9.7716794"><ele>138.5</ele><time>2026-03-29T09:41:11.093Z</time></trkpt><trkpt lat="44.8928284" lon="9.7717483"><ele>138.0</ele><time>2026-03-29T09:41:13.093Z</time></trkpt><trkpt lat="44.8928991" lon="9.7718065"><ele>137.5</ele><time>2026-03-29T09:41:15.1Z</time></trkpt><trkpt lat="44.8929605" lon="9.7718727"><ele>137.0</ele><time>2026-03-29T09:41:17.076Z</time></trkpt><trkpt lat="44.8930183" lon="9.7719426"><ele>137.0</ele><time>2026-03-29T09:41:19.087Z</time></trkpt><trkpt lat="44.8931026" lon="9.7719144"><ele>137.0</ele><time>2026-03-29T09:41:22.095Z</time></trkpt><trkpt lat="44.8931452" lon="9.7719878"><ele>137.0</ele><time>2026-03-29T09:41:24.077Z</time></trkpt><trkpt lat="44.8931801" lon="9.7720754"><ele>137.0</ele><time>2026-03-29T09:41:26.095Z</time></trkpt><trkpt lat="44.8931994" lon="9.7721774"><ele>137.0</ele><time>2026-03-29T09:41:28.096Z</time></trkpt><trkpt lat="44.8932029" lon="9.7723086"><ele>137.0</ele><time>2026-03-29T09:41:31.082Z</time></trkpt><trkpt lat="44.8931642" lon="9.7724384"><ele>137.0</ele><time>2026-03-29T09:41:33.088Z</time></trkpt><trkpt lat="44.8931725" lon="9.7725509"><ele>137.0</ele><time>2026-03-29T09:41:35.088Z</time></trkpt><trkpt lat="44.8931777" lon="9.7726537"><ele>137.0</ele><time>2026-03-29T09:41:37.081Z</time></trkpt><trkpt lat="44.8932029" lon="9.7727644"><ele>137.0</ele><time>2026-03-29T09:41:39.086Z</time></trkpt><trkpt lat="44.893256" lon="9.7728568"><ele>137.0</ele><time>2026-03-29T09:41:41.093Z</time></trkpt><trkpt lat="44.8933074" lon="9.7729455"><ele>137.0</ele><time>2026-03-29T09:41:43.091Z</time></trkpt><trkpt lat="44.8933557" lon="9.7730424"><ele>137.16666666666666</ele><time>2026-03-29T09:41:45.085Z</time></trkpt><trkpt lat="44.8934167" lon="9.7731367"><ele>137.33333333333331</ele><time>2026-03-29T09:41:47.093Z</time></trkpt><trkpt lat="44.8934846" lon="9.7731908"><ele>137.5</ele><time>2026-03-29T09:41:49.09Z</time></trkpt><trkpt lat="44.8935555" lon="9.7732144"><ele>137.66666666666666</ele><time>2026-03-29T09:41:51.093Z</time></trkpt><trkpt lat="44.8936295" lon="9.7731897"><ele>137.83333333333334</ele><time>2026-03-29T09:41:53.092Z</time></trkpt><trkpt lat="44.8937047" lon="9.7731635"><ele>138.0</ele><time>2026-03-29T09:41:55.086Z</time></trkpt><trkpt lat="44.8937848" lon="9.7731444"><ele>138.0</ele><time>2026-03-29T09:41:57.095Z</time></trkpt><trkpt lat="44.8938263" lon="9.773061"><ele>138.0</ele><time>2026-03-29T09:42:00.093Z</time></trkpt><trkpt lat="44.8939001" lon="9.7730056"><ele>138.0</ele><time>2026-03-29T09:42:08.083Z</time></trkpt><trkpt lat="44.8939916" lon="9.7730099"><ele>138.0</ele><time>2026-03-29T09:42:11.105Z</time></trkpt><trkpt lat="44.8940654" lon="9.7730106"><ele>138.0</ele><time>2026-03-29T09:42:13.078Z</time></trkpt><trkpt lat="44.8941062" lon="9.772936"><ele>138.0</ele><time>2026-03-29T09:42:15.068Z</time></trkpt><trkpt lat="44.8941649" lon="9.7728811"><ele>138.0</ele><time>2026-03-29T09:42:17.088Z</time></trkpt><trkpt lat="44.8942138" lon="9.772823"><ele>138.0</ele><time>2026-03-29T09:42:19.098Z</time></trkpt><trkpt lat="44.894262" lon="9.7727181"><ele>138.0</ele><time>2026-03-29T09:42:22.106Z</time></trkpt><trkpt lat="44.8943086" lon="9.7726384"><ele>138.0</ele><time>2026-03-29T09:42:24.099Z</time></trkpt><trkpt lat="44.8943466" lon="9.7725587"><ele>138.0</ele><time>2026-03-29T09:42:26.091Z</time></trkpt><trkpt lat="44.8944278" lon="9.7724778"><ele>138.0</ele><time>2026-03-29T09:42:29.08Z</time></trkpt><trkpt lat="44.8944978" lon="9.7724292"><ele>138.0</ele><time>2026-03-29T09:42:31.099Z</time></trkpt><trkpt lat="44.894579" lon="9.7724254"><ele>138.0</ele><time>2026-03-29T09:42:34.094Z</time></trkpt><trkpt lat="44.8946696" lon="9.7723965"><ele>138.0</ele><time>2026-03-29T09:42:37.093Z</time></trkpt><trkpt lat="44.8947053" lon="9.7722993"><ele>138.0</ele><time>2026-03-29T09:42:39.091Z</time></trkpt><trkpt lat="44.8947763" lon="9.7722324"><ele>138.0</ele><time>2026-03-29T09:42:41.099Z</time></trkpt><trkpt lat="44.8948375" lon="9.7721771"><ele>138.0</ele><time>2026-03-29T09:42:43.075Z</time></trkpt><trkpt lat="44.8949083" lon="9.7721384"><ele>138.0</ele><time>2026-03-29T09:42:45.063Z</time></trkpt><trkpt lat="44.8950037" lon="9.7721277"><ele>138.0</ele><time>2026-03-29T09:42:48.093Z</time></trkpt><trkpt lat="44.8950371" lon="9.7722096"><ele>138.0</ele><time>2026-03-29T09:42:50.094Z</time></trkpt><trkpt lat="44.8950994" lon="9.7722791"><ele>138.0</ele><time>2026-03-29T09:42:52.089Z</time></trkpt><trkpt lat="44.8951688" lon="9.7722538"><ele>138.0</ele><time>2026-03-29T09:42:54.099Z</time></trkpt><trkpt lat="44.8952264" lon="9.7721832"><ele>138.0</ele><time>2026-03-29T09:42:56.073Z</time></trkpt><trkpt lat="44.8953091" lon="9.7721409"><ele>137.33333333333334</ele><time>2026-03-29T09:42:59.085Z</time></trkpt><trkpt lat="44.8953752" lon="9.7721649"><ele>136.66666666666666</ele><time>2026-03-29T09:43:01.077Z</time></trkpt><trkpt lat="44.8954516" lon="9.7721554"><ele>136.0</ele><time>2026-03-29T09:43:03.084Z</time></trkpt><trkpt lat="44.8955284" lon="9.7721895"><ele>135.33333333333331</ele><time>2026-03-29T09:43:05.09Z</time></trkpt><trkpt lat="44.8955999" lon="9.7722352"><ele>134.66666666666666</ele><time>2026-03-29T09:43:08.082Z</time></trkpt><trkpt lat="44.8956741" lon="9.7721577"><ele>134.0</ele><time>2026-03-29T09:43:11.089Z</time></trkpt><trkpt lat="44.8957614" lon="9.7721569"><ele>134.0</ele><time>2026-03-29T09:43:14.086Z</time></trkpt><trkpt lat="44.8958344" lon="9.7721503"><ele>134.0</ele><time>2026-03-29T09:43:16.076Z</time></trkpt><trkpt lat="44.8958889" lon="9.7720798"><ele>134.0</ele><time>2026-03-29T09:43:18.093Z</time></trkpt><trkpt lat="44.8959321" lon="9.7720122"><ele>134.0</ele><time>2026-03-29T09:43:20.096Z</time></trkpt><trkpt lat="44.8959627" lon="9.7719148"><ele>134.0</ele><time>2026-03-29T09:43:22.091Z</time></trkpt><trkpt lat="44.8960012" lon="9.7718163"><ele>134.0</ele><time>2026-03-29T09:43:24.098Z</time></trkpt><trkpt lat="44.8960465" lon="9.7717396"><ele>134.0</ele><time>2026-03-29T09:43:26.1Z</time></trkpt><trkpt lat="44.8960808" lon="9.7716477"><ele>133.71428571428572</ele><time>2026-03-29T09:43:28.097Z</time></trkpt><trkpt lat="44.8961289" lon="9.7715591"><ele>133.42857142857142</ele><time>2026-03-29T09:43:30.084Z</time></trkpt><trkpt lat="44.8961808" lon="9.7714832"><ele>133.14285714285714</ele><time>2026-03-29T09:43:32.072Z</time></trkpt><trkpt lat="44.8962265" lon="9.7714143"><ele>132.85714285714286</ele><time>2026-03-29T09:43:34.083Z</time></trkpt><trkpt lat="44.8962917" lon="9.7714081"><ele>132.57142857142858</ele><time>2026-03-29T09:43:36.096Z</time></trkpt><trkpt lat="44.8963379" lon="9.7713399"><ele>132.28571428571428</ele><time>2026-03-29T09:43:38.094Z</time></trkpt><trkpt lat="44.8964003" lon="9.7713102"><ele>132.0</ele><time>2026-03-29T09:43:40.085Z</time></trkpt><trkpt lat="44.896483" lon="9.7713205"><ele>132.0</ele><time>2026-03-29T09:43:43.099Z</time></trkpt><trkpt lat="44.896556" lon="9.7713361"><ele>132.0</ele><time>2026-03-29T09:43:46.077Z</time></trkpt><trkpt lat="44.8966147" lon="9.7713807"><ele>132.0</ele><time>2026-03-29T09:43:49.08Z</time></trkpt><trkpt lat="44.8966865" lon="9.7713408"><ele>132.0</ele><time>2026-03-29T09:43:52.094Z</time></trkpt><trkpt lat="44.8967523" lon="9.7713023"><ele>132.0</ele><time>2026-03-29T09:43:55.095Z</time></trkpt><trkpt lat="44.8968209" lon="9.7712661"><ele>132.0</ele><time>2026-03-29T09:43:58.095Z</time></trkpt><trkpt lat="44.8968678" lon="9.7711801"><ele>132.0</ele><time>2026-03-29T09:44:01.095Z</time></trkpt><trkpt lat="44.8969183" lon="9.7710957"><ele>132.0</ele><time>2026-03-29T09:44:06.098Z</time></trkpt><trkpt lat="44.8970056" lon="9.7710512"><ele>132.0</ele><time>2026-03-29T09:44:09.096Z</time></trkpt><trkpt lat="44.8970748" lon="9.7710587"><ele>132.0</ele><time>2026-03-29T09:44:11.083Z</time></trkpt><trkpt lat="44.8971355" lon="9.7709994"><ele>132.0</ele><time>2026-03-29T09:44:14.09Z</time></trkpt><trkpt lat="44.8972043" lon="9.7709598"><ele>132.0</ele><time>2026-03-29T09:44:17.1Z</time></trkpt><trkpt lat="44.8972966" lon="9.770951"><ele>132.0</ele><time>2026-03-29T09:44:20.087Z</time></trkpt><trkpt lat="44.8973688" lon="9.7709316"><ele>132.0</ele><time>2026-03-29T09:44:22.089Z</time></trkpt><trkpt lat="44.8974236" lon="9.7708631"><ele>132.0</ele><time>2026-03-29T09:44:24.119Z</time></trkpt><trkpt lat="44.8975167" lon="9.7708555"><ele>132.0</ele><time>2026-03-29T09:44:27.092Z</time></trkpt><trkpt lat="44.8975943" lon="9.7707854"><ele>132.0</ele><time>2026-03-29T09:44:30.091Z</time></trkpt><trkpt lat="44.8976627" lon="9.7708049"><ele>132.0</ele><time>2026-03-29T09:44:32.086Z</time></trkpt><trkpt lat="44.897739" lon="9.7707493"><ele>132.0</ele><time>2026-03-29T09:44:35.087Z</time></trkpt><trkpt lat="44.8978098" lon="9.7707373"><ele>132.0</ele><time>2026-03-29T09:44:37.099Z</time></trkpt><trkpt lat="44.8978948" lon="9.7706966"><ele>132.0</ele><time>2026-03-29T09:44:40.087Z</time></trkpt><trkpt lat="44.8979504" lon="9.7706358"><ele>132.0</ele><time>2026-03-29T09:44:42.092Z</time></trkpt><trkpt lat="44.8980156" lon="9.7706274"><ele>132.0</ele><time>2026-03-29T09:44:44.074Z</time></trkpt><trkpt lat="44.8980636" lon="9.7705549"><ele>132.0</ele><time>2026-03-29T09:44:46.081Z</time></trkpt><trkpt lat="44.8981415" lon="9.7705528"><ele>132.0</ele><time>2026-03-29T09:44:48.09Z</time></trkpt><trkpt lat="44.8982201" lon="9.7705511"><ele>132.0</ele><time>2026-03-29T09:44:50.085Z</time></trkpt><trkpt lat="44.8982895" lon="9.770495"><ele>132.0</ele><time>2026-03-29T09:44:52.083Z</time></trkpt><trkpt lat="44.8983708" lon="9.7704933"><ele>132.0</ele><time>2026-03-29T09:44:56.09Z</time></trkpt><trkpt lat="44.8984845" lon="9.7704912"><ele>132.0</ele><time>2026-03-29T09:44:58.087Z</time></trkpt><trkpt lat="44.898554" lon="9.7705464"><ele>132.0</ele><time>2026-03-29T09:45:00.069Z</time></trkpt><trkpt lat="44.8985812" lon="9.7706593"><ele>132.0</ele><time>2026-03-29T09:45:02.104Z</time></trkpt><trkpt lat="44.8986659" lon="9.7706367"><ele>132.33333333333334</ele><time>2026-03-29T09:45:05.084Z</time></trkpt><trkpt lat="44.8987371" lon="9.7706651"><ele>132.66666666666666</ele><time>2026-03-29T09:45:08.086Z</time></trkpt><trkpt lat="44.8988198" lon="9.7706426"><ele>133.0</ele><time>2026-03-29T09:45:11.087Z</time></trkpt><trkpt lat="44.8989107" lon="9.7706758"><ele>133.33333333333331</ele><time>2026-03-29T09:45:14.087Z</time></trkpt><trkpt lat="44.8989902" lon="9.7707423"><ele>133.66666666666666</ele><time>2026-03-29T09:45:17.094Z</time></trkpt><trkpt lat="44.8990458" lon="9.7707853"><ele>134.0</ele><time>2026-03-29T09:45:19.085Z</time></trkpt><trkpt lat="44.8991108" lon="9.7708308"><ele>134.0</ele><time>2026-03-29T09:45:21.079Z</time></trkpt><trkpt lat="44.8991726" lon="9.7708829"><ele>134.0</ele><time>2026-03-29T09:45:23.085Z</time></trkpt><trkpt lat="44.8992142" lon="9.7709663"><ele>134.0</ele><time>2026-03-29T09:45:25.089Z</time></trkpt><trkpt lat="44.8992737" lon="9.7710533"><ele>134.0</ele><time>2026-03-29T09:45:27.085Z</time></trkpt><trkpt lat="44.8993325" lon="9.7711154"><ele>134.0</ele><time>2026-03-29T09:45:29.09Z</time></trkpt><trkpt lat="44.8994009" lon="9.7711369"><ele>134.0</ele><time>2026-03-29T09:45:31.111Z</time></trkpt><trkpt lat="44.8994671" lon="9.7711181"><ele>134.0</ele><time>2026-03-29T09:45:34.088Z</time></trkpt><trkpt lat="44.8995317" lon="9.7711043"><ele>133.16666666666666</ele><time>2026-03-29T09:45:37.074Z</time></trkpt><trkpt lat="44.8996174" lon="9.7711548"><ele>132.33333333333331</ele><time>2026-03-29T09:45:40.093Z</time></trkpt><trkpt lat="44.8997044" lon="9.7711485"><ele>131.5</ele><time>2026-03-29T09:45:43.087Z</time></trkpt><trkpt lat="44.8997643" lon="9.7711841"><ele>130.66666666666666</ele><time>2026-03-29T09:45:45.091Z</time></trkpt><trkpt lat="44.899826" lon="9.7712475"><ele>129.83333333333334</ele><time>2026-03-29T09:45:47.089Z</time></trkpt><trkpt lat="44.8998773" lon="9.7713089"><ele>129.0</ele><time>2026-03-29T09:45:49.096Z</time></trkpt><trkpt lat="44.8999502" lon="9.7713185"><ele>129.0</ele><time>2026-03-29T09:45:51.087Z</time></trkpt><trkpt lat="44.9000383" lon="9.7713235"><ele>129.0</ele><time>2026-03-29T09:45:54.037Z</time></trkpt><trkpt lat="44.9001014" lon="9.7712595"><ele>129.0</ele><time>2026-03-29T09:45:57.088Z</time></trkpt><trkpt lat="44.9001567" lon="9.7711732"><ele>129.0</ele><time>2026-03-29T09:46:00.087Z</time></trkpt><trkpt lat="44.9002099" lon="9.7710844"><ele>129.0</ele><time>2026-03-29T09:46:03.101Z</time></trkpt><trkpt lat="44.9002615" lon="9.7709803"><ele>129.0</ele><time>2026-03-29T09:46:06.091Z</time></trkpt><trkpt lat="44.9003096" lon="9.7709227"><ele>129.5</ele><time>2026-03-29T09:46:08.086Z</time></trkpt><trkpt lat="44.9003606" lon="9.7708538"><ele>130.0</ele><time>2026-03-29T09:46:10.097Z</time></trkpt><trkpt lat="44.9004354" lon="9.770748"><ele>130.5</ele><time>2026-03-29T09:46:12.102Z</time></trkpt><trkpt lat="44.9005093" lon="9.7707124"><ele>131.0</ele><time>2026-03-29T09:46:14.091Z</time></trkpt><trkpt lat="44.9005657" lon="9.7707772"><ele>131.5</ele><time>2026-03-29T09:46:16.086Z</time></trkpt><trkpt lat="44.9006274" lon="9.7707445"><ele>132.0</ele><time>2026-03-29T09:46:18.075Z</time></trkpt><trkpt lat="44.900663" lon="9.7706536"><ele>132.0</ele><time>2026-03-29T09:46:20.079Z</time></trkpt><trkpt lat="44.9007497" lon="9.7706805"><ele>132.0</ele><time>2026-03-29T09:46:23.096Z</time></trkpt><trkpt lat="44.9008106" lon="9.7706547"><ele>132.0</ele><time>2026-03-29T09:46:25.08Z</time></trkpt><trkpt lat="44.9008551" lon="9.7705885"><ele>132.0</ele><time>2026-03-29T09:46:27.098Z</time></trkpt><trkpt lat="44.9009298" lon="9.7706629"><ele>132.0</ele><time>2026-03-29T09:46:30.081Z</time></trkpt><trkpt lat="44.900998" lon="9.7707141"><ele>132.0</ele><time>2026-03-29T09:46:32.101Z</time></trkpt><trkpt lat="44.9010631" lon="9.7707481"><ele>131.5</ele><time>2026-03-29T09:46:34.1Z</time></trkpt><trkpt lat="44.9011407" lon="9.7707583"><ele>131.0</ele><time>2026-03-29T09:46:37.102Z</time></trkpt><trkpt lat="44.9012023" lon="9.7708461"><ele>130.5</ele><time>2026-03-29T09:46:39.079Z</time></trkpt><trkpt lat="44.9012576" lon="9.770945"><ele>130.0</ele><time>2026-03-29T09:46:41.1Z</time></trkpt><trkpt lat="44.9012859" lon="9.7710452"><ele>129.5</ele><time>2026-03-29T09:46:43.079Z</time></trkpt><trkpt lat="44.9013048" lon="9.7711433"><ele>129.0</ele><time>2026-03-29T09:46:45.084Z</time></trkpt><trkpt lat="44.9013555" lon="9.7712074"><ele>128.99999999999997</ele><time>2026-03-29T09:46:47.073Z</time></trkpt><trkpt lat="44.9013463" lon="9.7712976"><ele>129.0</ele><time>2026-03-29T09:46:50.07Z</time></trkpt><trkpt lat="44.9012875" lon="9.7713687"><ele>129.0</ele><time>2026-03-29T09:46:52.086Z</time></trkpt><trkpt lat="44.9012463" lon="9.7714599"><ele>129.0</ele><time>2026-03-29T09:46:54.085Z</time></trkpt><trkpt lat="44.9011828" lon="9.7715392"><ele>129.0</ele><time>2026-03-29T09:46:56.095Z</time></trkpt><trkpt lat="44.9011463" lon="9.771622"><ele>128.99999999999997</ele><time>2026-03-29T09:46:59.086Z</time></trkpt><trkpt lat="44.901115" lon="9.7717023"><ele>129.0</ele><time>2026-03-29T09:47:01.091Z</time></trkpt><trkpt lat="44.9011037" lon="9.7718142"><ele>129.0</ele><time>2026-03-29T09:47:04.072Z</time></trkpt><trkpt lat="44.9010531" lon="9.7719069"><ele>129.0</ele><time>2026-03-29T09:47:07.079Z</time></trkpt><trkpt lat="44.9010224" lon="9.7719862"><ele>129.0</ele><time>2026-03-29T09:47:09.101Z</time></trkpt><trkpt lat="44.9009653" lon="9.7720712"><ele>129.0</ele><time>2026-03-29T09:47:12.101Z</time></trkpt><trkpt lat="44.9008992" lon="9.7721666"><ele>129.0</ele><time>2026-03-29T09:47:15.096Z</time></trkpt><trkpt lat="44.9008638" lon="9.7722546"><ele>129.0</ele><time>2026-03-29T09:47:17.09Z</time></trkpt><trkpt lat="44.9007975" lon="9.77233"><ele>129.0</ele><time>2026-03-29T09:47:20.081Z</time></trkpt><trkpt lat="44.9007354" lon="9.7723794"><ele>129.0</ele><time>2026-03-29T09:47:22.077Z</time></trkpt><trkpt lat="44.9006532" lon="9.7724078"><ele>129.0</ele><time>2026-03-29T09:47:24.087Z</time></trkpt><trkpt lat="44.9006162" lon="9.7725056"><ele>129.0</ele><time>2026-03-29T09:47:27.076Z</time></trkpt><trkpt lat="44.9005986" lon="9.7726055"><ele>129.0</ele><time>2026-03-29T09:47:30.073Z</time></trkpt><trkpt lat="44.9005835" lon="9.7727"><ele>129.0</ele><time>2026-03-29T09:47:32.079Z</time></trkpt><trkpt lat="44.9005693" lon="9.7728026"><ele>128.85714285714283</ele><time>2026-03-29T09:47:34.091Z</time></trkpt><trkpt lat="44.9005636" lon="9.7728961"><ele>128.71428571428572</ele><time>2026-03-29T09:47:36.095Z</time></trkpt><trkpt lat="44.9005554" lon="9.7729855"><ele>128.57142857142856</ele><time>2026-03-29T09:47:38.085Z</time></trkpt><trkpt lat="44.9005603" lon="9.7730789"><ele>128.42857142857142</ele><time>2026-03-29T09:47:40.097Z</time></trkpt><trkpt lat="44.900639" lon="9.7731255"><ele>128.28571428571428</ele><time>2026-03-29T09:47:42.103Z</time></trkpt><trkpt lat="44.9006926" lon="9.7731903"><ele>128.14285714285714</ele><time>2026-03-29T09:47:44.099Z</time></trkpt><trkpt lat="44.9007142" lon="9.7732864"><ele>128.0</ele><time>2026-03-29T09:47:46.121Z</time></trkpt><trkpt lat="44.9007324" lon="9.7734095"><ele>128.0</ele><time>2026-03-29T09:47:49.102Z</time></trkpt><trkpt lat="44.9007892" lon="9.7734521"><ele>127.99999999999999</ele><time>2026-03-29T09:47:51.089Z</time></trkpt><trkpt lat="44.9008535" lon="9.7734695"><ele>128.0</ele><time>2026-03-29T09:47:53.056Z</time></trkpt><trkpt lat="44.9009177" lon="9.7734234"><ele>128.0</ele><time>2026-03-29T09:47:55.089Z</time></trkpt><trkpt lat="44.9009946" lon="9.7733989"><ele>127.99999999999999</ele><time>2026-03-29T09:47:57.068Z</time></trkpt><trkpt lat="44.9010502" lon="9.7733423"><ele>128.0</ele><time>2026-03-29T09:47:59.089Z</time></trkpt><trkpt lat="44.9011076" lon="9.7733839"><ele>128.0</ele><time>2026-03-29T09:48:01.088Z</time></trkpt><trkpt lat="44.901101" lon="9.7735081"><ele>128.0</ele><time>2026-03-29T09:48:04.092Z</time></trkpt><trkpt lat="44.9010625" lon="9.7735875"><ele>127.99999999999999</ele><time>2026-03-29T09:48:06.091Z</time></trkpt><trkpt lat="44.9010788" lon="9.7737125"><ele>128.0</ele><time>2026-03-29T09:48:09.081Z</time></trkpt><trkpt lat="44.9011435" lon="9.7737148"><ele>128.0</ele><time>2026-03-29T09:48:12.091Z</time></trkpt><trkpt lat="44.90118" lon="9.7736346"><ele>127.99999999999999</ele><time>2026-03-29T09:48:15.086Z</time></trkpt><trkpt lat="44.9012445" lon="9.7736397"><ele>128.0</ele><time>2026-03-29T09:48:17.078Z</time></trkpt><trkpt lat="44.9013127" lon="9.7736512"><ele>128.0</ele><time>2026-03-29T09:48:19.08Z</time></trkpt><trkpt lat="44.9013743" lon="9.7737106"><ele>127.99999999999999</ele><time>2026-03-29T09:48:21.098Z</time></trkpt><trkpt lat="44.9014603" lon="9.7736643"><ele>128.0</ele><time>2026-03-29T09:48:24.082Z</time></trkpt><trkpt lat="44.9015425" lon="9.7736494"><ele>128.0</ele><time>2026-03-29T09:48:26.083Z</time></trkpt><trkpt lat="44.9016227" lon="9.7736169"><ele>128.0</ele><time>2026-03-29T09:48:29.084Z</time></trkpt><trkpt lat="44.9016796" lon="9.7735297"><ele>127.99999999999999</ele><time>2026-03-29T09:48:32.093Z</time></trkpt><trkpt lat="44.9017146" lon="9.7734516"><ele>128.0</ele><time>2026-03-29T09:48:34.114Z</time></trkpt><trkpt lat="44.9017763" lon="9.7733543"><ele>127.66666666666666</ele><time>2026-03-29T09:48:37.073Z</time></trkpt><trkpt lat="44.9018219" lon="9.77326"><ele>127.33333333333333</ele><time>2026-03-29T09:48:39.083Z</time></trkpt><trkpt lat="44.9018894" lon="9.7731995"><ele>127.0</ele><time>2026-03-29T09:48:41.085Z</time></trkpt><trkpt lat="44.9019454" lon="9.7731581"><ele>126.66666666666666</ele><time>2026-03-29T09:48:43.093Z</time></trkpt><trkpt lat="44.901995" lon="9.7730899"><ele>126.33333333333333</ele><time>2026-03-29T09:48:45.087Z</time></trkpt><trkpt lat="44.9020446" lon="9.7730004"><ele>126.0</ele><time>2026-03-29T09:48:47.084Z</time></trkpt><trkpt lat="44.9021175" lon="9.7729528"><ele>126.0</ele><time>2026-03-29T09:48:49.091Z</time></trkpt><trkpt lat="44.9021989" lon="9.7728943"><ele>126.0</ele><time>2026-03-29T09:48:51.103Z</time></trkpt><trkpt lat="44.9022642" lon="9.7728395"><ele>126.0</ele><time>2026-03-29T09:48:53.1Z</time></trkpt><trkpt lat="44.9023293" lon="9.7728544"><ele>126.0</ele><time>2026-03-29T09:48:55.073Z</time></trkpt><trkpt lat="44.9023935" lon="9.7728667"><ele>126.0</ele><time>2026-03-29T09:48:57.096Z</time></trkpt><trkpt lat="44.9024608" lon="9.7728126"><ele>126.0</ele><time>2026-03-29T09:48:59.095Z</time></trkpt><trkpt lat="44.9025138" lon="9.7727456"><ele>126.0</ele><time>2026-03-29T09:49:01.091Z</time></trkpt><trkpt lat="44.9025961" lon="9.7727061"><ele>125.83333333333333</ele><time>2026-03-29T09:49:03.108Z</time></trkpt><trkpt lat="44.9026702" lon="9.7727239"><ele>125.66666666666666</ele><time>2026-03-29T09:49:05.084Z</time></trkpt><trkpt lat="44.9027408" lon="9.7727246"><ele>125.5</ele><time>2026-03-29T09:49:07.101Z</time></trkpt><trkpt lat="44.9028162" lon="9.7726933"><ele>125.33333333333333</ele><time>2026-03-29T09:49:09.073Z</time></trkpt><trkpt lat="44.9029017" lon="9.7726518"><ele>125.16666666666666</ele><time>2026-03-29T09:49:11.089Z</time></trkpt><trkpt lat="44.902994" lon="9.7726293"><ele>125.0</ele><time>2026-03-29T09:49:13.087Z</time></trkpt><trkpt lat="44.903087" lon="9.7726157"><ele>124.99999999999999</ele><time>2026-03-29T09:49:15.085Z</time></trkpt><trkpt lat="44.903173" lon="9.7726097"><ele>125.0</ele><time>2026-03-29T09:49:17.071Z</time></trkpt><trkpt lat="44.9032664" lon="9.7726262"><ele>125.0</ele><time>2026-03-29T09:49:19.068Z</time></trkpt><trkpt lat="44.9033515" lon="9.7726752"><ele>125.0</ele><time>2026-03-29T09:49:21.087Z</time></trkpt><trkpt lat="44.9034287" lon="9.7727409"><ele>124.99999999999999</ele><time>2026-03-29T09:49:23.085Z</time></trkpt><trkpt lat="44.903482" lon="9.7728341"><ele>125.0</ele><time>2026-03-29T09:49:25.096Z</time></trkpt><trkpt lat="44.9035336" lon="9.7729118"><ele>124.99999999999999</ele><time>2026-03-29T09:49:27.081Z</time></trkpt><trkpt lat="44.903594" lon="9.772983"><ele>125.0</ele><time>2026-03-29T09:49:29.086Z</time></trkpt><trkpt lat="44.9036872" lon="9.7729828"><ele>125.0</ele><time>2026-03-29T09:49:32.085Z</time></trkpt><trkpt lat="44.9037685" lon="9.7729859"><ele>125.0</ele><time>2026-03-29T09:49:35.083Z</time></trkpt><trkpt lat="44.903834" lon="9.7729709"><ele>124.99999999999999</ele><time>2026-03-29T09:49:37.081Z</time></trkpt><trkpt lat="44.9039012" lon="9.7729645"><ele>125.0</ele><time>2026-03-29T09:49:39.088Z</time></trkpt><trkpt lat="44.9039648" lon="9.7730084"><ele>124.99999999999999</ele><time>2026-03-29T09:49:41.086Z</time></trkpt><trkpt lat="44.9040485" lon="9.7730094"><ele>125.0</ele><time>2026-03-29T09:49:44.09Z</time></trkpt><trkpt lat="44.9041198" lon="9.7729932"><ele>125.0</ele><time>2026-03-29T09:49:47.057Z</time></trkpt><trkpt lat="44.9042015" lon="9.7730332"><ele>125.0</ele><time>2026-03-29T09:49:50.083Z</time></trkpt><trkpt lat="44.9042631" lon="9.7730753"><ele>124.99999999999999</ele><time>2026-03-29T09:49:52.093Z</time></trkpt><trkpt lat="44.9043227" lon="9.7731416"><ele>125.0</ele><time>2026-03-29T09:49:54.092Z</time></trkpt><trkpt lat="44.9043876" lon="9.7731943"><ele>124.83333333333333</ele><time>2026-03-29T09:49:56.081Z</time></trkpt><trkpt lat="44.9044621" lon="9.773231"><ele>124.66666666666666</ele><time>2026-03-29T09:49:58.085Z</time></trkpt><trkpt lat="44.9045306" lon="9.7732621"><ele>124.5</ele><time>2026-03-29T09:50:00.081Z</time></trkpt><trkpt lat="44.904631" lon="9.7732696"><ele>124.33333333333334</ele><time>2026-03-29T09:50:02.088Z</time></trkpt><trkpt lat="44.9047216" lon="9.7732889"><ele>124.16666666666667</ele><time>2026-03-29T09:50:04.089Z</time></trkpt><trkpt lat="44.9048093" lon="9.7733159"><ele>124.0</ele><time>2026-03-29T09:50:06.094Z</time></trkpt><trkpt lat="44.9048827" lon="9.7733265"><ele>124.0</ele><time>2026-03-29T09:50:08.068Z</time></trkpt><trkpt lat="44.9049622" lon="9.7733566"><ele>124.0</ele><time>2026-03-29T09:50:10.087Z</time></trkpt><trkpt lat="44.9050484" lon="9.7733863"><ele>124.0</ele><time>2026-03-29T09:50:12.076Z</time></trkpt><trkpt lat="44.9051339" lon="9.7734135"><ele>124.0</ele><time>2026-03-29T09:50:14.088Z</time></trkpt><trkpt lat="44.9052292" lon="9.7734405"><ele>124.0</ele><time>2026-03-29T09:50:16.085Z</time></trkpt><trkpt lat="44.9053313" lon="9.7734531"><ele>123.6</ele><time>2026-03-29T09:50:18.093Z</time></trkpt><trkpt lat="44.9054269" lon="9.7734807"><ele>123.2</ele><time>2026-03-29T09:50:20.083Z</time></trkpt><trkpt lat="44.9055249" lon="9.7735112"><ele>122.79999999999998</ele><time>2026-03-29T09:50:22.105Z</time></trkpt><trkpt lat="44.9056199" lon="9.7735413"><ele>122.39999999999999</ele><time>2026-03-29T09:50:24.087Z</time></trkpt><trkpt lat="44.9057125" lon="9.7735739"><ele>122.0</ele><time>2026-03-29T09:50:26.095Z</time></trkpt><trkpt lat="44.9058079" lon="9.7735836"><ele>121.49999999999999</ele><time>2026-03-29T09:50:28.087Z</time></trkpt><trkpt lat="44.9059055" lon="9.7736076"><ele>121.0</ele><time>2026-03-29T09:50:30.091Z</time></trkpt><trkpt lat="44.9059851" lon="9.7736334"><ele>120.5</ele><time>2026-03-29T09:50:32.077Z</time></trkpt><trkpt lat="44.906054" lon="9.7736419"><ele>120.0</ele><time>2026-03-29T09:50:34.098Z</time></trkpt><trkpt lat="44.9061237" lon="9.7736287"><ele>119.49999999999999</ele><time>2026-03-29T09:50:36.097Z</time></trkpt><trkpt lat="44.9062051" lon="9.7736393"><ele>119.0</ele><time>2026-03-29T09:50:38.084Z</time></trkpt><trkpt lat="44.9062711" lon="9.773667"><ele>118.6</ele><time>2026-03-29T09:50:40.081Z</time></trkpt><trkpt lat="44.9063423" lon="9.7736885"><ele>118.2</ele><time>2026-03-29T09:50:42.069Z</time></trkpt><trkpt lat="44.9064409" lon="9.7737112"><ele>117.79999999999998</ele><time>2026-03-29T09:50:44.097Z</time></trkpt><trkpt lat="44.9065285" lon="9.7737521"><ele>117.39999999999999</ele><time>2026-03-29T09:50:46.083Z</time></trkpt><trkpt lat="44.9066242" lon="9.7737805"><ele>117.0</ele><time>2026-03-29T09:50:48.08Z</time></trkpt><trkpt lat="44.9067171" lon="9.773795"><ele>117.5</ele><time>2026-03-29T09:50:50.097Z</time></trkpt><trkpt lat="44.9068062" lon="9.7738218"><ele>118.0</ele><time>2026-03-29T09:50:52.092Z</time></trkpt><trkpt lat="44.906884" lon="9.7738536"><ele>118.5</ele><time>2026-03-29T09:50:54.081Z</time></trkpt><trkpt lat="44.9069606" lon="9.7738612"><ele>119.0</ele><time>2026-03-29T09:50:57.065Z</time></trkpt><trkpt lat="44.907018" lon="9.7737921"><ele>119.5</ele><time>2026-03-29T09:51:03.1Z</time></trkpt><trkpt lat="44.9069716" lon="9.773657"><ele>120.0</ele><time>2026-03-29T09:51:06.085Z</time></trkpt><trkpt lat="44.9069355" lon="9.7735451"><ele>120.0</ele><time>2026-03-29T09:51:08.088Z</time></trkpt><trkpt lat="44.9069027" lon="9.773439"><ele>120.0</ele><time>2026-03-29T09:51:10.109Z</time></trkpt><trkpt lat="44.9068636" lon="9.7733423"><ele>120.0</ele><time>2026-03-29T09:51:12.097Z</time></trkpt><trkpt lat="44.9068238" lon="9.7732331"><ele>120.0</ele><time>2026-03-29T09:51:14.075Z</time></trkpt><trkpt lat="44.9067959" lon="9.7731186"><ele>120.0</ele><time>2026-03-29T09:51:16.078Z</time></trkpt><trkpt lat="44.906776" lon="9.7729972"><ele>120.0</ele><time>2026-03-29T09:51:18.082Z</time></trkpt><trkpt lat="44.9067504" lon="9.7728638"><ele>120.0</ele><time>2026-03-29T09:51:20.097Z</time></trkpt><trkpt lat="44.9067242" lon="9.7727373"><ele>120.0</ele><time>2026-03-29T09:51:22.092Z</time></trkpt><trkpt lat="44.906693" lon="9.7726049"><ele>120.0</ele><time>2026-03-29T09:51:24.09Z</time></trkpt><trkpt lat="44.9066569" lon="9.7724767"><ele>120.0</ele><time>2026-03-29T09:51:26.084Z</time></trkpt><trkpt lat="44.9066216" lon="9.7723429"><ele>120.0</ele><time>2026-03-29T09:51:28.093Z</time></trkpt><trkpt lat="44.9065993" lon="9.7722185"><ele>120.33333333333333</ele><time>2026-03-29T09:51:30.093Z</time></trkpt><trkpt lat="44.9065857" lon="9.7720825"><ele>120.66666666666666</ele><time>2026-03-29T09:51:32.095Z</time></trkpt><trkpt lat="44.9065733" lon="9.7719568"><ele>121.0</ele><time>2026-03-29T09:51:34.11Z</time></trkpt><trkpt lat="44.9065753" lon="9.7718286"><ele>121.33333333333333</ele><time>2026-03-29T09:51:36.094Z</time></trkpt><trkpt lat="44.9065846" lon="9.7717055"><ele>121.66666666666666</ele><time>2026-03-29T09:51:38.092Z</time></trkpt><trkpt lat="44.9065984" lon="9.7715933"><ele>122.0</ele><time>2026-03-29T09:51:40.088Z</time></trkpt><trkpt lat="44.9066129" lon="9.771475"><ele>122.0</ele><time>2026-03-29T09:51:42.088Z</time></trkpt><trkpt lat="44.9066334" lon="9.7713634"><ele>121.99999999999999</ele><time>2026-03-29T09:51:44.086Z</time></trkpt><trkpt lat="44.9066642" lon="9.7712387"><ele>121.99999999999999</ele><time>2026-03-29T09:51:46.081Z</time></trkpt><trkpt lat="44.9066741" lon="9.7711081"><ele>122.0</ele><time>2026-03-29T09:51:48.09Z</time></trkpt><trkpt lat="44.9066972" lon="9.7709832"><ele>122.0</ele><time>2026-03-29T09:51:50.092Z</time></trkpt><trkpt lat="44.9067135" lon="9.7708559"><ele>121.99999999999999</ele><time>2026-03-29T09:51:52.092Z</time></trkpt><trkpt lat="44.9067298" lon="9.7707311"><ele>122.0</ele><time>2026-03-29T09:51:54.071Z</time></trkpt><trkpt lat="44.9067545" lon="9.7706113"><ele>122.0</ele><time>2026-03-29T09:51:56.085Z</time></trkpt><trkpt lat="44.9067715" lon="9.7704911"><ele>122.0</ele><time>2026-03-29T09:51:58.089Z</time></trkpt><trkpt lat="44.9067907" lon="9.7703751"><ele>121.99999999999999</ele><time>2026-03-29T09:52:00.085Z</time></trkpt><trkpt lat="44.9068399" lon="9.7702858"><ele>122.0</ele><time>2026-03-29T09:52:02.081Z</time></trkpt><trkpt lat="44.9069256" lon="9.7702504"><ele>121.8</ele><time>2026-03-29T09:52:04.088Z</time></trkpt><trkpt lat="44.9070186" lon="9.7702832"><ele>121.6</ele><time>2026-03-29T09:52:06.095Z</time></trkpt><trkpt lat="44.9071215" lon="9.7703144"><ele>121.39999999999999</ele><time>2026-03-29T09:52:08.095Z</time></trkpt><trkpt lat="44.9072227" lon="9.7703455"><ele>121.19999999999999</ele><time>2026-03-29T09:52:10.093Z</time></trkpt><trkpt lat="44.9073232" lon="9.7703709"><ele>121.0</ele><time>2026-03-29T09:52:12.096Z</time></trkpt><trkpt lat="44.9074324" lon="9.770395"><ele>121.0</ele><time>2026-03-29T09:52:14.08Z</time></trkpt><trkpt lat="44.9075414" lon="9.7704253"><ele>121.0</ele><time>2026-03-29T09:52:16.076Z</time></trkpt><trkpt lat="44.9076515" lon="9.7704523"><ele>121.0</ele><time>2026-03-29T09:52:18.096Z</time></trkpt><trkpt lat="44.9077664" lon="9.7704836"><ele>121.0</ele><time>2026-03-29T09:52:20.091Z</time></trkpt><trkpt lat="44.9078853" lon="9.7705218"><ele>121.16666666666667</ele><time>2026-03-29T09:52:22.091Z</time></trkpt><trkpt lat="44.908003" lon="9.7705498"><ele>121.33333333333334</ele><time>2026-03-29T09:52:24.088Z</time></trkpt><trkpt lat="44.9081268" lon="9.7705825"><ele>121.5</ele><time>2026-03-29T09:52:26.089Z</time></trkpt><trkpt lat="44.9081913" lon="9.7705981"><ele>121.66666666666666</ele><time>2026-03-29T09:52:27.099Z</time></trkpt><trkpt lat="44.9082553" lon="9.770617"><ele>121.83333333333333</ele><time>2026-03-29T09:52:28.083Z</time></trkpt><trkpt lat="44.90832" lon="9.7706324"><ele>122.0</ele><time>2026-03-29T09:52:29.102Z</time></trkpt><trkpt lat="44.9083872" lon="9.770648"><ele>122.16666666666666</ele><time>2026-03-29T09:52:30.1Z</time></trkpt><trkpt lat="44.9085161" lon="9.7706812"><ele>122.33333333333333</ele><time>2026-03-29T09:52:32.092Z</time></trkpt><trkpt lat="44.9085824" lon="9.7706995"><ele>122.5</ele><time>2026-03-29T09:52:33.081Z</time></trkpt><trkpt lat="44.9086497" lon="9.7707197"><ele>122.66666666666666</ele><time>2026-03-29T09:52:34.09Z</time></trkpt><trkpt lat="44.9087224" lon="9.7707325"><ele>122.83333333333333</ele><time>2026-03-29T09:52:35.092Z</time></trkpt><trkpt lat="44.9087929" lon="9.770746"><ele>123.0</ele><time>2026-03-29T09:52:36.086Z</time></trkpt><trkpt lat="44.9088604" lon="9.7707607"><ele>123.00000000000001</ele><time>2026-03-29T09:52:37.094Z</time></trkpt><trkpt lat="44.9089324" lon="9.7707784"><ele>123.0</ele><time>2026-03-29T09:52:38.09Z</time></trkpt><trkpt lat="44.9090027" lon="9.7707925"><ele>123.00000000000001</ele><time>2026-03-29T09:52:39.096Z</time></trkpt><trkpt lat="44.9090742" lon="9.770812"><ele>123.00000000000001</ele><time>2026-03-29T09:52:40.096Z</time></trkpt><trkpt lat="44.909145" lon="9.7708333"><ele>123.0</ele><time>2026-03-29T09:52:41.089Z</time></trkpt><trkpt lat="44.9092139" lon="9.7708475"><ele>123.00000000000001</ele><time>2026-03-29T09:52:42.079Z</time></trkpt><trkpt lat="44.9092793" lon="9.770869"><ele>123.00000000000001</ele><time>2026-03-29T09:52:43.092Z</time></trkpt><trkpt lat="44.9093492" lon="9.7708838"><ele>122.71428571428572</ele><time>2026-03-29T09:52:44.099Z</time></trkpt><trkpt lat="44.9094196" lon="9.7709024"><ele>122.42857142857143</ele><time>2026-03-29T09:52:45.087Z</time></trkpt><trkpt lat="44.9094913" lon="9.7709216"><ele>122.14285714285714</ele><time>2026-03-29T09:52:46.087Z</time></trkpt><trkpt lat="44.9095594" lon="9.7709389"><ele>121.85714285714286</ele><time>2026-03-29T09:52:47.088Z</time></trkpt><trkpt lat="44.9096267" lon="9.770956"><ele>121.57142857142856</ele><time>2026-03-29T09:52:48.094Z</time></trkpt><trkpt lat="44.9096953" lon="9.7709709"><ele>121.28571428571428</ele><time>2026-03-29T09:52:49.082Z</time></trkpt><trkpt lat="44.9097661" lon="9.770989"><ele>121.0</ele><time>2026-03-29T09:52:50.096Z</time></trkpt><trkpt lat="44.9098325" lon="9.7710101"><ele>120.57142857142857</ele><time>2026-03-29T09:52:51.098Z</time></trkpt><trkpt lat="44.9099023" lon="9.7710345"><ele>120.14285714285714</ele><time>2026-03-29T09:52:52.104Z</time></trkpt><trkpt lat="44.9099725" lon="9.7710512"><ele>119.71428571428571</ele><time>2026-03-29T09:52:53.08Z</time></trkpt><trkpt lat="44.9100429" lon="9.7710708"><ele>119.28571428571428</ele><time>2026-03-29T09:52:54.068Z</time></trkpt><trkpt lat="44.9101132" lon="9.7710912"><ele>118.85714285714286</ele><time>2026-03-29T09:52:55.078Z</time></trkpt><trkpt lat="44.9101809" lon="9.771111"><ele>118.42857142857142</ele><time>2026-03-29T09:52:56.09Z</time></trkpt><trkpt lat="44.9102486" lon="9.7711289"><ele>118.0</ele><time>2026-03-29T09:52:57.079Z</time></trkpt><trkpt lat="44.9103169" lon="9.7711512"><ele>117.71428571428571</ele><time>2026-03-29T09:52:58.079Z</time></trkpt><trkpt lat="44.910386" lon="9.7711683"><ele>117.42857142857144</ele><time>2026-03-29T09:52:59.088Z</time></trkpt><trkpt lat="44.9104571" lon="9.7711811"><ele>117.14285714285715</ele><time>2026-03-29T09:53:00.085Z</time></trkpt><trkpt lat="44.9105278" lon="9.7711993"><ele>116.85714285714286</ele><time>2026-03-29T09:53:01.075Z</time></trkpt><trkpt lat="44.9105973" lon="9.7712142"><ele>116.57142857142858</ele><time>2026-03-29T09:53:02.081Z</time></trkpt><trkpt lat="44.9106684" lon="9.7712294"><ele>116.2857142857143</ele><time>2026-03-29T09:53:03.088Z</time></trkpt><trkpt lat="44.9107348" lon="9.7712489"><ele>116.00000000000001</ele><time>2026-03-29T09:53:04.101Z</time></trkpt><trkpt lat="44.9108098" lon="9.7712656"><ele>116.00000000000001</ele><time>2026-03-29T09:53:05.093Z</time></trkpt><trkpt lat="44.9108752" lon="9.7712801"><ele>116.0</ele><time>2026-03-29T09:53:06.093Z</time></trkpt><trkpt lat="44.9109391" lon="9.771297"><ele>116.00000000000001</ele><time>2026-03-29T09:53:07.098Z</time></trkpt><trkpt lat="44.9110121" lon="9.7713142"><ele>116.00000000000001</ele><time>2026-03-29T09:53:08.082Z</time></trkpt><trkpt lat="44.9110854" lon="9.7713383"><ele>116.0</ele><time>2026-03-29T09:53:09.091Z</time></trkpt><trkpt lat="44.9111587" lon="9.7713567"><ele>116.00000000000001</ele><time>2026-03-29T09:53:10.091Z</time></trkpt><trkpt lat="44.9112293" lon="9.7713729"><ele>116.00000000000001</ele><time>2026-03-29T09:53:11.098Z</time></trkpt><trkpt lat="44.9113001" lon="9.7713927"><ele>115.57142857142858</ele><time>2026-03-29T09:53:12.081Z</time></trkpt><trkpt lat="44.9113686" lon="9.7714114"><ele>115.14285714285714</ele><time>2026-03-29T09:53:13.09Z</time></trkpt><trkpt lat="44.9114394" lon="9.7714271"><ele>114.71428571428572</ele><time>2026-03-29T09:53:14.085Z</time></trkpt><trkpt lat="44.9115151" lon="9.7714433"><ele>114.28571428571429</ele><time>2026-03-29T09:53:15.08Z</time></trkpt><trkpt lat="44.9115875" lon="9.7714613"><ele>113.85714285714286</ele><time>2026-03-29T09:53:16.081Z</time></trkpt><trkpt lat="44.9116565" lon="9.7714816"><ele>113.42857142857143</ele><time>2026-03-29T09:53:17.088Z</time></trkpt><trkpt lat="44.9117253" lon="9.771494"><ele>113.0</ele><time>2026-03-29T09:53:18.089Z</time></trkpt><trkpt lat="44.9117896" lon="9.7715116"><ele>112.57142857142857</ele><time>2026-03-29T09:53:19.094Z</time></trkpt><trkpt lat="44.911857" lon="9.7715308"><ele>112.14285714285714</ele><time>2026-03-29T09:53:20.095Z</time></trkpt><trkpt lat="44.9119281" lon="9.7715517"><ele>111.71428571428571</ele><time>2026-03-29T09:53:21.082Z</time></trkpt><trkpt lat="44.9120021" lon="9.7715687"><ele>111.28571428571428</ele><time>2026-03-29T09:53:22.086Z</time></trkpt><trkpt lat="44.9120768" lon="9.7715832"><ele>110.85714285714286</ele><time>2026-03-29T09:53:23.092Z</time></trkpt><trkpt lat="44.9121497" lon="9.7716003"><ele>110.42857142857142</ele><time>2026-03-29T09:53:24.088Z</time></trkpt><trkpt lat="44.9122176" lon="9.771623"><ele>110.0</ele><time>2026-03-29T09:53:25.089Z</time></trkpt><trkpt lat="44.9122855" lon="9.7716467"><ele>109.99999999999999</ele><time>2026-03-29T09:53:26.086Z</time></trkpt><trkpt lat="44.9123577" lon="9.7716661"><ele>110.0</ele><time>2026-03-29T09:53:27.094Z</time></trkpt><trkpt lat="44.912428" lon="9.7716841"><ele>110.0</ele><time>2026-03-29T09:53:28.091Z</time></trkpt><trkpt lat="44.9125029" lon="9.7716939"><ele>110.0</ele><time>2026-03-29T09:53:29.086Z</time></trkpt><trkpt lat="44.9125736" lon="9.7717149"><ele>110.0</ele><time>2026-03-29T09:53:30.082Z</time></trkpt><trkpt lat="44.9126444" lon="9.7717318"><ele>109.99999999999999</ele><time>2026-03-29T09:53:31.083Z</time></trkpt><trkpt lat="44.9127094" lon="9.77175"><ele>110.0</ele><time>2026-03-29T09:53:32.08Z</time></trkpt><trkpt lat="44.9127786" lon="9.7717675"><ele>110.14285714285714</ele><time>2026-03-29T09:53:33.083Z</time></trkpt><trkpt lat="44.91285" lon="9.7717885"><ele>110.28571428571428</ele><time>2026-03-29T09:53:34.088Z</time></trkpt><trkpt lat="44.9129192" lon="9.77181"><ele>110.42857142857142</ele><time>2026-03-29T09:53:35.073Z</time></trkpt><trkpt lat="44.9129889" lon="9.7718258"><ele>110.57142857142857</ele><time>2026-03-29T09:53:36.092Z</time></trkpt><trkpt lat="44.9130588" lon="9.77185"><ele>110.71428571428572</ele><time>2026-03-29T09:53:37.091Z</time></trkpt><trkpt lat="44.913126" lon="9.7718663"><ele>110.85714285714285</ele><time>2026-03-29T09:53:38.091Z</time></trkpt><trkpt lat="44.9131962" lon="9.771885"><ele>111.0</ele><time>2026-03-29T09:53:39.058Z</time></trkpt><trkpt lat="44.91326" lon="9.7718971"><ele>110.85714285714285</ele><time>2026-03-29T09:53:40.081Z</time></trkpt><trkpt lat="44.9133324" lon="9.7719122"><ele>110.71428571428572</ele><time>2026-03-29T09:53:41.093Z</time></trkpt><trkpt lat="44.9134056" lon="9.7719234"><ele>110.57142857142857</ele><time>2026-03-29T09:53:42.095Z</time></trkpt><trkpt lat="44.9134766" lon="9.7719357"><ele>110.42857142857142</ele><time>2026-03-29T09:53:43.106Z</time></trkpt><trkpt lat="44.9135513" lon="9.7719528"><ele>110.28571428571428</ele><time>2026-03-29T09:53:44.091Z</time></trkpt><trkpt lat="44.9136236" lon="9.7719717"><ele>110.14285714285714</ele><time>2026-03-29T09:53:45.084Z</time></trkpt><trkpt lat="44.9136982" lon="9.7719876"><ele>110.0</ele><time>2026-03-29T09:53:46.08Z</time></trkpt><trkpt lat="44.9137694" lon="9.7720086"><ele>109.99999999999999</ele><time>2026-03-29T09:53:47.099Z</time></trkpt><trkpt lat="44.9138367" lon="9.7720313"><ele>110.0</ele><time>2026-03-29T09:53:48.084Z</time></trkpt><trkpt lat="44.9139075" lon="9.772054"><ele>110.0</ele><time>2026-03-29T09:53:49.095Z</time></trkpt><trkpt lat="44.9139821" lon="9.7720701"><ele>110.0</ele><time>2026-03-29T09:53:50.086Z</time></trkpt><trkpt lat="44.9140504" lon="9.7720827"><ele>110.0</ele><time>2026-03-29T09:53:51.08Z</time></trkpt><trkpt lat="44.9141206" lon="9.7720979"><ele>109.99999999999999</ele><time>2026-03-29T09:53:52.09Z</time></trkpt><trkpt lat="44.9141917" lon="9.772118"><ele>110.0</ele><time>2026-03-29T09:53:53.092Z</time></trkpt><trkpt lat="44.9142595" lon="9.7721359"><ele>110.14285714285714</ele><time>2026-03-29T09:53:54.084Z</time></trkpt><trkpt lat="44.9143258" lon="9.7721546"><ele>110.28571428571428</ele><time>2026-03-29T09:53:55.101Z</time></trkpt><trkpt lat="44.9143933" lon="9.7721738"><ele>110.42857142857142</ele><time>2026-03-29T09:53:56.089Z</time></trkpt><trkpt lat="44.9144647" lon="9.7721911"><ele>110.57142857142857</ele><time>2026-03-29T09:53:57.087Z</time></trkpt><trkpt lat="44.914531" lon="9.7722108"><ele>110.71428571428572</ele><time>2026-03-29T09:53:58.087Z</time></trkpt><trkpt lat="44.9146005" lon="9.7722289"><ele>110.85714285714285</ele><time>2026-03-29T09:53:59.103Z</time></trkpt><trkpt lat="44.9146721" lon="9.7722485"><ele>111.0</ele><time>2026-03-29T09:54:00.086Z</time></trkpt><trkpt lat="44.9147433" lon="9.772264"><ele>111.0</ele><time>2026-03-29T09:54:01.093Z</time></trkpt><trkpt lat="44.9148137" lon="9.7722817"><ele>111.0</ele><time>2026-03-29T09:54:02.092Z</time></trkpt><trkpt lat="44.9148867" lon="9.7722996"><ele>111.0</ele><time>2026-03-29T09:54:03.097Z</time></trkpt><trkpt lat="44.9149584" lon="9.7723129"><ele>111.0</ele><time>2026-03-29T09:54:04.091Z</time></trkpt><trkpt lat="44.9150274" lon="9.7723254"><ele>111.0</ele><time>2026-03-29T09:54:05.08Z</time></trkpt><trkpt lat="44.9150971" lon="9.7723448"><ele>111.0</ele><time>2026-03-29T09:54:06.084Z</time></trkpt><trkpt lat="44.9151652" lon="9.7723633"><ele>111.0</ele><time>2026-03-29T09:54:07.072Z</time></trkpt><trkpt lat="44.9152319" lon="9.7723799"><ele>111.0</ele><time>2026-03-29T09:54:08.089Z</time></trkpt><trkpt lat="44.9153015" lon="9.7723981"><ele>111.0</ele><time>2026-03-29T09:54:09.085Z</time></trkpt><trkpt lat="44.9153727" lon="9.7724169"><ele>111.0</ele><time>2026-03-29T09:54:10.074Z</time></trkpt><trkpt lat="44.9154429" lon="9.772436"><ele>111.0</ele><time>2026-03-29T09:54:11.056Z</time></trkpt><trkpt lat="44.9155122" lon="9.7724577"><ele>111.0</ele><time>2026-03-29T09:54:12.094Z</time></trkpt><trkpt lat="44.9155819" lon="9.7724801"><ele>111.0</ele><time>2026-03-29T09:54:13.091Z</time></trkpt><trkpt lat="44.9156528" lon="9.7724941"><ele>111.0</ele><time>2026-03-29T09:54:14.083Z</time></trkpt><trkpt lat="44.9157182" lon="9.7725115"><ele>111.0</ele><time>2026-03-29T09:54:15.1Z</time></trkpt><trkpt lat="44.9157853" lon="9.7725269"><ele>111.0</ele><time>2026-03-29T09:54:16.095Z</time></trkpt><trkpt lat="44.9158515" lon="9.7725464"><ele>111.0</ele><time>2026-03-29T09:54:17.086Z</time></trkpt><trkpt lat="44.9159207" lon="9.7725633"><ele>111.0</ele><time>2026-03-29T09:54:18.102Z</time></trkpt><trkpt lat="44.9159905" lon="9.7725835"><ele>111.0</ele><time>2026-03-29T09:54:19.093Z</time></trkpt><trkpt lat="44.9160603" lon="9.7726002"><ele>111.0</ele><time>2026-03-29T09:54:20.098Z</time></trkpt><trkpt lat="44.916128" lon="9.7726175"><ele>111.0</ele><time>2026-03-29T09:54:21.097Z</time></trkpt><trkpt lat="44.9162002" lon="9.7726334"><ele>110.85714285714285</ele><time>2026-03-29T09:54:22.051Z</time></trkpt><trkpt lat="44.9162686" lon="9.77265"><ele>110.71428571428572</ele><time>2026-03-29T09:54:23.081Z</time></trkpt><trkpt lat="44.9163382" lon="9.7726708"><ele>110.57142857142857</ele><time>2026-03-29T09:54:24.058Z</time></trkpt><trkpt lat="44.9164046" lon="9.7726889"><ele>110.42857142857142</ele><time>2026-03-29T09:54:25.092Z</time></trkpt><trkpt lat="44.916472" lon="9.7727052"><ele>110.28571428571428</ele><time>2026-03-29T09:54:26.081Z</time></trkpt><trkpt lat="44.9165424" lon="9.7727187"><ele>110.14285714285714</ele><time>2026-03-29T09:54:27.089Z</time></trkpt><trkpt lat="44.9166141" lon="9.7727343"><ele>110.0</ele><time>2026-03-29T09:54:28.098Z</time></trkpt><trkpt lat="44.9166837" lon="9.7727494"><ele>109.71428571428571</ele><time>2026-03-29T09:54:29.075Z</time></trkpt><trkpt lat="44.9167511" lon="9.7727631"><ele>109.42857142857143</ele><time>2026-03-29T09:54:30.086Z</time></trkpt><trkpt lat="44.9168192" lon="9.7727844"><ele>109.14285714285714</ele><time>2026-03-29T09:54:31.096Z</time></trkpt><trkpt lat="44.9168881" lon="9.7728046"><ele>108.85714285714286</ele><time>2026-03-29T09:54:32.104Z</time></trkpt><trkpt lat="44.9169529" lon="9.7728238"><ele>108.57142857142857</ele><time>2026-03-29T09:54:33.1Z</time></trkpt><trkpt lat="44.9170236" lon="9.7728404"><ele>108.28571428571428</ele><time>2026-03-29T09:54:34.094Z</time></trkpt><trkpt lat="44.9170899" lon="9.7728519"><ele>108.0</ele><time>2026-03-29T09:54:35.092Z</time></trkpt><trkpt lat="44.9171582" lon="9.772868"><ele>108.0</ele><time>2026-03-29T09:54:36.088Z</time></trkpt><trkpt lat="44.9172256" lon="9.7728848"><ele>108.0</ele><time>2026-03-29T09:54:37.102Z</time></trkpt><trkpt lat="44.9172936" lon="9.7729023"><ele>108.0</ele><time>2026-03-29T09:54:38.099Z</time></trkpt><trkpt lat="44.9173637" lon="9.7729151"><ele>108.0</ele><time>2026-03-29T09:54:39.045Z</time></trkpt><trkpt lat="44.9174874" lon="9.7729454"><ele>108.0</ele><time>2026-03-29T09:54:41.082Z</time></trkpt><trkpt lat="44.9175524" lon="9.772959"><ele>108.0</ele><time>2026-03-29T09:54:42.085Z</time></trkpt><trkpt lat="44.9176201" lon="9.7729772"><ele>108.0</ele><time>2026-03-29T09:54:43.099Z</time></trkpt><trkpt lat="44.9176829" lon="9.7729958"><ele>108.00000000000001</ele><time>2026-03-29T09:54:44.088Z</time></trkpt><trkpt lat="44.917801" lon="9.773034"><ele>108.00000000000001</ele><time>2026-03-29T09:54:46.096Z</time></trkpt><trkpt lat="44.9179186" lon="9.7730657"><ele>108.0</ele><time>2026-03-29T09:54:48.087Z</time></trkpt><trkpt lat="44.9180386" lon="9.7730901"><ele>108.0</ele><time>2026-03-29T09:54:50.084Z</time></trkpt><trkpt lat="44.9181499" lon="9.7731171"><ele>108.0</ele><time>2026-03-29T09:54:52.085Z</time></trkpt><trkpt lat="44.9182631" lon="9.7731555"><ele>108.00000000000001</ele><time>2026-03-29T09:54:54.093Z</time></trkpt><trkpt lat="44.9183689" lon="9.7732003"><ele>108.00000000000001</ele><time>2026-03-29T09:54:56.078Z</time></trkpt><trkpt lat="44.9184586" lon="9.7732369"><ele>108.0</ele><time>2026-03-29T09:54:58.084Z</time></trkpt><trkpt lat="44.9185308" lon="9.7732444"><ele>108.0</ele><time>2026-03-29T09:55:02.077Z</time></trkpt><trkpt lat="44.9185893" lon="9.7731904"><ele>107.4</ele><time>2026-03-29T09:55:47.086Z</time></trkpt><trkpt lat="44.9186634" lon="9.7731014"><ele>106.80000000000001</ele><time>2026-03-29T09:55:50.085Z</time></trkpt><trkpt lat="44.9186918" lon="9.772993"><ele>106.2</ele><time>2026-03-29T09:55:52.079Z</time></trkpt><trkpt lat="44.9187132" lon="9.7728798"><ele>105.6</ele><time>2026-03-29T09:55:54.086Z</time></trkpt><trkpt lat="44.9187321" lon="9.7727473"><ele>105.0</ele><time>2026-03-29T09:55:56.077Z</time></trkpt><trkpt lat="44.9187519" lon="9.7726166"><ele>105.0</ele><time>2026-03-29T09:55:58.089Z</time></trkpt><trkpt lat="44.918776" lon="9.7724746"><ele>105.0</ele><time>2026-03-29T09:56:00.092Z</time></trkpt><trkpt lat="44.9187961" lon="9.7723231"><ele>105.0</ele><time>2026-03-29T09:56:02.091Z</time></trkpt><trkpt lat="44.9188198" lon="9.7721845"><ele>105.0</ele><time>2026-03-29T09:56:04.092Z</time></trkpt><trkpt lat="44.9188468" lon="9.7720319"><ele>105.0</ele><time>2026-03-29T09:56:06.095Z</time></trkpt><trkpt lat="44.9188718" lon="9.7718835"><ele>105.2</ele><time>2026-03-29T09:56:08.085Z</time></trkpt><trkpt lat="44.9188917" lon="9.7717288"><ele>105.4</ele><time>2026-03-29T09:56:10.087Z</time></trkpt><trkpt lat="44.9189067" lon="9.7715806"><ele>105.6</ele><time>2026-03-29T09:56:12.094Z</time></trkpt><trkpt lat="44.9189341" lon="9.7714329"><ele>105.8</ele><time>2026-03-29T09:56:14.079Z</time></trkpt><trkpt lat="44.918952" lon="9.7712804"><ele>106.0</ele><time>2026-03-29T09:56:16.09Z</time></trkpt><trkpt lat="44.9189776" lon="9.7711252"><ele>106.4</ele><time>2026-03-29T09:56:18.098Z</time></trkpt><trkpt lat="44.9190037" lon="9.7709828"><ele>106.8</ele><time>2026-03-29T09:56:20.091Z</time></trkpt><trkpt lat="44.9190594" lon="9.7708672"><ele>107.20000000000002</ele><time>2026-03-29T09:56:22.078Z</time></trkpt><trkpt lat="44.9191706" lon="9.7709206"><ele>107.60000000000001</ele><time>2026-03-29T09:56:24.09Z</time></trkpt><trkpt lat="44.9192892" lon="9.7709552"><ele>108.0</ele><time>2026-03-29T09:56:26.079Z</time></trkpt><trkpt lat="44.9194118" lon="9.7709714"><ele>108.28571428571428</ele><time>2026-03-29T09:56:28.094Z</time></trkpt><trkpt lat="44.9194741" lon="9.7709906"><ele>108.57142857142857</ele><time>2026-03-29T09:56:29.085Z</time></trkpt><trkpt lat="44.9195374" lon="9.7710096"><ele>108.85714285714286</ele><time>2026-03-29T09:56:30.1Z</time></trkpt><trkpt lat="44.9196005" lon="9.7710313"><ele>109.14285714285714</ele><time>2026-03-29T09:56:31.09Z</time></trkpt><trkpt lat="44.9196691" lon="9.7710503"><ele>109.42857142857143</ele><time>2026-03-29T09:56:32.096Z</time></trkpt><trkpt lat="44.9197336" lon="9.7710662"><ele>109.71428571428571</ele><time>2026-03-29T09:56:33.084Z</time></trkpt><trkpt lat="44.9198038" lon="9.7710836"><ele>110.0</ele><time>2026-03-29T09:56:34.094Z</time></trkpt><trkpt lat="44.9198706" lon="9.7711056"><ele>109.99999999999999</ele><time>2026-03-29T09:56:35.086Z</time></trkpt><trkpt lat="44.9199378" lon="9.7711221"><ele>110.0</ele><time>2026-03-29T09:56:36.094Z</time></trkpt><trkpt lat="44.9200015" lon="9.7711444"><ele>110.0</ele><time>2026-03-29T09:56:37.091Z</time></trkpt><trkpt lat="44.9200686" lon="9.7711669"><ele>110.0</ele><time>2026-03-29T09:56:38.109Z</time></trkpt><trkpt lat="44.9201361" lon="9.7711859"><ele>110.0</ele><time>2026-03-29T09:56:39.086Z</time></trkpt><trkpt lat="44.9202036" lon="9.7712146"><ele>109.99999999999999</ele><time>2026-03-29T09:56:40.065Z</time></trkpt><trkpt lat="44.9202702" lon="9.7712319"><ele>110.0</ele><time>2026-03-29T09:56:41.091Z</time></trkpt><trkpt lat="44.9203373" lon="9.7712535"><ele>109.85714285714285</ele><time>2026-03-29T09:56:42.094Z</time></trkpt><trkpt lat="44.9204031" lon="9.7712694"><ele>109.71428571428571</ele><time>2026-03-29T09:56:43.091Z</time></trkpt><trkpt lat="44.9204711" lon="9.7712877"><ele>109.57142857142857</ele><time>2026-03-29T09:56:44.101Z</time></trkpt><trkpt lat="44.920537" lon="9.7713067"><ele>109.42857142857142</ele><time>2026-03-29T09:56:45.082Z</time></trkpt><trkpt lat="44.9206034" lon="9.771322"><ele>109.28571428571429</ele><time>2026-03-29T09:56:46.089Z</time></trkpt><trkpt lat="44.9206657" lon="9.7713475"><ele>109.14285714285714</ele><time>2026-03-29T09:56:47.086Z</time></trkpt><trkpt lat="44.9207317" lon="9.7713697"><ele>109.0</ele><time>2026-03-29T09:56:48.093Z</time></trkpt><trkpt lat="44.9207958" lon="9.7713917"><ele>109.00000000000001</ele><time>2026-03-29T09:56:49.091Z</time></trkpt><trkpt lat="44.9208671" lon="9.7714109"><ele>109.0</ele><time>2026-03-29T09:56:50.095Z</time></trkpt><trkpt lat="44.9209342" lon="9.7714273"><ele>109.0</ele><time>2026-03-29T09:56:51.086Z</time></trkpt><trkpt lat="44.9209965" lon="9.7714493"><ele>109.0</ele><time>2026-03-29T09:56:52.083Z</time></trkpt><trkpt lat="44.9210624" lon="9.7714682"><ele>109.00000000000001</ele><time>2026-03-29T09:56:53.089Z</time></trkpt><trkpt lat="44.921127" lon="9.7714914"><ele>109.0</ele><time>2026-03-29T09:56:54.087Z</time></trkpt><trkpt lat="44.9212546" lon="9.7715336"><ele>108.57142857142857</ele><time>2026-03-29T09:56:56.086Z</time></trkpt><trkpt lat="44.921321" lon="9.7715482"><ele>108.14285714285714</ele><time>2026-03-29T09:56:57.097Z</time></trkpt><trkpt lat="44.921388" lon="9.7715603"><ele>107.71428571428572</ele><time>2026-03-29T09:56:58.097Z</time></trkpt><trkpt lat="44.9214545" lon="9.7715752"><ele>107.28571428571428</ele><time>2026-03-29T09:56:59.106Z</time></trkpt><trkpt lat="44.9215223" lon="9.7715932"><ele>106.85714285714285</ele><time>2026-03-29T09:57:00.104Z</time></trkpt><trkpt lat="44.9215888" lon="9.7716128"><ele>106.42857142857143</ele><time>2026-03-29T09:57:01.08Z</time></trkpt><trkpt lat="44.9216564" lon="9.7716288"><ele>106.0</ele><time>2026-03-29T09:57:02.097Z</time></trkpt><trkpt lat="44.9217246" lon="9.771648"><ele>106.0</ele><time>2026-03-29T09:57:03.092Z</time></trkpt><trkpt lat="44.9217911" lon="9.7716694"><ele>106.0</ele><time>2026-03-29T09:57:04.093Z</time></trkpt><trkpt lat="44.921859" lon="9.7716909"><ele>106.0</ele><time>2026-03-29T09:57:05.094Z</time></trkpt><trkpt lat="44.9219277" lon="9.7717094"><ele>106.0</ele><time>2026-03-29T09:57:06.088Z</time></trkpt><trkpt lat="44.9219921" lon="9.7717272"><ele>106.0</ele><time>2026-03-29T09:57:07.1Z</time></trkpt><trkpt lat="44.9220579" lon="9.7717435"><ele>106.0</ele><time>2026-03-29T09:57:08.097Z</time></trkpt><trkpt lat="44.9221261" lon="9.7717579"><ele>106.0</ele><time>2026-03-29T09:57:09.102Z</time></trkpt><trkpt lat="44.9221944" lon="9.7717733"><ele>106.0</ele><time>2026-03-29T09:57:10.089Z</time></trkpt><trkpt lat="44.9222599" lon="9.771789"><ele>106.0</ele><time>2026-03-29T09:57:11.103Z</time></trkpt><trkpt lat="44.9223235" lon="9.7718056"><ele>106.0</ele><time>2026-03-29T09:57:12.088Z</time></trkpt><trkpt lat="44.9223917" lon="9.7718141"><ele>106.0</ele><time>2026-03-29T09:57:13.09Z</time></trkpt><trkpt lat="44.922461" lon="9.7718174"><ele>106.0</ele><time>2026-03-29T09:57:14.107Z</time></trkpt><trkpt lat="44.9225278" lon="9.7718194"><ele>106.0</ele><time>2026-03-29T09:57:15.092Z</time></trkpt><trkpt lat="44.9225952" lon="9.7718209"><ele>106.0</ele><time>2026-03-29T09:57:16.093Z</time></trkpt><trkpt lat="44.9226639" lon="9.7718287"><ele>105.71428571428572</ele><time>2026-03-29T09:57:17.088Z</time></trkpt><trkpt lat="44.9227331" lon="9.771836"><ele>105.42857142857142</ele><time>2026-03-29T09:57:18.098Z</time></trkpt><trkpt lat="44.9228041" lon="9.7718437"><ele>105.14285714285714</ele><time>2026-03-29T09:57:19.092Z</time></trkpt><trkpt lat="44.9228743" lon="9.7718619"><ele>104.85714285714286</ele><time>2026-03-29T09:57:20.103Z</time></trkpt><trkpt lat="44.9229395" lon="9.7718815"><ele>104.57142857142858</ele><time>2026-03-29T09:57:21.075Z</time></trkpt><trkpt lat="44.9230085" lon="9.7718949"><ele>104.28571428571428</ele><time>2026-03-29T09:57:22.096Z</time></trkpt><trkpt lat="44.9230773" lon="9.7719114"><ele>104.0</ele><time>2026-03-29T09:57:23.079Z</time></trkpt><trkpt lat="44.9231428" lon="9.7719273"><ele>103.85714285714285</ele><time>2026-03-29T09:57:24.08Z</time></trkpt><trkpt lat="44.9232123" lon="9.7719453"><ele>103.71428571428572</ele><time>2026-03-29T09:57:25.081Z</time></trkpt><trkpt lat="44.9232765" lon="9.7719662"><ele>103.57142857142857</ele><time>2026-03-29T09:57:26.086Z</time></trkpt><trkpt lat="44.9233451" lon="9.7719841"><ele>103.42857142857142</ele><time>2026-03-29T09:57:27.097Z</time></trkpt><trkpt lat="44.9234158" lon="9.7719958"><ele>103.28571428571428</ele><time>2026-03-29T09:57:28.095Z</time></trkpt><trkpt lat="44.9234813" lon="9.7720111"><ele>103.14285714285714</ele><time>2026-03-29T09:57:29.095Z</time></trkpt><trkpt lat="44.9235517" lon="9.7720233"><ele>103.0</ele><time>2026-03-29T09:57:30.096Z</time></trkpt><trkpt lat="44.9236198" lon="9.7720403"><ele>102.57142857142857</ele><time>2026-03-29T09:57:31.096Z</time></trkpt><trkpt lat="44.9236847" lon="9.7720576"><ele>102.14285714285714</ele><time>2026-03-29T09:57:32.082Z</time></trkpt><trkpt lat="44.9237533" lon="9.7720736"><ele>101.71428571428572</ele><time>2026-03-29T09:57:33.096Z</time></trkpt><trkpt lat="44.923822" lon="9.7720856"><ele>101.28571428571428</ele><time>2026-03-29T09:57:34.093Z</time></trkpt><trkpt lat="44.92389" lon="9.7721"><ele>100.85714285714286</ele><time>2026-03-29T09:57:35.093Z</time></trkpt><trkpt lat="44.9239579" lon="9.7721175"><ele>100.42857142857143</ele><time>2026-03-29T09:57:36.092Z</time></trkpt><trkpt lat="44.9240237" lon="9.7721329"><ele>100.0</ele><time>2026-03-29T09:57:37.097Z</time></trkpt><trkpt lat="44.9240872" lon="9.7721486"><ele>100.00000000000001</ele><time>2026-03-29T09:57:38.081Z</time></trkpt><trkpt lat="44.9241532" lon="9.7721629"><ele>100.0</ele><time>2026-03-29T09:57:39.096Z</time></trkpt><trkpt lat="44.924219" lon="9.7721788"><ele>100.0</ele><time>2026-03-29T09:57:40.088Z</time></trkpt><trkpt lat="44.9243471" lon="9.7722081"><ele>100.0</ele><time>2026-03-29T09:57:42.096Z</time></trkpt><trkpt lat="44.9244137" lon="9.7722226"><ele>100.00000000000001</ele><time>2026-03-29T09:57:43.084Z</time></trkpt><trkpt lat="44.9244784" lon="9.7722355"><ele>100.0</ele><time>2026-03-29T09:57:44.097Z</time></trkpt><trkpt lat="44.9245467" lon="9.7722503"><ele>100.33333333333334</ele><time>2026-03-29T09:57:45.092Z</time></trkpt><trkpt lat="44.924611" lon="9.7722638"><ele>100.66666666666667</ele><time>2026-03-29T09:57:46.088Z</time></trkpt><trkpt lat="44.924675" lon="9.7722827"><ele>101.0</ele><time>2026-03-29T09:57:47.088Z</time></trkpt><trkpt lat="44.924742" lon="9.7722994"><ele>101.33333333333334</ele><time>2026-03-29T09:57:48.092Z</time></trkpt><trkpt lat="44.9248115" lon="9.7723172"><ele>101.66666666666667</ele><time>2026-03-29T09:57:49.09Z</time></trkpt><trkpt lat="44.9249377" lon="9.7723457"><ele>102.0</ele><time>2026-03-29T09:57:51.093Z</time></trkpt><trkpt lat="44.9250022" lon="9.7723617"><ele>102.14285714285714</ele><time>2026-03-29T09:57:52.1Z</time></trkpt><trkpt lat="44.9250689" lon="9.7723789"><ele>102.28571428571429</ele><time>2026-03-29T09:57:53.095Z</time></trkpt><trkpt lat="44.9251348" lon="9.7723965"><ele>102.42857142857142</ele><time>2026-03-29T09:57:54.089Z</time></trkpt><trkpt lat="44.925204" lon="9.7724098"><ele>102.57142857142857</ele><time>2026-03-29T09:57:55.095Z</time></trkpt><trkpt lat="44.9252765" lon="9.7724269"><ele>102.71428571428571</ele><time>2026-03-29T09:57:56.085Z</time></trkpt><trkpt lat="44.9253426" lon="9.7724412"><ele>102.85714285714285</ele><time>2026-03-29T09:57:57.097Z</time></trkpt><trkpt lat="44.9254143" lon="9.7724547"><ele>103.0</ele><time>2026-03-29T09:57:58.103Z</time></trkpt><trkpt lat="44.9254837" lon="9.7724708"><ele>102.99999999999999</ele><time>2026-03-29T09:57:59.069Z</time></trkpt><trkpt lat="44.9255547" lon="9.7724856"><ele>103.0</ele><time>2026-03-29T09:58:00.103Z</time></trkpt><trkpt lat="44.9256212" lon="9.7724983"><ele>103.0</ele><time>2026-03-29T09:58:01.09Z</time></trkpt><trkpt lat="44.9256905" lon="9.7725172"><ele>103.0</ele><time>2026-03-29T09:58:02.079Z</time></trkpt><trkpt lat="44.9257553" lon="9.7725368"><ele>103.0</ele><time>2026-03-29T09:58:03.091Z</time></trkpt><trkpt lat="44.9258208" lon="9.7725544"><ele>102.99999999999999</ele><time>2026-03-29T09:58:04.086Z</time></trkpt><trkpt lat="44.9258881" lon="9.7725721"><ele>103.0</ele><time>2026-03-29T09:58:05.09Z</time></trkpt><trkpt lat="44.925956" lon="9.7725886"><ele>102.85714285714285</ele><time>2026-03-29T09:58:06.108Z</time></trkpt><trkpt lat="44.926024" lon="9.7726036"><ele>102.71428571428571</ele><time>2026-03-29T09:58:07.091Z</time></trkpt><trkpt lat="44.9260938" lon="9.7726157"><ele>102.57142857142857</ele><time>2026-03-29T09:58:08.093Z</time></trkpt><trkpt lat="44.9261643" lon="9.772632"><ele>102.42857142857142</ele><time>2026-03-29T09:58:09.105Z</time></trkpt><trkpt lat="44.9262343" lon="9.7726422"><ele>102.28571428571429</ele><time>2026-03-29T09:58:10.09Z</time></trkpt><trkpt lat="44.926305" lon="9.7726545"><ele>102.14285714285714</ele><time>2026-03-29T09:58:11.085Z</time></trkpt><trkpt lat="44.926374" lon="9.7726736"><ele>102.0</ele><time>2026-03-29T09:58:12.098Z</time></trkpt><trkpt lat="44.926442" lon="9.7726881"><ele>101.71428571428572</ele><time>2026-03-29T09:58:13.099Z</time></trkpt><trkpt lat="44.926512" lon="9.7726995"><ele>101.42857142857143</ele><time>2026-03-29T09:58:14.085Z</time></trkpt><trkpt lat="44.9265797" lon="9.772713"><ele>101.14285714285714</ele><time>2026-03-29T09:58:15.1Z</time></trkpt><trkpt lat="44.9266458" lon="9.7727308"><ele>100.85714285714286</ele><time>2026-03-29T09:58:16.092Z</time></trkpt><trkpt lat="44.926713" lon="9.7727482"><ele>100.57142857142857</ele><time>2026-03-29T09:58:17.096Z</time></trkpt><trkpt lat="44.9267833" lon="9.7727642"><ele>100.28571428571429</ele><time>2026-03-29T09:58:18.094Z</time></trkpt><trkpt lat="44.9268501" lon="9.7727782"><ele>100.0</ele><time>2026-03-29T09:58:19.096Z</time></trkpt><trkpt lat="44.926921" lon="9.7727918"><ele>100.00000000000001</ele><time>2026-03-29T09:58:20.093Z</time></trkpt><trkpt lat="44.9269887" lon="9.7727995"><ele>100.0</ele><time>2026-03-29T09:58:21.084Z</time></trkpt><trkpt lat="44.9270574" lon="9.7728166"><ele>100.0</ele><time>2026-03-29T09:58:22.092Z</time></trkpt><trkpt lat="44.9271226" lon="9.7728332"><ele>100.0</ele><time>2026-03-29T09:58:23.082Z</time></trkpt><trkpt lat="44.9271892" lon="9.7728458"><ele>100.0</ele><time>2026-03-29T09:58:24.104Z</time></trkpt><trkpt lat="44.9272537" lon="9.7728587"><ele>100.00000000000001</ele><time>2026-03-29T09:58:25.091Z</time></trkpt><trkpt lat="44.9273194" lon="9.7728725"><ele>100.0</ele><time>2026-03-29T09:58:26.086Z</time></trkpt><trkpt lat="44.9273869" lon="9.7728849"><ele>100.00000000000001</ele><time>2026-03-29T09:58:27.084Z</time></trkpt><trkpt lat="44.9274515" lon="9.7729017"><ele>100.0</ele><time>2026-03-29T09:58:28.089Z</time></trkpt><trkpt lat="44.9275165" lon="9.7729157"><ele>100.0</ele><time>2026-03-29T09:58:29.085Z</time></trkpt><trkpt lat="44.9275826" lon="9.7729248"><ele>100.0</ele><time>2026-03-29T09:58:30.103Z</time></trkpt><trkpt lat="44.9277079" lon="9.7729567"><ele>100.00000000000001</ele><time>2026-03-29T09:58:32.087Z</time></trkpt><trkpt lat="44.9277781" lon="9.7729693"><ele>100.0</ele><time>2026-03-29T09:58:33.094Z</time></trkpt><trkpt lat="44.927843" lon="9.7729867"><ele>99.85714285714286</ele><time>2026-03-29T09:58:34.112Z</time></trkpt><trkpt lat="44.927911" lon="9.7730012"><ele>99.71428571428572</ele><time>2026-03-29T09:58:35.081Z</time></trkpt><trkpt lat="44.9279769" lon="9.7730264"><ele>99.57142857142858</ele><time>2026-03-29T09:58:36.086Z</time></trkpt><trkpt lat="44.9280427" lon="9.7730504"><ele>99.42857142857143</ele><time>2026-03-29T09:58:37.092Z</time></trkpt><trkpt lat="44.9281095" lon="9.7730712"><ele>99.28571428571428</ele><time>2026-03-29T09:58:38.083Z</time></trkpt><trkpt lat="44.928181" lon="9.7730834"><ele>99.14285714285715</ele><time>2026-03-29T09:58:39.09Z</time></trkpt><trkpt lat="44.9282522" lon="9.7730962"><ele>99.0</ele><time>2026-03-29T09:58:40.096Z</time></trkpt><trkpt lat="44.9283266" lon="9.7731067"><ele>99.5</ele><time>2026-03-29T09:58:41.083Z</time></trkpt><trkpt lat="44.9283978" lon="9.7731189"><ele>100.0</ele><time>2026-03-29T09:58:42.085Z</time></trkpt><trkpt lat="44.9284663" lon="9.7731258"><ele>100.5</ele><time>2026-03-29T09:58:43.098Z</time></trkpt><trkpt lat="44.9285344" lon="9.7731317"><ele>101.0</ele><time>2026-03-29T09:58:44.096Z</time></trkpt><trkpt lat="44.9286047" lon="9.7731411"><ele>101.5</ele><time>2026-03-29T09:58:45.091Z</time></trkpt><trkpt lat="44.9286756" lon="9.7731577"><ele>102.0</ele><time>2026-03-29T09:58:46.083Z</time></trkpt><trkpt lat="44.928802" lon="9.7731831"><ele>102.0</ele><time>2026-03-29T09:58:48.084Z</time></trkpt><trkpt lat="44.9288648" lon="9.7731936"><ele>102.0</ele><time>2026-03-29T09:58:49.083Z</time></trkpt><trkpt lat="44.9289725" lon="9.7732264"><ele>102.0</ele><time>2026-03-29T09:58:51.086Z</time></trkpt><trkpt lat="44.9290872" lon="9.7732765"><ele>102.0</ele><time>2026-03-29T09:58:53.095Z</time></trkpt><trkpt lat="44.9291453" lon="9.7733208"><ele>102.0</ele><time>2026-03-29T09:58:54.077Z</time></trkpt><trkpt lat="44.9292062" lon="9.7733735"><ele>102.0</ele><time>2026-03-29T09:58:55.071Z</time></trkpt><trkpt lat="44.9292639" lon="9.77343"><ele>101.71428571428572</ele><time>2026-03-29T09:58:56.091Z</time></trkpt><trkpt lat="44.9293291" lon="9.7734863"><ele>101.42857142857143</ele><time>2026-03-29T09:58:57.082Z</time></trkpt><trkpt lat="44.9293945" lon="9.7735417"><ele>101.14285714285714</ele><time>2026-03-29T09:58:58.094Z</time></trkpt><trkpt lat="44.9294605" lon="9.7735928"><ele>100.85714285714286</ele><time>2026-03-29T09:58:59.101Z</time></trkpt><trkpt lat="44.9295212" lon="9.7736458"><ele>100.57142857142857</ele><time>2026-03-29T09:59:00.088Z</time></trkpt><trkpt lat="44.9295829" lon="9.7736904"><ele>100.28571428571429</ele><time>2026-03-29T09:59:01.086Z</time></trkpt><trkpt lat="44.9296436" lon="9.773733"><ele>100.0</ele><time>2026-03-29T09:59:02.074Z</time></trkpt><trkpt lat="44.9297123" lon="9.7737663"><ele>99.66666666666667</ele><time>2026-03-29T09:59:03.099Z</time></trkpt><trkpt lat="44.929778" lon="9.7737935"><ele>99.33333333333334</ele><time>2026-03-29T09:59:04.098Z</time></trkpt><trkpt lat="44.9298423" lon="9.7738072"><ele>99.0</ele><time>2026-03-29T09:59:05.086Z</time></trkpt><trkpt lat="44.9299083" lon="9.7738195"><ele>98.66666666666666</ele><time>2026-03-29T09:59:06.086Z</time></trkpt><trkpt lat="44.9299768" lon="9.7738366"><ele>98.33333333333333</ele><time>2026-03-29T09:59:07.092Z</time></trkpt><trkpt lat="44.9301068" lon="9.7738664"><ele>98.0</ele><time>2026-03-29T09:59:09.08Z</time></trkpt><trkpt lat="44.9301694" lon="9.7738811"><ele>97.85714285714286</ele><time>2026-03-29T09:59:10.091Z</time></trkpt><trkpt lat="44.9302406" lon="9.7738996"><ele>97.71428571428572</ele><time>2026-03-29T09:59:11.077Z</time></trkpt><trkpt lat="44.930303" lon="9.7739159"><ele>97.57142857142857</ele><time>2026-03-29T09:59:12.078Z</time></trkpt><trkpt lat="44.930366" lon="9.7739307"><ele>97.42857142857143</ele><time>2026-03-29T09:59:13.097Z</time></trkpt><trkpt lat="44.9304362" lon="9.7739452"><ele>97.28571428571429</ele><time>2026-03-29T09:59:14.082Z</time></trkpt><trkpt lat="44.9305004" lon="9.7739579"><ele>97.14285714285714</ele><time>2026-03-29T09:59:15.089Z</time></trkpt><trkpt lat="44.9305649" lon="9.7739709"><ele>97.0</ele><time>2026-03-29T09:59:16.085Z</time></trkpt><trkpt lat="44.9306278" lon="9.7739898"><ele>97.0</ele><time>2026-03-29T09:59:17.091Z</time></trkpt><trkpt lat="44.9306937" lon="9.7740041"><ele>97.0</ele><time>2026-03-29T09:59:18.088Z</time></trkpt><trkpt lat="44.9307599" lon="9.7740174"><ele>97.0</ele><time>2026-03-29T09:59:19.094Z</time></trkpt><trkpt lat="44.9308224" lon="9.7740367"><ele>97.0</ele><time>2026-03-29T09:59:20.098Z</time></trkpt><trkpt lat="44.9308896" lon="9.7740489"><ele>97.0</ele><time>2026-03-29T09:59:21.1Z</time></trkpt><trkpt lat="44.9309617" lon="9.7740655"><ele>97.0</ele><time>2026-03-29T09:59:22.075Z</time></trkpt><trkpt lat="44.9310283" lon="9.7740846"><ele>97.0</ele><time>2026-03-29T09:59:23.093Z</time></trkpt><trkpt lat="44.9310997" lon="9.7740984"><ele>96.85714285714285</ele><time>2026-03-29T09:59:24.086Z</time></trkpt><trkpt lat="44.9311638" lon="9.7741137"><ele>96.71428571428572</ele><time>2026-03-29T09:59:25.091Z</time></trkpt><trkpt lat="44.9312299" lon="9.7741278"><ele>96.57142857142857</ele><time>2026-03-29T09:59:26.091Z</time></trkpt><trkpt lat="44.9312979" lon="9.7741421"><ele>96.42857142857142</ele><time>2026-03-29T09:59:27.073Z</time></trkpt><trkpt lat="44.9313667" lon="9.7741661"><ele>96.28571428571428</ele><time>2026-03-29T09:59:28.085Z</time></trkpt><trkpt lat="44.9314329" lon="9.7741877"><ele>96.14285714285714</ele><time>2026-03-29T09:59:29.105Z</time></trkpt><trkpt lat="44.9314962" lon="9.7742103"><ele>96.0</ele><time>2026-03-29T09:59:30.102Z</time></trkpt><trkpt lat="44.9315682" lon="9.7742275"><ele>95.99999999999999</ele><time>2026-03-29T09:59:31.092Z</time></trkpt><trkpt lat="44.9316356" lon="9.7742503"><ele>96.0</ele><time>2026-03-29T09:59:32.08Z</time></trkpt><trkpt lat="44.9317011" lon="9.7742797"><ele>96.0</ele><time>2026-03-29T09:59:33.08Z</time></trkpt><trkpt lat="44.9317681" lon="9.7743146"><ele>96.0</ele><time>2026-03-29T09:59:34.091Z</time></trkpt><trkpt lat="44.9318302" lon="9.7743395"><ele>96.0</ele><time>2026-03-29T09:59:35.096Z</time></trkpt><trkpt lat="44.9318956" lon="9.7743629"><ele>95.99999999999999</ele><time>2026-03-29T09:59:36.093Z</time></trkpt><trkpt lat="44.9319607" lon="9.7743801"><ele>96.0</ele><time>2026-03-29T09:59:37.093Z</time></trkpt><trkpt lat="44.9320282" lon="9.7743936"><ele>95.99999999999999</ele><time>2026-03-29T09:59:38.08Z</time></trkpt><trkpt lat="44.9320927" lon="9.7744079"><ele>96.0</ele><time>2026-03-29T09:59:39.089Z</time></trkpt><trkpt lat="44.9321596" lon="9.7744257"><ele>96.0</ele><time>2026-03-29T09:59:40.061Z</time></trkpt><trkpt lat="44.932224" lon="9.7744434"><ele>96.0</ele><time>2026-03-29T09:59:41.085Z</time></trkpt><trkpt lat="44.9322889" lon="9.7744553"><ele>96.0</ele><time>2026-03-29T09:59:42.1Z</time></trkpt><trkpt lat="44.9323549" lon="9.7744664"><ele>95.99999999999999</ele><time>2026-03-29T09:59:43.089Z</time></trkpt><trkpt lat="44.9324233" lon="9.7744838"><ele>96.0</ele><time>2026-03-29T09:59:44.083Z</time></trkpt><trkpt lat="44.9324905" lon="9.7744971"><ele>95.99999999999999</ele><time>2026-03-29T09:59:45.093Z</time></trkpt><trkpt lat="44.9325598" lon="9.7745066"><ele>96.0</ele><time>2026-03-29T09:59:46.093Z</time></trkpt><trkpt lat="44.9326287" lon="9.7745187"><ele>96.0</ele><time>2026-03-29T09:59:47.089Z</time></trkpt><trkpt lat="44.9326963" lon="9.7745322"><ele>96.0</ele><time>2026-03-29T09:59:48.093Z</time></trkpt><trkpt lat="44.9327639" lon="9.7745441"><ele>96.0</ele><time>2026-03-29T09:59:49.095Z</time></trkpt><trkpt lat="44.9328303" lon="9.774556"><ele>95.99999999999999</ele><time>2026-03-29T09:59:50.089Z</time></trkpt><trkpt lat="44.9328967" lon="9.7745639"><ele>96.0</ele><time>2026-03-29T09:59:51.111Z</time></trkpt><trkpt lat="44.9329645" lon="9.774569"><ele>95.99999999999999</ele><time>2026-03-29T09:59:52.092Z</time></trkpt><trkpt lat="44.933031" lon="9.7745746"><ele>96.0</ele><time>2026-03-29T09:59:53.087Z</time></trkpt><trkpt lat="44.933098" lon="9.7745797"><ele>96.0</ele><time>2026-03-29T09:59:54.098Z</time></trkpt><trkpt lat="44.9331643" lon="9.7745859"><ele>96.0</ele><time>2026-03-29T09:59:55.073Z</time></trkpt><trkpt lat="44.9332362" lon="9.7745888"><ele>96.0</ele><time>2026-03-29T09:59:56.091Z</time></trkpt><trkpt lat="44.9333018" lon="9.7745969"><ele>95.99999999999999</ele><time>2026-03-29T09:59:57.088Z</time></trkpt><trkpt lat="44.9333714" lon="9.7746016"><ele>96.0</ele><time>2026-03-29T09:59:58.096Z</time></trkpt><trkpt lat="44.9334373" lon="9.7746067"><ele>96.14285714285714</ele><time>2026-03-29T09:59:59.093Z</time></trkpt><trkpt lat="44.9335043" lon="9.7746053"><ele>96.28571428571428</ele><time>2026-03-29T10:00:00.087Z</time></trkpt><trkpt lat="44.9335712" lon="9.7746096"><ele>96.42857142857142</ele><time>2026-03-29T10:00:01.084Z</time></trkpt><trkpt lat="44.9336416" lon="9.7746165"><ele>96.57142857142857</ele><time>2026-03-29T10:00:02.082Z</time></trkpt><trkpt lat="44.9337072" lon="9.7746252"><ele>96.71428571428572</ele><time>2026-03-29T10:00:03.092Z</time></trkpt><trkpt lat="44.9337773" lon="9.7746291"><ele>96.85714285714285</ele><time>2026-03-29T10:00:04.083Z</time></trkpt><trkpt lat="44.9338455" lon="9.774642"><ele>97.0</ele><time>2026-03-29T10:00:05.089Z</time></trkpt><trkpt lat="44.9339157" lon="9.7746552"><ele>97.0</ele><time>2026-03-29T10:00:06.085Z</time></trkpt><trkpt lat="44.9339819" lon="9.774663"><ele>97.0</ele><time>2026-03-29T10:00:07.075Z</time></trkpt><trkpt lat="44.934051" lon="9.774679"><ele>97.0</ele><time>2026-03-29T10:00:08.098Z</time></trkpt><trkpt lat="44.9341225" lon="9.7746872"><ele>97.0</ele><time>2026-03-29T10:00:09.096Z</time></trkpt><trkpt lat="44.9341978" lon="9.7746953"><ele>97.0</ele><time>2026-03-29T10:00:10.09Z</time></trkpt><trkpt lat="44.934268" lon="9.7747046"><ele>97.0</ele><time>2026-03-29T10:00:11.056Z</time></trkpt><trkpt lat="44.9343391" lon="9.774709"><ele>97.0</ele><time>2026-03-29T10:00:12.094Z</time></trkpt><trkpt lat="44.93441" lon="9.7747192"><ele>96.57142857142857</ele><time>2026-03-29T10:00:13.084Z</time></trkpt><trkpt lat="44.9344819" lon="9.7747244"><ele>96.14285714285715</ele><time>2026-03-29T10:00:14.081Z</time></trkpt><trkpt lat="44.9345553" lon="9.7747286"><ele>95.71428571428572</ele><time>2026-03-29T10:00:15.094Z</time></trkpt><trkpt lat="44.9346223" lon="9.774743"><ele>95.28571428571428</ele><time>2026-03-29T10:00:16.091Z</time></trkpt><trkpt lat="44.934689" lon="9.7747531"><ele>94.85714285714286</ele><time>2026-03-29T10:00:17.064Z</time></trkpt><trkpt lat="44.934753" lon="9.7747687"><ele>94.42857142857143</ele><time>2026-03-29T10:00:18.082Z</time></trkpt><trkpt lat="44.9348211" lon="9.7747809"><ele>94.0</ele><time>2026-03-29T10:00:19.085Z</time></trkpt><trkpt lat="44.9348888" lon="9.774785"><ele>94.0</ele><time>2026-03-29T10:00:20.09Z</time></trkpt><trkpt lat="44.934956" lon="9.7747934"><ele>94.0</ele><time>2026-03-29T10:00:21.086Z</time></trkpt><trkpt lat="44.9350269" lon="9.7748005"><ele>94.0</ele><time>2026-03-29T10:00:22.102Z</time></trkpt><trkpt lat="44.9350922" lon="9.7748102"><ele>94.0</ele><time>2026-03-29T10:00:23.069Z</time></trkpt><trkpt lat="44.9351584" lon="9.7748194"><ele>94.0</ele><time>2026-03-29T10:00:24.081Z</time></trkpt><trkpt lat="44.935229" lon="9.7748265"><ele>94.0</ele><time>2026-03-29T10:00:25.079Z</time></trkpt><trkpt lat="44.9352999" lon="9.7748323"><ele>94.0</ele><time>2026-03-29T10:00:26.094Z</time></trkpt><trkpt lat="44.9353703" lon="9.7748358"><ele>93.71428571428571</ele><time>2026-03-29T10:00:27.091Z</time></trkpt><trkpt lat="44.9354402" lon="9.7748435"><ele>93.42857142857142</ele><time>2026-03-29T10:00:28.103Z</time></trkpt><trkpt lat="44.9355124" lon="9.7748531"><ele>93.14285714285714</ele><time>2026-03-29T10:00:29.086Z</time></trkpt><trkpt lat="44.9355813" lon="9.7748653"><ele>92.85714285714286</ele><time>2026-03-29T10:00:30.103Z</time></trkpt><trkpt lat="44.9356509" lon="9.7748755"><ele>92.57142857142857</ele><time>2026-03-29T10:00:31.066Z</time></trkpt><trkpt lat="44.9357226" lon="9.7748855"><ele>92.28571428571429</ele><time>2026-03-29T10:00:32.088Z</time></trkpt><trkpt lat="44.9357953" lon="9.7748951"><ele>92.0</ele><time>2026-03-29T10:00:33.089Z</time></trkpt><trkpt lat="44.935867" lon="9.7749031"><ele>92.0</ele><time>2026-03-29T10:00:34.091Z</time></trkpt><trkpt lat="44.9359418" lon="9.7749135"><ele>92.0</ele><time>2026-03-29T10:00:35.098Z</time></trkpt><trkpt lat="44.9360182" lon="9.7749219"><ele>92.0</ele><time>2026-03-29T10:00:36.089Z</time></trkpt><trkpt lat="44.9360887" lon="9.7749277"><ele>92.0</ele><time>2026-03-29T10:00:37.083Z</time></trkpt><trkpt lat="44.9361584" lon="9.7749393"><ele>92.0</ele><time>2026-03-29T10:00:38.103Z</time></trkpt><trkpt lat="44.9362256" lon="9.7749561"><ele>92.0</ele><time>2026-03-29T10:00:39.083Z</time></trkpt><trkpt lat="44.9362907" lon="9.7749736"><ele>92.0</ele><time>2026-03-29T10:00:40.087Z</time></trkpt><trkpt lat="44.936356" lon="9.7749938"><ele>92.0</ele><time>2026-03-29T10:00:41.088Z</time></trkpt><trkpt lat="44.9364231" lon="9.775015"><ele>92.0</ele><time>2026-03-29T10:00:42.086Z</time></trkpt><trkpt lat="44.9364927" lon="9.7750316"><ele>92.0</ele><time>2026-03-29T10:00:43.093Z</time></trkpt><trkpt lat="44.9365559" lon="9.7750493"><ele>92.0</ele><time>2026-03-29T10:00:44.099Z</time></trkpt><trkpt lat="44.9366177" lon="9.7750666"><ele>92.0</ele><time>2026-03-29T10:00:45.086Z</time></trkpt><trkpt lat="44.9366815" lon="9.7750863"><ele>92.0</ele><time>2026-03-29T10:00:46.08Z</time></trkpt><trkpt lat="44.9367478" lon="9.7751036"><ele>92.0</ele><time>2026-03-29T10:00:47.093Z</time></trkpt><trkpt lat="44.9368155" lon="9.7751213"><ele>92.28571428571429</ele><time>2026-03-29T10:00:48.09Z</time></trkpt><trkpt lat="44.9368828" lon="9.7751451"><ele>92.57142857142857</ele><time>2026-03-29T10:00:49.085Z</time></trkpt><trkpt lat="44.9369439" lon="9.7751676"><ele>92.85714285714286</ele><time>2026-03-29T10:00:50.099Z</time></trkpt><trkpt lat="44.9370113" lon="9.7751916"><ele>93.14285714285714</ele><time>2026-03-29T10:00:51.116Z</time></trkpt><trkpt lat="44.9370791" lon="9.7752101"><ele>93.42857142857142</ele><time>2026-03-29T10:00:52.092Z</time></trkpt><trkpt lat="44.9371496" lon="9.7752297"><ele>93.71428571428571</ele><time>2026-03-29T10:00:53.095Z</time></trkpt><trkpt lat="44.9372157" lon="9.7752508"><ele>94.0</ele><time>2026-03-29T10:00:54.099Z</time></trkpt><trkpt lat="44.9372818" lon="9.7752718"><ele>94.0</ele><time>2026-03-29T10:00:55.086Z</time></trkpt><trkpt lat="44.9373452" lon="9.7752997"><ele>94.0</ele><time>2026-03-29T10:00:56.083Z</time></trkpt><trkpt lat="44.937413" lon="9.775319"><ele>94.0</ele><time>2026-03-29T10:00:57.09Z</time></trkpt><trkpt lat="44.9374757" lon="9.7753437"><ele>94.0</ele><time>2026-03-29T10:00:58.089Z</time></trkpt><trkpt lat="44.9375412" lon="9.7753713"><ele>94.0</ele><time>2026-03-29T10:00:59.102Z</time></trkpt><trkpt lat="44.9376074" lon="9.7753977"><ele>94.0</ele><time>2026-03-29T10:01:00.07Z</time></trkpt><trkpt lat="44.9376679" lon="9.7754223"><ele>94.0</ele><time>2026-03-29T10:01:01.088Z</time></trkpt><trkpt lat="44.937731" lon="9.7754464"><ele>94.0</ele><time>2026-03-29T10:01:02.083Z</time></trkpt><trkpt lat="44.9377925" lon="9.7754692"><ele>94.0</ele><time>2026-03-29T10:01:03.093Z</time></trkpt><trkpt lat="44.9378549" lon="9.7754936"><ele>94.0</ele><time>2026-03-29T10:01:04.086Z</time></trkpt><trkpt lat="44.9379207" lon="9.7755162"><ele>94.0</ele><time>2026-03-29T10:01:05.086Z</time></trkpt><trkpt lat="44.9379832" lon="9.7755367"><ele>94.0</ele><time>2026-03-29T10:01:06.092Z</time></trkpt><trkpt lat="44.9380491" lon="9.7755549"><ele>94.0</ele><time>2026-03-29T10:01:07.081Z</time></trkpt><trkpt lat="44.9381113" lon="9.7755807"><ele>94.0</ele><time>2026-03-29T10:01:08.098Z</time></trkpt><trkpt lat="44.9382328" lon="9.7756177"><ele>94.0</ele><time>2026-03-29T10:01:10.085Z</time></trkpt><trkpt lat="44.9382984" lon="9.7756367"><ele>94.0</ele><time>2026-03-29T10:01:11.091Z</time></trkpt><trkpt lat="44.9383659" lon="9.7756588"><ele>94.0</ele><time>2026-03-29T10:01:12.087Z</time></trkpt><trkpt lat="44.9384346" lon="9.7756748"><ele>94.0</ele><time>2026-03-29T10:01:13.094Z</time></trkpt><trkpt lat="44.938505" lon="9.7756932"><ele>94.0</ele><time>2026-03-29T10:01:14.099Z</time></trkpt><trkpt lat="44.9385783" lon="9.7757148"><ele>94.0</ele><time>2026-03-29T10:01:15.095Z</time></trkpt><trkpt lat="44.9386528" lon="9.775735"><ele>94.0</ele><time>2026-03-29T10:01:16.091Z</time></trkpt><trkpt lat="44.9387256" lon="9.7757503"><ele>93.85714285714286</ele><time>2026-03-29T10:01:17.086Z</time></trkpt><trkpt lat="44.938795" lon="9.7757666"><ele>93.71428571428571</ele><time>2026-03-29T10:01:18.099Z</time></trkpt><trkpt lat="44.9388647" lon="9.7757854"><ele>93.57142857142858</ele><time>2026-03-29T10:01:19.091Z</time></trkpt><trkpt lat="44.9389322" lon="9.775808"><ele>93.42857142857143</ele><time>2026-03-29T10:01:20.093Z</time></trkpt><trkpt lat="44.9390038" lon="9.7758308"><ele>93.28571428571429</ele><time>2026-03-29T10:01:21.094Z</time></trkpt><trkpt lat="44.9390733" lon="9.7758531"><ele>93.14285714285715</ele><time>2026-03-29T10:01:22.092Z</time></trkpt><trkpt lat="44.9391432" lon="9.7758731"><ele>93.0</ele><time>2026-03-29T10:01:23.105Z</time></trkpt><trkpt lat="44.9392178" lon="9.7758947"><ele>92.85714285714286</ele><time>2026-03-29T10:01:24.09Z</time></trkpt><trkpt lat="44.9392872" lon="9.7759136"><ele>92.71428571428572</ele><time>2026-03-29T10:01:25.085Z</time></trkpt><trkpt lat="44.9393597" lon="9.7759316"><ele>92.57142857142858</ele><time>2026-03-29T10:01:26.088Z</time></trkpt><trkpt lat="44.9394331" lon="9.7759464"><ele>92.42857142857143</ele><time>2026-03-29T10:01:27.088Z</time></trkpt><trkpt lat="44.9395087" lon="9.7759676"><ele>92.28571428571428</ele><time>2026-03-29T10:01:28.087Z</time></trkpt><trkpt lat="44.939579" lon="9.7759865"><ele>92.14285714285715</ele><time>2026-03-29T10:01:29.083Z</time></trkpt><trkpt lat="44.9396564" lon="9.7760027"><ele>92.0</ele><time>2026-03-29T10:01:30.093Z</time></trkpt><trkpt lat="44.9397281" lon="9.7760183"><ele>92.16666666666667</ele><time>2026-03-29T10:01:31.102Z</time></trkpt><trkpt lat="44.9397997" lon="9.7760309"><ele>92.33333333333334</ele><time>2026-03-29T10:01:32.078Z</time></trkpt><trkpt lat="44.9398779" lon="9.7760391"><ele>92.5</ele><time>2026-03-29T10:01:33.088Z</time></trkpt><trkpt lat="44.939952" lon="9.7760489"><ele>92.66666666666667</ele><time>2026-03-29T10:01:34.092Z</time></trkpt><trkpt lat="44.9400249" lon="9.7760553"><ele>92.83333333333333</ele><time>2026-03-29T10:01:35.096Z</time></trkpt><trkpt lat="44.9401036" lon="9.7760591"><ele>93.0</ele><time>2026-03-29T10:01:36.078Z</time></trkpt><trkpt lat="44.9401772" lon="9.7760711"><ele>92.5</ele><time>2026-03-29T10:01:37.083Z</time></trkpt><trkpt lat="44.9402507" lon="9.7760839"><ele>92.0</ele><time>2026-03-29T10:01:38.096Z</time></trkpt><trkpt lat="44.9403271" lon="9.776098"><ele>91.5</ele><time>2026-03-29T10:01:39.095Z</time></trkpt><trkpt lat="44.9404005" lon="9.7761103"><ele>91.0</ele><time>2026-03-29T10:01:40.081Z</time></trkpt><trkpt lat="44.9404702" lon="9.7761108"><ele>90.5</ele><time>2026-03-29T10:01:41.084Z</time></trkpt><trkpt lat="44.940548" lon="9.7761216"><ele>90.0</ele><time>2026-03-29T10:01:42.097Z</time></trkpt><trkpt lat="44.940624" lon="9.7761361"><ele>90.0</ele><time>2026-03-29T10:01:43.08Z</time></trkpt><trkpt lat="44.9406969" lon="9.7761645"><ele>90.0</ele><time>2026-03-29T10:01:44.094Z</time></trkpt><trkpt lat="44.9407685" lon="9.776198"><ele>90.0</ele><time>2026-03-29T10:01:45.096Z</time></trkpt><trkpt lat="44.9408425" lon="9.7762261"><ele>90.0</ele><time>2026-03-29T10:01:46.089Z</time></trkpt><trkpt lat="44.9409157" lon="9.776248"><ele>90.0</ele><time>2026-03-29T10:01:47.074Z</time></trkpt><trkpt lat="44.9409917" lon="9.7762739"><ele>90.0</ele><time>2026-03-29T10:01:48.09Z</time></trkpt><trkpt lat="44.9410624" lon="9.7763004"><ele>89.85714285714285</ele><time>2026-03-29T10:01:49.091Z</time></trkpt><trkpt lat="44.9411373" lon="9.7763214"><ele>89.71428571428572</ele><time>2026-03-29T10:01:50.082Z</time></trkpt><trkpt lat="44.9412076" lon="9.7763473"><ele>89.57142857142857</ele><time>2026-03-29T10:01:51.075Z</time></trkpt><trkpt lat="44.9412781" lon="9.7763709"><ele>89.42857142857142</ele><time>2026-03-29T10:01:52.082Z</time></trkpt><trkpt lat="44.9413491" lon="9.7763924"><ele>89.28571428571428</ele><time>2026-03-29T10:01:53.082Z</time></trkpt><trkpt lat="44.9414211" lon="9.7764159"><ele>89.14285714285714</ele><time>2026-03-29T10:01:54.076Z</time></trkpt><trkpt lat="44.9414885" lon="9.7764346"><ele>89.0</ele><time>2026-03-29T10:01:55.063Z</time></trkpt><trkpt lat="44.9415605" lon="9.776454"><ele>88.99999999999999</ele><time>2026-03-29T10:01:56.077Z</time></trkpt><trkpt lat="44.9416273" lon="9.7764701"><ele>89.0</ele><time>2026-03-29T10:01:57.093Z</time></trkpt><trkpt lat="44.9416973" lon="9.776488"><ele>89.0</ele><time>2026-03-29T10:01:58.082Z</time></trkpt><trkpt lat="44.9417682" lon="9.7765025"><ele>89.0</ele><time>2026-03-29T10:01:59.091Z</time></trkpt><trkpt lat="44.9418349" lon="9.7765166"><ele>89.0</ele><time>2026-03-29T10:02:00.082Z</time></trkpt><trkpt lat="44.9419035" lon="9.7765283"><ele>88.99999999999999</ele><time>2026-03-29T10:02:01.09Z</time></trkpt><trkpt lat="44.9419708" lon="9.7765444"><ele>89.0</ele><time>2026-03-29T10:02:02.086Z</time></trkpt><trkpt lat="44.9420406" lon="9.7765547"><ele>88.85714285714285</ele><time>2026-03-29T10:02:03.098Z</time></trkpt><trkpt lat="44.9421082" lon="9.7765687"><ele>88.71428571428571</ele><time>2026-03-29T10:02:04.082Z</time></trkpt><trkpt lat="44.9421759" lon="9.7765847"><ele>88.57142857142857</ele><time>2026-03-29T10:02:05.098Z</time></trkpt><trkpt lat="44.9422482" lon="9.7765985"><ele>88.42857142857142</ele><time>2026-03-29T10:02:06.09Z</time></trkpt><trkpt lat="44.9423214" lon="9.7766075"><ele>88.28571428571428</ele><time>2026-03-29T10:02:07.078Z</time></trkpt><trkpt lat="44.9423913" lon="9.7766224"><ele>88.14285714285714</ele><time>2026-03-29T10:02:08.087Z</time></trkpt><trkpt lat="44.94246" lon="9.7766336"><ele>88.0</ele><time>2026-03-29T10:02:09.089Z</time></trkpt><trkpt lat="44.9425304" lon="9.7766426"><ele>88.14285714285714</ele><time>2026-03-29T10:02:10.108Z</time></trkpt><trkpt lat="44.9426002" lon="9.7766584"><ele>88.28571428571428</ele><time>2026-03-29T10:02:11.099Z</time></trkpt><trkpt lat="44.9426697" lon="9.7766825"><ele>88.42857142857142</ele><time>2026-03-29T10:02:12.082Z</time></trkpt><trkpt lat="44.9427407" lon="9.7767063"><ele>88.57142857142857</ele><time>2026-03-29T10:02:13.105Z</time></trkpt><trkpt lat="44.9428124" lon="9.7767297"><ele>88.71428571428571</ele><time>2026-03-29T10:02:14.095Z</time></trkpt><trkpt lat="44.9428814" lon="9.7767536"><ele>88.85714285714285</ele><time>2026-03-29T10:02:15.089Z</time></trkpt><trkpt lat="44.9429536" lon="9.776779"><ele>89.0</ele><time>2026-03-29T10:02:16.084Z</time></trkpt><trkpt lat="44.9430277" lon="9.7767945"><ele>88.99999999999999</ele><time>2026-03-29T10:02:17.072Z</time></trkpt><trkpt lat="44.9430989" lon="9.776807"><ele>89.0</ele><time>2026-03-29T10:02:18.1Z</time></trkpt><trkpt lat="44.9431738" lon="9.7768101"><ele>89.0</ele><time>2026-03-29T10:02:19.087Z</time></trkpt><trkpt lat="44.9432412" lon="9.7768131"><ele>89.0</ele><time>2026-03-29T10:02:20.083Z</time></trkpt><trkpt lat="44.9433142" lon="9.7768097"><ele>89.0</ele><time>2026-03-29T10:02:21.094Z</time></trkpt><trkpt lat="44.9433837" lon="9.7768059"><ele>88.99999999999999</ele><time>2026-03-29T10:02:22.096Z</time></trkpt><trkpt lat="44.9434581" lon="9.7768064"><ele>89.0</ele><time>2026-03-29T10:02:23.085Z</time></trkpt><trkpt lat="44.9435311" lon="9.7768063"><ele>88.99999999999999</ele><time>2026-03-29T10:02:24.081Z</time></trkpt><trkpt lat="44.9436063" lon="9.7768031"><ele>89.0</ele><time>2026-03-29T10:02:25.08Z</time></trkpt><trkpt lat="44.9436736" lon="9.7768132"><ele>89.0</ele><time>2026-03-29T10:02:26.098Z</time></trkpt><trkpt lat="44.943745" lon="9.7768334"><ele>89.0</ele><time>2026-03-29T10:02:27.067Z</time></trkpt><trkpt lat="44.9438231" lon="9.7768546"><ele>89.0</ele><time>2026-03-29T10:02:28.084Z</time></trkpt><trkpt lat="44.9438897" lon="9.7768837"><ele>88.99999999999999</ele><time>2026-03-29T10:02:29.083Z</time></trkpt><trkpt lat="44.9439537" lon="9.7769143"><ele>89.0</ele><time>2026-03-29T10:02:30.103Z</time></trkpt><trkpt lat="44.9440213" lon="9.7769475"><ele>88.85714285714285</ele><time>2026-03-29T10:02:31.092Z</time></trkpt><trkpt lat="44.9440902" lon="9.7769806"><ele>88.71428571428571</ele><time>2026-03-29T10:02:32.093Z</time></trkpt><trkpt lat="44.9441618" lon="9.7770115"><ele>88.57142857142857</ele><time>2026-03-29T10:02:33.086Z</time></trkpt><trkpt lat="44.9442292" lon="9.7770437"><ele>88.42857142857142</ele><time>2026-03-29T10:02:34.097Z</time></trkpt><trkpt lat="44.9442974" lon="9.7770749"><ele>88.28571428571428</ele><time>2026-03-29T10:02:35.1Z</time></trkpt><trkpt lat="44.9443725" lon="9.7770897"><ele>88.14285714285714</ele><time>2026-03-29T10:02:36.099Z</time></trkpt><trkpt lat="44.9444423" lon="9.7770919"><ele>88.0</ele><time>2026-03-29T10:02:37.087Z</time></trkpt><trkpt lat="44.9445118" lon="9.7770901"><ele>88.0</ele><time>2026-03-29T10:02:38.09Z</time></trkpt><trkpt lat="44.9445838" lon="9.7770803"><ele>88.0</ele><time>2026-03-29T10:02:39.102Z</time></trkpt><trkpt lat="44.944656" lon="9.7770573"><ele>88.0</ele><time>2026-03-29T10:02:40.09Z</time></trkpt><trkpt lat="44.9447226" lon="9.7770295"><ele>88.0</ele><time>2026-03-29T10:02:41.095Z</time></trkpt><trkpt lat="44.9447913" lon="9.7769982"><ele>88.0</ele><time>2026-03-29T10:02:42.101Z</time></trkpt><trkpt lat="44.9448658" lon="9.7769724"><ele>88.0</ele><time>2026-03-29T10:02:43.101Z</time></trkpt><trkpt lat="44.9449355" lon="9.7769463"><ele>88.0</ele><time>2026-03-29T10:02:44.099Z</time></trkpt><trkpt lat="44.9450063" lon="9.7769282"><ele>88.0</ele><time>2026-03-29T10:02:45.081Z</time></trkpt><trkpt lat="44.9450786" lon="9.7769162"><ele>88.0</ele><time>2026-03-29T10:02:46.107Z</time></trkpt><trkpt lat="44.9451514" lon="9.7769076"><ele>88.0</ele><time>2026-03-29T10:02:47.078Z</time></trkpt><trkpt lat="44.9452285" lon="9.7769023"><ele>88.0</ele><time>2026-03-29T10:02:48.091Z</time></trkpt><trkpt lat="44.9453041" lon="9.7768996"><ele>88.0</ele><time>2026-03-29T10:02:49.086Z</time></trkpt><trkpt lat="44.9453808" lon="9.7769072"><ele>88.0</ele><time>2026-03-29T10:02:50.082Z</time></trkpt><trkpt lat="44.9454557" lon="9.776917"><ele>88.0</ele><time>2026-03-29T10:02:51.091Z</time></trkpt><trkpt lat="44.9455335" lon="9.7769405"><ele>88.0</ele><time>2026-03-29T10:02:52.094Z</time></trkpt><trkpt lat="44.945603" lon="9.7769674"><ele>88.0</ele><time>2026-03-29T10:02:53.093Z</time></trkpt><trkpt lat="44.9456696" lon="9.7769992"><ele>88.0</ele><time>2026-03-29T10:02:54.092Z</time></trkpt><trkpt lat="44.9457334" lon="9.7770403"><ele>88.0</ele><time>2026-03-29T10:02:55.046Z</time></trkpt><trkpt lat="44.9458012" lon="9.7770819"><ele>88.0</ele><time>2026-03-29T10:02:56.07Z</time></trkpt><trkpt lat="44.9458711" lon="9.7771229"><ele>88.0</ele><time>2026-03-29T10:02:57.099Z</time></trkpt><trkpt lat="44.9459423" lon="9.7771575"><ele>88.0</ele><time>2026-03-29T10:02:58.084Z</time></trkpt><trkpt lat="44.946009" lon="9.7771963"><ele>88.0</ele><time>2026-03-29T10:02:59.09Z</time></trkpt><trkpt lat="44.946073" lon="9.777243"><ele>88.0</ele><time>2026-03-29T10:03:00.088Z</time></trkpt><trkpt lat="44.9461409" lon="9.777286"><ele>88.0</ele><time>2026-03-29T10:03:01.085Z</time></trkpt><trkpt lat="44.9462073" lon="9.7773268"><ele>88.0</ele><time>2026-03-29T10:03:02.075Z</time></trkpt><trkpt lat="44.9462732" lon="9.7773631"><ele>88.0</ele><time>2026-03-29T10:03:03.082Z</time></trkpt><trkpt lat="44.9463407" lon="9.7774009"><ele>88.0</ele><time>2026-03-29T10:03:04.082Z</time></trkpt><trkpt lat="44.9464079" lon="9.7774412"><ele>88.0</ele><time>2026-03-29T10:03:05.081Z</time></trkpt><trkpt lat="44.9464753" lon="9.7774784"><ele>88.0</ele><time>2026-03-29T10:03:06.082Z</time></trkpt><trkpt lat="44.9465479" lon="9.7775159"><ele>88.0</ele><time>2026-03-29T10:03:07.091Z</time></trkpt><trkpt lat="44.9466178" lon="9.7775487"><ele>88.0</ele><time>2026-03-29T10:03:08.08Z</time></trkpt><trkpt lat="44.9466858" lon="9.7775792"><ele>88.0</ele><time>2026-03-29T10:03:09.086Z</time></trkpt><trkpt lat="44.9467505" lon="9.77761"><ele>88.0</ele><time>2026-03-29T10:03:10.083Z</time></trkpt><trkpt lat="44.9468183" lon="9.7776408"><ele>88.0</ele><time>2026-03-29T10:03:11.085Z</time></trkpt><trkpt lat="44.9468801" lon="9.7776688"><ele>87.66666666666666</ele><time>2026-03-29T10:03:12.088Z</time></trkpt><trkpt lat="44.9469452" lon="9.7777001"><ele>87.33333333333333</ele><time>2026-03-29T10:03:13.095Z</time></trkpt><trkpt lat="44.9470078" lon="9.7777377"><ele>87.0</ele><time>2026-03-29T10:03:14.098Z</time></trkpt><trkpt lat="44.9470683" lon="9.7777687"><ele>86.66666666666667</ele><time>2026-03-29T10:03:15.09Z</time></trkpt><trkpt lat="44.9471316" lon="9.7777985"><ele>86.33333333333334</ele><time>2026-03-29T10:03:16.078Z</time></trkpt><trkpt lat="44.9471921" lon="9.7778245"><ele>86.0</ele><time>2026-03-29T10:03:17.12Z</time></trkpt><trkpt lat="44.9473039" lon="9.7778841"><ele>86.0</ele><time>2026-03-29T10:03:19.082Z</time></trkpt><trkpt lat="44.9474152" lon="9.7779413"><ele>86.0</ele><time>2026-03-29T10:03:21.085Z</time></trkpt><trkpt lat="44.9474754" lon="9.7779692"><ele>86.0</ele><time>2026-03-29T10:03:22.087Z</time></trkpt><trkpt lat="44.9475355" lon="9.7780041"><ele>86.0</ele><time>2026-03-29T10:03:23.087Z</time></trkpt><trkpt lat="44.9476512" lon="9.7780636"><ele>86.0</ele><time>2026-03-29T10:03:25.095Z</time></trkpt><trkpt lat="44.9477704" lon="9.7781261"><ele>85.6</ele><time>2026-03-29T10:03:27.097Z</time></trkpt><trkpt lat="44.9478897" lon="9.7781851"><ele>85.19999999999999</ele><time>2026-03-29T10:03:29.081Z</time></trkpt><trkpt lat="44.9479506" lon="9.7782197"><ele>84.80000000000001</ele><time>2026-03-29T10:03:30.097Z</time></trkpt><trkpt lat="44.9480653" lon="9.7782829"><ele>84.4</ele><time>2026-03-29T10:03:32.086Z</time></trkpt><trkpt lat="44.9481586" lon="9.7783655"><ele>84.0</ele><time>2026-03-29T10:03:34.092Z</time></trkpt><trkpt lat="44.9481757" lon="9.7785151"><ele>84.25</ele><time>2026-03-29T10:03:36.09Z</time></trkpt><trkpt lat="44.9481378" lon="9.7786656"><ele>84.5</ele><time>2026-03-29T10:03:38.087Z</time></trkpt><trkpt lat="44.9481208" lon="9.7788288"><ele>84.75</ele><time>2026-03-29T10:03:40.082Z</time></trkpt><trkpt lat="44.9481024" lon="9.7789833"><ele>85.0</ele><time>2026-03-29T10:03:42.089Z</time></trkpt><trkpt lat="44.9480838" lon="9.7791396"><ele>85.0</ele><time>2026-03-29T10:03:44.094Z</time></trkpt><trkpt lat="44.9480648" lon="9.7792952"><ele>85.0</ele><time>2026-03-29T10:03:46.085Z</time></trkpt><trkpt lat="44.9480431" lon="9.7794569"><ele>85.0</ele><time>2026-03-29T10:03:48.089Z</time></trkpt><trkpt lat="44.9480213" lon="9.7796187"><ele>85.0</ele><time>2026-03-29T10:03:50.096Z</time></trkpt><trkpt lat="44.9479992" lon="9.7797784"><ele>85.0</ele><time>2026-03-29T10:03:52.08Z</time></trkpt><trkpt lat="44.9479812" lon="9.7799393"><ele>85.0</ele><time>2026-03-29T10:03:54.09Z</time></trkpt><trkpt lat="44.9479658" lon="9.7800987"><ele>85.0</ele><time>2026-03-29T10:03:56.077Z</time></trkpt><trkpt lat="44.9479471" lon="9.7802593"><ele>85.0</ele><time>2026-03-29T10:03:58.083Z</time></trkpt><trkpt lat="44.9479225" lon="9.7804235"><ele>84.5</ele><time>2026-03-29T10:04:00.088Z</time></trkpt><trkpt lat="44.9479017" lon="9.7805804"><ele>84.0</ele><time>2026-03-29T10:04:02.08Z</time></trkpt><trkpt lat="44.9478815" lon="9.7807386"><ele>83.5</ele><time>2026-03-29T10:04:04.074Z</time></trkpt><trkpt lat="44.9478638" lon="9.7809036"><ele>83.0</ele><time>2026-03-29T10:04:06.093Z</time></trkpt><trkpt lat="44.9478459" lon="9.7810705"><ele>83.0</ele><time>2026-03-29T10:04:08.087Z</time></trkpt><trkpt lat="44.9478213" lon="9.7812383"><ele>83.0</ele><time>2026-03-29T10:04:10.079Z</time></trkpt><trkpt lat="44.947802" lon="9.7814056"><ele>83.0</ele><time>2026-03-29T10:04:12.097Z</time></trkpt><trkpt lat="44.9477864" lon="9.7815646"><ele>83.0</ele><time>2026-03-29T10:04:14.095Z</time></trkpt><trkpt lat="44.947776" lon="9.7817302"><ele>83.2</ele><time>2026-03-29T10:04:16.076Z</time></trkpt><trkpt lat="44.9477659" lon="9.7818883"><ele>83.4</ele><time>2026-03-29T10:04:18.082Z</time></trkpt><trkpt lat="44.9477424" lon="9.7820309"><ele>83.60000000000001</ele><time>2026-03-29T10:04:20.096Z</time></trkpt><trkpt lat="44.9477679" lon="9.7821667"><ele>83.80000000000001</ele><time>2026-03-29T10:04:22.094Z</time></trkpt><trkpt lat="44.9478638" lon="9.7822491"><ele>84.0</ele><time>2026-03-29T10:04:24.088Z</time></trkpt><trkpt lat="44.9479643" lon="9.782274"><ele>84.0</ele><time>2026-03-29T10:04:26.071Z</time></trkpt><trkpt lat="44.9480562" lon="9.7823086"><ele>84.0</ele><time>2026-03-29T10:04:28.102Z</time></trkpt><trkpt lat="44.948141" lon="9.7823417"><ele>84.0</ele><time>2026-03-29T10:04:30.084Z</time></trkpt><trkpt lat="44.9482307" lon="9.7823759"><ele>84.0</ele><time>2026-03-29T10:04:32.076Z</time></trkpt><trkpt lat="44.9483213" lon="9.7824141"><ele>84.0</ele><time>2026-03-29T10:04:34.107Z</time></trkpt><trkpt lat="44.948424" lon="9.7824558"><ele>83.80000000000001</ele><time>2026-03-29T10:04:36.093Z</time></trkpt><trkpt lat="44.9485272" lon="9.7824987"><ele>83.60000000000001</ele><time>2026-03-29T10:04:38.093Z</time></trkpt><trkpt lat="44.9486315" lon="9.7825355"><ele>83.4</ele><time>2026-03-29T10:04:40.092Z</time></trkpt><trkpt lat="44.9487384" lon="9.7825766"><ele>83.2</ele><time>2026-03-29T10:04:42.105Z</time></trkpt><trkpt lat="44.9488434" lon="9.782624"><ele>83.0</ele><time>2026-03-29T10:04:44.09Z</time></trkpt><trkpt lat="44.9489463" lon="9.7826628"><ele>83.0</ele><time>2026-03-29T10:04:46.091Z</time></trkpt><trkpt lat="44.9490562" lon="9.7827038"><ele>83.0</ele><time>2026-03-29T10:04:48.09Z</time></trkpt><trkpt lat="44.9491657" lon="9.7827417"><ele>83.0</ele><time>2026-03-29T10:04:50.093Z</time></trkpt><trkpt lat="44.9492832" lon="9.7827769"><ele>83.0</ele><time>2026-03-29T10:04:52.099Z</time></trkpt><trkpt lat="44.9493886" lon="9.7828188"><ele>83.0</ele><time>2026-03-29T10:04:54.082Z</time></trkpt><trkpt lat="44.9495041" lon="9.78287"><ele>83.0</ele><time>2026-03-29T10:04:56.079Z</time></trkpt><trkpt lat="44.9496112" lon="9.7829162"><ele>83.0</ele><time>2026-03-29T10:04:58.089Z</time></trkpt><trkpt lat="44.9497261" lon="9.7829533"><ele>83.0</ele><time>2026-03-29T10:05:00.093Z</time></trkpt><trkpt lat="44.9498391" lon="9.782989"><ele>83.0</ele><time>2026-03-29T10:05:02.097Z</time></trkpt><trkpt lat="44.9499489" lon="9.7830335"><ele>83.0</ele><time>2026-03-29T10:05:04.094Z</time></trkpt><trkpt lat="44.9500637" lon="9.7830718"><ele>83.0</ele><time>2026-03-29T10:05:06.09Z</time></trkpt><trkpt lat="44.9501742" lon="9.7831128"><ele>83.0</ele><time>2026-03-29T10:05:08.094Z</time></trkpt><trkpt lat="44.9502835" lon="9.7831601"><ele>83.0</ele><time>2026-03-29T10:05:10.046Z</time></trkpt><trkpt lat="44.9504025" lon="9.7831981"><ele>83.0</ele><time>2026-03-29T10:05:12.106Z</time></trkpt><trkpt lat="44.9505132" lon="9.7832297"><ele>83.0</ele><time>2026-03-29T10:05:14.093Z</time></trkpt><trkpt lat="44.9506298" lon="9.7832617"><ele>83.0</ele><time>2026-03-29T10:05:16.05Z</time></trkpt><trkpt lat="44.9507446" lon="9.7832814"><ele>83.0</ele><time>2026-03-29T10:05:18.106Z</time></trkpt><trkpt lat="44.9508605" lon="9.7832985"><ele>83.0</ele><time>2026-03-29T10:05:20.092Z</time></trkpt><trkpt lat="44.9509767" lon="9.7833072"><ele>83.0</ele><time>2026-03-29T10:05:22.078Z</time></trkpt><trkpt lat="44.9510939" lon="9.7833232"><ele>83.0</ele><time>2026-03-29T10:05:24.083Z</time></trkpt><trkpt lat="44.9512116" lon="9.7833327"><ele>83.25</ele><time>2026-03-29T10:05:26.077Z</time></trkpt><trkpt lat="44.9513273" lon="9.7833447"><ele>83.5</ele><time>2026-03-29T10:05:28.078Z</time></trkpt><trkpt lat="44.9514366" lon="9.7833486"><ele>83.75</ele><time>2026-03-29T10:05:30.089Z</time></trkpt><trkpt lat="44.9515553" lon="9.7833524"><ele>84.0</ele><time>2026-03-29T10:05:32.088Z</time></trkpt><trkpt lat="44.9516806" lon="9.7833618"><ele>83.25</ele><time>2026-03-29T10:05:34.079Z</time></trkpt><trkpt lat="44.9517928" lon="9.7833716"><ele>82.5</ele><time>2026-03-29T10:05:36.087Z</time></trkpt><trkpt lat="44.9519046" lon="9.7834038"><ele>81.75</ele><time>2026-03-29T10:05:38.059Z</time></trkpt><trkpt lat="44.9520199" lon="9.7834324"><ele>81.0</ele><time>2026-03-29T10:05:40.087Z</time></trkpt><trkpt lat="44.95213" lon="9.783455"><ele>81.0</ele><time>2026-03-29T10:05:42.089Z</time></trkpt><trkpt lat="44.9522432" lon="9.7834842"><ele>81.0</ele><time>2026-03-29T10:05:44.05Z</time></trkpt><trkpt lat="44.952355" lon="9.7835166"><ele>81.0</ele><time>2026-03-29T10:05:46.087Z</time></trkpt><trkpt lat="44.9524622" lon="9.7835449"><ele>81.0</ele><time>2026-03-29T10:05:48.083Z</time></trkpt><trkpt lat="44.9525697" lon="9.7835646"><ele>81.0</ele><time>2026-03-29T10:05:50.084Z</time></trkpt><trkpt lat="44.9526842" lon="9.7835891"><ele>81.0</ele><time>2026-03-29T10:05:52.096Z</time></trkpt><trkpt lat="44.9527838" lon="9.7836099"><ele>81.0</ele><time>2026-03-29T10:05:54.079Z</time></trkpt><trkpt lat="44.9528834" lon="9.7836401"><ele>81.0</ele><time>2026-03-29T10:05:56.081Z</time></trkpt><trkpt lat="44.9529797" lon="9.7836552"><ele>81.0</ele><time>2026-03-29T10:05:58.068Z</time></trkpt><trkpt lat="44.9530851" lon="9.783679"><ele>81.0</ele><time>2026-03-29T10:06:00.081Z</time></trkpt><trkpt lat="44.9531804" lon="9.7836945"><ele>81.0</ele><time>2026-03-29T10:06:02.082Z</time></trkpt><trkpt lat="44.9532736" lon="9.7836993"><ele>81.0</ele><time>2026-03-29T10:06:04.064Z</time></trkpt><trkpt lat="44.9533568" lon="9.7837217"><ele>81.0</ele><time>2026-03-29T10:06:06.078Z</time></trkpt><trkpt lat="44.953439" lon="9.7837623"><ele>81.0</ele><time>2026-03-29T10:06:08.085Z</time></trkpt><trkpt lat="44.9535299" lon="9.783787"><ele>81.0</ele><time>2026-03-29T10:06:10.082Z</time></trkpt><trkpt lat="44.9536174" lon="9.7837968"><ele>81.0</ele><time>2026-03-29T10:06:12.08Z</time></trkpt><trkpt lat="44.953696" lon="9.7838015"><ele>81.0</ele><time>2026-03-29T10:06:14.088Z</time></trkpt><trkpt lat="44.953787" lon="9.7838144"><ele>81.0</ele><time>2026-03-29T10:06:16.093Z</time></trkpt><trkpt lat="44.9538686" lon="9.7838361"><ele>81.0</ele><time>2026-03-29T10:06:18.081Z</time></trkpt><trkpt lat="44.9539609" lon="9.7838559"><ele>81.0</ele><time>2026-03-29T10:06:20.084Z</time></trkpt><trkpt lat="44.954055" lon="9.7838773"><ele>81.0</ele><time>2026-03-29T10:06:22.087Z</time></trkpt><trkpt lat="44.954159" lon="9.7838921"><ele>81.0</ele><time>2026-03-29T10:06:24.092Z</time></trkpt><trkpt lat="44.9542559" lon="9.7839211"><ele>81.0</ele><time>2026-03-29T10:06:26.085Z</time></trkpt><trkpt lat="44.9543506" lon="9.7839394"><ele>81.0</ele><time>2026-03-29T10:06:28.077Z</time></trkpt><trkpt lat="44.9544444" lon="9.7839659"><ele>81.0</ele><time>2026-03-29T10:06:30.086Z</time></trkpt><trkpt lat="44.9545441" lon="9.7839905"><ele>81.0</ele><time>2026-03-29T10:06:32.081Z</time></trkpt><trkpt lat="44.954637" lon="9.7840119"><ele>81.0</ele><time>2026-03-29T10:06:34.085Z</time></trkpt><trkpt lat="44.9547329" lon="9.7840286"><ele>81.0</ele><time>2026-03-29T10:06:36.078Z</time></trkpt><trkpt lat="44.9548266" lon="9.7840465"><ele>81.0</ele><time>2026-03-29T10:06:38.09Z</time></trkpt><trkpt lat="44.9549116" lon="9.7840734"><ele>81.0</ele><time>2026-03-29T10:06:40.077Z</time></trkpt><trkpt lat="44.9549935" lon="9.7840974"><ele>81.0</ele><time>2026-03-29T10:06:42.097Z</time></trkpt><trkpt lat="44.9550556" lon="9.783986"><ele>81.0</ele><time>2026-03-29T10:06:45.083Z</time></trkpt><trkpt lat="44.9550721" lon="9.7838766"><ele>81.0</ele><time>2026-03-29T10:06:47.081Z</time></trkpt><trkpt lat="44.9550984" lon="9.7837709"><ele>81.0</ele><time>2026-03-29T10:06:49.111Z</time></trkpt><trkpt lat="44.9551159" lon="9.7836596"><ele>81.0</ele><time>2026-03-29T10:06:51.073Z</time></trkpt><trkpt lat="44.9551421" lon="9.7835429"><ele>81.0</ele><time>2026-03-29T10:06:53.091Z</time></trkpt><trkpt lat="44.9551614" lon="9.7834151"><ele>81.0</ele><time>2026-03-29T10:06:55.086Z</time></trkpt><trkpt lat="44.955188" lon="9.7832855"><ele>81.0</ele><time>2026-03-29T10:06:57.074Z</time></trkpt><trkpt lat="44.9552156" lon="9.7831529"><ele>81.0</ele><time>2026-03-29T10:06:59.079Z</time></trkpt><trkpt lat="44.9552396" lon="9.7830107"><ele>81.0</ele><time>2026-03-29T10:07:01.079Z</time></trkpt><trkpt lat="44.9552665" lon="9.7828753"><ele>81.0</ele><time>2026-03-29T10:07:03.078Z</time></trkpt><trkpt lat="44.955299" lon="9.78273"><ele>81.0</ele><time>2026-03-29T10:07:05.066Z</time></trkpt><trkpt lat="44.9553286" lon="9.7825809"><ele>81.19999999999999</ele><time>2026-03-29T10:07:07.095Z</time></trkpt><trkpt lat="44.9553606" lon="9.7824324"><ele>81.39999999999999</ele><time>2026-03-29T10:07:09.093Z</time></trkpt><trkpt lat="44.9553893" lon="9.7822884"><ele>81.6</ele><time>2026-03-29T10:07:11.067Z</time></trkpt><trkpt lat="44.9554149" lon="9.7821338"><ele>81.8</ele><time>2026-03-29T10:07:13.086Z</time></trkpt><trkpt lat="44.9554286" lon="9.7820439"><ele>82.0</ele><time>2026-03-29T10:07:14.091Z</time></trkpt><trkpt lat="44.9554549" lon="9.7818824"><ele>81.75</ele><time>2026-03-29T10:07:16.094Z</time></trkpt><trkpt lat="44.9554828" lon="9.781728"><ele>81.5</ele><time>2026-03-29T10:07:18.096Z</time></trkpt><trkpt lat="44.9555096" lon="9.7815732"><ele>81.25</ele><time>2026-03-29T10:07:20.093Z</time></trkpt><trkpt lat="44.955537" lon="9.7814094"><ele>81.0</ele><time>2026-03-29T10:07:22.055Z</time></trkpt><trkpt lat="44.9555651" lon="9.7812425"><ele>81.0</ele><time>2026-03-29T10:07:24.082Z</time></trkpt><trkpt lat="44.9555919" lon="9.7810723"><ele>81.0</ele><time>2026-03-29T10:07:26.091Z</time></trkpt><trkpt lat="44.9556236" lon="9.7809149"><ele>81.0</ele><time>2026-03-29T10:07:28.078Z</time></trkpt><trkpt lat="44.9556487" lon="9.7807534"><ele>81.0</ele><time>2026-03-29T10:07:30.071Z</time></trkpt><trkpt lat="44.955671" lon="9.7805976"><ele>81.0</ele><time>2026-03-29T10:07:32.082Z</time></trkpt><trkpt lat="44.9557016" lon="9.780444"><ele>81.0</ele><time>2026-03-29T10:07:34.089Z</time></trkpt><trkpt lat="44.9557381" lon="9.7803028"><ele>81.0</ele><time>2026-03-29T10:07:36.096Z</time></trkpt><trkpt lat="44.955795" lon="9.7801685"><ele>81.0</ele><time>2026-03-29T10:07:38.097Z</time></trkpt><trkpt lat="44.9558622" lon="9.7800583"><ele>81.0</ele><time>2026-03-29T10:07:40.08Z</time></trkpt><trkpt lat="44.955953" lon="9.7799724"><ele>81.0</ele><time>2026-03-29T10:07:42.095Z</time></trkpt><trkpt lat="44.956057" lon="9.7799333"><ele>81.0</ele><time>2026-03-29T10:07:44.087Z</time></trkpt><trkpt lat="44.9561646" lon="9.7799523"><ele>81.0</ele><time>2026-03-29T10:07:46.099Z</time></trkpt><trkpt lat="44.9562682" lon="9.7799881"><ele>81.0</ele><time>2026-03-29T10:07:48.102Z</time></trkpt><trkpt lat="44.9563833" lon="9.7800273"><ele>81.0</ele><time>2026-03-29T10:07:50.097Z</time></trkpt><trkpt lat="44.9564933" lon="9.7800632"><ele>81.0</ele><time>2026-03-29T10:07:52.087Z</time></trkpt><trkpt lat="44.9566114" lon="9.7800959"><ele>81.0</ele><time>2026-03-29T10:07:54.092Z</time></trkpt><trkpt lat="44.9567236" lon="9.7801259"><ele>81.0</ele><time>2026-03-29T10:07:56.093Z</time></trkpt><trkpt lat="44.9568382" lon="9.7801439"><ele>81.0</ele><time>2026-03-29T10:07:58.083Z</time></trkpt><trkpt lat="44.9569521" lon="9.7801607"><ele>81.0</ele><time>2026-03-29T10:08:00.087Z</time></trkpt><trkpt lat="44.9570714" lon="9.7801804"><ele>81.0</ele><time>2026-03-29T10:08:02.098Z</time></trkpt><trkpt lat="44.9571923" lon="9.7802074"><ele>81.0</ele><time>2026-03-29T10:08:04.085Z</time></trkpt><trkpt lat="44.957311" lon="9.7802295"><ele>81.0</ele><time>2026-03-29T10:08:06.081Z</time></trkpt><trkpt lat="44.9574227" lon="9.7802615"><ele>80.5</ele><time>2026-03-29T10:08:08.093Z</time></trkpt><trkpt lat="44.957536" lon="9.7802843"><ele>80.0</ele><time>2026-03-29T10:08:10.105Z</time></trkpt><trkpt lat="44.9576527" lon="9.7803173"><ele>79.5</ele><time>2026-03-29T10:08:12.1Z</time></trkpt><trkpt lat="44.9577672" lon="9.7803472"><ele>79.0</ele><time>2026-03-29T10:08:14.089Z</time></trkpt><trkpt lat="44.9578842" lon="9.7803733"><ele>79.0</ele><time>2026-03-29T10:08:16.094Z</time></trkpt><trkpt lat="44.9579992" lon="9.7804044"><ele>79.0</ele><time>2026-03-29T10:08:18.079Z</time></trkpt><trkpt lat="44.9581127" lon="9.7804344"><ele>79.0</ele><time>2026-03-29T10:08:20.092Z</time></trkpt><trkpt lat="44.9582285" lon="9.780469"><ele>79.0</ele><time>2026-03-29T10:08:22.078Z</time></trkpt><trkpt lat="44.9583424" lon="9.7805027"><ele>78.8</ele><time>2026-03-29T10:08:24.092Z</time></trkpt><trkpt lat="44.9584577" lon="9.7805344"><ele>78.60000000000001</ele><time>2026-03-29T10:08:26.097Z</time></trkpt><trkpt lat="44.958578" lon="9.7805629"><ele>78.4</ele><time>2026-03-29T10:08:28.087Z</time></trkpt><trkpt lat="44.9586402" lon="9.7805774"><ele>78.2</ele><time>2026-03-29T10:08:29.088Z</time></trkpt><trkpt lat="44.9587583" lon="9.7806147"><ele>78.0</ele><time>2026-03-29T10:08:31.071Z</time></trkpt><trkpt lat="44.9588209" lon="9.7806266"><ele>78.0</ele><time>2026-03-29T10:08:32.093Z</time></trkpt><trkpt lat="44.9589399" lon="9.780659"><ele>78.0</ele><time>2026-03-29T10:08:34.096Z</time></trkpt><trkpt lat="44.9590609" lon="9.7806933"><ele>78.0</ele><time>2026-03-29T10:08:36.086Z</time></trkpt><trkpt lat="44.9591832" lon="9.7807176"><ele>78.0</ele><time>2026-03-29T10:08:38.093Z</time></trkpt><trkpt lat="44.9592975" lon="9.7807421"><ele>78.5</ele><time>2026-03-29T10:08:40.085Z</time></trkpt><trkpt lat="44.9594151" lon="9.7807728"><ele>79.0</ele><time>2026-03-29T10:08:42.082Z</time></trkpt><trkpt lat="44.9595318" lon="9.7808004"><ele>79.5</ele><time>2026-03-29T10:08:44.087Z</time></trkpt><trkpt lat="44.959641" lon="9.7808317"><ele>80.0</ele><time>2026-03-29T10:08:46.091Z</time></trkpt><trkpt lat="44.9597505" lon="9.7808648"><ele>80.0</ele><time>2026-03-29T10:08:48.082Z</time></trkpt><trkpt lat="44.9598585" lon="9.7808895"><ele>80.0</ele><time>2026-03-29T10:08:50.094Z</time></trkpt><trkpt lat="44.9599699" lon="9.7809165"><ele>80.0</ele><time>2026-03-29T10:08:52.08Z</time></trkpt><trkpt lat="44.9600859" lon="9.7809436"><ele>80.0</ele><time>2026-03-29T10:08:54.087Z</time></trkpt><trkpt lat="44.9602005" lon="9.7809771"><ele>79.8</ele><time>2026-03-29T10:08:56.091Z</time></trkpt><trkpt lat="44.9602631" lon="9.7809869"><ele>79.6</ele><time>2026-03-29T10:08:57.07Z</time></trkpt><trkpt lat="44.9603761" lon="9.781019"><ele>79.4</ele><time>2026-03-29T10:08:59.087Z</time></trkpt><trkpt lat="44.9604893" lon="9.781045"><ele>79.2</ele><time>2026-03-29T10:09:01.101Z</time></trkpt><trkpt lat="44.9606" lon="9.7810693"><ele>79.0</ele><time>2026-03-29T10:09:03.096Z</time></trkpt><trkpt lat="44.9607171" lon="9.7810977"><ele>78.75</ele><time>2026-03-29T10:09:05.082Z</time></trkpt><trkpt lat="44.9608281" lon="9.7811195"><ele>78.5</ele><time>2026-03-29T10:09:07.096Z</time></trkpt><trkpt lat="44.9609413" lon="9.7811448"><ele>78.25</ele><time>2026-03-29T10:09:09.1Z</time></trkpt><trkpt lat="44.9610602" lon="9.7811662"><ele>78.0</ele><time>2026-03-29T10:09:11.098Z</time></trkpt><trkpt lat="44.9611749" lon="9.7811934"><ele>77.6</ele><time>2026-03-29T10:09:13.101Z</time></trkpt><trkpt lat="44.9612848" lon="9.7812073"><ele>77.19999999999999</ele><time>2026-03-29T10:09:15.085Z</time></trkpt><trkpt lat="44.9613914" lon="9.7812283"><ele>76.8</ele><time>2026-03-29T10:09:17.097Z</time></trkpt><trkpt lat="44.961492" lon="9.7812484"><ele>76.39999999999999</ele><time>2026-03-29T10:09:19.096Z</time></trkpt><trkpt lat="44.9615978" lon="9.781267"><ele>76.0</ele><time>2026-03-29T10:09:21.087Z</time></trkpt><trkpt lat="44.9617065" lon="9.7812842"><ele>76.0</ele><time>2026-03-29T10:09:23.069Z</time></trkpt><trkpt lat="44.9618101" lon="9.7813073"><ele>76.0</ele><time>2026-03-29T10:09:25.095Z</time></trkpt><trkpt lat="44.9619213" lon="9.7813267"><ele>76.0</ele><time>2026-03-29T10:09:27.091Z</time></trkpt><trkpt lat="44.9620286" lon="9.7813467"><ele>76.0</ele><time>2026-03-29T10:09:29.092Z</time></trkpt><trkpt lat="44.9621321" lon="9.7813681"><ele>76.0</ele><time>2026-03-29T10:09:31.092Z</time></trkpt><trkpt lat="44.962244" lon="9.781392"><ele>76.0</ele><time>2026-03-29T10:09:33.09Z</time></trkpt><trkpt lat="44.9623506" lon="9.78141"><ele>76.0</ele><time>2026-03-29T10:09:35.082Z</time></trkpt><trkpt lat="44.9624595" lon="9.7814343"><ele>76.0</ele><time>2026-03-29T10:09:37.096Z</time></trkpt><trkpt lat="44.962571" lon="9.7814465"><ele>76.0</ele><time>2026-03-29T10:09:39.1Z</time></trkpt><trkpt lat="44.9626816" lon="9.7814669"><ele>76.0</ele><time>2026-03-29T10:09:41.091Z</time></trkpt><trkpt lat="44.9627919" lon="9.7814903"><ele>76.39999999999999</ele><time>2026-03-29T10:09:43.088Z</time></trkpt><trkpt lat="44.9628939" lon="9.7815237"><ele>76.8</ele><time>2026-03-29T10:09:45.096Z</time></trkpt><trkpt lat="44.9629972" lon="9.7815576"><ele>77.19999999999999</ele><time>2026-03-29T10:09:47.094Z</time></trkpt><trkpt lat="44.9630983" lon="9.7815815"><ele>77.6</ele><time>2026-03-29T10:09:49.089Z</time></trkpt><trkpt lat="44.963209" lon="9.7815811"><ele>78.0</ele><time>2026-03-29T10:09:51.074Z</time></trkpt><trkpt lat="44.9633167" lon="9.7815955"><ele>77.6</ele><time>2026-03-29T10:09:53.088Z</time></trkpt><trkpt lat="44.9634168" lon="9.7816154"><ele>77.19999999999999</ele><time>2026-03-29T10:09:55.097Z</time></trkpt><trkpt lat="44.9635163" lon="9.781633"><ele>76.8</ele><time>2026-03-29T10:09:57.096Z</time></trkpt><trkpt lat="44.9636187" lon="9.781651"><ele>76.39999999999999</ele><time>2026-03-29T10:09:59.083Z</time></trkpt><trkpt lat="44.9637285" lon="9.7816698"><ele>76.0</ele><time>2026-03-29T10:10:01.087Z</time></trkpt><trkpt lat="44.9638351" lon="9.7816911"><ele>76.0</ele><time>2026-03-29T10:10:03.09Z</time></trkpt><trkpt lat="44.9639427" lon="9.7817064"><ele>76.0</ele><time>2026-03-29T10:10:05.095Z</time></trkpt><trkpt lat="44.9640517" lon="9.7817353"><ele>76.0</ele><time>2026-03-29T10:10:07.09Z</time></trkpt><trkpt lat="44.9641608" lon="9.7817663"><ele>76.0</ele><time>2026-03-29T10:10:09.093Z</time></trkpt><trkpt lat="44.9642694" lon="9.7817923"><ele>76.0</ele><time>2026-03-29T10:10:11.099Z</time></trkpt><trkpt lat="44.964383" lon="9.7818177"><ele>76.5</ele><time>2026-03-29T10:10:13.097Z</time></trkpt><trkpt lat="44.9644945" lon="9.7818457"><ele>77.0</ele><time>2026-03-29T10:10:15.091Z</time></trkpt><trkpt lat="44.9646077" lon="9.7818639"><ele>77.5</ele><time>2026-03-29T10:10:17.092Z</time></trkpt><trkpt lat="44.9647238" lon="9.7818912"><ele>78.0</ele><time>2026-03-29T10:10:19.096Z</time></trkpt><trkpt lat="44.9648322" lon="9.7819087"><ele>78.0</ele><time>2026-03-29T10:10:21.102Z</time></trkpt><trkpt lat="44.9649404" lon="9.7819192"><ele>78.0</ele><time>2026-03-29T10:10:23.083Z</time></trkpt><trkpt lat="44.965039" lon="9.7819412"><ele>78.0</ele><time>2026-03-29T10:10:25.1Z</time></trkpt><trkpt lat="44.9651461" lon="9.7819587"><ele>78.0</ele><time>2026-03-29T10:10:27.094Z</time></trkpt><trkpt lat="44.9652529" lon="9.7819874"><ele>78.0</ele><time>2026-03-29T10:10:29.097Z</time></trkpt><trkpt lat="44.9653549" lon="9.7820131"><ele>78.0</ele><time>2026-03-29T10:10:31.093Z</time></trkpt><trkpt lat="44.9654584" lon="9.7820223"><ele>78.0</ele><time>2026-03-29T10:10:33.098Z</time></trkpt><trkpt lat="44.9655604" lon="9.7820333"><ele>78.0</ele><time>2026-03-29T10:10:35.093Z</time></trkpt><trkpt lat="44.9656653" lon="9.7820533"><ele>78.0</ele><time>2026-03-29T10:10:37.093Z</time></trkpt><trkpt lat="44.9657754" lon="9.7820702"><ele>78.0</ele><time>2026-03-29T10:10:39.081Z</time></trkpt><trkpt lat="44.9658804" lon="9.7820866"><ele>77.8</ele><time>2026-03-29T10:10:41.068Z</time></trkpt><trkpt lat="44.9659821" lon="9.782104"><ele>77.6</ele><time>2026-03-29T10:10:43.093Z</time></trkpt><trkpt lat="44.9660822" lon="9.7821154"><ele>77.4</ele><time>2026-03-29T10:10:45.062Z</time></trkpt><trkpt lat="44.9661802" lon="9.7821487"><ele>77.2</ele><time>2026-03-29T10:10:47.074Z</time></trkpt><trkpt lat="44.9662827" lon="9.7821822"><ele>77.0</ele><time>2026-03-29T10:10:49.085Z</time></trkpt><trkpt lat="44.9663815" lon="9.7821663"><ele>77.0</ele><time>2026-03-29T10:10:51.087Z</time></trkpt><trkpt lat="44.966466" lon="9.7821103"><ele>77.0</ele><time>2026-03-29T10:10:53.09Z</time></trkpt><trkpt lat="44.9665369" lon="9.7820237"><ele>77.0</ele><time>2026-03-29T10:10:55.08Z</time></trkpt><trkpt lat="44.9666116" lon="9.7819307"><ele>77.0</ele><time>2026-03-29T10:10:57.077Z</time></trkpt><trkpt lat="44.9666737" lon="9.7818307"><ele>77.0</ele><time>2026-03-29T10:10:59.095Z</time></trkpt><trkpt lat="44.9667185" lon="9.7817191"><ele>77.0</ele><time>2026-03-29T10:11:01.085Z</time></trkpt><trkpt lat="44.9667745" lon="9.7816398"><ele>77.0</ele><time>2026-03-29T10:11:03.08Z</time></trkpt><trkpt lat="44.9668328" lon="9.7816759"><ele>77.0</ele><time>2026-03-29T10:11:05.071Z</time></trkpt><trkpt lat="44.9669018" lon="9.7817158"><ele>77.0</ele><time>2026-03-29T10:11:10.087Z</time></trkpt><trkpt lat="44.9669681" lon="9.7817445"><ele>77.0</ele><time>2026-03-29T10:11:13.083Z</time></trkpt><trkpt lat="44.9670254" lon="9.7817871"><ele>77.0</ele><time>2026-03-29T10:11:15.078Z</time></trkpt><trkpt lat="44.9671074" lon="9.7818426"><ele>77.0</ele><time>2026-03-29T10:11:17.076Z</time></trkpt><trkpt lat="44.9672162" lon="9.7818915"><ele>77.0</ele><time>2026-03-29T10:11:19.097Z</time></trkpt><trkpt lat="44.96732" lon="9.7819297"><ele>77.0</ele><time>2026-03-29T10:11:21.087Z</time></trkpt><trkpt lat="44.9674251" lon="9.78197"><ele>77.0</ele><time>2026-03-29T10:11:23.063Z</time></trkpt><trkpt lat="44.9675347" lon="9.7820071"><ele>77.0</ele><time>2026-03-29T10:11:25.088Z</time></trkpt><trkpt lat="44.9676417" lon="9.7820555"><ele>77.0</ele><time>2026-03-29T10:11:27.078Z</time></trkpt><trkpt lat="44.9677553" lon="9.7821081"><ele>77.0</ele><time>2026-03-29T10:11:29.1Z</time></trkpt><trkpt lat="44.9678154" lon="9.7821412"><ele>77.0</ele><time>2026-03-29T10:11:30.078Z</time></trkpt><trkpt lat="44.9679231" lon="9.7821903"><ele>77.0</ele><time>2026-03-29T10:11:32.093Z</time></trkpt><trkpt lat="44.9680369" lon="9.7822469"><ele>77.0</ele><time>2026-03-29T10:11:34.104Z</time></trkpt><trkpt lat="44.9681553" lon="9.7823048"><ele>77.0</ele><time>2026-03-29T10:11:36.089Z</time></trkpt><trkpt lat="44.9682173" lon="9.7823334"><ele>77.0</ele><time>2026-03-29T10:11:37.078Z</time></trkpt><trkpt lat="44.9682773" lon="9.782361"><ele>77.0</ele><time>2026-03-29T10:11:38.097Z</time></trkpt><trkpt lat="44.9683944" lon="9.782419"><ele>77.0</ele><time>2026-03-29T10:11:40.091Z</time></trkpt><trkpt lat="44.9684551" lon="9.7824455"><ele>77.0</ele><time>2026-03-29T10:11:41.097Z</time></trkpt><trkpt lat="44.9685709" lon="9.7824964"><ele>77.0</ele><time>2026-03-29T10:11:43.077Z</time></trkpt><trkpt lat="44.9686847" lon="9.7825495"><ele>77.16666666666667</ele><time>2026-03-29T10:11:45.103Z</time></trkpt><trkpt lat="44.968747" lon="9.7825799"><ele>77.33333333333334</ele><time>2026-03-29T10:11:46.099Z</time></trkpt><trkpt lat="44.9688065" lon="9.7826132"><ele>77.5</ele><time>2026-03-29T10:11:47.084Z</time></trkpt><trkpt lat="44.968868" lon="9.7826463"><ele>77.66666666666667</ele><time>2026-03-29T10:11:48.074Z</time></trkpt><trkpt lat="44.9689302" lon="9.7826702"><ele>77.83333333333333</ele><time>2026-03-29T10:11:49.093Z</time></trkpt><trkpt lat="44.9689952" lon="9.782701"><ele>78.0</ele><time>2026-03-29T10:11:50.088Z</time></trkpt><trkpt lat="44.9691099" lon="9.7827626"><ele>78.0</ele><time>2026-03-29T10:11:52.09Z</time></trkpt><trkpt lat="44.9691714" lon="9.7827909"><ele>78.0</ele><time>2026-03-29T10:11:53.102Z</time></trkpt><trkpt lat="44.9692338" lon="9.7828174"><ele>78.0</ele><time>2026-03-29T10:11:54.09Z</time></trkpt><trkpt lat="44.9692971" lon="9.7828429"><ele>78.0</ele><time>2026-03-29T10:11:55.098Z</time></trkpt><trkpt lat="44.969421" lon="9.7828832"><ele>78.0</ele><time>2026-03-29T10:11:57.073Z</time></trkpt><trkpt lat="44.9694838" lon="9.7829022"><ele>78.0</ele><time>2026-03-29T10:11:58.086Z</time></trkpt><trkpt lat="44.9695457" lon="9.7829201"><ele>77.85714285714286</ele><time>2026-03-29T10:11:59.095Z</time></trkpt><trkpt lat="44.9696102" lon="9.7829372"><ele>77.71428571428571</ele><time>2026-03-29T10:12:00.099Z</time></trkpt><trkpt lat="44.9696728" lon="9.7829546"><ele>77.57142857142857</ele><time>2026-03-29T10:12:01.09Z</time></trkpt><trkpt lat="44.9697381" lon="9.7829655"><ele>77.42857142857143</ele><time>2026-03-29T10:12:02.093Z</time></trkpt><trkpt lat="44.9698004" lon="9.7829872"><ele>77.28571428571428</ele><time>2026-03-29T10:12:03.077Z</time></trkpt><trkpt lat="44.969863" lon="9.7830086"><ele>77.14285714285714</ele><time>2026-03-29T10:12:04.082Z</time></trkpt><trkpt lat="44.9699267" lon="9.7830215"><ele>77.0</ele><time>2026-03-29T10:12:05.079Z</time></trkpt><trkpt lat="44.9700523" lon="9.783054"><ele>76.5</ele><time>2026-03-29T10:12:07.084Z</time></trkpt><trkpt lat="44.9701168" lon="9.7830671"><ele>76.0</ele><time>2026-03-29T10:12:08.096Z</time></trkpt><trkpt lat="44.9702367" lon="9.7830982"><ele>75.5</ele><time>2026-03-29T10:12:10.101Z</time></trkpt><trkpt lat="44.9702988" lon="9.7831171"><ele>75.0</ele><time>2026-03-29T10:12:11.097Z</time></trkpt><trkpt lat="44.9704212" lon="9.7831647"><ele>74.5</ele><time>2026-03-29T10:12:13.097Z</time></trkpt><trkpt lat="44.9704853" lon="9.7831861"><ele>74.0</ele><time>2026-03-29T10:12:14.077Z</time></trkpt><trkpt lat="44.9705496" lon="9.7832048"><ele>74.0</ele><time>2026-03-29T10:12:15.103Z</time></trkpt><trkpt lat="44.970617" lon="9.7832257"><ele>74.0</ele><time>2026-03-29T10:12:16.096Z</time></trkpt><trkpt lat="44.970682" lon="9.7832498"><ele>74.0</ele><time>2026-03-29T10:12:17.095Z</time></trkpt><trkpt lat="44.9707443" lon="9.783283"><ele>74.0</ele><time>2026-03-29T10:12:18.102Z</time></trkpt><trkpt lat="44.9708599" lon="9.7833512"><ele>74.0</ele><time>2026-03-29T10:12:20.09Z</time></trkpt><trkpt lat="44.9709705" lon="9.7834209"><ele>74.0</ele><time>2026-03-29T10:12:22.081Z</time></trkpt><trkpt lat="44.971079" lon="9.7835047"><ele>73.71428571428572</ele><time>2026-03-29T10:12:24.094Z</time></trkpt><trkpt lat="44.9711367" lon="9.783543"><ele>73.42857142857143</ele><time>2026-03-29T10:12:25.083Z</time></trkpt><trkpt lat="44.971196" lon="9.7835771"><ele>73.14285714285714</ele><time>2026-03-29T10:12:26.089Z</time></trkpt><trkpt lat="44.9713065" lon="9.7836522"><ele>72.85714285714286</ele><time>2026-03-29T10:12:28.079Z</time></trkpt><trkpt lat="44.9713634" lon="9.7836944"><ele>72.57142857142857</ele><time>2026-03-29T10:12:29.057Z</time></trkpt><trkpt lat="44.9714232" lon="9.7837303"><ele>72.28571428571429</ele><time>2026-03-29T10:12:30.086Z</time></trkpt><trkpt lat="44.9714823" lon="9.7837635"><ele>72.0</ele><time>2026-03-29T10:12:31.091Z</time></trkpt><trkpt lat="44.9715433" lon="9.7837943"><ele>72.00000000000001</ele><time>2026-03-29T10:12:32.092Z</time></trkpt><trkpt lat="44.9716076" lon="9.7838232"><ele>72.0</ele><time>2026-03-29T10:12:33.097Z</time></trkpt><trkpt lat="44.9716724" lon="9.7838476"><ele>72.0</ele><time>2026-03-29T10:12:34.075Z</time></trkpt><trkpt lat="44.9717447" lon="9.7838724"><ele>72.0</ele><time>2026-03-29T10:12:35.092Z</time></trkpt><trkpt lat="44.9718067" lon="9.783902"><ele>72.0</ele><time>2026-03-29T10:12:36.094Z</time></trkpt><trkpt lat="44.9718737" lon="9.7839237"><ele>72.00000000000001</ele><time>2026-03-29T10:12:37.107Z</time></trkpt><trkpt lat="44.9719371" lon="9.7839408"><ele>72.0</ele><time>2026-03-29T10:12:38.086Z</time></trkpt><trkpt lat="44.9719998" lon="9.783959"><ele>71.85714285714286</ele><time>2026-03-29T10:12:39.084Z</time></trkpt><trkpt lat="44.9720641" lon="9.7839806"><ele>71.71428571428572</ele><time>2026-03-29T10:12:40.088Z</time></trkpt><trkpt lat="44.9721273" lon="9.7839957"><ele>71.57142857142857</ele><time>2026-03-29T10:12:41.056Z</time></trkpt><trkpt lat="44.9721914" lon="9.7840166"><ele>71.42857142857143</ele><time>2026-03-29T10:12:42.091Z</time></trkpt><trkpt lat="44.9722533" lon="9.7840367"><ele>71.28571428571428</ele><time>2026-03-29T10:12:43.065Z</time></trkpt><trkpt lat="44.9723201" lon="9.7840551"><ele>71.14285714285714</ele><time>2026-03-29T10:12:44.094Z</time></trkpt><trkpt lat="44.9723819" lon="9.7840763"><ele>71.0</ele><time>2026-03-29T10:12:45.083Z</time></trkpt><trkpt lat="44.9724482" lon="9.7840964"><ele>71.0</ele><time>2026-03-29T10:12:46.099Z</time></trkpt><trkpt lat="44.9725146" lon="9.784118"><ele>71.0</ele><time>2026-03-29T10:12:47.093Z</time></trkpt><trkpt lat="44.9725784" lon="9.7841397"><ele>71.0</ele><time>2026-03-29T10:12:48.103Z</time></trkpt><trkpt lat="44.9726463" lon="9.7841599"><ele>71.0</ele><time>2026-03-29T10:12:49.089Z</time></trkpt><trkpt lat="44.9727156" lon="9.7841803"><ele>71.0</ele><time>2026-03-29T10:12:50.091Z</time></trkpt><trkpt lat="44.9727838" lon="9.7842024"><ele>71.0</ele><time>2026-03-29T10:12:51.107Z</time></trkpt><trkpt lat="44.9728525" lon="9.784226"><ele>71.0</ele><time>2026-03-29T10:12:52.096Z</time></trkpt><trkpt lat="44.972921" lon="9.7842502"><ele>71.0</ele><time>2026-03-29T10:12:53.098Z</time></trkpt><trkpt lat="44.9729907" lon="9.7842703"><ele>71.0</ele><time>2026-03-29T10:12:54.097Z</time></trkpt><trkpt lat="44.9730575" lon="9.784291"><ele>71.0</ele><time>2026-03-29T10:12:55.102Z</time></trkpt><trkpt lat="44.9731241" lon="9.7843172"><ele>71.0</ele><time>2026-03-29T10:12:56.098Z</time></trkpt><trkpt lat="44.973187" lon="9.7843409"><ele>71.0</ele><time>2026-03-29T10:12:57.088Z</time></trkpt><trkpt lat="44.9732533" lon="9.7843647"><ele>71.0</ele><time>2026-03-29T10:12:58.097Z</time></trkpt><trkpt lat="44.9733201" lon="9.7843879"><ele>71.0</ele><time>2026-03-29T10:12:59.09Z</time></trkpt><trkpt lat="44.9733862" lon="9.784411"><ele>70.85714285714286</ele><time>2026-03-29T10:13:00.089Z</time></trkpt><trkpt lat="44.973452" lon="9.7844381"><ele>70.71428571428571</ele><time>2026-03-29T10:13:01.1Z</time></trkpt><trkpt lat="44.9735149" lon="9.7844691"><ele>70.57142857142857</ele><time>2026-03-29T10:13:02.09Z</time></trkpt><trkpt lat="44.9735828" lon="9.7844965"><ele>70.42857142857143</ele><time>2026-03-29T10:13:03.091Z</time></trkpt><trkpt lat="44.9736501" lon="9.7845255"><ele>70.28571428571428</ele><time>2026-03-29T10:13:04.087Z</time></trkpt><trkpt lat="44.9737135" lon="9.7845533"><ele>70.14285714285714</ele><time>2026-03-29T10:13:05.087Z</time></trkpt><trkpt lat="44.9737796" lon="9.7845795"><ele>70.0</ele><time>2026-03-29T10:13:06.097Z</time></trkpt><trkpt lat="44.9738425" lon="9.7846068"><ele>70.0</ele><time>2026-03-29T10:13:07.085Z</time></trkpt><trkpt lat="44.9739077" lon="9.7846369"><ele>70.0</ele><time>2026-03-29T10:13:08.088Z</time></trkpt><trkpt lat="44.9739754" lon="9.7846702"><ele>70.0</ele><time>2026-03-29T10:13:09.101Z</time></trkpt><trkpt lat="44.9740374" lon="9.7846978"><ele>70.0</ele><time>2026-03-29T10:13:10.092Z</time></trkpt><trkpt lat="44.9741076" lon="9.7847246"><ele>70.0</ele><time>2026-03-29T10:13:11.103Z</time></trkpt><trkpt lat="44.974173" lon="9.7847562"><ele>70.0</ele><time>2026-03-29T10:13:12.079Z</time></trkpt><trkpt lat="44.9742391" lon="9.7847873"><ele>70.0</ele><time>2026-03-29T10:13:13.093Z</time></trkpt><trkpt lat="44.974302" lon="9.784816"><ele>69.85714285714286</ele><time>2026-03-29T10:13:14.101Z</time></trkpt><trkpt lat="44.974366" lon="9.7848481"><ele>69.71428571428572</ele><time>2026-03-29T10:13:15.079Z</time></trkpt><trkpt lat="44.9744274" lon="9.7848752"><ele>69.57142857142857</ele><time>2026-03-29T10:13:16.1Z</time></trkpt><trkpt lat="44.9744932" lon="9.7849052"><ele>69.42857142857143</ele><time>2026-03-29T10:13:17.087Z</time></trkpt><trkpt lat="44.9745588" lon="9.784933"><ele>69.28571428571429</ele><time>2026-03-29T10:13:18.092Z</time></trkpt><trkpt lat="44.9746278" lon="9.784956"><ele>69.14285714285714</ele><time>2026-03-29T10:13:19.098Z</time></trkpt><trkpt lat="44.9746963" lon="9.7849819"><ele>69.0</ele><time>2026-03-29T10:13:20.079Z</time></trkpt><trkpt lat="44.9747633" lon="9.7850133"><ele>69.0</ele><time>2026-03-29T10:13:21.096Z</time></trkpt><trkpt lat="44.9748298" lon="9.7850447"><ele>69.0</ele><time>2026-03-29T10:13:22.106Z</time></trkpt><trkpt lat="44.9748949" lon="9.7850751"><ele>69.0</ele><time>2026-03-29T10:13:23.084Z</time></trkpt><trkpt lat="44.9749619" lon="9.7851094"><ele>69.0</ele><time>2026-03-29T10:13:24.094Z</time></trkpt><trkpt lat="44.9750322" lon="9.7851384"><ele>69.0</ele><time>2026-03-29T10:13:25.089Z</time></trkpt><trkpt lat="44.975102" lon="9.7851664"><ele>69.0</ele><time>2026-03-29T10:13:26.08Z</time></trkpt><trkpt lat="44.9751695" lon="9.7851998"><ele>69.0</ele><time>2026-03-29T10:13:27.092Z</time></trkpt><trkpt lat="44.9752389" lon="9.7852318"><ele>69.0</ele><time>2026-03-29T10:13:28.091Z</time></trkpt><trkpt lat="44.9753058" lon="9.7852629"><ele>69.0</ele><time>2026-03-29T10:13:29.082Z</time></trkpt><trkpt lat="44.9753718" lon="9.785295"><ele>69.0</ele><time>2026-03-29T10:13:30.1Z</time></trkpt><trkpt lat="44.9754369" lon="9.7853254"><ele>69.0</ele><time>2026-03-29T10:13:31.095Z</time></trkpt><trkpt lat="44.975509" lon="9.7853546"><ele>69.0</ele><time>2026-03-29T10:13:32.095Z</time></trkpt><trkpt lat="44.9755734" lon="9.7853889"><ele>69.0</ele><time>2026-03-29T10:13:33.101Z</time></trkpt><trkpt lat="44.9756398" lon="9.785424"><ele>69.0</ele><time>2026-03-29T10:13:34.101Z</time></trkpt><trkpt lat="44.9757025" lon="9.7854608"><ele>69.0</ele><time>2026-03-29T10:13:35.065Z</time></trkpt><trkpt lat="44.9757695" lon="9.7854943"><ele>69.0</ele><time>2026-03-29T10:13:36.093Z</time></trkpt><trkpt lat="44.9758328" lon="9.785527"><ele>69.0</ele><time>2026-03-29T10:13:37.096Z</time></trkpt><trkpt lat="44.9758973" lon="9.7855617"><ele>69.0</ele><time>2026-03-29T10:13:38.094Z</time></trkpt><trkpt lat="44.9759607" lon="9.7855938"><ele>69.0</ele><time>2026-03-29T10:13:39.11Z</time></trkpt><trkpt lat="44.976027" lon="9.7856233"><ele>69.0</ele><time>2026-03-29T10:13:40.103Z</time></trkpt><trkpt lat="44.9760941" lon="9.7856526"><ele>69.0</ele><time>2026-03-29T10:13:41.101Z</time></trkpt><trkpt lat="44.9761576" lon="9.7856873"><ele>69.14285714285714</ele><time>2026-03-29T10:13:42.089Z</time></trkpt><trkpt lat="44.9762239" lon="9.7857245"><ele>69.28571428571429</ele><time>2026-03-29T10:13:43.082Z</time></trkpt><trkpt lat="44.9762897" lon="9.7857585"><ele>69.42857142857143</ele><time>2026-03-29T10:13:44.085Z</time></trkpt><trkpt lat="44.9763531" lon="9.7857956"><ele>69.57142857142857</ele><time>2026-03-29T10:13:45.088Z</time></trkpt><trkpt lat="44.976416" lon="9.7858357"><ele>69.71428571428572</ele><time>2026-03-29T10:13:46.095Z</time></trkpt><trkpt lat="44.9764817" lon="9.7858739"><ele>69.85714285714286</ele><time>2026-03-29T10:13:47.09Z</time></trkpt><trkpt lat="44.9765442" lon="9.7859068"><ele>70.0</ele><time>2026-03-29T10:13:48.094Z</time></trkpt><trkpt lat="44.9766102" lon="9.7859434"><ele>70.0</ele><time>2026-03-29T10:13:49.086Z</time></trkpt><trkpt lat="44.9766772" lon="9.785973"><ele>70.0</ele><time>2026-03-29T10:13:50.091Z</time></trkpt><trkpt lat="44.9767416" lon="9.7860069"><ele>70.0</ele><time>2026-03-29T10:13:51.088Z</time></trkpt><trkpt lat="44.9768042" lon="9.7860419"><ele>70.0</ele><time>2026-03-29T10:13:52.091Z</time></trkpt><trkpt lat="44.9768705" lon="9.7860751"><ele>70.0</ele><time>2026-03-29T10:13:53.09Z</time></trkpt><trkpt lat="44.9769361" lon="9.7861082"><ele>70.0</ele><time>2026-03-29T10:13:54.1Z</time></trkpt><trkpt lat="44.9770003" lon="9.7861424"><ele>70.0</ele><time>2026-03-29T10:13:55.1Z</time></trkpt><trkpt lat="44.9770665" lon="9.7861782"><ele>69.85714285714286</ele><time>2026-03-29T10:13:56.105Z</time></trkpt><trkpt lat="44.9771306" lon="9.786216"><ele>69.71428571428572</ele><time>2026-03-29T10:13:57.094Z</time></trkpt><trkpt lat="44.9771964" lon="9.786253"><ele>69.57142857142857</ele><time>2026-03-29T10:13:58.077Z</time></trkpt><trkpt lat="44.9772643" lon="9.7862881"><ele>69.42857142857143</ele><time>2026-03-29T10:13:59.086Z</time></trkpt><trkpt lat="44.9773316" lon="9.7863197"><ele>69.28571428571429</ele><time>2026-03-29T10:14:00.094Z</time></trkpt><trkpt lat="44.9773995" lon="9.7863521"><ele>69.14285714285714</ele><time>2026-03-29T10:14:01.094Z</time></trkpt><trkpt lat="44.9774676" lon="9.7863838"><ele>69.0</ele><time>2026-03-29T10:14:02.076Z</time></trkpt><trkpt lat="44.9775347" lon="9.7864169"><ele>69.28571428571429</ele><time>2026-03-29T10:14:03.087Z</time></trkpt><trkpt lat="44.9776042" lon="9.7864494"><ele>69.57142857142858</ele><time>2026-03-29T10:14:04.096Z</time></trkpt><trkpt lat="44.9776714" lon="9.786484"><ele>69.85714285714286</ele><time>2026-03-29T10:14:05.074Z</time></trkpt><trkpt lat="44.9777395" lon="9.7865215"><ele>70.14285714285714</ele><time>2026-03-29T10:14:06.083Z</time></trkpt><trkpt lat="44.9778033" lon="9.7865543"><ele>70.42857142857142</ele><time>2026-03-29T10:14:07.085Z</time></trkpt><trkpt lat="44.9778698" lon="9.7865927"><ele>70.71428571428571</ele><time>2026-03-29T10:14:08.058Z</time></trkpt><trkpt lat="44.9779356" lon="9.786625"><ele>71.0</ele><time>2026-03-29T10:14:09.095Z</time></trkpt><trkpt lat="44.9779983" lon="9.7866608"><ele>71.0</ele><time>2026-03-29T10:14:10.083Z</time></trkpt><trkpt lat="44.9780619" lon="9.7866946"><ele>71.0</ele><time>2026-03-29T10:14:11.112Z</time></trkpt><trkpt lat="44.9781276" lon="9.786724"><ele>71.0</ele><time>2026-03-29T10:14:12.082Z</time></trkpt><trkpt lat="44.9781939" lon="9.7867578"><ele>71.0</ele><time>2026-03-29T10:14:13.072Z</time></trkpt><trkpt lat="44.9782607" lon="9.7867906"><ele>71.0</ele><time>2026-03-29T10:14:14.091Z</time></trkpt><trkpt lat="44.9783267" lon="9.7868272"><ele>71.0</ele><time>2026-03-29T10:14:15.102Z</time></trkpt><trkpt lat="44.9783938" lon="9.7868616"><ele>71.0</ele><time>2026-03-29T10:14:16.096Z</time></trkpt><trkpt lat="44.9784567" lon="9.7868982"><ele>70.71428571428571</ele><time>2026-03-29T10:14:17.086Z</time></trkpt><trkpt lat="44.9785234" lon="9.7869334"><ele>70.42857142857142</ele><time>2026-03-29T10:14:18.096Z</time></trkpt><trkpt lat="44.9785881" lon="9.7869645"><ele>70.14285714285714</ele><time>2026-03-29T10:14:19.082Z</time></trkpt><trkpt lat="44.9786518" lon="9.786999"><ele>69.85714285714286</ele><time>2026-03-29T10:14:20.089Z</time></trkpt><trkpt lat="44.9787225" lon="9.7870328"><ele>69.57142857142858</ele><time>2026-03-29T10:14:21.104Z</time></trkpt><trkpt lat="44.978791" lon="9.7870654"><ele>69.28571428571429</ele><time>2026-03-29T10:14:22.091Z</time></trkpt><trkpt lat="44.9788587" lon="9.7870987"><ele>69.0</ele><time>2026-03-29T10:14:23.096Z</time></trkpt><trkpt lat="44.9789224" lon="9.7871375"><ele>69.0</ele><time>2026-03-29T10:14:24.093Z</time></trkpt><trkpt lat="44.9789885" lon="9.7871732"><ele>69.0</ele><time>2026-03-29T10:14:25.099Z</time></trkpt><trkpt lat="44.9790571" lon="9.787207"><ele>69.0</ele><time>2026-03-29T10:14:26.089Z</time></trkpt><trkpt lat="44.9791252" lon="9.7872381"><ele>69.0</ele><time>2026-03-29T10:14:27.093Z</time></trkpt><trkpt lat="44.9791892" lon="9.787274"><ele>69.0</ele><time>2026-03-29T10:14:28.105Z</time></trkpt><trkpt lat="44.9792549" lon="9.7873063"><ele>69.0</ele><time>2026-03-29T10:14:29.087Z</time></trkpt><trkpt lat="44.9793152" lon="9.7873405"><ele>69.0</ele><time>2026-03-29T10:14:30.098Z</time></trkpt><trkpt lat="44.9793784" lon="9.7873721"><ele>68.85714285714286</ele><time>2026-03-29T10:14:31.085Z</time></trkpt><trkpt lat="44.9794474" lon="9.7873985"><ele>68.71428571428572</ele><time>2026-03-29T10:14:32.094Z</time></trkpt><trkpt lat="44.9795142" lon="9.7874148"><ele>68.57142857142857</ele><time>2026-03-29T10:14:33.098Z</time></trkpt><trkpt lat="44.9795785" lon="9.7874151"><ele>68.42857142857143</ele><time>2026-03-29T10:14:34.091Z</time></trkpt><trkpt lat="44.9796419" lon="9.7873915"><ele>68.28571428571428</ele><time>2026-03-29T10:14:35.097Z</time></trkpt><trkpt lat="44.9797007" lon="9.7873408"><ele>68.14285714285714</ele><time>2026-03-29T10:14:36.093Z</time></trkpt><trkpt lat="44.979751" lon="9.7872798"><ele>68.0</ele><time>2026-03-29T10:14:37.083Z</time></trkpt><trkpt lat="44.9797954" lon="9.7871926"><ele>67.99999999999999</ele><time>2026-03-29T10:14:38.085Z</time></trkpt><trkpt lat="44.9798359" lon="9.7871123"><ele>68.0</ele><time>2026-03-29T10:14:39.087Z</time></trkpt><trkpt lat="44.9798814" lon="9.7870401"><ele>68.0</ele><time>2026-03-29T10:14:40.084Z</time></trkpt><trkpt lat="44.9799332" lon="9.7869753"><ele>68.0</ele><time>2026-03-29T10:14:41.096Z</time></trkpt><trkpt lat="44.9799965" lon="9.7869352"><ele>68.0</ele><time>2026-03-29T10:14:42.088Z</time></trkpt><trkpt lat="44.9800673" lon="9.7869018"><ele>67.99999999999999</ele><time>2026-03-29T10:14:43.088Z</time></trkpt><trkpt lat="44.9801315" lon="9.7868988"><ele>68.0</ele><time>2026-03-29T10:14:44.098Z</time></trkpt><trkpt lat="44.9802042" lon="9.7869033"><ele>67.71428571428571</ele><time>2026-03-29T10:14:45.083Z</time></trkpt><trkpt lat="44.9802683" lon="9.786926"><ele>67.42857142857143</ele><time>2026-03-29T10:14:46.09Z</time></trkpt><trkpt lat="44.9803297" lon="9.7869616"><ele>67.14285714285714</ele><time>2026-03-29T10:14:47.105Z</time></trkpt><trkpt lat="44.9803911" lon="9.7870063"><ele>66.85714285714286</ele><time>2026-03-29T10:14:48.095Z</time></trkpt><trkpt lat="44.9804508" lon="9.7870518"><ele>66.57142857142857</ele><time>2026-03-29T10:14:49.082Z</time></trkpt><trkpt lat="44.9805094" lon="9.7870939"><ele>66.28571428571428</ele><time>2026-03-29T10:14:50.109Z</time></trkpt><trkpt lat="44.9805636" lon="9.7871395"><ele>66.0</ele><time>2026-03-29T10:14:51.095Z</time></trkpt><trkpt lat="44.9806201" lon="9.7871799"><ele>66.0</ele><time>2026-03-29T10:14:52.096Z</time></trkpt><trkpt lat="44.9806743" lon="9.7872309"><ele>66.0</ele><time>2026-03-29T10:14:53.099Z</time></trkpt><trkpt lat="44.9807795" lon="9.7873144"><ele>66.0</ele><time>2026-03-29T10:14:55.082Z</time></trkpt><trkpt lat="44.9808949" lon="9.7873952"><ele>66.0</ele><time>2026-03-29T10:14:57.094Z</time></trkpt><trkpt lat="44.9810018" lon="9.7874835"><ele>66.0</ele><time>2026-03-29T10:14:59.085Z</time></trkpt><trkpt lat="44.9810577" lon="9.7875248"><ele>66.0</ele><time>2026-03-29T10:15:00.094Z</time></trkpt><trkpt lat="44.9811642" lon="9.7876112"><ele>66.0</ele><time>2026-03-29T10:15:02.094Z</time></trkpt><trkpt lat="44.9812195" lon="9.7876539"><ele>66.0</ele><time>2026-03-29T10:15:03.099Z</time></trkpt><trkpt lat="44.981275" lon="9.7877021"><ele>66.0</ele><time>2026-03-29T10:15:04.101Z</time></trkpt><trkpt lat="44.9813871" lon="9.7877832"><ele>66.0</ele><time>2026-03-29T10:15:06.092Z</time></trkpt><trkpt lat="44.9814423" lon="9.7878303"><ele>66.0</ele><time>2026-03-29T10:15:07.101Z</time></trkpt><trkpt lat="44.9814975" lon="9.7878731"><ele>66.0</ele><time>2026-03-29T10:15:08.082Z</time></trkpt><trkpt lat="44.9815539" lon="9.7879156"><ele>66.0</ele><time>2026-03-29T10:15:09.087Z</time></trkpt><trkpt lat="44.9816096" lon="9.7879572"><ele>66.0</ele><time>2026-03-29T10:15:10.103Z</time></trkpt><trkpt lat="44.9816673" lon="9.7879966"><ele>66.0</ele><time>2026-03-29T10:15:11.084Z</time></trkpt><trkpt lat="44.9817726" lon="9.7880839"><ele>66.0</ele><time>2026-03-29T10:15:13.081Z</time></trkpt><trkpt lat="44.9818778" lon="9.7881626"><ele>66.0</ele><time>2026-03-29T10:15:15.103Z</time></trkpt><trkpt lat="44.981986" lon="9.7882424"><ele>66.0</ele><time>2026-03-29T10:15:17.107Z</time></trkpt><trkpt lat="44.9820965" lon="9.788322"><ele>66.0</ele><time>2026-03-29T10:15:19.105Z</time></trkpt><trkpt lat="44.9822019" lon="9.7884115"><ele>66.0</ele><time>2026-03-29T10:15:21.095Z</time></trkpt><trkpt lat="44.9823091" lon="9.7884915"><ele>66.0</ele><time>2026-03-29T10:15:23.101Z</time></trkpt><trkpt lat="44.9823674" lon="9.7885337"><ele>66.0</ele><time>2026-03-29T10:15:24.097Z</time></trkpt><trkpt lat="44.9824759" lon="9.7886183"><ele>66.0</ele><time>2026-03-29T10:15:26.095Z</time></trkpt><trkpt lat="44.9825803" lon="9.7886929"><ele>66.0</ele><time>2026-03-29T10:15:28.089Z</time></trkpt><trkpt lat="44.9826916" lon="9.7887628"><ele>66.0</ele><time>2026-03-29T10:15:30.091Z</time></trkpt><trkpt lat="44.9828056" lon="9.7888019"><ele>66.0</ele><time>2026-03-29T10:15:32.103Z</time></trkpt><trkpt lat="44.9828687" lon="9.7887925"><ele>66.0</ele><time>2026-03-29T10:15:33.111Z</time></trkpt><trkpt lat="44.9829804" lon="9.788741"><ele>66.0</ele><time>2026-03-29T10:15:35.1Z</time></trkpt><trkpt lat="44.9830305" lon="9.7886754"><ele>66.0</ele><time>2026-03-29T10:15:36.078Z</time></trkpt><trkpt lat="44.9830809" lon="9.7886182"><ele>66.0</ele><time>2026-03-29T10:15:37.099Z</time></trkpt><trkpt lat="44.983139" lon="9.7885635"><ele>66.0</ele><time>2026-03-29T10:15:38.097Z</time></trkpt><trkpt lat="44.9832617" lon="9.7885044"><ele>66.0</ele><time>2026-03-29T10:15:40.095Z</time></trkpt><trkpt lat="44.9833349" lon="9.7885043"><ele>66.0</ele><time>2026-03-29T10:15:41.089Z</time></trkpt><trkpt lat="44.9833988" lon="9.7885231"><ele>65.75</ele><time>2026-03-29T10:15:42.099Z</time></trkpt><trkpt lat="44.9835218" lon="9.788558"><ele>65.5</ele><time>2026-03-29T10:15:44.083Z</time></trkpt><trkpt lat="44.9836418" lon="9.7885975"><ele>65.25</ele><time>2026-03-29T10:15:46.095Z</time></trkpt><trkpt lat="44.9837608" lon="9.7886407"><ele>65.0</ele><time>2026-03-29T10:15:48.091Z</time></trkpt><trkpt lat="44.9838842" lon="9.7886796"><ele>65.00000000000001</ele><time>2026-03-29T10:15:50.085Z</time></trkpt><trkpt lat="44.9839495" lon="9.7887017"><ele>65.0</ele><time>2026-03-29T10:15:51.096Z</time></trkpt><trkpt lat="44.9840119" lon="9.7887202"><ele>65.0</ele><time>2026-03-29T10:15:52.095Z</time></trkpt><trkpt lat="44.9840769" lon="9.7887367"><ele>65.0</ele><time>2026-03-29T10:15:53.085Z</time></trkpt><trkpt lat="44.9841386" lon="9.7887574"><ele>65.0</ele><time>2026-03-29T10:15:54.1Z</time></trkpt><trkpt lat="44.9842037" lon="9.7887799"><ele>65.00000000000001</ele><time>2026-03-29T10:15:55.089Z</time></trkpt><trkpt lat="44.9842687" lon="9.7887979"><ele>65.0</ele><time>2026-03-29T10:15:56.097Z</time></trkpt><trkpt lat="44.9843315" lon="9.7888239"><ele>64.5</ele><time>2026-03-29T10:15:57.098Z</time></trkpt><trkpt lat="44.9843927" lon="9.78885"><ele>64.0</ele><time>2026-03-29T10:15:58.094Z</time></trkpt><trkpt lat="44.9845123" lon="9.7888932"><ele>63.5</ele><time>2026-03-29T10:16:00.099Z</time></trkpt><trkpt lat="44.9845748" lon="9.7889163"><ele>63.0</ele><time>2026-03-29T10:16:01.089Z</time></trkpt><trkpt lat="44.9846394" lon="9.7889396"><ele>62.50000000000001</ele><time>2026-03-29T10:16:02.085Z</time></trkpt><trkpt lat="44.9847006" lon="9.7889613"><ele>62.0</ele><time>2026-03-29T10:16:03.091Z</time></trkpt><trkpt lat="44.9848263" lon="9.7889995"><ele>62.0</ele><time>2026-03-29T10:16:05.098Z</time></trkpt><trkpt lat="44.9848886" lon="9.7890225"><ele>62.00000000000001</ele><time>2026-03-29T10:16:06.087Z</time></trkpt><trkpt lat="44.9849498" lon="9.7890434"><ele>62.0</ele><time>2026-03-29T10:16:07.093Z</time></trkpt><trkpt lat="44.9850165" lon="9.7890634"><ele>62.0</ele><time>2026-03-29T10:16:08.072Z</time></trkpt><trkpt lat="44.9850829" lon="9.7890825"><ele>62.00000000000001</ele><time>2026-03-29T10:16:09.086Z</time></trkpt><trkpt lat="44.9851444" lon="9.789108"><ele>62.0</ele><time>2026-03-29T10:16:10.094Z</time></trkpt><trkpt lat="44.9852059" lon="9.7891316"><ele>62.0</ele><time>2026-03-29T10:16:11.113Z</time></trkpt><trkpt lat="44.9852684" lon="9.789156"><ele>62.28571428571429</ele><time>2026-03-29T10:16:12.094Z</time></trkpt><trkpt lat="44.9853296" lon="9.7891785"><ele>62.57142857142858</ele><time>2026-03-29T10:16:13.101Z</time></trkpt><trkpt lat="44.9853919" lon="9.7892"><ele>62.85714285714286</ele><time>2026-03-29T10:16:14.096Z</time></trkpt><trkpt lat="44.9854577" lon="9.78922"><ele>63.14285714285714</ele><time>2026-03-29T10:16:15.081Z</time></trkpt><trkpt lat="44.9855214" lon="9.7892359"><ele>63.42857142857142</ele><time>2026-03-29T10:16:16.092Z</time></trkpt><trkpt lat="44.9855868" lon="9.7892466"><ele>63.71428571428571</ele><time>2026-03-29T10:16:17.097Z</time></trkpt><trkpt lat="44.9856544" lon="9.7892411"><ele>64.0</ele><time>2026-03-29T10:16:18.088Z</time></trkpt><trkpt lat="44.985718" lon="9.7892192"><ele>63.99999999999999</ele><time>2026-03-29T10:16:19.094Z</time></trkpt><trkpt lat="44.9858346" lon="9.7891511"><ele>64.0</ele><time>2026-03-29T10:16:21.097Z</time></trkpt><trkpt lat="44.9858852" lon="9.7890964"><ele>64.0</ele><time>2026-03-29T10:16:22.097Z</time></trkpt><trkpt lat="44.9859327" lon="9.7890294"><ele>64.0</ele><time>2026-03-29T10:16:23.097Z</time></trkpt><trkpt lat="44.9859716" lon="9.7889502"><ele>63.99999999999999</ele><time>2026-03-29T10:16:24.093Z</time></trkpt><trkpt lat="44.985995" lon="9.788858"><ele>64.0</ele><time>2026-03-29T10:16:25.093Z</time></trkpt><trkpt lat="44.9860127" lon="9.7887666"><ele>64.28571428571428</ele><time>2026-03-29T10:16:26.094Z</time></trkpt><trkpt lat="44.9860273" lon="9.7886667"><ele>64.57142857142857</ele><time>2026-03-29T10:16:27.091Z</time></trkpt><trkpt lat="44.9860499" lon="9.7885748"><ele>64.85714285714286</ele><time>2026-03-29T10:16:28.085Z</time></trkpt><trkpt lat="44.9860664" lon="9.788477"><ele>65.14285714285714</ele><time>2026-03-29T10:16:29.083Z</time></trkpt><trkpt lat="44.9860826" lon="9.7883828"><ele>65.42857142857143</ele><time>2026-03-29T10:16:30.094Z</time></trkpt><trkpt lat="44.9861006" lon="9.7882963"><ele>65.71428571428571</ele><time>2026-03-29T10:16:31.092Z</time></trkpt><trkpt lat="44.9861146" lon="9.7882021"><ele>66.0</ele><time>2026-03-29T10:16:32.085Z</time></trkpt><trkpt lat="44.9861266" lon="9.7881134"><ele>66.0</ele><time>2026-03-29T10:16:33.108Z</time></trkpt><trkpt lat="44.9861403" lon="9.7880234"><ele>66.0</ele><time>2026-03-29T10:16:34.095Z</time></trkpt><trkpt lat="44.9861543" lon="9.7879307"><ele>66.0</ele><time>2026-03-29T10:16:35.084Z</time></trkpt><trkpt lat="44.9861684" lon="9.7878408"><ele>66.0</ele><time>2026-03-29T10:16:36.101Z</time></trkpt><trkpt lat="44.9861966" lon="9.7876624"><ele>66.0</ele><time>2026-03-29T10:16:38.102Z</time></trkpt><trkpt lat="44.9862163" lon="9.7875739"><ele>66.0</ele><time>2026-03-29T10:16:39.092Z</time></trkpt><trkpt lat="44.9862336" lon="9.7874845"><ele>65.39999999999999</ele><time>2026-03-29T10:16:40.089Z</time></trkpt><trkpt lat="44.9862545" lon="9.7873975"><ele>64.8</ele><time>2026-03-29T10:16:41.093Z</time></trkpt><trkpt lat="44.9863294" lon="9.7872504"><ele>64.19999999999999</ele><time>2026-03-29T10:16:43.101Z</time></trkpt><trkpt lat="44.9863841" lon="9.7871954"><ele>63.599999999999994</ele><time>2026-03-29T10:16:44.088Z</time></trkpt><trkpt lat="44.9864429" lon="9.7871484"><ele>63.0</ele><time>2026-03-29T10:16:45.087Z</time></trkpt><trkpt lat="44.9865675" lon="9.7871197"><ele>63.0</ele><time>2026-03-29T10:16:47.097Z</time></trkpt><trkpt lat="44.9866349" lon="9.7871318"><ele>63.0</ele><time>2026-03-29T10:16:48.092Z</time></trkpt><trkpt lat="44.9867646" lon="9.7871671"><ele>63.0</ele><time>2026-03-29T10:16:50.092Z</time></trkpt><trkpt lat="44.9868275" lon="9.7871839"><ele>63.0</ele><time>2026-03-29T10:16:51.098Z</time></trkpt><trkpt lat="44.9868934" lon="9.7872054"><ele>63.0</ele><time>2026-03-29T10:16:52.09Z</time></trkpt><trkpt lat="44.9869596" lon="9.7872272"><ele>63.0</ele><time>2026-03-29T10:16:53.111Z</time></trkpt><trkpt lat="44.987027" lon="9.787247"><ele>62.85714285714286</ele><time>2026-03-29T10:16:54.093Z</time></trkpt><trkpt lat="44.9870931" lon="9.7872659"><ele>62.714285714285715</ele><time>2026-03-29T10:16:55.084Z</time></trkpt><trkpt lat="44.9871618" lon="9.7872887"><ele>62.57142857142857</ele><time>2026-03-29T10:16:56.088Z</time></trkpt><trkpt lat="44.9872337" lon="9.7873139"><ele>62.42857142857143</ele><time>2026-03-29T10:16:57.096Z</time></trkpt><trkpt lat="44.9872999" lon="9.7873326"><ele>62.28571428571429</ele><time>2026-03-29T10:16:58.1Z</time></trkpt><trkpt lat="44.9873664" lon="9.7873527"><ele>62.142857142857146</ele><time>2026-03-29T10:16:59.061Z</time></trkpt><trkpt lat="44.9874356" lon="9.7873716"><ele>62.0</ele><time>2026-03-29T10:17:00.1Z</time></trkpt><trkpt lat="44.9875006" lon="9.787395"><ele>62.0</ele><time>2026-03-29T10:17:01.095Z</time></trkpt><trkpt lat="44.9875668" lon="9.7874214"><ele>62.00000000000001</ele><time>2026-03-29T10:17:02.102Z</time></trkpt><trkpt lat="44.9876344" lon="9.7874474"><ele>62.0</ele><time>2026-03-29T10:17:03.099Z</time></trkpt><trkpt lat="44.9877002" lon="9.7874658"><ele>62.0</ele><time>2026-03-29T10:17:04.096Z</time></trkpt><trkpt lat="44.9877692" lon="9.7874877"><ele>62.00000000000001</ele><time>2026-03-29T10:17:05.119Z</time></trkpt><trkpt lat="44.98784" lon="9.7875102"><ele>62.0</ele><time>2026-03-29T10:17:06.08Z</time></trkpt><trkpt lat="44.9879076" lon="9.7875322"><ele>62.0</ele><time>2026-03-29T10:17:07.095Z</time></trkpt><trkpt lat="44.9879755" lon="9.787557"><ele>62.0</ele><time>2026-03-29T10:17:08.11Z</time></trkpt><trkpt lat="44.9880447" lon="9.7875795"><ele>62.00000000000001</ele><time>2026-03-29T10:17:09.094Z</time></trkpt><trkpt lat="44.9881114" lon="9.7876049"><ele>62.0</ele><time>2026-03-29T10:17:10.091Z</time></trkpt><trkpt lat="44.9881788" lon="9.787635"><ele>62.0</ele><time>2026-03-29T10:17:11.053Z</time></trkpt><trkpt lat="44.988245" lon="9.7876622"><ele>62.00000000000001</ele><time>2026-03-29T10:17:12.077Z</time></trkpt><trkpt lat="44.9883154" lon="9.7876907"><ele>62.0</ele><time>2026-03-29T10:17:13.08Z</time></trkpt><trkpt lat="44.9883815" lon="9.7877166"><ele>62.0</ele><time>2026-03-29T10:17:14.091Z</time></trkpt><trkpt lat="44.9884466" lon="9.7877389"><ele>62.142857142857146</ele><time>2026-03-29T10:17:15.085Z</time></trkpt><trkpt lat="44.9885074" lon="9.7877633"><ele>62.28571428571429</ele><time>2026-03-29T10:17:16.09Z</time></trkpt><trkpt lat="44.9885763" lon="9.7877897"><ele>62.42857142857143</ele><time>2026-03-29T10:17:17.089Z</time></trkpt><trkpt lat="44.9886403" lon="9.7878119"><ele>62.57142857142857</ele><time>2026-03-29T10:17:18.101Z</time></trkpt><trkpt lat="44.9887076" lon="9.7878352"><ele>62.714285714285715</ele><time>2026-03-29T10:17:19.092Z</time></trkpt><trkpt lat="44.9887757" lon="9.7878588"><ele>62.85714285714286</ele><time>2026-03-29T10:17:20.097Z</time></trkpt><trkpt lat="44.9888379" lon="9.7878806"><ele>63.0</ele><time>2026-03-29T10:17:21.091Z</time></trkpt><trkpt lat="44.9889051" lon="9.7879065"><ele>63.0</ele><time>2026-03-29T10:17:22.104Z</time></trkpt><trkpt lat="44.9889711" lon="9.7879278"><ele>63.0</ele><time>2026-03-29T10:17:23.085Z</time></trkpt><trkpt lat="44.9890401" lon="9.7879482"><ele>63.0</ele><time>2026-03-29T10:17:24.092Z</time></trkpt><trkpt lat="44.989109" lon="9.7879631"><ele>63.0</ele><time>2026-03-29T10:17:25.094Z</time></trkpt><trkpt lat="44.9891775" lon="9.7879798"><ele>63.0</ele><time>2026-03-29T10:17:26.103Z</time></trkpt><trkpt lat="44.9892479" lon="9.7879971"><ele>63.0</ele><time>2026-03-29T10:17:27.095Z</time></trkpt><trkpt lat="44.9893189" lon="9.7880194"><ele>63.0</ele><time>2026-03-29T10:17:28.105Z</time></trkpt><trkpt lat="44.9893901" lon="9.7880363"><ele>63.0</ele><time>2026-03-29T10:17:29.087Z</time></trkpt><trkpt lat="44.9894582" lon="9.7880564"><ele>63.0</ele><time>2026-03-29T10:17:30.078Z</time></trkpt><trkpt lat="44.9895313" lon="9.788073"><ele>63.0</ele><time>2026-03-29T10:17:31.086Z</time></trkpt><trkpt lat="44.989601" lon="9.7880914"><ele>63.0</ele><time>2026-03-29T10:17:32.101Z</time></trkpt><trkpt lat="44.9896694" lon="9.7881108"><ele>63.0</ele><time>2026-03-29T10:17:33.1Z</time></trkpt><trkpt lat="44.9897392" lon="9.7881235"><ele>63.0</ele><time>2026-03-29T10:17:34.094Z</time></trkpt><trkpt lat="44.9898097" lon="9.7881388"><ele>63.0</ele><time>2026-03-29T10:17:35.097Z</time></trkpt><trkpt lat="44.9898783" lon="9.7881516"><ele>63.0</ele><time>2026-03-29T10:17:36.105Z</time></trkpt><trkpt lat="44.98995" lon="9.7881687"><ele>63.0</ele><time>2026-03-29T10:17:37.084Z</time></trkpt><trkpt lat="44.9900207" lon="9.788187"><ele>63.0</ele><time>2026-03-29T10:17:38.098Z</time></trkpt><trkpt lat="44.9900879" lon="9.7882028"><ele>63.0</ele><time>2026-03-29T10:17:39.101Z</time></trkpt><trkpt lat="44.990157" lon="9.7882174"><ele>63.0</ele><time>2026-03-29T10:17:40.1Z</time></trkpt><trkpt lat="44.9902239" lon="9.7882335"><ele>63.0</ele><time>2026-03-29T10:17:41.09Z</time></trkpt><trkpt lat="44.9902919" lon="9.7882458"><ele>63.0</ele><time>2026-03-29T10:17:42.087Z</time></trkpt><trkpt lat="44.9903583" lon="9.7882558"><ele>63.333333333333336</ele><time>2026-03-29T10:17:43.091Z</time></trkpt><trkpt lat="44.9904236" lon="9.7882687"><ele>63.66666666666667</ele><time>2026-03-29T10:17:44.095Z</time></trkpt><trkpt lat="44.9905459" lon="9.7883011"><ele>64.0</ele><time>2026-03-29T10:17:46.095Z</time></trkpt><trkpt lat="44.9906106" lon="9.7883181"><ele>64.33333333333334</ele><time>2026-03-29T10:17:47.094Z</time></trkpt><trkpt lat="44.9906745" lon="9.7883294"><ele>64.66666666666667</ele><time>2026-03-29T10:17:48.093Z</time></trkpt><trkpt lat="44.9907368" lon="9.7883465"><ele>65.0</ele><time>2026-03-29T10:17:49.092Z</time></trkpt><trkpt lat="44.9908027" lon="9.7883594"><ele>65.0</ele><time>2026-03-29T10:17:50.09Z</time></trkpt><trkpt lat="44.9908696" lon="9.7883745"><ele>65.0</ele><time>2026-03-29T10:17:51.097Z</time></trkpt><trkpt lat="44.9909954" lon="9.7883971"><ele>65.0</ele><time>2026-03-29T10:17:53.091Z</time></trkpt><trkpt lat="44.99106" lon="9.7884086"><ele>65.0</ele><time>2026-03-29T10:17:54.08Z</time></trkpt><trkpt lat="44.9911856" lon="9.788433"><ele>65.0</ele><time>2026-03-29T10:17:56.091Z</time></trkpt><trkpt lat="44.9912518" lon="9.7884393"><ele>65.0</ele><time>2026-03-29T10:17:57.1Z</time></trkpt><trkpt lat="44.9913184" lon="9.7884513"><ele>65.0</ele><time>2026-03-29T10:17:58.095Z</time></trkpt><trkpt lat="44.9913821" lon="9.7884637"><ele>65.0</ele><time>2026-03-29T10:17:59.077Z</time></trkpt><trkpt lat="44.9915064" lon="9.7884781"><ele>65.0</ele><time>2026-03-29T10:18:01.098Z</time></trkpt><trkpt lat="44.9916289" lon="9.7884967"><ele>65.0</ele><time>2026-03-29T10:18:03.087Z</time></trkpt><trkpt lat="44.991751" lon="9.7885217"><ele>64.75</ele><time>2026-03-29T10:18:05.088Z</time></trkpt><trkpt lat="44.9918657" lon="9.7885381"><ele>64.5</ele><time>2026-03-29T10:18:07.089Z</time></trkpt><trkpt lat="44.9919793" lon="9.7885569"><ele>64.25</ele><time>2026-03-29T10:18:09.102Z</time></trkpt><trkpt lat="44.9920913" lon="9.7885796"><ele>64.0</ele><time>2026-03-29T10:18:11.089Z</time></trkpt><trkpt lat="44.9922032" lon="9.7886037"><ele>64.0</ele><time>2026-03-29T10:18:13.096Z</time></trkpt><trkpt lat="44.9923174" lon="9.7886161"><ele>64.0</ele><time>2026-03-29T10:18:15.098Z</time></trkpt><trkpt lat="44.9924324" lon="9.7886464"><ele>64.0</ele><time>2026-03-29T10:18:17.104Z</time></trkpt><trkpt lat="44.9925424" lon="9.7886653"><ele>64.0</ele><time>2026-03-29T10:18:19.095Z</time></trkpt><trkpt lat="44.9926545" lon="9.7886883"><ele>64.0</ele><time>2026-03-29T10:18:21.077Z</time></trkpt><trkpt lat="44.9927626" lon="9.7887014"><ele>64.0</ele><time>2026-03-29T10:18:23.095Z</time></trkpt><trkpt lat="44.9928745" lon="9.788705"><ele>64.0</ele><time>2026-03-29T10:18:25.064Z</time></trkpt><trkpt lat="44.9929766" lon="9.7887096"><ele>64.0</ele><time>2026-03-29T10:18:27.045Z</time></trkpt><trkpt lat="44.9930726" lon="9.7887217"><ele>64.0</ele><time>2026-03-29T10:18:29.095Z</time></trkpt><trkpt lat="44.9931671" lon="9.78875"><ele>64.0</ele><time>2026-03-29T10:18:31.065Z</time></trkpt><trkpt lat="44.993254" lon="9.7887288"><ele>64.0</ele><time>2026-03-29T10:18:33.098Z</time></trkpt><trkpt lat="44.9932936" lon="9.7885978"><ele>64.0</ele><time>2026-03-29T10:18:35.076Z</time></trkpt><trkpt lat="44.9932895" lon="9.7884458"><ele>64.0</ele><time>2026-03-29T10:18:37.09Z</time></trkpt><trkpt lat="44.9933062" lon="9.788293"><ele>64.0</ele><time>2026-03-29T10:18:39.106Z</time></trkpt><trkpt lat="44.9933624" lon="9.7881384"><ele>64.25</ele><time>2026-03-29T10:18:41.069Z</time></trkpt><trkpt lat="44.9934351" lon="9.788029"><ele>64.5</ele><time>2026-03-29T10:18:43.085Z</time></trkpt><trkpt lat="44.9935117" lon="9.7879012"><ele>64.75</ele><time>2026-03-29T10:18:45.091Z</time></trkpt><trkpt lat="44.993583" lon="9.787771"><ele>65.0</ele><time>2026-03-29T10:18:47.094Z</time></trkpt><trkpt lat="44.9936519" lon="9.7876383"><ele>65.2</ele><time>2026-03-29T10:18:49.118Z</time></trkpt><trkpt lat="44.9937333" lon="9.7875206"><ele>65.4</ele><time>2026-03-29T10:18:51.099Z</time></trkpt><trkpt lat="44.9937782" lon="9.7874525"><ele>65.6</ele><time>2026-03-29T10:18:52.095Z</time></trkpt><trkpt lat="44.9938595" lon="9.7873223"><ele>65.8</ele><time>2026-03-29T10:18:54.093Z</time></trkpt><trkpt lat="44.9939022" lon="9.7872561"><ele>66.0</ele><time>2026-03-29T10:18:55.117Z</time></trkpt><trkpt lat="44.9939846" lon="9.787141"><ele>66.0</ele><time>2026-03-29T10:18:57.098Z</time></trkpt><trkpt lat="44.994066" lon="9.7870124"><ele>66.0</ele><time>2026-03-29T10:18:59.102Z</time></trkpt><trkpt lat="44.9941395" lon="9.786867"><ele>66.0</ele><time>2026-03-29T10:19:01.106Z</time></trkpt><trkpt lat="44.9941805" lon="9.7867904"><ele>66.0</ele><time>2026-03-29T10:19:02.09Z</time></trkpt><trkpt lat="44.994258" lon="9.786663"><ele>66.0</ele><time>2026-03-29T10:19:04.098Z</time></trkpt><trkpt lat="44.9943402" lon="9.7865369"><ele>66.5</ele><time>2026-03-29T10:19:06.092Z</time></trkpt><trkpt lat="44.9944177" lon="9.7864051"><ele>67.0</ele><time>2026-03-29T10:19:08.102Z</time></trkpt><trkpt lat="44.9944941" lon="9.7862718"><ele>67.5</ele><time>2026-03-29T10:19:10.092Z</time></trkpt><trkpt lat="44.9945728" lon="9.7861484"><ele>68.0</ele><time>2026-03-29T10:19:12.082Z</time></trkpt><trkpt lat="44.9946598" lon="9.7860383"><ele>68.0</ele><time>2026-03-29T10:19:14.096Z</time></trkpt><trkpt lat="44.9947702" lon="9.7860151"><ele>68.0</ele><time>2026-03-29T10:19:16.099Z</time></trkpt><trkpt lat="44.9948825" lon="9.7860632"><ele>68.0</ele><time>2026-03-29T10:19:18.096Z</time></trkpt><trkpt lat="44.994995" lon="9.7861177"><ele>68.0</ele><time>2026-03-29T10:19:20.087Z</time></trkpt><trkpt lat="44.9951078" lon="9.7861822"><ele>67.8</ele><time>2026-03-29T10:19:22.087Z</time></trkpt><trkpt lat="44.9952091" lon="9.7862543"><ele>67.6</ele><time>2026-03-29T10:19:24.103Z</time></trkpt><trkpt lat="44.9953112" lon="9.7863145"><ele>67.4</ele><time>2026-03-29T10:19:26.099Z</time></trkpt><trkpt lat="44.9954141" lon="9.7863749"><ele>67.2</ele><time>2026-03-29T10:19:28.101Z</time></trkpt><trkpt lat="44.995515" lon="9.7864301"><ele>67.0</ele><time>2026-03-29T10:19:30.094Z</time></trkpt><trkpt lat="44.995615" lon="9.7864886"><ele>67.0</ele><time>2026-03-29T10:19:32.104Z</time></trkpt><trkpt lat="44.9957227" lon="9.7865335"><ele>67.0</ele><time>2026-03-29T10:19:34.098Z</time></trkpt><trkpt lat="44.9958194" lon="9.7866226"><ele>67.0</ele><time>2026-03-29T10:19:36.104Z</time></trkpt><trkpt lat="44.995915" lon="9.7867187"><ele>67.0</ele><time>2026-03-29T10:19:38.107Z</time></trkpt><trkpt lat="44.9960227" lon="9.7868008"><ele>66.8</ele><time>2026-03-29T10:19:40.115Z</time></trkpt><trkpt lat="44.9961186" lon="9.7868765"><ele>66.6</ele><time>2026-03-29T10:19:42.104Z</time></trkpt><trkpt lat="44.9962158" lon="9.7869689"><ele>66.39999999999999</ele><time>2026-03-29T10:19:44.09Z</time></trkpt><trkpt lat="44.9963043" lon="9.7870623"><ele>66.2</ele><time>2026-03-29T10:19:46.1Z</time></trkpt><trkpt lat="44.9963855" lon="9.7871613"><ele>66.0</ele><time>2026-03-29T10:19:48.102Z</time></trkpt><trkpt lat="44.9964741" lon="9.7872654"><ele>66.0</ele><time>2026-03-29T10:19:50.094Z</time></trkpt><trkpt lat="44.9965579" lon="9.7873786"><ele>66.0</ele><time>2026-03-29T10:19:52.105Z</time></trkpt><trkpt lat="44.9966442" lon="9.7874814"><ele>66.0</ele><time>2026-03-29T10:19:54.087Z</time></trkpt><trkpt lat="44.9967303" lon="9.7875882"><ele>66.0</ele><time>2026-03-29T10:19:56.095Z</time></trkpt><trkpt lat="44.9968081" lon="9.7876847"><ele>66.0</ele><time>2026-03-29T10:19:58.106Z</time></trkpt><trkpt lat="44.9968922" lon="9.78779"><ele>66.2</ele><time>2026-03-29T10:20:00.101Z</time></trkpt><trkpt lat="44.9969695" lon="9.7878844"><ele>66.39999999999999</ele><time>2026-03-29T10:20:02.097Z</time></trkpt><trkpt lat="44.9970467" lon="9.7879756"><ele>66.6</ele><time>2026-03-29T10:20:04.093Z</time></trkpt><trkpt lat="44.997125" lon="9.788058"><ele>66.8</ele><time>2026-03-29T10:20:06.09Z</time></trkpt><trkpt lat="44.9971874" lon="9.7881476"><ele>67.0</ele><time>2026-03-29T10:20:08.093Z</time></trkpt><trkpt lat="44.9972186" lon="9.7882362"><ele>67.0</ele><time>2026-03-29T10:20:10.085Z</time></trkpt><trkpt lat="44.9971699" lon="9.7883268"><ele>67.0</ele><time>2026-03-29T10:20:13.095Z</time></trkpt><trkpt lat="44.997082" lon="9.7880937"><ele>67.0</ele><time>2026-03-29T10:21:06.132Z</time></trkpt></trkseg></trk></gpx>